GFSSGP_prec_precacc24_027.txt.gz
Total_Precipitation_Accumulation
0.00 0.00 0.00 0.00 0.00 0.00 0.00 0.00 0.00 0.00 0.00 0.00 0.00 0.00 0.00 0.00 0.00 0.00 0.00 0.00 0.00 0.00 0.00 0.00 0.02 0.05 0.02 0.00 0.00 0.00 0.00 0.00 0.00 0.02 0.06 0.02 0.00 0.00 0.01 0.01 0.00 0.00 0.00 0.00 0.00 0.00 0.00 0.00 0.00
0.00 0.00 0.00 0.00 0.00 0.00 0.00 0.00 0.00 0.00 0.00 0.00 0.00 0.00 0.00 0.00 0.00 0.00 0.00 0.00 0.00 0.00 0.00 0.00 0.02 0.04 0.01 0.01 0.00 0.00 0.00 0.00 0.00 0.04 0.02 0.00 0.00 0.00 0.00 0.00 0.00 0.00 0.00 0.00 0.00 0.00 0.00 0.00 0.00
0.00 0.00 0.00 0.00 0.00 0.00 0.00 0.00 0.00 0.00 0.00 0.00 0.00 0.00 0.00 0.00 0.00 0.00 0.00 0.00 0.00 0.00 0.00 0.00 0.02 0.02 0.02 0.00 0.00 0.00 0.00 0.00 0.01 0.02 0.00 0.01 0.01 0.01 0.01 0.00 0.00 0.00 0.00 0.00 0.00 0.00 0.00 0.00 0.00
0.00 0.00 0.00 0.00 0.00 0.00 0.00 0.00 0.00 0.00 0.00 0.00 0.00 0.00 0.00 0.00 0.00 0.00 0.00 0.00 0.00 0.00 0.00 0.00 0.02 0.02 0.00 0.00 0.00 0.00 0.00 0.00 0.00 0.00 0.00 0.00 0.02 0.04 0.05 0.01 0.00 0.00 0.00 0.00 0.00 0.00 0.00 0.00 0.00
0.00 0.00 0.00 0.00 0.00 0.00 0.00 0.00 0.00 0.00 0.00 0.00 0.00 0.00 0.00 0.00 0.00 0.00 0.00 0.00 0.00 0.00 0.00 0.00 0.02 0.02 0.00 0.00 0.00 0.00 0.00 0.00 0.00 0.00 0.00 0.01 0.03 0.06 0.09 0.02 0.00 0.00 0.00 0.00 0.00 0.00 0.00 0.00 0.00
0.00 0.00 0.00 0.00 0.00 0.00 0.00 0.00 0.00 0.00 0.00 0.00 0.00 0.00 0.00 0.00 0.00 0.00 0.00 0.00 0.00 0.00 0.00 0.00 0.02 0.03 0.00 0.00 0.00 0.00 0.00 0.00 0.00 0.00 0.00 0.00 0.01 0.04 0.07 0.03 0.00 0.00 0.00 0.00 0.00 0.00 0.00 0.00 0.00
0.00 0.00 0.00 0.00 0.00 0.00 0.00 0.00 0.00 0.00 0.00 0.00 0.00 0.00 0.00 0.00 0.00 0.00 0.00 0.00 0.00 0.00 0.00 0.00 0.02 0.02 0.01 0.00 0.00 0.00 0.00 0.00 0.00 0.00 0.00 0.00 0.00 0.02 0.06 0.02 0.00 0.00 0.00 0.00 0.00 0.00 0.00 0.00 0.01
0.00 0.00 0.00 0.00 0.00 0.00 0.00 0.00 0.00 0.00 0.00 0.00 0.00 0.00 0.00 0.00 0.00 0.00 0.00 0.00 0.00 0.00 0.00 0.00 0.00 0.02 0.01 0.00 0.00 0.00 0.00 0.00 0.00 0.00 0.00 0.00 0.00 0.00 0.01 0.00 0.00 0.00 0.00 0.00 0.00 0.01 0.03 0.03 0.02
0.00 0.00 0.00 0.00 0.00 0.00 0.00 0.00 0.00 0.00 0.00 0.00 0.00 0.00 0.00 0.00 0.00 0.00 0.00 0.00 0.00 0.00 0.00 0.00 0.00 0.00 0.01 0.00 0.00 0.00 0.00 0.00 0.00 0.00 0.00 0.00 0.00 0.00 0.00 0.00 0.00 0.00 0.00 0.00 0.00 0.01 0.03 0.02 0.01
0.00 0.00 0.00 0.00 0.00 0.00 0.00 0.00 0.00 0.00 0.00 0.00 0.00 0.00 0.00 0.00 0.00 0.00 0.00 0.00 0.00 0.00 0.00 0.00 0.00 0.00 0.00 0.00 0.00 0.00 0.00 0.00 0.00 0.00 0.00 0.00 0.00 0.00 0.00 0.00 0.00 0.00 0.00 0.00 0.00 0.01 0.01 0.01 0.00
0.00 0.00 0.00 0.00 0.00 0.00 0.00 0.00 0.00 0.00 0.00 0.00 0.00 0.00 0.00 0.00 0.00 0.00 0.00 0.00 0.00 0.00 0.00 0.00 0.00 0.00 0.00 0.00 0.00 0.00 0.00 0.00 0.00 0.00 0.00 0.00 0.00 0.00 0.00 0.00 0.00 0.00 0.00 0.00 0.00 0.00 0.00 0.00 0.00
0.00 0.00 0.00 0.00 0.00 0.00 0.00 0.00 0.00 0.00 0.00 0.00 0.00 0.00 0.00 0.00 0.00 0.00 0.00 0.00 0.00 0.00 0.00 0.00 0.00 0.00 0.00 0.00 0.00 0.00 0.00 0.00 0.00 0.00 0.00 0.00 0.00 0.00 0.00 0.00 0.00 0.00 0.00 0.00 0.00 0.00 0.00 0.00 0.00
0.00 0.00 0.00 0.00 0.00 0.00 0.00 0.00 0.00 0.00 0.00 0.00 0.00 0.00 0.00 0.00 0.00 0.00 0.00 0.00 0.00 0.00 0.00 0.00 0.00 0.00 0.00 0.00 0.00 0.00 0.00 0.00 0.00 0.00 0.00 0.00 0.00 0.00 0.00 0.00 0.00 0.00 0.00 0.00 0.00 0.00 0.00 0.00 0.00
0.00 0.00 0.00 0.00 0.00 0.00 0.00 0.00 0.00 0.00 0.00 0.00 0.00 0.00 0.00 0.00 0.00 0.00 0.00 0.00 0.00 0.00 0.00 0.00 0.00 0.00 0.00 0.00 0.00 0.00 0.00 0.00 0.00 0.00 0.00 0.00 0.00 0.00 0.00 0.00 0.00 0.00 0.00 0.00 0.00 0.00 0.00 0.00 0.00
0.01 0.03 0.01 0.00 0.00 0.00 0.00 0.00 0.00 0.00 0.00 0.00 0.00 0.00 0.00 0.00 0.00 0.00 0.00 0.00 0.00 0.00 0.00 0.00 0.00 0.00 0.00 0.00 0.00 0.00 0.00 0.00 0.00 0.00 0.00 0.00 0.00 0.00 0.00 0.00 0.00 0.00 0.00 0.00 0.00 0.00 0.00 0.00 0.00
0.06 0.08 0.02 0.00 0.00 0.00 0.00 0.00 0.00 0.00 0.00 0.00 0.00 0.00 0.00 0.00 0.00 0.00 0.00 0.00 0.00 0.00 0.00 0.00 0.00 0.00 0.00 0.00 0.00 0.00 0.01 0.02 0.01 0.00 0.00 0.00 0.00 0.00 0.00 0.00 0.00 0.00 0.00 0.00 0.00 0.00 0.00 0.00 0.00
0.07 0.03 0.01 0.00 0.00 0.00 0.00 0.00 0.00 0.00 0.00 0.00 0.00 0.00 0.00 0.00 0.00 0.00 0.00 0.00 0.00 0.00 0.00 0.00 0.00 0.00 0.00 0.00 0.00 0.03 0.02 0.01 0.01 0.01 0.00 0.00 0.00 0.00 0.00 0.00 0.00 0.00 0.00 0.00 0.00 0.00 0.00 0.00 0.00
0.03 0.02 0.01 0.01 0.00 0.01 0.00 0.00 0.00 0.00 0.00 0.00 0.00 0.00 0.00 0.00 0.00 0.00 0.00 0.00 0.00 0.00 0.00 0.00 0.00 0.00 0.00 0.00 0.05 0.05 0.02 0.02 0.01 0.00 0.00 0.00 0.00 0.00 0.00 0.00 0.00 0.00 0.00 0.00 0.00 0.00 0.00 0.00 0.00
0.01 0.04 0.03 0.00 0.01 0.02 0.00 0.00 0.00 0.00 0.00 0.00 0.00 0.00 0.00 0.00 0.00 0.00 0.00 0.00 0.00 0.00 0.00 0.00 0.00 0.00 0.00 0.00 0.03 0.04 0.06 0.07 0.06 0.01 0.00 0.00 0.00 0.00 0.00 0.00 0.00 0.00 0.00 0.00 0.00 0.00 0.00 0.00 0.00
0.06 0.08 0.04 0.02 0.02 0.04 0.01 0.00 0.00 0.00 0.00 0.00 0.00 0.00 0.00 0.00 0.00 0.00 0.00 0.00 0.00 0.00 0.00 0.00 0.00 0.00 0.00 0.00 0.02 0.05 0.07 0.07 0.07 0.05 0.01 0.00 0.00 0.00 0.00 0.00 0.00 0.00 0.00 0.00 0.00 0.00 0.00 0.00 0.00
0.06 0.11 0.09 0.04 0.06 0.05 0.04 0.01 0.00 0.00 0.00 0.00 0.00 0.00 0.00 0.00 0.00 0.00 0.00 0.00 0.00 0.00 0.00 0.00 0.00 0.00 0.00 0.00 0.03 0.04 0.03 0.02 0.02 0.01 0.02 0.01 0.00 0.00 0.00 0.00 0.00 0.00 0.00 0.00 0.00 0.00 0.00 0.00 0.00
0.05 0.05 0.11 0.16 0.15 0.03 0.06 0.03 0.00 0.00 0.00 0.00 0.00 0.00 0.00 0.00 0.00 0.00 0.00 0.00 0.00 0.00 0.00 0.00 0.00 0.00 0.00 0.00 0.02 0.05 0.03 0.04 0.03 0.03 0.02 0.01 0.00 0.00 0.00 0.00 0.00 0.00 0.00 0.00 0.00 0.00 0.00 0.00 0.00
0.08 0.06 0.11 0.23 0.35 0.34 0.07 0.09 0.01 0.00 0.00 0.00 0.00 0.00 0.00 0.00 0.00 0.00 0.00 0.00 0.00 0.00 0.00 0.00 0.00 0.00 0.00 0.00 0.03 0.07 0.04 0.02 0.02 0.01 0.01 0.00 0.00 0.00 0.00 0.00 0.00 0.00 0.00 0.00 0.00 0.00 0.00 0.00 0.00
0.12 0.21 0.24 0.46 0.48 0.68 0.30 0.07 0.01 0.00 0.00 0.00 0.00 0.00 0.00 0.00 0.00 0.00 0.00 0.00 0.00 0.00 0.00 0.00 0.00 0.00 0.00 0.00 0.00 0.03 0.04 0.02 0.01 0.00 0.00 0.00 0.00 0.00 0.00 0.00 0.00 0.00 0.00 0.00 0.00 0.00 0.00 0.00 0.00
0.33 0.52 0.76 0.70 0.88 0.42 0.15 0.16 0.06 0.00 0.00 0.00 0.00 0.00 0.00 0.00 0.00 0.00 0.00 0.00 0.00 0.00 0.00 0.00 0.00 0.00 0.00 0.00 0.00 0.01 0.02 0.02 0.01 0.01 0.02 0.01 0.00 0.00 0.00 0.00 0.00 0.00 0.00 0.00 0.00 0.00 0.00 0.00 0.00
0.42 0.50 0.60 0.35 0.28 0.17 0.08 0.26 0.05 0.00 0.00 0.00 0.00 0.00 0.00 0.00 0.00 0.00 0.00 0.00 0.00 0.00 0.00 0.00 0.00 0.00 0.00 0.00 0.00 0.00 0.01 0.01 0.02 0.01 0.00 0.01 0.00 0.00 0.00 0.00 0.00 0.00 0.00 0.00 0.00 0.00 0.00 0.00 0.00
0.57 0.61 0.35 0.50 0.18 0.27 0.09 0.08 0.04 0.01 0.00 0.00 0.00 0.00 0.00 0.00 0.00 0.00 0.00 0.00 0.00 0.00 0.00 0.00 0.00 0.00 0.00 0.00 0.00 0.00 0.01 0.01 0.01 0.01 0.00 0.00 0.00 0.00 0.00 0.00 0.00 0.00 0.00 0.00 0.00 0.00 0.00 0.00 0.00
0.47 0.31 0.48 1.02 0.61 0.19 0.06 0.02 0.04 0.00 0.00 0.00 0.00 0.00 0.00 0.00 0.00 0.00 0.00 0.00 0.00 0.00 0.00 0.00 0.00 0.00 0.00 0.00 0.00 0.00 0.01 0.01 0.00 0.00 0.00 0.00 0.00 0.00 0.00 0.00 0.00 0.00 0.00 0.00 0.00 0.00 0.00 0.00 0.00
0.48 0.55 0.37 0.51 0.43 0.25 0.10 0.02 0.00 0.00 0.01 0.01 0.01 0.00 0.00 0.00 0.00 0.00 0.00 0.00 0.00 0.00 0.00 0.00 0.00 0.00 0.00 0.00 0.00 0.00 0.00 0.01 0.01 0.00 0.00 0.00 0.00 0.00 0.00 0.00 0.00 0.00 0.00 0.00 0.00 0.00 0.00 0.00 0.00
0.18 0.23 0.18 0.64 0.42 0.36 0.31 0.12 0.00 0.01 0.01 0.01 0.01 0.01 0.01 0.01 0.00 0.00 0.00 0.00 0.00 0.00 0.00 0.00 0.00 0.00 0.00 0.00 0.00 0.00 0.00 0.00 0.00 0.00 0.00 0.00 0.00 0.00 0.00 0.00 0.00 0.00 0.00 0.00 0.00 0.00 0.00 0.00 0.00

GFSSGP_prec_precacc24_030.txt.gz
Total_Precipitation_Accumulation
0.00 0.00 0.00 0.00 0.00 0.00 0.00 0.00 0.00 0.00 0.00 0.00 0.00 0.00 0.00 0.00 0.00 0.00 0.00 0.00 0.00 0.00 0.00 0.00 0.02 0.04 0.01 0.00 0.00 0.00 0.00 0.00 0.00 0.03 0.07 0.03 0.00 0.00 0.01 0.01 0.00 0.00 0.00 0.00 0.00 0.00 0.00 0.00 0.00
0.00 0.00 0.00 0.00 0.00 0.00 0.00 0.00 0.00 0.00 0.00 0.00 0.00 0.00 0.00 0.00 0.00 0.00 0.00 0.00 0.00 0.00 0.00 0.00 0.02 0.03 0.00 0.00 0.00 0.00 0.00 0.00 0.00 0.05 0.02 0.00 0.00 0.00 0.00 0.00 0.00 0.00 0.00 0.00 0.00 0.00 0.00 0.00 0.00
0.00 0.00 0.00 0.00 0.00 0.00 0.00 0.00 0.00 0.00 0.00 0.00 0.00 0.00 0.00 0.00 0.00 0.00 0.00 0.00 0.00 0.00 0.00 0.00 0.01 0.02 0.01 0.00 0.00 0.00 0.00 0.00 0.01 0.02 0.00 0.00 0.01 0.01 0.00 0.00 0.00 0.00 0.00 0.00 0.00 0.00 0.00 0.00 0.00
0.00 0.00 0.00 0.00 0.00 0.00 0.00 0.00 0.00 0.00 0.00 0.00 0.00 0.00 0.00 0.00 0.00 0.00 0.00 0.00 0.00 0.00 0.00 0.00 0.02 0.02 0.00 0.00 0.00 0.00 0.00 0.00 0.01 0.00 0.00 0.00 0.02 0.03 0.03 0.00 0.00 0.00 0.00 0.00 0.00 0.00 0.00 0.00 0.00
0.00 0.00 0.00 0.00 0.00 0.00 0.00 0.00 0.00 0.00 0.00 0.00 0.00 0.00 0.00 0.00 0.00 0.00 0.00 0.00 0.00 0.00 0.00 0.00 0.02 0.02 0.00 0.00 0.00 0.00 0.00 0.00 0.00 0.00 0.00 0.01 0.03 0.04 0.07 0.01 0.00 0.00 0.00 0.00 0.00 0.00 0.00 0.00 0.00
0.00 0.00 0.00 0.00 0.00 0.00 0.00 0.00 0.00 0.00 0.00 0.00 0.00 0.00 0.00 0.00 0.00 0.00 0.00 0.00 0.00 0.00 0.00 0.00 0.02 0.03 0.01 0.00 0.00 0.00 0.00 0.00 0.00 0.00 0.00 0.00 0.01 0.03 0.05 0.02 0.00 0.00 0.00 0.00 0.00 0.00 0.00 0.00 0.00
0.00 0.00 0.00 0.00 0.00 0.00 0.00 0.00 0.00 0.00 0.00 0.00 0.00 0.00 0.00 0.00 0.00 0.00 0.00 0.00 0.00 0.00 0.00 0.00 0.02 0.02 0.01 0.00 0.00 0.00 0.00 0.00 0.00 0.00 0.00 0.00 0.00 0.02 0.06 0.02 0.00 0.00 0.00 0.00 0.00 0.00 0.00 0.01 0.01
0.00 0.00 0.00 0.00 0.00 0.00 0.00 0.00 0.00 0.00 0.00 0.00 0.00 0.00 0.00 0.00 0.00 0.00 0.00 0.00 0.00 0.00 0.00 0.00 0.00 0.02 0.02 0.00 0.00 0.00 0.00 0.00 0.00 0.00 0.00 0.00 0.00 0.01 0.02 0.00 0.00 0.00 0.00 0.00 0.00 0.01 0.03 0.03 0.02
0.00 0.00 0.00 0.00 0.00 0.00 0.00 0.00 0.00 0.00 0.00 0.00 0.00 0.00 0.00 0.00 0.00 0.00 0.00 0.00 0.00 0.00 0.00 0.00 0.00 0.00 0.01 0.00 0.00 0.00 0.00 0.00 0.00 0.00 0.00 0.00 0.00 0.00 0.00 0.00 0.00 0.00 0.00 0.00 0.00 0.01 0.03 0.02 0.01
0.00 0.00 0.00 0.00 0.00 0.00 0.00 0.00 0.00 0.00 0.00 0.00 0.00 0.00 0.00 0.00 0.00 0.00 0.00 0.00 0.00 0.00 0.00 0.00 0.00 0.00 0.01 0.00 0.00 0.00 0.00 0.00 0.00 0.00 0.00 0.00 0.00 0.00 0.00 0.00 0.00 0.00 0.00 0.00 0.00 0.01 0.01 0.01 0.00
0.00 0.00 0.00 0.00 0.00 0.00 0.00 0.00 0.00 0.00 0.00 0.00 0.00 0.00 0.00 0.00 0.00 0.00 0.00 0.00 0.00 0.00 0.00 0.00 0.00 0.00 0.00 0.00 0.00 0.00 0.00 0.00 0.00 0.00 0.00 0.00 0.00 0.00 0.00 0.00 0.00 0.00 0.00 0.00 0.00 0.00 0.00 0.00 0.00
0.00 0.00 0.00 0.00 0.00 0.00 0.00 0.00 0.00 0.00 0.00 0.00 0.00 0.00 0.00 0.00 0.00 0.00 0.00 0.00 0.00 0.00 0.00 0.00 0.00 0.00 0.00 0.00 0.00 0.00 0.00 0.00 0.00 0.00 0.00 0.00 0.00 0.00 0.00 0.00 0.00 0.00 0.00 0.00 0.00 0.00 0.00 0.00 0.00
0.00 0.00 0.00 0.00 0.00 0.00 0.00 0.00 0.00 0.00 0.00 0.00 0.00 0.00 0.00 0.00 0.00 0.00 0.00 0.00 0.01 0.00 0.00 0.00 0.00 0.00 0.00 0.00 0.00 0.00 0.00 0.00 0.00 0.00 0.00 0.00 0.00 0.00 0.00 0.00 0.00 0.00 0.00 0.00 0.00 0.00 0.00 0.00 0.00
0.00 0.00 0.00 0.00 0.00 0.00 0.00 0.00 0.00 0.00 0.00 0.00 0.00 0.00 0.00 0.00 0.00 0.00 0.00 0.00 0.00 0.00 0.00 0.00 0.00 0.00 0.00 0.00 0.00 0.00 0.00 0.00 0.00 0.00 0.00 0.00 0.00 0.00 0.00 0.00 0.00 0.00 0.00 0.00 0.00 0.00 0.00 0.00 0.00
0.00 0.01 0.00 0.00 0.00 0.00 0.00 0.00 0.00 0.00 0.00 0.00 0.00 0.00 0.00 0.00 0.00 0.00 0.00 0.00 0.00 0.00 0.00 0.00 0.00 0.00 0.00 0.00 0.00 0.00 0.00 0.00 0.00 0.00 0.00 0.00 0.00 0.00 0.00 0.00 0.00 0.00 0.00 0.00 0.00 0.00 0.00 0.00 0.00
0.01 0.02 0.00 0.00 0.00 0.00 0.00 0.00 0.00 0.00 0.00 0.00 0.00 0.00 0.00 0.00 0.00 0.00 0.00 0.00 0.00 0.00 0.00 0.00 0.00 0.00 0.00 0.00 0.00 0.00 0.01 0.02 0.03 0.01 0.00 0.00 0.00 0.00 0.00 0.00 0.00 0.00 0.00 0.00 0.00 0.00 0.00 0.00 0.00
0.01 0.01 0.00 0.00 0.00 0.00 0.00 0.00 0.00 0.00 0.00 0.00 0.00 0.00 0.00 0.00 0.00 0.00 0.00 0.00 0.00 0.00 0.00 0.00 0.00 0.00 0.00 0.00 0.00 0.03 0.02 0.01 0.02 0.01 0.00 0.00 0.00 0.00 0.00 0.00 0.00 0.00 0.00 0.00 0.00 0.00 0.00 0.00 0.00
0.01 0.01 0.00 0.00 0.00 0.01 0.00 0.00 0.00 0.00 0.00 0.00 0.00 0.00 0.00 0.00 0.00 0.00 0.00 0.00 0.00 0.00 0.00 0.00 0.00 0.00 0.00 0.00 0.05 0.05 0.02 0.02 0.02 0.00 0.00 0.00 0.00 0.00 0.00 0.00 0.00 0.00 0.00 0.00 0.00 0.00 0.00 0.00 0.00
0.00 0.00 0.01 0.00 0.00 0.02 0.00 0.00 0.00 0.00 0.00 0.00 0.00 0.00 0.00 0.00 0.00 0.00 0.00 0.00 0.00 0.00 0.00 0.00 0.00 0.00 0.00 0.00 0.03 0.04 0.06 0.07 0.06 0.02 0.00 0.00 0.00 0.00 0.00 0.00 0.00 0.00 0.00 0.00 0.00 0.00 0.00 0.00 0.00
0.00 0.00 0.00 0.00 0.01 0.04 0.01 0.00 0.00 0.00 0.00 0.00 0.00 0.00 0.00 0.00 0.00 0.00 0.00 0.00 0.00 0.00 0.00 0.00 0.00 0.00 0.00 0.00 0.02 0.06 0.09 0.09 0.07 0.05 0.02 0.01 0.00 0.00 0.00 0.00 0.00 0.00 0.00 0.00 0.00 0.00 0.00 0.00 0.00
0.00 0.00 0.00 0.00 0.03 0.04 0.04 0.01 0.00 0.00 0.00 0.00 0.00 0.00 0.00 0.00 0.00 0.00 0.00 0.00 0.00 0.00 0.00 0.00 0.00 0.00 0.00 0.00 0.03 0.04 0.03 0.03 0.02 0.02 0.04 0.03 0.02 0.00 0.00 0.00 0.00 0.00 0.00 0.00 0.00 0.00 0.00 0.00 0.00
0.00 0.00 0.00 0.01 0.07 0.02 0.06 0.03 0.00 0.00 0.00 0.00 0.00 0.00 0.00 0.00 0.00 0.00 0.00 0.00 0.00 0.00 0.00 0.00 0.00 0.00 0.00 0.00 0.02 0.05 0.04 0.04 0.04 0.04 0.04 0.03 0.01 0.00 0.00 0.00 0.00 0.00 0.00 0.00 0.00 0.00 0.00 0.00 0.00
0.00 0.00 0.01 0.04 0.29 0.28 0.06 0.09 0.01 0.00 0.00 0.00 0.00 0.00 0.00 0.00 0.00 0.00 0.00 0.00 0.00 0.00 0.00 0.00 0.00 0.00 0.00 0.00 0.03 0.07 0.04 0.02 0.02 0.01 0.01 0.01 0.01 0.01 0.00 0.00 0.00 0.00 0.00 0.00 0.00 0.00 0.00 0.00 0.00
0.01 0.04 0.06 0.17 0.31 0.62 0.24 0.07 0.01 0.00 0.00 0.00 0.00 0.00 0.00 0.00 0.00 0.00 0.00 0.00 0.00 0.00 0.00 0.00 0.00 0.00 0.00 0.00 0.00 0.03 0.04 0.02 0.01 0.00 0.01 0.03 0.03 0.01 0.00 0.00 0.00 0.00 0.00 0.00 0.00 0.00 0.00 0.00 0.00
0.04 0.17 0.26 0.38 0.67 0.36 0.14 0.16 0.06 0.00 0.00 0.00 0.00 0.00 0.00 0.00 0.00 0.00 0.00 0.00 0.00 0.00 0.00 0.00 0.00 0.00 0.00 0.00 0.00 0.01 0.02 0.02 0.01 0.02 0.03 0.03 0.02 0.01 0.00 0.00 0.00 0.00 0.00 0.00 0.00 0.00 0.00 0.00 0.00
0.04 0.07 0.24 0.16 0.19 0.17 0.08 0.26 0.05 0.00 0.00 0.00 0.00 0.00 0.00 0.00 0.00 0.00 0.00 0.00 0.00 0.00 0.00 0.00 0.00 0.00 0.00 0.00 0.00 0.00 0.01 0.01 0.02 0.02 0.02 0.03 0.04 0.02 0.01 0.00 0.00 0.00 0.00 0.00 0.00 0.00 0.00 0.00 0.00
0.21 0.23 0.15 0.44 0.18 0.27 0.09 0.08 0.04 0.01 0.00 0.00 0.00 0.00 0.00 0.00 0.00 0.00 0.00 0.00 0.00 0.00 0.00 0.00 0.00 0.00 0.00 0.00 0.00 0.00 0.01 0.01 0.01 0.02 0.02 0.02 0.01 0.01 0.00 0.00 0.00 0.00 0.00 0.00 0.00 0.00 0.00 0.00 0.00
0.17 0.10 0.31 0.96 0.60 0.18 0.05 0.02 0.04 0.00 0.00 0.00 0.00 0.00 0.00 0.00 0.00 0.00 0.00 0.00 0.00 0.00 0.00 0.00 0.00 0.00 0.00 0.00 0.00 0.00 0.01 0.01 0.01 0.01 0.01 0.01 0.00 0.00 0.00 0.00 0.00 0.00 0.00 0.00 0.00 0.00 0.00 0.00 0.00
0.24 0.30 0.29 0.47 0.42 0.24 0.09 0.02 0.00 0.00 0.01 0.01 0.01 0.00 0.00 0.00 0.00 0.00 0.00 0.00 0.00 0.00 0.00 0.00 0.00 0.00 0.00 0.00 0.00 0.00 0.00 0.01 0.01 0.01 0.00 0.01 0.01 0.00 0.00 0.00 0.00 0.00 0.00 0.00 0.00 0.00 0.00 0.00 0.00
0.07 0.17 0.16 0.63 0.41 0.36 0.31 0.12 0.00 0.01 0.01 0.01 0.01 0.01 0.01 0.01 0.00 0.00 0.00 0.00 0.00 0.00 0.00 0.00 0.00 0.00 0.00 0.00 0.00 0.00 0.01 0.01 0.01 0.01 0.01 0.01 0.01 0.00 0.00 0.00 0.00 0.00 0.00 0.00 0.00 0.00 0.00 0.00 0.00

GFSSGP_prec_precacc24_036.txt.gz
Total_Precipitation_Accumulation
0.00 0.00 0.00 0.00 0.00 0.00 0.00 0.00 0.00 0.00 0.00 0.00 0.00 0.00 0.00 0.00 0.00 0.00 0.00 0.00 0.00 0.00 0.00 0.00 0.02 0.03 0.01 0.00 0.00 0.00 0.00 0.00 0.00 0.04 0.08 0.03 0.00 0.00 0.01 0.00 0.00 0.00 0.00 0.00 0.00 0.00 0.00 0.00 0.00
0.00 0.00 0.00 0.00 0.00 0.00 0.00 0.00 0.00 0.00 0.00 0.00 0.00 0.00 0.00 0.00 0.00 0.00 0.00 0.00 0.00 0.00 0.00 0.00 0.02 0.03 0.00 0.00 0.00 0.00 0.00 0.00 0.01 0.06 0.02 0.00 0.00 0.00 0.00 0.00 0.00 0.00 0.00 0.00 0.00 0.00 0.00 0.00 0.00
0.00 0.00 0.00 0.00 0.00 0.00 0.00 0.00 0.00 0.00 0.00 0.00 0.00 0.00 0.00 0.00 0.00 0.00 0.00 0.00 0.00 0.00 0.00 0.00 0.01 0.02 0.00 0.00 0.00 0.00 0.00 0.00 0.02 0.02 0.00 0.00 0.00 0.00 0.00 0.00 0.00 0.00 0.00 0.00 0.00 0.00 0.00 0.00 0.00
0.00 0.00 0.00 0.00 0.00 0.00 0.00 0.00 0.00 0.00 0.00 0.00 0.00 0.00 0.00 0.00 0.00 0.00 0.00 0.00 0.00 0.00 0.00 0.00 0.02 0.02 0.00 0.00 0.00 0.00 0.00 0.00 0.01 0.00 0.00 0.00 0.01 0.01 0.00 0.00 0.00 0.00 0.00 0.00 0.00 0.00 0.00 0.00 0.00
0.00 0.00 0.00 0.00 0.00 0.00 0.00 0.00 0.00 0.00 0.00 0.00 0.00 0.00 0.00 0.00 0.00 0.00 0.00 0.00 0.00 0.00 0.00 0.00 0.02 0.02 0.00 0.00 0.00 0.00 0.00 0.00 0.00 0.00 0.00 0.01 0.02 0.03 0.04 0.01 0.00 0.00 0.00 0.00 0.00 0.00 0.00 0.00 0.00
0.00 0.00 0.00 0.00 0.00 0.00 0.00 0.00 0.00 0.00 0.00 0.00 0.00 0.00 0.00 0.00 0.00 0.00 0.00 0.00 0.00 0.00 0.00 0.00 0.02 0.03 0.01 0.00 0.00 0.00 0.00 0.00 0.00 0.00 0.00 0.00 0.01 0.03 0.05 0.02 0.00 0.00 0.00 0.00 0.00 0.00 0.00 0.00 0.00
0.00 0.00 0.00 0.00 0.00 0.00 0.00 0.00 0.00 0.00 0.00 0.00 0.00 0.00 0.00 0.00 0.00 0.00 0.00 0.00 0.00 0.00 0.00 0.00 0.02 0.02 0.01 0.00 0.00 0.00 0.00 0.00 0.00 0.00 0.00 0.00 0.00 0.02 0.06 0.02 0.00 0.00 0.00 0.00 0.00 0.00 0.00 0.01 0.01
0.00 0.00 0.00 0.00 0.00 0.00 0.00 0.00 0.00 0.00 0.00 0.00 0.00 0.00 0.00 0.00 0.00 0.00 0.00 0.00 0.00 0.00 0.00 0.00 0.00 0.02 0.02 0.00 0.00 0.00 0.00 0.00 0.00 0.00 0.00 0.00 0.00 0.01 0.02 0.00 0.00 0.00 0.00 0.00 0.00 0.01 0.03 0.03 0.02
0.00 0.00 0.00 0.00 0.00 0.00 0.00 0.00 0.00 0.00 0.00 0.00 0.00 0.00 0.00 0.00 0.00 0.00 0.00 0.00 0.00 0.00 0.01 0.01 0.00 0.00 0.01 0.00 0.00 0.00 0.00 0.00 0.00 0.00 0.00 0.00 0.00 0.00 0.00 0.00 0.00 0.00 0.00 0.00 0.00 0.01 0.03 0.02 0.01
0.00 0.00 0.00 0.00 0.00 0.00 0.00 0.00 0.00 0.00 0.00 0.00 0.00 0.00 0.00 0.00 0.00 0.00 0.00 0.00 0.00 0.00 0.01 0.00 0.00 0.00 0.01 0.00 0.00 0.00 0.00 0.00 0.00 0.00 0.00 0.00 0.00 0.00 0.00 0.00 0.00 0.00 0.00 0.00 0.00 0.01 0.01 0.01 0.00
0.00 0.00 0.00 0.00 0.00 0.00 0.00 0.00 0.00 0.00 0.00 0.00 0.00 0.00 0.00 0.00 0.00 0.00 0.00 0.00 0.00 0.00 0.00 0.00 0.00 0.00 0.00 0.00 0.00 0.00 0.00 0.00 0.00 0.00 0.00 0.00 0.00 0.00 0.00 0.00 0.00 0.00 0.00 0.00 0.00 0.00 0.00 0.00 0.00
0.00 0.00 0.00 0.00 0.00 0.00 0.00 0.00 0.00 0.00 0.00 0.00 0.00 0.00 0.00 0.00 0.00 0.00 0.00 0.00 0.00 0.00 0.00 0.00 0.00 0.00 0.00 0.00 0.00 0.00 0.00 0.00 0.00 0.00 0.00 0.00 0.00 0.00 0.00 0.00 0.00 0.00 0.00 0.00 0.00 0.00 0.00 0.00 0.00
0.00 0.00 0.00 0.00 0.00 0.00 0.00 0.00 0.00 0.00 0.00 0.00 0.00 0.00 0.00 0.00 0.00 0.00 0.00 0.00 0.01 0.00 0.00 0.00 0.00 0.00 0.00 0.00 0.00 0.00 0.00 0.00 0.00 0.00 0.00 0.00 0.00 0.00 0.00 0.00 0.00 0.00 0.00 0.00 0.00 0.00 0.00 0.00 0.00
0.00 0.00 0.00 0.00 0.00 0.00 0.00 0.00 0.00 0.00 0.00 0.00 0.00 0.00 0.00 0.00 0.00 0.00 0.00 0.00 0.00 0.00 0.00 0.00 0.00 0.00 0.00 0.00 0.00 0.00 0.00 0.00 0.00 0.00 0.00 0.00 0.00 0.00 0.00 0.00 0.00 0.00 0.00 0.00 0.00 0.00 0.00 0.00 0.00
0.00 0.00 0.00 0.00 0.00 0.00 0.00 0.00 0.00 0.00 0.00 0.00 0.00 0.00 0.00 0.00 0.00 0.00 0.00 0.00 0.00 0.00 0.00 0.00 0.00 0.00 0.00 0.00 0.01 0.00 0.00 0.00 0.00 0.00 0.00 0.00 0.00 0.00 0.00 0.00 0.00 0.00 0.00 0.00 0.00 0.00 0.00 0.00 0.00
0.00 0.00 0.00 0.00 0.00 0.00 0.00 0.00 0.00 0.00 0.00 0.00 0.00 0.00 0.00 0.00 0.00 0.00 0.00 0.00 0.00 0.00 0.00 0.00 0.00 0.00 0.00 0.00 0.02 0.01 0.01 0.02 0.04 0.01 0.00 0.00 0.00 0.00 0.00 0.00 0.00 0.00 0.00 0.00 0.00 0.00 0.00 0.00 0.00
0.00 0.00 0.00 0.00 0.00 0.00 0.00 0.00 0.00 0.00 0.00 0.00 0.00 0.00 0.00 0.00 0.00 0.00 0.00 0.00 0.00 0.00 0.00 0.00 0.00 0.00 0.00 0.00 0.02 0.06 0.05 0.02 0.04 0.02 0.00 0.00 0.00 0.00 0.00 0.00 0.00 0.00 0.00 0.00 0.00 0.00 0.00 0.00 0.00
0.00 0.00 0.00 0.00 0.00 0.00 0.00 0.00 0.00 0.00 0.00 0.00 0.00 0.00 0.00 0.00 0.00 0.00 0.00 0.00 0.00 0.00 0.00 0.00 0.00 0.00 0.03 0.04 0.09 0.15 0.14 0.04 0.04 0.01 0.00 0.00 0.00 0.00 0.00 0.00 0.00 0.00 0.00 0.00 0.00 0.00 0.00 0.00 0.00
0.00 0.00 0.00 0.00 0.00 0.00 0.00 0.00 0.00 0.00 0.00 0.00 0.00 0.00 0.00 0.00 0.00 0.00 0.00 0.00 0.00 0.00 0.00 0.00 0.00 0.00 0.02 0.02 0.05 0.12 0.16 0.08 0.08 0.03 0.00 0.00 0.01 0.02 0.01 0.00 0.00 0.00 0.00 0.00 0.00 0.00 0.00 0.00 0.00
0.00 0.00 0.00 0.00 0.00 0.00 0.00 0.00 0.00 0.00 0.00 0.00 0.00 0.00 0.00 0.00 0.00 0.00 0.00 0.00 0.00 0.00 0.00 0.00 0.00 0.00 0.00 0.02 0.04 0.14 0.23 0.20 0.20 0.10 0.03 0.02 0.04 0.05 0.03 0.00 0.00 0.00 0.00 0.00 0.00 0.00 0.00 0.00 0.00
0.00 0.00 0.00 0.00 0.00 0.00 0.00 0.00 0.00 0.00 0.00 0.00 0.00 0.00 0.00 0.00 0.00 0.00 0.00 0.00 0.00 0.00 0.00 0.00 0.00 0.00 0.01 0.02 0.07 0.14 0.16 0.17 0.16 0.08 0.05 0.07 0.14 0.09 0.06 0.01 0.00 0.00 0.00 0.00 0.00 0.00 0.00 0.00 0.00
0.00 0.00 0.00 0.00 0.01 0.00 0.00 0.00 0.00 0.00 0.00 0.00 0.00 0.00 0.00 0.00 0.00 0.00 0.00 0.00 0.00 0.00 0.00 0.00 0.00 0.00 0.00 0.00 0.04 0.07 0.07 0.08 0.08 0.08 0.16 0.19 0.15 0.10 0.04 0.01 0.02 0.01 0.00 0.00 0.00 0.00 0.00 0.00 0.00
0.00 0.00 0.00 0.00 0.01 0.03 0.00 0.02 0.00 0.00 0.00 0.00 0.00 0.00 0.00 0.00 0.00 0.00 0.00 0.00 0.00 0.00 0.00 0.00 0.00 0.00 0.00 0.00 0.03 0.08 0.05 0.05 0.05 0.07 0.10 0.12 0.14 0.09 0.07 0.04 0.02 0.01 0.00 0.00 0.00 0.00 0.00 0.00 0.00
0.00 0.02 0.03 0.05 0.08 0.11 0.00 0.01 0.00 0.00 0.00 0.00 0.00 0.00 0.00 0.00 0.00 0.00 0.00 0.00 0.00 0.00 0.00 0.00 0.00 0.00 0.00 0.00 0.00 0.03 0.04 0.03 0.02 0.03 0.06 0.08 0.12 0.09 0.06 0.05 0.04 0.02 0.00 0.00 0.00 0.00 0.00 0.00 0.00
0.02 0.13 0.17 0.18 0.22 0.06 0.00 0.00 0.00 0.00 0.00 0.00 0.00 0.00 0.00 0.00 0.00 0.00 0.00 0.00 0.00 0.00 0.00 0.00 0.00 0.00 0.00 0.00 0.00 0.02 0.04 0.02 0.03 0.04 0.06 0.06 0.07 0.06 0.04 0.04 0.03 0.02 0.01 0.01 0.00 0.00 0.00 0.00 0.00
0.02 0.04 0.12 0.06 0.01 0.00 0.00 0.00 0.00 0.00 0.00 0.00 0.00 0.00 0.00 0.00 0.00 0.00 0.00 0.00 0.00 0.00 0.00 0.00 0.00 0.00 0.00 0.00 0.00 0.00 0.01 0.02 0.05 0.05 0.05 0.06 0.07 0.06 0.04 0.04 0.04 0.02 0.01 0.01 0.00 0.00 0.00 0.00 0.00
0.15 0.17 0.06 0.12 0.09 0.18 0.01 0.00 0.00 0.00 0.00 0.00 0.00 0.00 0.00 0.00 0.00 0.00 0.00 0.00 0.00 0.00 0.00 0.00 0.00 0.00 0.00 0.01 0.01 0.01 0.01 0.03 0.04 0.04 0.05 0.05 0.05 0.05 0.05 0.05 0.03 0.02 0.01 0.01 0.00 0.00 0.00 0.00 0.00
0.04 0.05 0.16 0.45 0.22 0.10 0.00 0.00 0.00 0.00 0.00 0.00 0.00 0.00 0.00 0.00 0.00 0.00 0.00 0.00 0.00 0.00 0.00 0.00 0.00 0.00 0.00 0.03 0.03 0.01 0.04 0.04 0.03 0.03 0.03 0.04 0.04 0.04 0.04 0.04 0.02 0.02 0.01 0.00 0.00 0.00 0.00 0.00 0.00
0.01 0.07 0.11 0.15 0.13 0.04 0.01 0.00 0.00 0.00 0.00 0.00 0.00 0.00 0.00 0.00 0.00 0.00 0.00 0.00 0.00 0.00 0.00 0.00 0.00 0.00 0.01 0.02 0.00 0.00 0.02 0.04 0.03 0.03 0.03 0.03 0.04 0.02 0.02 0.01 0.02 0.01 0.01 0.01 0.02 0.03 0.01 0.00 0.00
0.02 0.00 0.05 0.31 0.09 0.16 0.16 0.07 0.00 0.00 0.01 0.00 0.01 0.01 0.01 0.01 0.00 0.00 0.00 0.00 0.00 0.00 0.00 0.00 0.00 0.01 0.02 0.01 0.00 0.01 0.04 0.04 0.03 0.03 0.03 0.03 0.03 0.02 0.02 0.02 0.01 0.01 0.02 0.05 0.08 0.07 0.01 0.00 0.00

GFSSGP_prec_precacc24_039.txt.gz
Total_Precipitation_Accumulation
0.00 0.00 0.00 0.00 0.00 0.00 0.00 0.00 0.00 0.00 0.00 0.00 0.00 0.00 0.00 0.00 0.00 0.00 0.00 0.00 0.00 0.00 0.00 0.00 0.02 0.03 0.01 0.00 0.00 0.00 0.00 0.00 0.00 0.04 0.08 0.03 0.00 0.00 0.01 0.00 0.00 0.00 0.01 0.04 0.04 0.03 0.00 0.00 0.00
0.00 0.00 0.00 0.00 0.00 0.00 0.00 0.00 0.00 0.00 0.00 0.00 0.00 0.00 0.00 0.00 0.00 0.00 0.00 0.00 0.00 0.00 0.00 0.00 0.02 0.03 0.00 0.00 0.00 0.00 0.00 0.00 0.02 0.06 0.02 0.00 0.00 0.00 0.00 0.00 0.00 0.00 0.00 0.00 0.00 0.00 0.00 0.00 0.00
0.00 0.00 0.00 0.00 0.00 0.00 0.00 0.00 0.00 0.00 0.00 0.00 0.00 0.00 0.00 0.00 0.00 0.00 0.00 0.00 0.00 0.00 0.00 0.00 0.02 0.02 0.00 0.00 0.00 0.00 0.00 0.00 0.02 0.02 0.00 0.00 0.00 0.00 0.00 0.00 0.00 0.00 0.00 0.00 0.00 0.00 0.00 0.00 0.00
0.00 0.00 0.00 0.00 0.00 0.00 0.00 0.00 0.00 0.00 0.00 0.00 0.00 0.00 0.00 0.00 0.00 0.00 0.00 0.00 0.00 0.00 0.00 0.00 0.02 0.02 0.00 0.00 0.00 0.00 0.00 0.01 0.01 0.00 0.00 0.00 0.00 0.00 0.00 0.00 0.00 0.00 0.00 0.00 0.00 0.00 0.00 0.00 0.00
0.00 0.00 0.00 0.00 0.00 0.00 0.00 0.00 0.00 0.00 0.00 0.00 0.00 0.00 0.00 0.00 0.00 0.00 0.00 0.00 0.00 0.00 0.00 0.00 0.02 0.02 0.00 0.00 0.00 0.00 0.01 0.00 0.00 0.00 0.00 0.01 0.02 0.02 0.03 0.01 0.00 0.00 0.00 0.00 0.00 0.00 0.00 0.00 0.00
0.00 0.00 0.00 0.00 0.00 0.00 0.00 0.00 0.00 0.00 0.00 0.00 0.00 0.00 0.00 0.00 0.00 0.00 0.00 0.00 0.00 0.00 0.00 0.00 0.02 0.03 0.01 0.00 0.00 0.00 0.00 0.00 0.00 0.00 0.00 0.00 0.01 0.03 0.04 0.02 0.00 0.00 0.00 0.00 0.00 0.00 0.00 0.00 0.00
0.00 0.00 0.00 0.00 0.00 0.00 0.00 0.00 0.00 0.00 0.00 0.00 0.00 0.00 0.00 0.00 0.00 0.00 0.00 0.00 0.00 0.00 0.00 0.00 0.02 0.02 0.01 0.00 0.00 0.00 0.00 0.00 0.00 0.00 0.00 0.00 0.00 0.02 0.05 0.01 0.00 0.00 0.00 0.00 0.00 0.00 0.00 0.01 0.01
0.00 0.00 0.00 0.00 0.00 0.00 0.00 0.00 0.00 0.00 0.00 0.00 0.00 0.00 0.00 0.00 0.00 0.00 0.00 0.00 0.00 0.00 0.01 0.00 0.00 0.02 0.02 0.00 0.00 0.00 0.00 0.00 0.00 0.00 0.00 0.00 0.00 0.01 0.02 0.00 0.00 0.00 0.00 0.00 0.00 0.01 0.03 0.03 0.02
0.00 0.00 0.00 0.00 0.00 0.00 0.00 0.00 0.00 0.00 0.00 0.00 0.00 0.00 0.00 0.00 0.00 0.00 0.00 0.00 0.00 0.02 0.04 0.03 0.02 0.01 0.01 0.00 0.00 0.00 0.00 0.00 0.00 0.00 0.00 0.00 0.00 0.00 0.00 0.00 0.00 0.00 0.00 0.00 0.00 0.01 0.02 0.01 0.00
0.00 0.00 0.00 0.00 0.00 0.00 0.00 0.00 0.00 0.00 0.00 0.00 0.00 0.00 0.00 0.00 0.00 0.00 0.00 0.00 0.00 0.02 0.04 0.02 0.01 0.00 0.01 0.00 0.00 0.00 0.00 0.00 0.00 0.00 0.00 0.00 0.00 0.00 0.00 0.00 0.00 0.00 0.00 0.00 0.00 0.00 0.00 0.00 0.00
0.00 0.00 0.00 0.00 0.00 0.00 0.00 0.00 0.00 0.00 0.00 0.00 0.00 0.00 0.00 0.00 0.00 0.00 0.00 0.00 0.00 0.01 0.00 0.00 0.00 0.00 0.00 0.00 0.00 0.00 0.00 0.00 0.00 0.00 0.00 0.00 0.00 0.00 0.00 0.00 0.00 0.00 0.00 0.00 0.00 0.00 0.00 0.00 0.00
0.00 0.00 0.00 0.00 0.00 0.00 0.00 0.00 0.00 0.00 0.00 0.00 0.00 0.00 0.00 0.00 0.00 0.00 0.00 0.00 0.00 0.00 0.00 0.00 0.00 0.00 0.00 0.00 0.00 0.00 0.00 0.00 0.00 0.00 0.00 0.00 0.00 0.00 0.00 0.00 0.00 0.00 0.00 0.00 0.00 0.00 0.00 0.00 0.00
0.00 0.00 0.00 0.00 0.00 0.00 0.00 0.00 0.00 0.00 0.00 0.00 0.00 0.00 0.00 0.00 0.00 0.00 0.00 0.00 0.01 0.00 0.00 0.00 0.00 0.00 0.00 0.00 0.00 0.00 0.00 0.00 0.00 0.00 0.00 0.00 0.00 0.00 0.00 0.00 0.00 0.00 0.00 0.00 0.00 0.00 0.00 0.00 0.00
0.00 0.00 0.00 0.00 0.00 0.00 0.00 0.00 0.00 0.00 0.00 0.00 0.00 0.00 0.00 0.00 0.00 0.00 0.00 0.00 0.00 0.00 0.00 0.00 0.00 0.00 0.00 0.00 0.00 0.00 0.00 0.00 0.00 0.00 0.00 0.00 0.00 0.00 0.00 0.00 0.00 0.00 0.00 0.00 0.00 0.00 0.00 0.00 0.00
0.00 0.00 0.00 0.00 0.00 0.00 0.00 0.00 0.00 0.00 0.00 0.00 0.00 0.00 0.00 0.00 0.00 0.00 0.00 0.00 0.00 0.00 0.00 0.00 0.00 0.00 0.00 0.00 0.01 0.01 0.02 0.00 0.00 0.00 0.00 0.00 0.00 0.00 0.00 0.00 0.00 0.00 0.00 0.00 0.00 0.00 0.00 0.00 0.00
0.00 0.00 0.00 0.00 0.00 0.00 0.00 0.00 0.00 0.00 0.00 0.00 0.00 0.00 0.00 0.00 0.00 0.00 0.00 0.00 0.00 0.00 0.00 0.00 0.01 0.02 0.00 0.00 0.03 0.04 0.05 0.02 0.04 0.01 0.00 0.00 0.00 0.00 0.00 0.00 0.00 0.00 0.00 0.00 0.00 0.00 0.00 0.00 0.00
0.00 0.00 0.00 0.00 0.00 0.00 0.00 0.00 0.00 0.00 0.00 0.00 0.00 0.00 0.00 0.00 0.00 0.00 0.00 0.00 0.00 0.00 0.00 0.00 0.00 0.01 0.01 0.01 0.05 0.10 0.10 0.03 0.06 0.02 0.00 0.00 0.00 0.00 0.00 0.00 0.00 0.00 0.00 0.00 0.00 0.00 0.00 0.00 0.00
0.00 0.00 0.00 0.00 0.00 0.00 0.00 0.00 0.00 0.00 0.00 0.00 0.00 0.00 0.00 0.00 0.00 0.00 0.00 0.00 0.00 0.00 0.00 0.00 0.00 0.00 0.03 0.08 0.14 0.18 0.16 0.06 0.06 0.01 0.00 0.00 0.00 0.00 0.00 0.00 0.00 0.00 0.00 0.00 0.00 0.00 0.00 0.00 0.00
0.00 0.00 0.00 0.00 0.00 0.00 0.00 0.00 0.00 0.00 0.00 0.00 0.00 0.00 0.00 0.00 0.00 0.00 0.00 0.00 0.00 0.00 0.00 0.00 0.00 0.00 0.02 0.03 0.06 0.13 0.17 0.10 0.11 0.04 0.00 0.01 0.04 0.07 0.04 0.00 0.00 0.00 0.00 0.00 0.00 0.00 0.00 0.00 0.00
0.00 0.00 0.00 0.00 0.00 0.00 0.00 0.00 0.00 0.00 0.00 0.00 0.00 0.00 0.00 0.00 0.00 0.00 0.00 0.00 0.00 0.00 0.00 0.00 0.00 0.00 0.00 0.02 0.04 0.14 0.25 0.21 0.22 0.13 0.04 0.03 0.07 0.14 0.08 0.01 0.00 0.00 0.00 0.00 0.00 0.00 0.00 0.00 0.00
0.00 0.00 0.00 0.00 0.00 0.00 0.00 0.00 0.00 0.00 0.00 0.00 0.00 0.00 0.00 0.00 0.00 0.00 0.00 0.00 0.00 0.00 0.00 0.00 0.00 0.00 0.01 0.02 0.07 0.15 0.17 0.20 0.19 0.09 0.05 0.07 0.21 0.19 0.16 0.05 0.00 0.00 0.00 0.00 0.00 0.00 0.00 0.00 0.00
0.00 0.00 0.00 0.00 0.00 0.00 0.00 0.00 0.00 0.00 0.00 0.00 0.00 0.00 0.00 0.00 0.00 0.00 0.00 0.00 0.00 0.00 0.00 0.00 0.00 0.00 0.00 0.00 0.04 0.07 0.07 0.08 0.08 0.08 0.18 0.22 0.21 0.19 0.15 0.09 0.05 0.04 0.01 0.01 0.01 0.00 0.00 0.00 0.00
0.00 0.00 0.00 0.00 0.01 0.02 0.00 0.02 0.00 0.00 0.00 0.00 0.00 0.00 0.00 0.00 0.00 0.00 0.00 0.00 0.00 0.00 0.00 0.00 0.00 0.00 0.00 0.00 0.03 0.09 0.06 0.05 0.05 0.07 0.11 0.14 0.17 0.14 0.13 0.11 0.07 0.06 0.07 0.05 0.02 0.00 0.00 0.00 0.00
0.00 0.01 0.01 0.03 0.06 0.09 0.00 0.00 0.00 0.00 0.00 0.00 0.00 0.00 0.00 0.00 0.00 0.00 0.00 0.00 0.00 0.00 0.00 0.00 0.00 0.00 0.00 0.00 0.00 0.03 0.05 0.03 0.02 0.03 0.08 0.10 0.14 0.12 0.09 0.09 0.09 0.07 0.05 0.04 0.02 0.01 0.00 0.00 0.00
0.02 0.11 0.13 0.14 0.18 0.05 0.00 0.00 0.00 0.00 0.00 0.00 0.00 0.00 0.00 0.00 0.00 0.00 0.00 0.00 0.00 0.00 0.00 0.00 0.00 0.00 0.00 0.00 0.00 0.02 0.04 0.02 0.03 0.06 0.11 0.10 0.09 0.07 0.05 0.07 0.08 0.06 0.04 0.03 0.02 0.02 0.01 0.00 0.00
0.01 0.03 0.09 0.03 0.00 0.00 0.00 0.00 0.00 0.00 0.00 0.00 0.00 0.00 0.00 0.00 0.00 0.00 0.00 0.00 0.00 0.00 0.00 0.00 0.00 0.00 0.00 0.00 0.00 0.00 0.01 0.02 0.05 0.06 0.05 0.07 0.10 0.09 0.06 0.07 0.07 0.05 0.04 0.03 0.02 0.02 0.01 0.01 0.00
0.08 0.09 0.04 0.10 0.07 0.13 0.01 0.00 0.00 0.00 0.00 0.00 0.00 0.00 0.00 0.00 0.00 0.00 0.00 0.00 0.00 0.00 0.00 0.00 0.00 0.00 0.00 0.01 0.01 0.01 0.01 0.03 0.04 0.04 0.05 0.05 0.05 0.07 0.07 0.07 0.06 0.05 0.03 0.02 0.01 0.01 0.01 0.00 0.00
0.04 0.03 0.13 0.34 0.16 0.08 0.00 0.00 0.00 0.00 0.00 0.00 0.00 0.00 0.00 0.00 0.00 0.00 0.00 0.00 0.00 0.00 0.00 0.00 0.00 0.00 0.00 0.03 0.03 0.01 0.04 0.04 0.03 0.03 0.03 0.04 0.05 0.06 0.07 0.06 0.05 0.04 0.02 0.01 0.00 0.01 0.01 0.01 0.01
0.01 0.04 0.08 0.14 0.12 0.03 0.01 0.00 0.00 0.00 0.00 0.00 0.00 0.00 0.00 0.00 0.00 0.00 0.00 0.00 0.00 0.00 0.00 0.00 0.00 0.00 0.01 0.02 0.00 0.00 0.02 0.04 0.03 0.03 0.03 0.04 0.05 0.03 0.03 0.03 0.03 0.02 0.01 0.01 0.02 0.03 0.04 0.04 0.03
0.01 0.00 0.04 0.28 0.09 0.15 0.14 0.06 0.00 0.00 0.01 0.00 0.00 0.00 0.00 0.00 0.00 0.00 0.00 0.00 0.00 0.00 0.00 0.00 0.00 0.01 0.02 0.01 0.00 0.01 0.04 0.04 0.04 0.04 0.04 0.05 0.06 0.05 0.04 0.03 0.02 0.01 0.02 0.05 0.09 0.13 0.12 0.10 0.08

GFSSGP_prec_precacc24_042.txt.gz
Total_Precipitation_Accumulation
0.00 0.00 0.00 0.00 0.00 0.00 0.00 0.00 0.00 0.00 0.00 0.00 0.00 0.00 0.00 0.00 0.00 0.00 0.00 0.00 0.00 0.00 0.00 0.00 0.02 0.03 0.02 0.01 0.02 0.01 0.01 0.00 0.00 0.04 0.07 0.02 0.00 0.00 0.00 0.01 0.01 0.03 0.05 0.09 0.13 0.07 0.00 0.00 0.00
0.00 0.00 0.00 0.00 0.00 0.00 0.00 0.00 0.00 0.00 0.00 0.00 0.00 0.00 0.00 0.00 0.00 0.00 0.00 0.00 0.00 0.00 0.00 0.00 0.02 0.02 0.01 0.01 0.01 0.00 0.01 0.01 0.02 0.06 0.02 0.00 0.00 0.00 0.00 0.00 0.00 0.01 0.01 0.01 0.00 0.00 0.00 0.00 0.00
0.00 0.00 0.00 0.00 0.00 0.00 0.00 0.00 0.00 0.00 0.00 0.00 0.00 0.00 0.00 0.00 0.00 0.00 0.00 0.00 0.00 0.00 0.00 0.00 0.02 0.02 0.01 0.01 0.00 0.00 0.00 0.01 0.02 0.02 0.00 0.00 0.00 0.00 0.00 0.00 0.00 0.00 0.00 0.00 0.00 0.00 0.00 0.00 0.00
0.00 0.00 0.00 0.00 0.00 0.00 0.00 0.00 0.00 0.00 0.00 0.00 0.00 0.00 0.00 0.00 0.00 0.00 0.00 0.00 0.00 0.00 0.00 0.00 0.02 0.02 0.01 0.00 0.00 0.00 0.00 0.01 0.01 0.00 0.00 0.00 0.00 0.00 0.00 0.00 0.00 0.00 0.00 0.00 0.00 0.00 0.00 0.00 0.00
0.00 0.00 0.00 0.00 0.00 0.00 0.00 0.00 0.00 0.00 0.00 0.00 0.00 0.00 0.00 0.00 0.00 0.00 0.00 0.00 0.00 0.00 0.00 0.00 0.02 0.02 0.00 0.00 0.00 0.00 0.01 0.01 0.00 0.00 0.00 0.00 0.01 0.01 0.02 0.00 0.00 0.00 0.00 0.00 0.00 0.00 0.00 0.00 0.00
0.00 0.00 0.00 0.00 0.00 0.00 0.00 0.00 0.00 0.00 0.00 0.00 0.00 0.00 0.00 0.00 0.00 0.00 0.00 0.00 0.00 0.00 0.00 0.00 0.02 0.03 0.01 0.00 0.00 0.00 0.01 0.00 0.00 0.00 0.00 0.00 0.01 0.02 0.03 0.01 0.00 0.00 0.00 0.00 0.00 0.00 0.00 0.00 0.00
0.00 0.00 0.00 0.00 0.00 0.00 0.00 0.00 0.00 0.00 0.00 0.00 0.00 0.00 0.00 0.00 0.00 0.00 0.00 0.00 0.00 0.00 0.00 0.00 0.02 0.02 0.01 0.00 0.00 0.00 0.01 0.00 0.00 0.00 0.00 0.00 0.00 0.02 0.04 0.01 0.00 0.00 0.00 0.00 0.00 0.00 0.00 0.01 0.01
0.00 0.00 0.00 0.00 0.00 0.00 0.00 0.00 0.00 0.00 0.00 0.00 0.00 0.00 0.00 0.00 0.00 0.00 0.00 0.00 0.00 0.00 0.01 0.00 0.00 0.02 0.02 0.00 0.00 0.00 0.01 0.00 0.00 0.00 0.00 0.00 0.00 0.01 0.02 0.00 0.00 0.00 0.00 0.00 0.00 0.01 0.03 0.03 0.01
0.00 0.00 0.00 0.00 0.00 0.00 0.00 0.00 0.00 0.00 0.00 0.00 0.00 0.00 0.00 0.00 0.00 0.00 0.00 0.00 0.00 0.02 0.04 0.03 0.02 0.01 0.01 0.00 0.00 0.00 0.01 0.00 0.00 0.00 0.00 0.00 0.00 0.00 0.00 0.00 0.00 0.00 0.00 0.00 0.00 0.01 0.01 0.00 0.00
0.00 0.00 0.00 0.00 0.00 0.00 0.00 0.00 0.00 0.00 0.00 0.00 0.00 0.00 0.00 0.00 0.00 0.00 0.00 0.00 0.00 0.02 0.04 0.02 0.01 0.00 0.01 0.00 0.00 0.00 0.00 0.00 0.00 0.00 0.00 0.00 0.00 0.00 0.00 0.00 0.00 0.00 0.00 0.00 0.00 0.00 0.00 0.00 0.00
0.00 0.00 0.00 0.00 0.00 0.00 0.00 0.00 0.00 0.00 0.00 0.00 0.00 0.00 0.00 0.00 0.00 0.00 0.00 0.01 0.01 0.01 0.00 0.00 0.00 0.00 0.00 0.00 0.00 0.00 0.00 0.00 0.00 0.00 0.00 0.00 0.00 0.00 0.00 0.00 0.00 0.00 0.00 0.00 0.00 0.00 0.00 0.00 0.00
0.00 0.00 0.00 0.00 0.00 0.00 0.00 0.00 0.00 0.00 0.00 0.00 0.00 0.00 0.00 0.00 0.00 0.00 0.00 0.01 0.01 0.00 0.00 0.00 0.00 0.00 0.00 0.00 0.00 0.00 0.00 0.00 0.00 0.00 0.00 0.00 0.00 0.00 0.00 0.00 0.00 0.00 0.00 0.00 0.00 0.00 0.00 0.00 0.00
0.00 0.00 0.00 0.00 0.00 0.00 0.00 0.00 0.00 0.00 0.00 0.00 0.00 0.00 0.00 0.00 0.00 0.00 0.00 0.00 0.01 0.00 0.00 0.00 0.00 0.00 0.00 0.00 0.00 0.00 0.00 0.00 0.00 0.00 0.00 0.00 0.00 0.00 0.00 0.00 0.00 0.00 0.00 0.00 0.00 0.00 0.00 0.00 0.00
0.00 0.00 0.00 0.00 0.00 0.00 0.00 0.00 0.00 0.00 0.00 0.00 0.00 0.00 0.00 0.00 0.00 0.00 0.00 0.00 0.00 0.00 0.00 0.01 0.00 0.00 0.00 0.00 0.00 0.00 0.00 0.00 0.00 0.00 0.00 0.00 0.00 0.00 0.00 0.00 0.00 0.00 0.00 0.00 0.00 0.00 0.00 0.00 0.00
0.00 0.00 0.00 0.00 0.00 0.00 0.00 0.00 0.00 0.00 0.00 0.00 0.00 0.00 0.00 0.00 0.00 0.00 0.00 0.00 0.00 0.00 0.00 0.01 0.01 0.00 0.00 0.00 0.01 0.02 0.03 0.00 0.00 0.00 0.00 0.00 0.00 0.00 0.00 0.00 0.00 0.00 0.00 0.00 0.00 0.00 0.00 0.00 0.00
0.00 0.00 0.00 0.00 0.00 0.00 0.00 0.00 0.00 0.00 0.00 0.00 0.00 0.00 0.00 0.00 0.00 0.00 0.00 0.00 0.00 0.00 0.00 0.00 0.02 0.02 0.00 0.00 0.03 0.07 0.08 0.04 0.05 0.03 0.00 0.00 0.00 0.00 0.00 0.00 0.00 0.00 0.00 0.00 0.00 0.00 0.00 0.00 0.00
0.00 0.00 0.00 0.00 0.00 0.00 0.00 0.00 0.00 0.00 0.00 0.00 0.00 0.00 0.00 0.00 0.00 0.00 0.00 0.00 0.00 0.00 0.00 0.00 0.00 0.01 0.01 0.01 0.07 0.16 0.14 0.04 0.07 0.04 0.00 0.00 0.00 0.00 0.00 0.00 0.00 0.00 0.00 0.00 0.00 0.00 0.00 0.00 0.00
0.00 0.00 0.00 0.00 0.00 0.00 0.00 0.00 0.00 0.00 0.00 0.00 0.00 0.00 0.00 0.00 0.00 0.00 0.00 0.00 0.00 0.00 0.00 0.00 0.00 0.00 0.03 0.08 0.16 0.21 0.16 0.06 0.06 0.02 0.00 0.01 0.00 0.00 0.00 0.00 0.00 0.00 0.00 0.00 0.00 0.00 0.00 0.00 0.00
0.00 0.00 0.00 0.00 0.00 0.00 0.00 0.00 0.00 0.00 0.00 0.00 0.00 0.00 0.00 0.00 0.00 0.00 0.00 0.00 0.00 0.00 0.00 0.00 0.00 0.00 0.02 0.03 0.05 0.14 0.17 0.12 0.12 0.07 0.05 0.03 0.05 0.09 0.05 0.00 0.00 0.00 0.00 0.00 0.00 0.00 0.00 0.00 0.00
0.00 0.00 0.00 0.00 0.00 0.00 0.00 0.00 0.00 0.00 0.00 0.00 0.00 0.00 0.00 0.00 0.00 0.00 0.00 0.00 0.00 0.00 0.00 0.00 0.00 0.00 0.00 0.02 0.03 0.14 0.25 0.22 0.24 0.18 0.07 0.04 0.09 0.19 0.11 0.03 0.02 0.00 0.00 0.00 0.00 0.00 0.00 0.00 0.00
0.01 0.00 0.00 0.00 0.00 0.00 0.00 0.00 0.00 0.00 0.00 0.00 0.00 0.00 0.00 0.00 0.00 0.00 0.00 0.00 0.00 0.00 0.00 0.00 0.00 0.00 0.01 0.02 0.07 0.14 0.17 0.20 0.20 0.10 0.05 0.07 0.25 0.28 0.25 0.11 0.04 0.02 0.01 0.01 0.00 0.00 0.00 0.00 0.00
0.01 0.00 0.00 0.00 0.00 0.00 0.00 0.00 0.00 0.00 0.00 0.00 0.00 0.00 0.00 0.00 0.00 0.00 0.00 0.00 0.00 0.00 0.00 0.00 0.00 0.00 0.00 0.00 0.03 0.07 0.07 0.08 0.08 0.08 0.18 0.23 0.25 0.27 0.24 0.16 0.10 0.07 0.04 0.03 0.04 0.05 0.04 0.01 0.00
0.02 0.00 0.00 0.00 0.00 0.01 0.00 0.01 0.00 0.00 0.00 0.00 0.00 0.00 0.00 0.00 0.00 0.00 0.00 0.00 0.00 0.00 0.00 0.00 0.00 0.00 0.00 0.00 0.03 0.09 0.07 0.05 0.05 0.08 0.11 0.14 0.20 0.19 0.20 0.18 0.13 0.09 0.09 0.10 0.08 0.04 0.02 0.01 0.00
0.00 0.00 0.00 0.01 0.04 0.07 0.00 0.00 0.00 0.00 0.00 0.00 0.00 0.00 0.00 0.00 0.00 0.00 0.00 0.00 0.00 0.00 0.00 0.00 0.00 0.00 0.00 0.00 0.00 0.03 0.05 0.04 0.03 0.05 0.11 0.11 0.15 0.14 0.12 0.12 0.11 0.11 0.07 0.07 0.08 0.05 0.02 0.01 0.01
0.02 0.07 0.06 0.07 0.12 0.03 0.00 0.00 0.00 0.00 0.00 0.00 0.00 0.00 0.00 0.00 0.00 0.00 0.00 0.00 0.00 0.00 0.00 0.00 0.00 0.00 0.00 0.00 0.00 0.02 0.04 0.03 0.04 0.07 0.13 0.12 0.11 0.08 0.07 0.09 0.10 0.08 0.08 0.07 0.06 0.06 0.04 0.03 0.01
0.01 0.02 0.04 0.01 0.00 0.00 0.00 0.00 0.00 0.00 0.00 0.00 0.00 0.00 0.00 0.00 0.00 0.00 0.00 0.00 0.00 0.00 0.00 0.00 0.00 0.00 0.00 0.00 0.00 0.00 0.01 0.02 0.05 0.07 0.06 0.07 0.10 0.09 0.08 0.09 0.10 0.08 0.07 0.06 0.06 0.06 0.04 0.02 0.02
0.02 0.04 0.01 0.06 0.03 0.06 0.00 0.00 0.00 0.00 0.00 0.00 0.00 0.00 0.00 0.00 0.00 0.00 0.00 0.00 0.00 0.00 0.00 0.00 0.00 0.00 0.00 0.01 0.01 0.01 0.01 0.03 0.04 0.04 0.05 0.05 0.05 0.07 0.08 0.10 0.12 0.12 0.09 0.06 0.05 0.04 0.02 0.01 0.01
0.01 0.01 0.05 0.15 0.08 0.04 0.00 0.00 0.00 0.00 0.00 0.00 0.00 0.00 0.00 0.00 0.00 0.00 0.00 0.00 0.00 0.00 0.00 0.00 0.00 0.00 0.00 0.03 0.03 0.01 0.04 0.04 0.03 0.03 0.03 0.04 0.05 0.06 0.07 0.08 0.08 0.08 0.06 0.04 0.03 0.02 0.01 0.01 0.01
0.01 0.03 0.06 0.10 0.07 0.03 0.00 0.00 0.00 0.00 0.00 0.00 0.00 0.00 0.00 0.00 0.00 0.00 0.00 0.00 0.00 0.00 0.00 0.00 0.00 0.00 0.01 0.02 0.00 0.00 0.02 0.04 0.03 0.03 0.03 0.04 0.05 0.03 0.04 0.03 0.04 0.04 0.04 0.03 0.03 0.03 0.04 0.04 0.04
0.00 0.00 0.04 0.27 0.09 0.15 0.14 0.06 0.00 0.00 0.01 0.00 0.00 0.00 0.00 0.00 0.00 0.00 0.00 0.00 0.00 0.00 0.00 0.00 0.00 0.01 0.02 0.01 0.00 0.01 0.04 0.04 0.04 0.04 0.04 0.05 0.06 0.05 0.05 0.04 0.03 0.02 0.03 0.05 0.09 0.13 0.13 0.11 0.10

GFSSGP_prec_precacc24_045.txt.gz
Total_Precipitation_Accumulation
0.00 0.00 0.00 0.00 0.00 0.00 0.00 0.00 0.00 0.00 0.00 0.00 0.00 0.00 0.00 0.00 0.00 0.00 0.00 0.00 0.00 0.00 0.00 0.00 0.02 0.02 0.02 0.02 0.03 0.02 0.01 0.00 0.01 0.04 0.05 0.02 0.00 0.00 0.00 0.00 0.02 0.04 0.07 0.16 0.23 0.09 0.01 0.00 0.00
0.00 0.00 0.00 0.00 0.00 0.00 0.00 0.00 0.00 0.00 0.00 0.00 0.00 0.00 0.00 0.00 0.00 0.00 0.00 0.00 0.00 0.00 0.00 0.00 0.02 0.02 0.01 0.02 0.02 0.01 0.01 0.01 0.02 0.05 0.01 0.00 0.00 0.00 0.00 0.00 0.01 0.03 0.05 0.05 0.01 0.00 0.00 0.00 0.00
0.00 0.00 0.00 0.00 0.00 0.00 0.00 0.00 0.00 0.00 0.00 0.00 0.00 0.00 0.00 0.00 0.00 0.00 0.00 0.00 0.00 0.00 0.00 0.00 0.01 0.02 0.01 0.02 0.01 0.01 0.01 0.01 0.02 0.02 0.00 0.00 0.00 0.00 0.00 0.00 0.00 0.00 0.00 0.00 0.00 0.00 0.00 0.00 0.00
0.00 0.00 0.00 0.00 0.00 0.00 0.00 0.00 0.00 0.00 0.00 0.00 0.00 0.00 0.00 0.00 0.00 0.00 0.00 0.00 0.00 0.00 0.00 0.00 0.01 0.02 0.01 0.01 0.01 0.00 0.01 0.02 0.01 0.01 0.00 0.00 0.00 0.00 0.00 0.00 0.00 0.00 0.00 0.00 0.00 0.00 0.00 0.00 0.00
0.00 0.00 0.00 0.00 0.00 0.00 0.00 0.00 0.00 0.00 0.00 0.00 0.00 0.00 0.00 0.00 0.00 0.00 0.00 0.00 0.00 0.00 0.00 0.00 0.02 0.02 0.01 0.00 0.00 0.00 0.01 0.01 0.00 0.00 0.00 0.00 0.00 0.00 0.01 0.00 0.00 0.00 0.00 0.00 0.00 0.00 0.00 0.00 0.00
0.00 0.00 0.00 0.00 0.00 0.00 0.00 0.00 0.00 0.00 0.00 0.00 0.00 0.00 0.00 0.00 0.00 0.00 0.00 0.00 0.00 0.00 0.00 0.00 0.03 0.03 0.01 0.00 0.00 0.00 0.01 0.01 0.00 0.00 0.00 0.00 0.00 0.01 0.01 0.00 0.00 0.00 0.00 0.00 0.00 0.00 0.00 0.00 0.00
0.00 0.00 0.00 0.00 0.00 0.00 0.00 0.00 0.00 0.00 0.00 0.00 0.00 0.00 0.00 0.00 0.00 0.00 0.00 0.00 0.00 0.00 0.00 0.00 0.02 0.02 0.01 0.00 0.00 0.00 0.01 0.01 0.00 0.00 0.00 0.00 0.00 0.01 0.02 0.01 0.00 0.00 0.00 0.00 0.00 0.00 0.00 0.01 0.01
0.00 0.00 0.00 0.00 0.00 0.00 0.00 0.00 0.00 0.00 0.00 0.00 0.00 0.00 0.00 0.00 0.00 0.00 0.00 0.00 0.00 0.00 0.01 0.00 0.00 0.01 0.01 0.00 0.00 0.00 0.01 0.00 0.00 0.00 0.00 0.00 0.00 0.01 0.01 0.00 0.00 0.00 0.00 0.00 0.00 0.01 0.01 0.01 0.00
0.00 0.00 0.00 0.00 0.00 0.00 0.00 0.00 0.00 0.00 0.00 0.00 0.00 0.00 0.00 0.00 0.00 0.00 0.00 0.00 0.00 0.02 0.04 0.03 0.02 0.01 0.01 0.00 0.00 0.00 0.01 0.00 0.00 0.00 0.00 0.00 0.00 0.00 0.00 0.00 0.00 0.00 0.01 0.00 0.01 0.00 0.00 0.00 0.00
0.00 0.00 0.00 0.00 0.00 0.00 0.00 0.00 0.00 0.00 0.00 0.00 0.00 0.00 0.00 0.00 0.00 0.00 0.00 0.00 0.01 0.03 0.04 0.02 0.01 0.00 0.01 0.00 0.00 0.00 0.00 0.00 0.00 0.00 0.00 0.00 0.00 0.00 0.00 0.00 0.00 0.00 0.01 0.01 0.01 0.00 0.00 0.00 0.00
0.00 0.00 0.00 0.00 0.00 0.00 0.00 0.00 0.00 0.00 0.00 0.00 0.00 0.00 0.00 0.00 0.01 0.01 0.01 0.01 0.01 0.01 0.00 0.00 0.00 0.00 0.00 0.00 0.00 0.00 0.00 0.00 0.00 0.00 0.00 0.00 0.00 0.00 0.00 0.00 0.00 0.00 0.00 0.00 0.00 0.00 0.00 0.00 0.00
0.00 0.00 0.00 0.00 0.00 0.00 0.00 0.00 0.00 0.00 0.00 0.00 0.00 0.00 0.00 0.00 0.00 0.00 0.01 0.03 0.02 0.01 0.00 0.00 0.00 0.00 0.00 0.01 0.00 0.00 0.00 0.00 0.00 0.00 0.00 0.00 0.00 0.00 0.00 0.00 0.00 0.00 0.00 0.00 0.00 0.00 0.00 0.00 0.00
0.00 0.00 0.00 0.00 0.00 0.00 0.00 0.00 0.00 0.00 0.00 0.00 0.00 0.00 0.00 0.00 0.00 0.00 0.00 0.01 0.02 0.00 0.00 0.00 0.01 0.01 0.02 0.02 0.01 0.00 0.00 0.00 0.00 0.00 0.00 0.00 0.00 0.00 0.00 0.00 0.00 0.00 0.00 0.00 0.00 0.00 0.00 0.00 0.00
0.00 0.00 0.00 0.00 0.00 0.00 0.00 0.00 0.00 0.00 0.00 0.00 0.00 0.00 0.00 0.00 0.00 0.00 0.00 0.00 0.00 0.00 0.00 0.01 0.00 0.00 0.00 0.02 0.02 0.01 0.00 0.00 0.00 0.00 0.00 0.00 0.00 0.00 0.00 0.00 0.00 0.00 0.00 0.00 0.00 0.00 0.00 0.00 0.00
0.00 0.00 0.00 0.00 0.00 0.00 0.00 0.00 0.00 0.00 0.00 0.00 0.00 0.00 0.00 0.00 0.00 0.00 0.00 0.00 0.00 0.00 0.00 0.01 0.01 0.00 0.00 0.00 0.02 0.03 0.04 0.00 0.00 0.00 0.00 0.00 0.00 0.00 0.00 0.00 0.00 0.00 0.00 0.00 0.00 0.00 0.00 0.00 0.00
0.00 0.00 0.00 0.00 0.00 0.00 0.00 0.00 0.00 0.00 0.00 0.00 0.00 0.00 0.00 0.00 0.00 0.00 0.00 0.00 0.00 0.00 0.00 0.00 0.02 0.02 0.00 0.01 0.06 0.09 0.12 0.06 0.05 0.03 0.00 0.00 0.00 0.00 0.00 0.00 0.00 0.00 0.00 0.00 0.00 0.00 0.00 0.00 0.00
0.00 0.00 0.00 0.00 0.00 0.00 0.00 0.00 0.00 0.00 0.00 0.00 0.00 0.00 0.00 0.00 0.00 0.00 0.00 0.00 0.00 0.00 0.00 0.00 0.00 0.01 0.01 0.03 0.09 0.18 0.20 0.08 0.06 0.03 0.00 0.00 0.00 0.00 0.00 0.00 0.00 0.00 0.00 0.00 0.00 0.00 0.00 0.00 0.00
0.00 0.00 0.00 0.00 0.00 0.00 0.00 0.00 0.00 0.00 0.00 0.00 0.00 0.00 0.00 0.00 0.00 0.00 0.00 0.00 0.00 0.00 0.00 0.00 0.00 0.00 0.03 0.08 0.14 0.19 0.17 0.06 0.06 0.02 0.01 0.04 0.02 0.01 0.00 0.00 0.00 0.00 0.00 0.00 0.00 0.00 0.00 0.00 0.00
0.00 0.00 0.00 0.00 0.00 0.00 0.00 0.00 0.00 0.00 0.00 0.00 0.00 0.00 0.00 0.00 0.00 0.00 0.00 0.00 0.00 0.00 0.00 0.00 0.00 0.00 0.02 0.03 0.04 0.12 0.17 0.15 0.14 0.08 0.12 0.05 0.08 0.13 0.06 0.00 0.00 0.00 0.00 0.00 0.00 0.00 0.00 0.00 0.00
0.00 0.00 0.00 0.00 0.00 0.00 0.00 0.00 0.00 0.00 0.00 0.00 0.00 0.00 0.00 0.00 0.00 0.00 0.00 0.00 0.00 0.00 0.00 0.00 0.00 0.00 0.00 0.02 0.01 0.11 0.24 0.23 0.24 0.20 0.09 0.04 0.11 0.21 0.15 0.05 0.03 0.00 0.00 0.00 0.00 0.00 0.00 0.00 0.00
0.01 0.00 0.00 0.00 0.00 0.00 0.00 0.00 0.00 0.00 0.00 0.00 0.00 0.00 0.00 0.00 0.00 0.00 0.00 0.00 0.00 0.00 0.00 0.00 0.00 0.00 0.01 0.02 0.05 0.12 0.16 0.20 0.20 0.10 0.05 0.07 0.25 0.30 0.29 0.13 0.06 0.05 0.02 0.01 0.00 0.00 0.00 0.00 0.00
0.02 0.00 0.00 0.00 0.00 0.00 0.00 0.00 0.00 0.00 0.00 0.00 0.00 0.00 0.00 0.00 0.00 0.00 0.00 0.00 0.00 0.00 0.00 0.00 0.00 0.00 0.00 0.00 0.02 0.04 0.06 0.08 0.08 0.08 0.18 0.23 0.25 0.29 0.28 0.19 0.15 0.12 0.07 0.03 0.06 0.05 0.05 0.03 0.01
0.02 0.00 0.00 0.00 0.00 0.01 0.00 0.01 0.00 0.00 0.00 0.00 0.00 0.00 0.00 0.00 0.00 0.00 0.00 0.00 0.00 0.00 0.00 0.00 0.00 0.00 0.00 0.00 0.00 0.05 0.06 0.05 0.05 0.08 0.11 0.14 0.20 0.21 0.25 0.22 0.17 0.11 0.12 0.13 0.10 0.06 0.04 0.03 0.02
0.02 0.00 0.00 0.01 0.02 0.04 0.00 0.00 0.00 0.00 0.00 0.00 0.00 0.00 0.00 0.00 0.00 0.00 0.00 0.00 0.00 0.00 0.00 0.00 0.00 0.00 0.00 0.00 0.00 0.03 0.05 0.04 0.03 0.05 0.12 0.12 0.16 0.16 0.16 0.16 0.13 0.14 0.09 0.09 0.11 0.10 0.07 0.04 0.03
0.01 0.03 0.01 0.03 0.06 0.01 0.00 0.00 0.00 0.00 0.00 0.00 0.00 0.00 0.00 0.00 0.00 0.00 0.00 0.00 0.00 0.00 0.00 0.00 0.00 0.00 0.00 0.00 0.00 0.02 0.04 0.03 0.04 0.07 0.13 0.13 0.11 0.08 0.08 0.12 0.14 0.11 0.12 0.13 0.15 0.11 0.09 0.06 0.05
0.01 0.01 0.01 0.00 0.00 0.00 0.00 0.00 0.00 0.00 0.00 0.00 0.00 0.00 0.00 0.00 0.00 0.00 0.00 0.00 0.00 0.00 0.00 0.00 0.00 0.00 0.00 0.00 0.00 0.00 0.01 0.02 0.05 0.08 0.06 0.08 0.10 0.09 0.08 0.13 0.15 0.14 0.14 0.11 0.17 0.14 0.08 0.05 0.03
0.01 0.02 0.00 0.03 0.01 0.02 0.00 0.00 0.00 0.00 0.00 0.00 0.00 0.00 0.00 0.00 0.00 0.00 0.00 0.00 0.00 0.00 0.00 0.00 0.00 0.00 0.00 0.01 0.01 0.01 0.01 0.03 0.04 0.04 0.05 0.05 0.06 0.07 0.08 0.11 0.14 0.15 0.14 0.14 0.12 0.12 0.09 0.05 0.02
0.00 0.00 0.03 0.08 0.03 0.01 0.00 0.00 0.00 0.00 0.00 0.00 0.00 0.00 0.00 0.00 0.00 0.00 0.00 0.00 0.00 0.00 0.00 0.00 0.00 0.00 0.00 0.03 0.03 0.01 0.04 0.04 0.03 0.03 0.03 0.04 0.05 0.06 0.07 0.08 0.08 0.08 0.07 0.07 0.07 0.07 0.06 0.06 0.03
0.00 0.02 0.04 0.07 0.04 0.01 0.00 0.00 0.00 0.00 0.00 0.00 0.00 0.00 0.00 0.00 0.00 0.00 0.00 0.00 0.00 0.00 0.00 0.00 0.00 0.00 0.01 0.02 0.00 0.00 0.02 0.04 0.03 0.03 0.03 0.04 0.05 0.03 0.04 0.03 0.04 0.04 0.04 0.04 0.04 0.05 0.05 0.05 0.04
0.00 0.00 0.03 0.20 0.07 0.14 0.14 0.06 0.00 0.00 0.00 0.00 0.00 0.00 0.00 0.00 0.00 0.00 0.00 0.00 0.00 0.00 0.00 0.00 0.00 0.01 0.02 0.01 0.00 0.01 0.04 0.04 0.04 0.04 0.04 0.05 0.06 0.05 0.05 0.04 0.03 0.02 0.03 0.05 0.09 0.13 0.13 0.11 0.11

GFSSGP_prec_precacc24_048.txt.gz
Total_Precipitation_Accumulation
0.00 0.00 0.00 0.00 0.00 0.00 0.00 0.00 0.00 0.00 0.00 0.00 0.00 0.00 0.00 0.00 0.00 0.00 0.00 0.00 0.00 0.00 0.00 0.01 0.01 0.02 0.03 0.04 0.04 0.02 0.01 0.00 0.01 0.03 0.04 0.01 0.00 0.00 0.00 0.01 0.02 0.04 0.08 0.21 0.28 0.10 0.01 0.00 0.00
0.00 0.00 0.00 0.00 0.00 0.00 0.00 0.00 0.00 0.00 0.00 0.00 0.00 0.00 0.00 0.00 0.00 0.00 0.00 0.00 0.00 0.00 0.00 0.00 0.01 0.02 0.01 0.04 0.03 0.01 0.01 0.01 0.02 0.03 0.01 0.00 0.00 0.00 0.00 0.01 0.03 0.05 0.09 0.10 0.02 0.00 0.00 0.00 0.00
0.00 0.00 0.00 0.00 0.00 0.00 0.00 0.00 0.00 0.00 0.00 0.00 0.00 0.00 0.00 0.00 0.00 0.00 0.00 0.00 0.00 0.00 0.00 0.00 0.01 0.02 0.01 0.02 0.02 0.01 0.01 0.01 0.03 0.01 0.00 0.00 0.00 0.00 0.00 0.00 0.01 0.00 0.00 0.00 0.00 0.00 0.00 0.00 0.00
0.00 0.00 0.00 0.00 0.00 0.00 0.00 0.00 0.00 0.00 0.00 0.00 0.00 0.00 0.00 0.00 0.00 0.00 0.00 0.00 0.00 0.00 0.00 0.00 0.01 0.02 0.01 0.01 0.02 0.01 0.01 0.02 0.02 0.01 0.00 0.00 0.00 0.00 0.00 0.00 0.00 0.00 0.00 0.00 0.00 0.00 0.00 0.00 0.00
0.00 0.00 0.00 0.00 0.00 0.00 0.00 0.00 0.00 0.00 0.00 0.00 0.00 0.00 0.00 0.00 0.00 0.00 0.00 0.00 0.00 0.00 0.00 0.00 0.01 0.02 0.01 0.01 0.01 0.01 0.01 0.01 0.01 0.00 0.00 0.00 0.00 0.00 0.00 0.00 0.00 0.00 0.00 0.00 0.00 0.00 0.00 0.00 0.00
0.00 0.00 0.00 0.00 0.00 0.00 0.00 0.00 0.00 0.00 0.00 0.00 0.00 0.00 0.00 0.00 0.00 0.00 0.00 0.00 0.00 0.00 0.00 0.00 0.01 0.03 0.01 0.00 0.00 0.00 0.02 0.01 0.00 0.00 0.00 0.00 0.00 0.00 0.00 0.00 0.00 0.00 0.00 0.00 0.00 0.00 0.00 0.00 0.00
0.00 0.00 0.00 0.00 0.00 0.00 0.00 0.00 0.00 0.00 0.00 0.00 0.00 0.00 0.00 0.00 0.00 0.00 0.00 0.00 0.00 0.00 0.00 0.00 0.01 0.01 0.01 0.00 0.00 0.00 0.01 0.01 0.00 0.00 0.00 0.00 0.00 0.01 0.01 0.00 0.00 0.00 0.00 0.00 0.00 0.00 0.00 0.00 0.00
0.00 0.00 0.00 0.00 0.00 0.00 0.00 0.00 0.00 0.00 0.00 0.00 0.00 0.00 0.00 0.00 0.00 0.01 0.00 0.00 0.00 0.00 0.01 0.00 0.00 0.01 0.01 0.00 0.00 0.00 0.01 0.01 0.00 0.00 0.00 0.00 0.00 0.01 0.01 0.00 0.00 0.00 0.01 0.01 0.01 0.01 0.00 0.00 0.00
0.00 0.00 0.00 0.00 0.00 0.00 0.00 0.00 0.00 0.00 0.00 0.00 0.00 0.00 0.00 0.00 0.00 0.01 0.01 0.01 0.01 0.02 0.04 0.03 0.02 0.00 0.00 0.00 0.00 0.00 0.01 0.00 0.00 0.00 0.00 0.00 0.00 0.00 0.00 0.00 0.00 0.00 0.02 0.01 0.02 0.00 0.00 0.00 0.00
0.00 0.00 0.00 0.00 0.00 0.00 0.00 0.00 0.00 0.00 0.00 0.00 0.00 0.00 0.00 0.00 0.00 0.00 0.01 0.01 0.01 0.03 0.04 0.02 0.01 0.00 0.00 0.00 0.00 0.00 0.00 0.00 0.00 0.00 0.00 0.00 0.00 0.00 0.00 0.00 0.00 0.00 0.02 0.01 0.02 0.00 0.00 0.00 0.00
0.00 0.00 0.00 0.00 0.00 0.00 0.00 0.00 0.00 0.00 0.00 0.00 0.00 0.00 0.00 0.00 0.01 0.01 0.01 0.01 0.01 0.01 0.01 0.00 0.00 0.00 0.00 0.00 0.00 0.00 0.00 0.00 0.00 0.00 0.00 0.00 0.00 0.00 0.00 0.00 0.00 0.00 0.01 0.00 0.00 0.00 0.00 0.00 0.00
0.00 0.00 0.00 0.00 0.00 0.00 0.00 0.00 0.00 0.00 0.00 0.00 0.00 0.00 0.00 0.00 0.00 0.01 0.01 0.03 0.02 0.01 0.00 0.00 0.00 0.00 0.00 0.01 0.00 0.00 0.00 0.00 0.00 0.00 0.00 0.00 0.00 0.00 0.00 0.00 0.00 0.00 0.00 0.00 0.00 0.00 0.00 0.00 0.00
0.00 0.00 0.00 0.00 0.00 0.00 0.00 0.00 0.00 0.00 0.00 0.00 0.00 0.00 0.00 0.00 0.00 0.00 0.00 0.01 0.02 0.00 0.00 0.00 0.01 0.01 0.02 0.02 0.02 0.00 0.00 0.00 0.00 0.00 0.00 0.00 0.00 0.00 0.00 0.00 0.00 0.00 0.00 0.00 0.00 0.00 0.00 0.00 0.00
0.00 0.00 0.00 0.00 0.00 0.00 0.00 0.00 0.00 0.00 0.00 0.00 0.00 0.00 0.00 0.00 0.00 0.00 0.00 0.00 0.00 0.00 0.00 0.01 0.02 0.01 0.00 0.03 0.03 0.03 0.00 0.00 0.00 0.00 0.00 0.00 0.00 0.00 0.00 0.00 0.00 0.00 0.00 0.00 0.00 0.00 0.00 0.00 0.00
0.00 0.00 0.00 0.00 0.00 0.00 0.00 0.00 0.00 0.00 0.00 0.00 0.00 0.00 0.00 0.00 0.00 0.00 0.00 0.00 0.00 0.00 0.00 0.01 0.01 0.00 0.00 0.01 0.04 0.05 0.08 0.03 0.01 0.00 0.00 0.00 0.00 0.00 0.00 0.00 0.00 0.00 0.00 0.00 0.00 0.00 0.00 0.00 0.00
0.00 0.00 0.00 0.00 0.00 0.00 0.00 0.00 0.00 0.00 0.00 0.00 0.00 0.00 0.00 0.00 0.00 0.00 0.00 0.00 0.00 0.00 0.00 0.00 0.02 0.02 0.00 0.02 0.07 0.11 0.15 0.07 0.08 0.06 0.01 0.00 0.00 0.00 0.00 0.00 0.00 0.00 0.00 0.00 0.00 0.00 0.00 0.00 0.00
0.00 0.00 0.00 0.00 0.00 0.00 0.00 0.00 0.00 0.00 0.00 0.00 0.00 0.00 0.00 0.00 0.00 0.00 0.00 0.00 0.00 0.00 0.00 0.00 0.00 0.01 0.01 0.03 0.09 0.20 0.22 0.09 0.07 0.06 0.02 0.01 0.01 0.01 0.00 0.00 0.00 0.00 0.00 0.00 0.00 0.00 0.00 0.00 0.00
0.00 0.00 0.00 0.00 0.00 0.00 0.00 0.00 0.00 0.00 0.00 0.00 0.00 0.00 0.00 0.00 0.00 0.00 0.00 0.00 0.00 0.00 0.00 0.00 0.00 0.00 0.03 0.08 0.14 0.19 0.18 0.06 0.06 0.02 0.02 0.12 0.06 0.04 0.01 0.00 0.00 0.00 0.00 0.00 0.00 0.00 0.00 0.00 0.00
0.00 0.00 0.00 0.00 0.00 0.00 0.00 0.00 0.00 0.00 0.00 0.00 0.00 0.00 0.00 0.00 0.00 0.00 0.00 0.00 0.00 0.00 0.00 0.00 0.00 0.00 0.02 0.03 0.04 0.10 0.13 0.13 0.14 0.08 0.17 0.08 0.12 0.14 0.08 0.01 0.00 0.00 0.00 0.00 0.00 0.00 0.00 0.00 0.00
0.00 0.00 0.00 0.00 0.00 0.00 0.00 0.00 0.00 0.00 0.00 0.00 0.00 0.00 0.00 0.00 0.00 0.00 0.00 0.00 0.00 0.00 0.00 0.00 0.00 0.00 0.00 0.02 0.01 0.09 0.19 0.18 0.22 0.20 0.09 0.05 0.12 0.21 0.15 0.06 0.05 0.02 0.00 0.00 0.00 0.00 0.00 0.00 0.00
0.01 0.00 0.00 0.00 0.00 0.00 0.00 0.00 0.00 0.00 0.00 0.00 0.00 0.00 0.00 0.00 0.00 0.00 0.00 0.00 0.00 0.00 0.00 0.00 0.00 0.00 0.01 0.02 0.05 0.10 0.15 0.18 0.19 0.10 0.05 0.07 0.25 0.30 0.30 0.18 0.10 0.09 0.03 0.01 0.00 0.00 0.00 0.00 0.00
0.02 0.00 0.00 0.00 0.00 0.00 0.00 0.00 0.00 0.00 0.00 0.00 0.00 0.00 0.00 0.00 0.00 0.00 0.00 0.00 0.00 0.00 0.00 0.00 0.00 0.00 0.00 0.00 0.02 0.02 0.03 0.05 0.06 0.08 0.17 0.22 0.25 0.29 0.31 0.24 0.18 0.16 0.11 0.04 0.06 0.05 0.05 0.03 0.01
0.03 0.00 0.00 0.00 0.00 0.00 0.00 0.00 0.00 0.00 0.00 0.00 0.00 0.00 0.00 0.00 0.00 0.00 0.00 0.00 0.00 0.00 0.00 0.00 0.00 0.00 0.00 0.00 0.00 0.02 0.03 0.03 0.03 0.07 0.11 0.14 0.20 0.21 0.27 0.25 0.21 0.13 0.13 0.18 0.13 0.08 0.06 0.05 0.02
0.02 0.00 0.00 0.00 0.01 0.01 0.00 0.00 0.00 0.00 0.00 0.00 0.00 0.00 0.00 0.00 0.00 0.00 0.00 0.00 0.00 0.00 0.00 0.00 0.00 0.00 0.00 0.00 0.00 0.00 0.01 0.02 0.02 0.05 0.12 0.12 0.16 0.16 0.16 0.18 0.14 0.18 0.12 0.13 0.14 0.17 0.13 0.09 0.07
0.01 0.03 0.02 0.01 0.03 0.00 0.00 0.00 0.00 0.00 0.00 0.00 0.00 0.00 0.00 0.00 0.00 0.00 0.00 0.00 0.00 0.00 0.00 0.00 0.00 0.00 0.00 0.00 0.00 0.01 0.02 0.03 0.04 0.07 0.14 0.13 0.11 0.08 0.08 0.12 0.15 0.13 0.16 0.19 0.25 0.20 0.16 0.13 0.10
0.01 0.02 0.01 0.00 0.00 0.00 0.00 0.00 0.00 0.00 0.00 0.00 0.00 0.00 0.00 0.00 0.00 0.00 0.00 0.00 0.00 0.00 0.00 0.00 0.00 0.00 0.00 0.00 0.00 0.00 0.01 0.02 0.04 0.08 0.06 0.08 0.10 0.09 0.08 0.14 0.16 0.16 0.16 0.14 0.21 0.20 0.15 0.12 0.08
0.00 0.01 0.00 0.01 0.00 0.00 0.00 0.00 0.00 0.00 0.00 0.00 0.00 0.00 0.00 0.00 0.00 0.00 0.00 0.00 0.00 0.00 0.00 0.00 0.00 0.00 0.00 0.01 0.01 0.01 0.01 0.02 0.04 0.04 0.05 0.05 0.06 0.08 0.08 0.11 0.14 0.16 0.16 0.16 0.15 0.16 0.16 0.13 0.10
0.00 0.00 0.01 0.03 0.01 0.00 0.00 0.00 0.00 0.00 0.00 0.00 0.00 0.00 0.00 0.00 0.00 0.00 0.00 0.00 0.00 0.00 0.00 0.00 0.00 0.00 0.00 0.03 0.03 0.01 0.03 0.04 0.03 0.03 0.03 0.04 0.05 0.06 0.07 0.08 0.08 0.08 0.08 0.08 0.08 0.08 0.10 0.11 0.09
0.00 0.01 0.01 0.02 0.02 0.01 0.00 0.00 0.00 0.00 0.00 0.00 0.00 0.00 0.00 0.00 0.00 0.00 0.00 0.00 0.00 0.00 0.00 0.00 0.00 0.00 0.01 0.02 0.00 0.00 0.01 0.04 0.03 0.03 0.03 0.04 0.05 0.03 0.04 0.03 0.04 0.04 0.04 0.04 0.04 0.05 0.06 0.07 0.06
0.00 0.00 0.00 0.05 0.01 0.07 0.07 0.03 0.00 0.00 0.00 0.00 0.00 0.00 0.00 0.00 0.00 0.00 0.00 0.00 0.00 0.00 0.00 0.00 0.00 0.01 0.02 0.01 0.00 0.01 0.04 0.04 0.04 0.04 0.04 0.05 0.06 0.05 0.05 0.04 0.03 0.02 0.03 0.05 0.09 0.13 0.13 0.12 0.11

GFSSGP_prec_precacc24_051.txt.gz
Total_Precipitation_Accumulation
0.00 0.00 0.00 0.00 0.00 0.00 0.00 0.00 0.00 0.00 0.00 0.00 0.00 0.00 0.00 0.00 0.00 0.00 0.00 0.00 0.00 0.00 0.00 0.01 0.02 0.02 0.03 0.05 0.04 0.02 0.01 0.01 0.01 0.03 0.03 0.01 0.00 0.00 0.00 0.01 0.02 0.04 0.09 0.27 0.29 0.10 0.01 0.00 0.00
0.00 0.00 0.00 0.00 0.00 0.00 0.00 0.00 0.00 0.00 0.00 0.00 0.00 0.00 0.00 0.00 0.00 0.00 0.00 0.00 0.00 0.00 0.00 0.00 0.01 0.01 0.02 0.05 0.03 0.01 0.01 0.01 0.02 0.02 0.01 0.00 0.00 0.00 0.00 0.02 0.04 0.06 0.15 0.15 0.03 0.00 0.00 0.00 0.00
0.00 0.00 0.00 0.00 0.00 0.00 0.00 0.00 0.00 0.00 0.00 0.00 0.00 0.00 0.00 0.00 0.00 0.00 0.00 0.00 0.00 0.00 0.00 0.00 0.00 0.01 0.02 0.03 0.03 0.02 0.01 0.02 0.02 0.01 0.00 0.00 0.00 0.00 0.01 0.02 0.02 0.01 0.01 0.00 0.00 0.00 0.00 0.00 0.00
0.00 0.00 0.00 0.00 0.00 0.00 0.00 0.00 0.00 0.00 0.00 0.00 0.00 0.00 0.00 0.00 0.00 0.00 0.00 0.00 0.00 0.00 0.00 0.00 0.01 0.02 0.02 0.03 0.03 0.02 0.02 0.02 0.01 0.01 0.00 0.00 0.00 0.00 0.00 0.00 0.00 0.00 0.00 0.00 0.00 0.00 0.00 0.00 0.00
0.00 0.00 0.00 0.00 0.00 0.00 0.00 0.00 0.00 0.00 0.00 0.00 0.00 0.00 0.00 0.00 0.00 0.00 0.00 0.00 0.00 0.00 0.00 0.00 0.01 0.01 0.01 0.02 0.02 0.02 0.02 0.02 0.01 0.00 0.00 0.00 0.00 0.00 0.00 0.00 0.00 0.00 0.00 0.00 0.00 0.00 0.00 0.00 0.00
0.00 0.00 0.00 0.00 0.00 0.00 0.00 0.00 0.00 0.00 0.00 0.00 0.00 0.00 0.00 0.00 0.00 0.00 0.00 0.00 0.00 0.00 0.00 0.00 0.01 0.01 0.01 0.01 0.01 0.02 0.03 0.02 0.00 0.00 0.00 0.00 0.00 0.00 0.00 0.00 0.00 0.00 0.00 0.00 0.00 0.00 0.00 0.00 0.00
0.00 0.00 0.00 0.00 0.00 0.00 0.00 0.00 0.00 0.00 0.00 0.00 0.00 0.00 0.00 0.00 0.00 0.00 0.00 0.00 0.00 0.00 0.00 0.00 0.00 0.00 0.00 0.01 0.01 0.01 0.01 0.02 0.00 0.00 0.00 0.00 0.00 0.00 0.00 0.00 0.00 0.00 0.00 0.00 0.00 0.00 0.00 0.00 0.00
0.00 0.00 0.00 0.00 0.00 0.00 0.00 0.00 0.00 0.00 0.00 0.00 0.00 0.00 0.00 0.00 0.00 0.01 0.00 0.00 0.00 0.00 0.01 0.00 0.00 0.00 0.00 0.00 0.00 0.00 0.01 0.01 0.00 0.00 0.00 0.00 0.00 0.00 0.00 0.00 0.00 0.00 0.01 0.01 0.01 0.00 0.00 0.00 0.00
0.00 0.00 0.00 0.00 0.00 0.00 0.00 0.00 0.00 0.00 0.00 0.00 0.00 0.00 0.00 0.00 0.00 0.01 0.01 0.01 0.01 0.02 0.04 0.03 0.02 0.00 0.00 0.00 0.00 0.00 0.01 0.01 0.00 0.00 0.00 0.00 0.00 0.00 0.00 0.00 0.00 0.00 0.02 0.02 0.02 0.00 0.00 0.00 0.00
0.00 0.00 0.00 0.00 0.00 0.00 0.00 0.00 0.00 0.00 0.00 0.00 0.00 0.00 0.00 0.00 0.00 0.00 0.01 0.01 0.01 0.03 0.04 0.02 0.01 0.00 0.00 0.00 0.00 0.00 0.00 0.00 0.00 0.00 0.00 0.00 0.00 0.00 0.00 0.00 0.00 0.00 0.02 0.02 0.03 0.00 0.00 0.00 0.00
0.00 0.00 0.00 0.00 0.00 0.00 0.00 0.00 0.00 0.00 0.00 0.00 0.00 0.00 0.00 0.00 0.01 0.01 0.01 0.01 0.01 0.01 0.01 0.00 0.00 0.00 0.00 0.00 0.00 0.00 0.00 0.00 0.00 0.00 0.00 0.00 0.00 0.00 0.00 0.00 0.00 0.00 0.01 0.00 0.01 0.00 0.00 0.00 0.00
0.00 0.00 0.00 0.00 0.00 0.00 0.00 0.00 0.00 0.00 0.00 0.00 0.00 0.00 0.00 0.00 0.00 0.01 0.01 0.03 0.02 0.01 0.00 0.00 0.00 0.00 0.00 0.01 0.00 0.00 0.00 0.00 0.00 0.00 0.00 0.00 0.00 0.00 0.00 0.00 0.00 0.00 0.00 0.00 0.00 0.00 0.00 0.00 0.00
0.00 0.00 0.00 0.00 0.00 0.00 0.00 0.00 0.00 0.00 0.00 0.00 0.00 0.00 0.00 0.00 0.00 0.00 0.00 0.01 0.02 0.00 0.00 0.00 0.01 0.01 0.02 0.02 0.02 0.00 0.00 0.00 0.00 0.00 0.00 0.00 0.00 0.00 0.00 0.00 0.00 0.00 0.00 0.00 0.00 0.00 0.00 0.00 0.00
0.00 0.00 0.00 0.00 0.00 0.00 0.00 0.00 0.00 0.00 0.00 0.00 0.00 0.00 0.00 0.00 0.00 0.00 0.00 0.00 0.00 0.00 0.00 0.01 0.03 0.02 0.00 0.03 0.03 0.03 0.00 0.00 0.00 0.00 0.00 0.00 0.00 0.00 0.00 0.00 0.00 0.00 0.00 0.00 0.00 0.00 0.00 0.00 0.00
0.00 0.00 0.00 0.00 0.00 0.00 0.00 0.00 0.00 0.00 0.00 0.00 0.00 0.00 0.00 0.00 0.00 0.00 0.00 0.00 0.00 0.00 0.00 0.01 0.01 0.00 0.00 0.01 0.04 0.05 0.08 0.03 0.00 0.00 0.00 0.00 0.00 0.00 0.00 0.00 0.00 0.00 0.00 0.00 0.00 0.00 0.00 0.00 0.00
0.00 0.00 0.00 0.00 0.00 0.00 0.00 0.00 0.00 0.00 0.00 0.00 0.00 0.00 0.00 0.00 0.00 0.00 0.00 0.00 0.00 0.00 0.00 0.00 0.02 0.02 0.00 0.02 0.07 0.12 0.15 0.07 0.08 0.06 0.01 0.00 0.00 0.00 0.00 0.00 0.00 0.00 0.00 0.00 0.00 0.00 0.00 0.00 0.00
0.00 0.00 0.00 0.00 0.00 0.00 0.00 0.00 0.00 0.00 0.00 0.00 0.00 0.00 0.00 0.00 0.00 0.00 0.00 0.00 0.00 0.00 0.00 0.00 0.00 0.01 0.01 0.03 0.09 0.20 0.23 0.10 0.07 0.06 0.02 0.01 0.01 0.02 0.00 0.00 0.00 0.00 0.00 0.00 0.00 0.00 0.00 0.00 0.00
0.00 0.00 0.00 0.00 0.00 0.00 0.00 0.00 0.00 0.00 0.00 0.00 0.00 0.00 0.00 0.00 0.00 0.00 0.00 0.00 0.00 0.00 0.00 0.00 0.00 0.00 0.03 0.08 0.14 0.19 0.19 0.06 0.06 0.02 0.02 0.12 0.06 0.04 0.02 0.00 0.00 0.00 0.00 0.00 0.00 0.00 0.00 0.00 0.00
0.00 0.00 0.00 0.00 0.00 0.00 0.00 0.00 0.00 0.00 0.00 0.00 0.00 0.00 0.00 0.00 0.00 0.00 0.00 0.00 0.00 0.00 0.00 0.00 0.00 0.00 0.02 0.03 0.04 0.11 0.12 0.13 0.12 0.07 0.17 0.08 0.12 0.14 0.08 0.01 0.00 0.00 0.00 0.00 0.00 0.00 0.00 0.00 0.00
0.00 0.00 0.00 0.00 0.00 0.00 0.00 0.00 0.00 0.00 0.00 0.00 0.00 0.00 0.00 0.00 0.00 0.00 0.00 0.00 0.00 0.00 0.00 0.00 0.00 0.00 0.00 0.02 0.01 0.09 0.18 0.16 0.17 0.16 0.08 0.04 0.12 0.21 0.15 0.06 0.06 0.02 0.00 0.00 0.00 0.00 0.00 0.00 0.00
0.01 0.00 0.00 0.00 0.00 0.00 0.00 0.00 0.00 0.00 0.00 0.00 0.00 0.00 0.00 0.00 0.00 0.00 0.00 0.00 0.00 0.00 0.00 0.00 0.00 0.00 0.01 0.02 0.05 0.10 0.15 0.18 0.19 0.09 0.02 0.06 0.25 0.30 0.30 0.18 0.11 0.09 0.03 0.01 0.00 0.00 0.00 0.00 0.00
0.02 0.00 0.00 0.00 0.00 0.00 0.00 0.00 0.00 0.00 0.00 0.00 0.00 0.00 0.00 0.00 0.00 0.00 0.00 0.00 0.00 0.00 0.00 0.00 0.00 0.00 0.00 0.00 0.02 0.02 0.03 0.05 0.05 0.05 0.15 0.21 0.25 0.29 0.32 0.25 0.20 0.17 0.11 0.04 0.07 0.06 0.07 0.03 0.01
0.03 0.00 0.00 0.00 0.00 0.00 0.00 0.00 0.00 0.00 0.00 0.00 0.00 0.00 0.00 0.00 0.00 0.00 0.00 0.00 0.00 0.00 0.00 0.00 0.00 0.00 0.00 0.00 0.00 0.02 0.03 0.03 0.03 0.06 0.10 0.13 0.19 0.21 0.27 0.26 0.23 0.14 0.14 0.22 0.15 0.09 0.08 0.07 0.04
0.02 0.00 0.00 0.00 0.00 0.00 0.00 0.00 0.00 0.00 0.00 0.00 0.00 0.00 0.00 0.00 0.00 0.00 0.00 0.00 0.00 0.00 0.00 0.00 0.00 0.00 0.00 0.00 0.00 0.00 0.01 0.01 0.02 0.05 0.11 0.11 0.15 0.16 0.16 0.18 0.14 0.18 0.15 0.14 0.17 0.23 0.17 0.12 0.11
0.01 0.03 0.03 0.02 0.01 0.00 0.00 0.00 0.00 0.00 0.00 0.00 0.00 0.00 0.00 0.00 0.00 0.00 0.00 0.00 0.00 0.00 0.00 0.00 0.00 0.00 0.00 0.00 0.00 0.01 0.01 0.02 0.03 0.06 0.12 0.12 0.11 0.08 0.08 0.12 0.15 0.13 0.16 0.21 0.28 0.24 0.20 0.18 0.14
0.01 0.02 0.02 0.00 0.00 0.00 0.00 0.00 0.00 0.00 0.00 0.00 0.00 0.00 0.00 0.00 0.00 0.00 0.00 0.00 0.00 0.00 0.00 0.00 0.00 0.00 0.00 0.00 0.00 0.00 0.00 0.01 0.03 0.07 0.06 0.07 0.10 0.09 0.08 0.15 0.17 0.17 0.16 0.15 0.22 0.21 0.16 0.14 0.11
0.02 0.02 0.00 0.00 0.00 0.00 0.00 0.00 0.00 0.00 0.00 0.00 0.00 0.00 0.00 0.00 0.00 0.00 0.00 0.00 0.00 0.00 0.00 0.00 0.00 0.00 0.00 0.01 0.01 0.01 0.00 0.02 0.03 0.03 0.04 0.05 0.06 0.08 0.08 0.11 0.15 0.17 0.17 0.18 0.18 0.19 0.18 0.16 0.13
0.00 0.00 0.01 0.01 0.00 0.00 0.00 0.00 0.00 0.00 0.00 0.00 0.00 0.00 0.00 0.00 0.00 0.00 0.00 0.00 0.00 0.00 0.00 0.00 0.00 0.00 0.00 0.03 0.03 0.01 0.03 0.03 0.03 0.03 0.03 0.04 0.05 0.06 0.07 0.08 0.08 0.08 0.09 0.11 0.13 0.14 0.16 0.17 0.15
0.00 0.00 0.00 0.00 0.00 0.00 0.00 0.00 0.00 0.00 0.00 0.00 0.00 0.00 0.00 0.00 0.00 0.00 0.00 0.00 0.00 0.00 0.00 0.00 0.00 0.00 0.01 0.02 0.00 0.00 0.01 0.03 0.02 0.03 0.03 0.04 0.05 0.03 0.04 0.03 0.04 0.04 0.05 0.05 0.06 0.07 0.09 0.12 0.11
0.00 0.00 0.00 0.00 0.00 0.00 0.01 0.01 0.00 0.00 0.00 0.00 0.00 0.00 0.00 0.00 0.00 0.00 0.00 0.00 0.00 0.00 0.00 0.00 0.00 0.01 0.02 0.01 0.00 0.01 0.04 0.04 0.04 0.04 0.04 0.05 0.06 0.05 0.05 0.04 0.03 0.02 0.03 0.06 0.10 0.14 0.14 0.13 0.14

GFSSGP_prec_precacc24_054.txt.gz
Total_Precipitation_Accumulation
0.00 0.00 0.00 0.00 0.00 0.00 0.00 0.00 0.00 0.00 0.00 0.00 0.00 0.00 0.00 0.00 0.00 0.00 0.00 0.00 0.00 0.00 0.00 0.01 0.02 0.03 0.03 0.06 0.05 0.02 0.02 0.01 0.01 0.02 0.02 0.00 0.00 0.00 0.00 0.01 0.02 0.04 0.12 0.30 0.29 0.10 0.01 0.00 0.00
0.00 0.00 0.00 0.00 0.00 0.00 0.00 0.00 0.00 0.00 0.00 0.00 0.00 0.00 0.00 0.00 0.00 0.00 0.00 0.00 0.00 0.00 0.00 0.00 0.01 0.01 0.03 0.05 0.03 0.02 0.02 0.01 0.02 0.02 0.01 0.00 0.00 0.00 0.01 0.02 0.04 0.07 0.18 0.16 0.03 0.00 0.00 0.00 0.00
0.00 0.00 0.00 0.00 0.00 0.00 0.00 0.00 0.00 0.00 0.00 0.00 0.00 0.00 0.00 0.00 0.00 0.00 0.00 0.00 0.00 0.00 0.00 0.00 0.00 0.01 0.02 0.04 0.03 0.03 0.02 0.02 0.02 0.00 0.00 0.00 0.00 0.01 0.02 0.03 0.02 0.02 0.02 0.00 0.00 0.00 0.00 0.00 0.00
0.00 0.00 0.00 0.00 0.00 0.00 0.00 0.00 0.00 0.00 0.00 0.00 0.00 0.00 0.00 0.00 0.00 0.00 0.00 0.00 0.00 0.00 0.00 0.00 0.00 0.01 0.02 0.04 0.04 0.03 0.03 0.02 0.01 0.01 0.00 0.00 0.00 0.01 0.00 0.00 0.00 0.00 0.00 0.00 0.00 0.00 0.00 0.00 0.00
0.00 0.00 0.00 0.00 0.00 0.00 0.00 0.00 0.00 0.00 0.00 0.00 0.00 0.00 0.00 0.00 0.00 0.00 0.00 0.00 0.00 0.00 0.00 0.00 0.01 0.01 0.01 0.03 0.04 0.03 0.03 0.02 0.01 0.00 0.00 0.00 0.00 0.00 0.00 0.00 0.00 0.00 0.00 0.00 0.00 0.00 0.00 0.00 0.00
0.05 0.01 0.01 0.00 0.00 0.00 0.00 0.00 0.00 0.00 0.00 0.00 0.00 0.00 0.00 0.00 0.00 0.00 0.00 0.00 0.00 0.00 0.00 0.00 0.01 0.01 0.01 0.02 0.02 0.03 0.03 0.03 0.01 0.00 0.00 0.00 0.00 0.00 0.00 0.00 0.00 0.00 0.00 0.00 0.00 0.00 0.00 0.00 0.00
0.09 0.02 0.01 0.00 0.00 0.00 0.00 0.00 0.00 0.00 0.00 0.00 0.00 0.00 0.00 0.00 0.00 0.00 0.00 0.00 0.00 0.00 0.00 0.00 0.00 0.00 0.01 0.01 0.01 0.02 0.02 0.02 0.00 0.00 0.00 0.00 0.00 0.00 0.00 0.00 0.00 0.00 0.00 0.00 0.00 0.00 0.00 0.00 0.00
0.02 0.06 0.02 0.00 0.00 0.00 0.00 0.00 0.00 0.00 0.00 0.00 0.00 0.00 0.02 0.00 0.00 0.01 0.00 0.00 0.00 0.00 0.01 0.00 0.00 0.00 0.00 0.00 0.00 0.01 0.02 0.01 0.00 0.00 0.00 0.00 0.00 0.00 0.00 0.00 0.00 0.00 0.01 0.01 0.01 0.00 0.00 0.00 0.00
0.00 0.06 0.11 0.00 0.00 0.00 0.00 0.00 0.00 0.00 0.00 0.00 0.00 0.00 0.00 0.00 0.00 0.01 0.01 0.01 0.01 0.02 0.04 0.03 0.02 0.00 0.00 0.00 0.00 0.00 0.02 0.01 0.00 0.00 0.00 0.00 0.00 0.00 0.00 0.00 0.00 0.00 0.02 0.02 0.02 0.00 0.00 0.00 0.00
0.00 0.00 0.01 0.00 0.00 0.00 0.00 0.00 0.00 0.00 0.00 0.00 0.00 0.00 0.00 0.00 0.00 0.00 0.01 0.01 0.01 0.03 0.04 0.02 0.01 0.00 0.00 0.00 0.00 0.00 0.00 0.00 0.00 0.00 0.00 0.00 0.00 0.00 0.00 0.00 0.00 0.00 0.03 0.02 0.03 0.00 0.00 0.00 0.00
0.00 0.00 0.00 0.00 0.00 0.00 0.00 0.00 0.00 0.00 0.00 0.00 0.00 0.00 0.00 0.00 0.01 0.01 0.01 0.01 0.01 0.01 0.01 0.00 0.00 0.00 0.00 0.00 0.00 0.00 0.00 0.00 0.00 0.00 0.00 0.00 0.00 0.00 0.00 0.00 0.00 0.00 0.01 0.00 0.01 0.00 0.00 0.00 0.00
0.00 0.00 0.00 0.00 0.00 0.00 0.00 0.00 0.00 0.00 0.00 0.00 0.00 0.00 0.00 0.00 0.00 0.01 0.01 0.03 0.02 0.01 0.00 0.00 0.00 0.00 0.00 0.01 0.00 0.00 0.00 0.00 0.00 0.00 0.00 0.00 0.00 0.00 0.00 0.00 0.00 0.00 0.00 0.00 0.00 0.00 0.00 0.00 0.00
0.00 0.00 0.00 0.00 0.00 0.00 0.00 0.00 0.00 0.00 0.00 0.00 0.00 0.00 0.00 0.00 0.00 0.00 0.00 0.01 0.01 0.00 0.00 0.01 0.01 0.01 0.02 0.02 0.02 0.00 0.00 0.00 0.00 0.00 0.00 0.00 0.00 0.00 0.00 0.00 0.00 0.00 0.00 0.00 0.00 0.00 0.00 0.00 0.00
0.00 0.00 0.00 0.00 0.00 0.00 0.00 0.00 0.00 0.00 0.00 0.00 0.00 0.00 0.00 0.00 0.00 0.00 0.00 0.00 0.00 0.00 0.00 0.02 0.04 0.02 0.00 0.03 0.03 0.03 0.00 0.00 0.00 0.00 0.00 0.00 0.00 0.00 0.00 0.00 0.00 0.00 0.00 0.00 0.00 0.00 0.00 0.00 0.00
0.00 0.00 0.00 0.00 0.00 0.00 0.00 0.00 0.00 0.00 0.00 0.00 0.00 0.00 0.00 0.00 0.00 0.00 0.00 0.00 0.00 0.00 0.01 0.01 0.01 0.00 0.00 0.01 0.05 0.05 0.08 0.03 0.00 0.00 0.00 0.00 0.00 0.00 0.00 0.00 0.00 0.00 0.00 0.00 0.00 0.00 0.00 0.00 0.00
0.00 0.00 0.00 0.00 0.00 0.00 0.00 0.00 0.00 0.00 0.00 0.00 0.00 0.00 0.00 0.00 0.00 0.00 0.00 0.00 0.00 0.00 0.00 0.01 0.02 0.03 0.00 0.02 0.08 0.13 0.15 0.07 0.07 0.06 0.01 0.00 0.00 0.00 0.00 0.00 0.00 0.00 0.00 0.00 0.00 0.00 0.00 0.00 0.00
0.00 0.00 0.00 0.00 0.00 0.00 0.00 0.00 0.00 0.00 0.00 0.00 0.00 0.00 0.00 0.00 0.00 0.00 0.00 0.00 0.00 0.00 0.00 0.00 0.00 0.01 0.01 0.03 0.09 0.21 0.23 0.09 0.08 0.06 0.02 0.01 0.01 0.02 0.00 0.00 0.00 0.00 0.00 0.00 0.00 0.00 0.00 0.00 0.00
0.00 0.00 0.00 0.00 0.00 0.00 0.00 0.00 0.00 0.00 0.00 0.00 0.00 0.00 0.00 0.00 0.00 0.00 0.00 0.00 0.00 0.00 0.00 0.00 0.00 0.00 0.03 0.08 0.14 0.20 0.20 0.07 0.06 0.03 0.03 0.12 0.06 0.06 0.02 0.00 0.00 0.00 0.00 0.00 0.00 0.00 0.00 0.00 0.00
0.00 0.00 0.00 0.00 0.00 0.00 0.00 0.00 0.00 0.00 0.00 0.00 0.00 0.00 0.00 0.00 0.00 0.00 0.00 0.00 0.00 0.00 0.00 0.00 0.00 0.00 0.02 0.03 0.04 0.12 0.12 0.13 0.12 0.07 0.18 0.09 0.13 0.15 0.11 0.03 0.01 0.00 0.00 0.00 0.00 0.00 0.00 0.00 0.00
0.00 0.00 0.00 0.00 0.00 0.00 0.00 0.00 0.00 0.00 0.00 0.00 0.00 0.00 0.00 0.00 0.00 0.00 0.00 0.00 0.00 0.00 0.00 0.00 0.00 0.00 0.00 0.02 0.01 0.08 0.16 0.15 0.17 0.16 0.08 0.08 0.13 0.23 0.16 0.10 0.10 0.04 0.02 0.00 0.00 0.00 0.00 0.00 0.00
0.01 0.00 0.00 0.00 0.00 0.00 0.00 0.00 0.00 0.00 0.00 0.00 0.00 0.00 0.00 0.00 0.00 0.00 0.00 0.00 0.00 0.00 0.00 0.00 0.00 0.00 0.01 0.02 0.05 0.10 0.15 0.17 0.18 0.09 0.01 0.04 0.27 0.34 0.31 0.19 0.13 0.15 0.08 0.07 0.01 0.05 0.03 0.02 0.01
0.02 0.00 0.00 0.00 0.00 0.00 0.00 0.00 0.00 0.00 0.00 0.00 0.00 0.00 0.00 0.00 0.00 0.00 0.00 0.00 0.00 0.00 0.00 0.00 0.00 0.00 0.00 0.00 0.02 0.02 0.03 0.04 0.04 0.04 0.14 0.19 0.24 0.30 0.35 0.29 0.22 0.17 0.13 0.08 0.11 0.13 0.14 0.07 0.02
0.03 0.00 0.00 0.00 0.00 0.00 0.00 0.00 0.00 0.00 0.00 0.00 0.00 0.00 0.00 0.00 0.00 0.00 0.00 0.00 0.00 0.00 0.00 0.00 0.00 0.00 0.00 0.00 0.00 0.01 0.02 0.02 0.03 0.06 0.10 0.13 0.19 0.21 0.27 0.26 0.24 0.16 0.15 0.24 0.18 0.15 0.15 0.13 0.10
0.02 0.00 0.00 0.00 0.00 0.00 0.00 0.00 0.00 0.00 0.00 0.00 0.00 0.00 0.00 0.00 0.00 0.00 0.00 0.00 0.00 0.00 0.00 0.00 0.00 0.00 0.00 0.00 0.00 0.00 0.01 0.01 0.02 0.05 0.11 0.09 0.12 0.15 0.17 0.19 0.14 0.18 0.16 0.15 0.18 0.26 0.23 0.19 0.17
0.01 0.03 0.04 0.02 0.01 0.00 0.00 0.00 0.00 0.00 0.00 0.00 0.00 0.00 0.00 0.00 0.00 0.00 0.00 0.00 0.00 0.00 0.00 0.00 0.00 0.00 0.00 0.00 0.00 0.01 0.01 0.02 0.03 0.05 0.11 0.11 0.09 0.07 0.09 0.16 0.17 0.14 0.17 0.22 0.29 0.26 0.24 0.26 0.21
0.01 0.02 0.03 0.01 0.00 0.00 0.00 0.00 0.00 0.00 0.00 0.00 0.00 0.00 0.00 0.00 0.00 0.00 0.00 0.00 0.00 0.00 0.00 0.00 0.00 0.00 0.00 0.00 0.00 0.00 0.00 0.01 0.03 0.06 0.04 0.05 0.06 0.07 0.08 0.18 0.21 0.20 0.18 0.17 0.24 0.23 0.18 0.19 0.17
0.02 0.02 0.00 0.00 0.00 0.00 0.00 0.00 0.00 0.00 0.00 0.00 0.00 0.00 0.00 0.00 0.00 0.00 0.00 0.00 0.00 0.00 0.00 0.00 0.00 0.00 0.00 0.01 0.01 0.01 0.00 0.02 0.03 0.02 0.03 0.04 0.04 0.07 0.08 0.12 0.18 0.19 0.18 0.19 0.21 0.22 0.21 0.20 0.19
0.01 0.00 0.02 0.00 0.00 0.00 0.00 0.00 0.00 0.00 0.00 0.00 0.00 0.00 0.00 0.00 0.00 0.00 0.00 0.00 0.00 0.00 0.00 0.00 0.00 0.00 0.00 0.03 0.03 0.01 0.03 0.03 0.02 0.02 0.02 0.03 0.04 0.06 0.07 0.08 0.08 0.09 0.09 0.12 0.15 0.17 0.19 0.23 0.22
0.02 0.00 0.00 0.01 0.00 0.00 0.00 0.00 0.00 0.00 0.00 0.00 0.00 0.00 0.00 0.00 0.00 0.00 0.00 0.00 0.00 0.00 0.00 0.00 0.00 0.00 0.01 0.02 0.00 0.00 0.01 0.03 0.02 0.02 0.03 0.03 0.04 0.03 0.04 0.03 0.04 0.04 0.05 0.06 0.07 0.09 0.12 0.16 0.16
0.00 0.00 0.00 0.01 0.00 0.00 0.00 0.00 0.00 0.00 0.00 0.00 0.00 0.00 0.00 0.00 0.00 0.00 0.00 0.00 0.00 0.00 0.00 0.00 0.00 0.01 0.02 0.01 0.00 0.01 0.03 0.03 0.03 0.03 0.03 0.04 0.05 0.05 0.05 0.04 0.03 0.02 0.03 0.06 0.12 0.16 0.17 0.16 0.17

GFSSGP_prec_precacc24_057.txt.gz
Total_Precipitation_Accumulation
0.00 0.00 0.00 0.00 0.00 0.00 0.00 0.00 0.00 0.00 0.00 0.00 0.00 0.00 0.00 0.00 0.00 0.00 0.00 0.00 0.00 0.00 0.00 0.01 0.02 0.03 0.03 0.06 0.05 0.02 0.03 0.02 0.01 0.01 0.01 0.00 0.00 0.00 0.00 0.01 0.02 0.05 0.14 0.31 0.29 0.10 0.01 0.00 0.00
0.00 0.00 0.00 0.00 0.00 0.00 0.00 0.00 0.00 0.00 0.00 0.00 0.00 0.00 0.00 0.00 0.00 0.00 0.00 0.00 0.00 0.00 0.00 0.00 0.01 0.02 0.03 0.05 0.03 0.02 0.02 0.01 0.01 0.01 0.01 0.00 0.00 0.00 0.01 0.02 0.04 0.09 0.19 0.16 0.03 0.00 0.00 0.00 0.00
0.00 0.00 0.00 0.00 0.00 0.00 0.00 0.00 0.00 0.00 0.00 0.00 0.00 0.00 0.00 0.00 0.00 0.00 0.00 0.00 0.00 0.00 0.00 0.00 0.01 0.01 0.02 0.04 0.03 0.03 0.03 0.02 0.02 0.00 0.00 0.00 0.01 0.03 0.03 0.03 0.03 0.03 0.02 0.00 0.00 0.00 0.00 0.00 0.00
0.00 0.00 0.00 0.00 0.00 0.00 0.00 0.00 0.00 0.00 0.00 0.00 0.00 0.00 0.00 0.00 0.00 0.00 0.00 0.00 0.00 0.00 0.00 0.00 0.01 0.01 0.02 0.04 0.05 0.03 0.03 0.02 0.01 0.01 0.00 0.00 0.01 0.02 0.01 0.00 0.00 0.00 0.00 0.00 0.00 0.00 0.00 0.00 0.00
0.00 0.00 0.00 0.00 0.00 0.00 0.00 0.00 0.00 0.00 0.00 0.00 0.00 0.00 0.00 0.00 0.00 0.00 0.00 0.00 0.00 0.00 0.00 0.00 0.01 0.01 0.01 0.04 0.05 0.03 0.04 0.02 0.01 0.00 0.00 0.00 0.01 0.00 0.00 0.00 0.00 0.00 0.00 0.00 0.00 0.00 0.00 0.00 0.00
0.09 0.03 0.01 0.00 0.00 0.00 0.00 0.00 0.00 0.00 0.00 0.00 0.00 0.00 0.01 0.00 0.00 0.01 0.00 0.00 0.00 0.00 0.00 0.00 0.01 0.01 0.02 0.03 0.03 0.03 0.03 0.03 0.01 0.00 0.00 0.00 0.00 0.00 0.00 0.00 0.00 0.00 0.00 0.00 0.00 0.00 0.00 0.00 0.00
0.13 0.15 0.03 0.00 0.00 0.00 0.00 0.00 0.00 0.00 0.00 0.00 0.00 0.01 0.06 0.03 0.00 0.01 0.00 0.00 0.00 0.00 0.00 0.00 0.00 0.00 0.01 0.01 0.02 0.03 0.02 0.02 0.00 0.00 0.00 0.00 0.00 0.00 0.00 0.00 0.00 0.00 0.00 0.00 0.00 0.00 0.00 0.00 0.00
0.04 0.16 0.10 0.01 0.00 0.00 0.00 0.00 0.00 0.00 0.00 0.00 0.00 0.01 0.05 0.02 0.00 0.01 0.02 0.01 0.00 0.00 0.01 0.00 0.00 0.00 0.00 0.00 0.01 0.02 0.02 0.01 0.00 0.00 0.00 0.00 0.00 0.00 0.00 0.00 0.00 0.00 0.01 0.01 0.01 0.00 0.00 0.00 0.00
0.02 0.12 0.23 0.06 0.01 0.00 0.00 0.00 0.00 0.00 0.00 0.00 0.00 0.00 0.00 0.01 0.01 0.01 0.01 0.01 0.02 0.02 0.04 0.03 0.02 0.00 0.00 0.00 0.00 0.00 0.02 0.01 0.00 0.00 0.00 0.00 0.00 0.00 0.00 0.00 0.00 0.00 0.02 0.02 0.02 0.00 0.00 0.00 0.00
0.07 0.12 0.06 0.02 0.00 0.00 0.01 0.00 0.00 0.00 0.00 0.00 0.00 0.00 0.00 0.00 0.00 0.01 0.01 0.01 0.01 0.03 0.04 0.02 0.01 0.00 0.00 0.00 0.00 0.00 0.00 0.00 0.00 0.00 0.00 0.00 0.00 0.00 0.00 0.00 0.00 0.00 0.03 0.02 0.03 0.00 0.00 0.00 0.00
0.00 0.02 0.00 0.01 0.01 0.01 0.01 0.00 0.00 0.00 0.00 0.00 0.00 0.00 0.00 0.00 0.01 0.01 0.01 0.01 0.01 0.01 0.01 0.00 0.00 0.00 0.00 0.00 0.00 0.00 0.00 0.00 0.00 0.00 0.00 0.00 0.00 0.00 0.00 0.00 0.00 0.00 0.01 0.00 0.01 0.00 0.00 0.00 0.00
0.00 0.00 0.00 0.02 0.02 0.02 0.00 0.00 0.00 0.00 0.00 0.00 0.00 0.00 0.00 0.00 0.00 0.01 0.01 0.03 0.02 0.01 0.00 0.00 0.00 0.00 0.00 0.00 0.00 0.00 0.00 0.00 0.00 0.00 0.00 0.00 0.00 0.00 0.00 0.00 0.00 0.00 0.00 0.00 0.00 0.00 0.00 0.00 0.00
0.00 0.00 0.00 0.00 0.00 0.00 0.00 0.00 0.00 0.00 0.00 0.00 0.00 0.00 0.00 0.00 0.00 0.00 0.00 0.00 0.00 0.00 0.00 0.01 0.01 0.01 0.02 0.02 0.02 0.00 0.00 0.00 0.00 0.00 0.00 0.00 0.00 0.00 0.00 0.00 0.00 0.00 0.00 0.00 0.00 0.00 0.00 0.00 0.00
0.00 0.00 0.00 0.00 0.00 0.00 0.00 0.00 0.00 0.00 0.00 0.00 0.00 0.00 0.00 0.00 0.00 0.00 0.00 0.00 0.00 0.00 0.00 0.02 0.04 0.02 0.00 0.03 0.03 0.03 0.00 0.00 0.00 0.00 0.00 0.00 0.00 0.00 0.00 0.00 0.00 0.00 0.00 0.00 0.00 0.00 0.00 0.00 0.00
0.00 0.01 0.00 0.00 0.00 0.00 0.00 0.00 0.00 0.00 0.00 0.00 0.00 0.00 0.00 0.00 0.00 0.00 0.00 0.00 0.00 0.00 0.01 0.01 0.01 0.00 0.00 0.01 0.04 0.05 0.08 0.03 0.00 0.00 0.00 0.00 0.00 0.00 0.00 0.00 0.00 0.00 0.00 0.00 0.00 0.00 0.00 0.00 0.00
0.00 0.00 0.00 0.00 0.00 0.00 0.00 0.00 0.00 0.00 0.00 0.00 0.00 0.00 0.00 0.00 0.00 0.00 0.00 0.00 0.00 0.00 0.00 0.01 0.03 0.03 0.01 0.02 0.07 0.14 0.15 0.06 0.05 0.05 0.01 0.00 0.00 0.00 0.00 0.00 0.00 0.00 0.00 0.00 0.00 0.00 0.00 0.00 0.00
0.02 0.00 0.00 0.00 0.00 0.00 0.00 0.00 0.00 0.00 0.00 0.00 0.00 0.00 0.00 0.00 0.00 0.00 0.00 0.00 0.00 0.00 0.00 0.00 0.00 0.01 0.03 0.05 0.09 0.21 0.22 0.09 0.05 0.05 0.02 0.01 0.01 0.02 0.00 0.00 0.00 0.00 0.00 0.00 0.00 0.00 0.00 0.00 0.00
0.00 0.00 0.00 0.00 0.00 0.00 0.00 0.00 0.00 0.00 0.00 0.00 0.00 0.00 0.00 0.00 0.00 0.00 0.00 0.00 0.00 0.00 0.00 0.00 0.00 0.00 0.03 0.08 0.13 0.14 0.13 0.07 0.06 0.02 0.03 0.12 0.07 0.06 0.04 0.01 0.00 0.00 0.00 0.00 0.00 0.00 0.00 0.00 0.00
0.00 0.00 0.00 0.00 0.00 0.00 0.00 0.00 0.00 0.00 0.00 0.00 0.00 0.00 0.00 0.00 0.00 0.00 0.00 0.00 0.00 0.00 0.00 0.00 0.00 0.00 0.02 0.03 0.03 0.08 0.08 0.13 0.13 0.06 0.19 0.11 0.16 0.18 0.14 0.04 0.01 0.01 0.00 0.00 0.00 0.00 0.00 0.00 0.00
0.00 0.00 0.00 0.00 0.00 0.00 0.00 0.00 0.00 0.00 0.00 0.00 0.00 0.00 0.00 0.00 0.00 0.00 0.00 0.00 0.00 0.00 0.00 0.00 0.00 0.00 0.00 0.02 0.01 0.03 0.08 0.08 0.12 0.15 0.07 0.09 0.17 0.27 0.20 0.14 0.13 0.08 0.03 0.02 0.01 0.02 0.06 0.02 0.02
0.01 0.00 0.00 0.00 0.00 0.00 0.00 0.00 0.00 0.00 0.00 0.00 0.00 0.00 0.00 0.00 0.00 0.00 0.00 0.00 0.00 0.00 0.00 0.00 0.00 0.00 0.00 0.02 0.04 0.08 0.08 0.08 0.11 0.07 0.01 0.03 0.23 0.34 0.34 0.21 0.16 0.22 0.16 0.13 0.06 0.10 0.12 0.10 0.07
0.02 0.00 0.00 0.00 0.00 0.00 0.00 0.00 0.00 0.00 0.00 0.00 0.00 0.00 0.00 0.00 0.00 0.00 0.00 0.00 0.00 0.00 0.00 0.00 0.00 0.00 0.00 0.00 0.02 0.02 0.02 0.01 0.01 0.01 0.09 0.13 0.20 0.29 0.35 0.31 0.28 0.23 0.17 0.14 0.20 0.24 0.23 0.19 0.10
0.04 0.00 0.00 0.00 0.00 0.00 0.00 0.00 0.00 0.00 0.00 0.00 0.00 0.00 0.00 0.00 0.00 0.00 0.00 0.00 0.00 0.00 0.00 0.00 0.00 0.00 0.00 0.00 0.00 0.01 0.02 0.00 0.01 0.03 0.05 0.09 0.14 0.19 0.26 0.25 0.24 0.18 0.20 0.29 0.23 0.20 0.20 0.17 0.16
0.03 0.00 0.00 0.00 0.00 0.00 0.00 0.00 0.00 0.00 0.00 0.00 0.00 0.00 0.00 0.00 0.00 0.00 0.00 0.00 0.00 0.00 0.00 0.00 0.00 0.00 0.00 0.00 0.00 0.00 0.01 0.01 0.01 0.03 0.08 0.07 0.08 0.11 0.15 0.18 0.15 0.19 0.17 0.17 0.22 0.33 0.31 0.27 0.27
0.01 0.03 0.04 0.02 0.01 0.00 0.00 0.00 0.00 0.00 0.00 0.00 0.00 0.00 0.00 0.00 0.00 0.00 0.00 0.00 0.00 0.00 0.00 0.00 0.00 0.00 0.00 0.00 0.00 0.00 0.00 0.01 0.02 0.04 0.09 0.09 0.07 0.06 0.07 0.15 0.18 0.15 0.18 0.23 0.31 0.28 0.30 0.37 0.32
0.01 0.02 0.03 0.01 0.00 0.00 0.00 0.00 0.00 0.00 0.00 0.00 0.00 0.00 0.00 0.00 0.00 0.00 0.00 0.00 0.00 0.00 0.00 0.00 0.00 0.00 0.00 0.00 0.00 0.00 0.00 0.00 0.01 0.04 0.03 0.03 0.05 0.06 0.07 0.16 0.19 0.19 0.19 0.17 0.24 0.24 0.19 0.24 0.26
0.03 0.02 0.00 0.00 0.00 0.00 0.00 0.00 0.00 0.00 0.00 0.00 0.00 0.00 0.00 0.00 0.00 0.00 0.00 0.00 0.00 0.00 0.00 0.00 0.00 0.00 0.00 0.00 0.00 0.00 0.00 0.00 0.01 0.01 0.01 0.03 0.03 0.05 0.06 0.10 0.16 0.18 0.18 0.20 0.21 0.23 0.22 0.22 0.24
0.01 0.00 0.02 0.00 0.00 0.00 0.00 0.00 0.00 0.00 0.00 0.00 0.00 0.00 0.00 0.00 0.00 0.00 0.00 0.00 0.00 0.00 0.00 0.00 0.00 0.00 0.00 0.00 0.00 0.00 0.01 0.02 0.02 0.01 0.02 0.02 0.04 0.05 0.06 0.06 0.07 0.08 0.09 0.12 0.16 0.18 0.20 0.25 0.25
0.02 0.00 0.00 0.01 0.00 0.00 0.00 0.00 0.00 0.00 0.00 0.00 0.00 0.00 0.00 0.00 0.00 0.00 0.00 0.00 0.00 0.00 0.00 0.00 0.00 0.00 0.00 0.00 0.00 0.00 0.00 0.02 0.02 0.02 0.02 0.03 0.03 0.03 0.02 0.02 0.03 0.04 0.05 0.06 0.07 0.09 0.12 0.16 0.17
0.00 0.00 0.00 0.01 0.01 0.00 0.00 0.00 0.00 0.00 0.00 0.00 0.00 0.00 0.00 0.00 0.00 0.00 0.00 0.00 0.00 0.00 0.00 0.00 0.00 0.00 0.00 0.00 0.00 0.01 0.02 0.03 0.03 0.03 0.03 0.04 0.03 0.03 0.03 0.03 0.02 0.02 0.03 0.06 0.12 0.16 0.18 0.18 0.18

GFSSGP_prec_precacc24_060.txt.gz
Total_Precipitation_Accumulation
0.00 0.00 0.00 0.00 0.00 0.00 0.00 0.00 0.00 0.00 0.00 0.00 0.00 0.00 0.00 0.00 0.00 0.00 0.00 0.00 0.00 0.00 0.00 0.01 0.02 0.04 0.04 0.06 0.05 0.02 0.03 0.02 0.01 0.01 0.01 0.00 0.00 0.00 0.00 0.01 0.02 0.06 0.14 0.30 0.29 0.10 0.01 0.00 0.00
0.00 0.00 0.00 0.00 0.00 0.00 0.00 0.00 0.00 0.00 0.00 0.00 0.00 0.00 0.00 0.00 0.00 0.00 0.00 0.00 0.00 0.00 0.00 0.00 0.01 0.02 0.03 0.05 0.03 0.02 0.02 0.01 0.01 0.01 0.01 0.00 0.00 0.00 0.01 0.02 0.06 0.10 0.19 0.16 0.03 0.00 0.00 0.00 0.00
0.00 0.00 0.00 0.00 0.00 0.00 0.00 0.00 0.00 0.00 0.00 0.00 0.00 0.00 0.00 0.00 0.00 0.00 0.00 0.00 0.00 0.00 0.00 0.00 0.02 0.01 0.02 0.04 0.03 0.03 0.03 0.02 0.01 0.00 0.00 0.00 0.02 0.03 0.03 0.04 0.04 0.03 0.02 0.00 0.00 0.00 0.00 0.00 0.00
0.00 0.00 0.00 0.00 0.00 0.00 0.00 0.00 0.00 0.00 0.00 0.00 0.00 0.00 0.00 0.00 0.00 0.00 0.00 0.00 0.00 0.00 0.00 0.01 0.02 0.01 0.02 0.04 0.05 0.03 0.03 0.02 0.01 0.01 0.00 0.01 0.02 0.02 0.02 0.01 0.00 0.00 0.00 0.00 0.00 0.00 0.00 0.00 0.00
0.00 0.00 0.00 0.00 0.00 0.00 0.00 0.00 0.00 0.00 0.00 0.00 0.00 0.00 0.00 0.00 0.00 0.00 0.00 0.00 0.00 0.00 0.00 0.00 0.02 0.02 0.02 0.04 0.05 0.03 0.03 0.02 0.01 0.00 0.00 0.01 0.01 0.01 0.00 0.00 0.00 0.00 0.00 0.00 0.00 0.00 0.00 0.00 0.00
0.09 0.03 0.01 0.00 0.00 0.00 0.00 0.00 0.00 0.00 0.00 0.00 0.00 0.00 0.02 0.01 0.00 0.01 0.00 0.00 0.00 0.00 0.00 0.00 0.01 0.02 0.03 0.03 0.03 0.04 0.03 0.03 0.01 0.00 0.00 0.01 0.00 0.00 0.00 0.00 0.00 0.00 0.00 0.00 0.00 0.00 0.00 0.00 0.00
0.13 0.16 0.04 0.00 0.00 0.00 0.00 0.00 0.00 0.00 0.00 0.00 0.00 0.02 0.08 0.03 0.01 0.02 0.00 0.00 0.00 0.00 0.00 0.00 0.00 0.01 0.01 0.02 0.02 0.03 0.02 0.02 0.00 0.00 0.00 0.00 0.00 0.00 0.00 0.00 0.00 0.00 0.00 0.00 0.00 0.00 0.00 0.00 0.00
0.04 0.16 0.10 0.02 0.00 0.00 0.00 0.00 0.00 0.00 0.00 0.00 0.00 0.01 0.05 0.02 0.00 0.02 0.02 0.01 0.00 0.00 0.00 0.00 0.00 0.00 0.00 0.00 0.01 0.02 0.02 0.01 0.00 0.00 0.00 0.00 0.00 0.00 0.00 0.00 0.00 0.00 0.01 0.01 0.01 0.00 0.00 0.00 0.00
0.07 0.13 0.23 0.07 0.01 0.00 0.00 0.00 0.00 0.00 0.00 0.00 0.00 0.00 0.00 0.01 0.01 0.03 0.02 0.01 0.02 0.02 0.03 0.01 0.02 0.00 0.00 0.00 0.00 0.00 0.02 0.01 0.00 0.00 0.00 0.00 0.00 0.00 0.00 0.00 0.00 0.00 0.02 0.02 0.02 0.00 0.00 0.00 0.00
0.18 0.20 0.06 0.02 0.01 0.01 0.02 0.00 0.00 0.00 0.00 0.00 0.00 0.00 0.00 0.01 0.05 0.05 0.03 0.01 0.01 0.03 0.03 0.02 0.01 0.00 0.00 0.00 0.00 0.00 0.00 0.00 0.00 0.00 0.00 0.00 0.00 0.00 0.00 0.00 0.00 0.00 0.03 0.02 0.03 0.00 0.00 0.00 0.00
0.04 0.11 0.00 0.01 0.02 0.12 0.07 0.00 0.00 0.00 0.00 0.00 0.00 0.00 0.00 0.01 0.03 0.05 0.04 0.03 0.01 0.01 0.01 0.00 0.00 0.00 0.00 0.00 0.00 0.00 0.00 0.00 0.00 0.00 0.00 0.00 0.00 0.00 0.00 0.00 0.00 0.00 0.01 0.00 0.01 0.00 0.00 0.00 0.00
0.00 0.00 0.00 0.02 0.04 0.14 0.09 0.02 0.00 0.00 0.00 0.00 0.00 0.00 0.00 0.00 0.00 0.02 0.02 0.04 0.02 0.01 0.00 0.00 0.00 0.00 0.00 0.00 0.00 0.00 0.00 0.00 0.00 0.00 0.00 0.00 0.00 0.00 0.00 0.00 0.00 0.00 0.00 0.00 0.00 0.00 0.00 0.00 0.00
0.00 0.00 0.00 0.01 0.01 0.03 0.09 0.06 0.00 0.00 0.00 0.00 0.00 0.00 0.00 0.00 0.00 0.00 0.01 0.01 0.01 0.00 0.00 0.01 0.01 0.01 0.02 0.02 0.02 0.00 0.00 0.00 0.00 0.00 0.00 0.00 0.00 0.00 0.00 0.00 0.00 0.00 0.00 0.00 0.00 0.00 0.00 0.00 0.00
0.00 0.00 0.01 0.02 0.00 0.01 0.04 0.04 0.01 0.00 0.00 0.00 0.00 0.00 0.00 0.00 0.00 0.00 0.00 0.00 0.00 0.00 0.01 0.02 0.04 0.02 0.00 0.03 0.03 0.02 0.00 0.00 0.00 0.00 0.00 0.00 0.00 0.00 0.00 0.00 0.00 0.00 0.00 0.00 0.00 0.00 0.00 0.00 0.00
0.00 0.03 0.01 0.00 0.00 0.00 0.00 0.00 0.01 0.00 0.00 0.00 0.00 0.00 0.00 0.00 0.00 0.00 0.00 0.00 0.00 0.00 0.01 0.01 0.01 0.00 0.00 0.01 0.04 0.05 0.08 0.03 0.00 0.00 0.00 0.00 0.00 0.00 0.00 0.00 0.00 0.00 0.00 0.00 0.00 0.00 0.00 0.00 0.00
0.00 0.03 0.01 0.00 0.00 0.00 0.00 0.00 0.00 0.00 0.00 0.00 0.00 0.00 0.00 0.00 0.00 0.00 0.00 0.00 0.00 0.00 0.00 0.01 0.02 0.03 0.01 0.02 0.06 0.14 0.15 0.06 0.05 0.05 0.01 0.00 0.00 0.00 0.00 0.00 0.00 0.00 0.00 0.00 0.00 0.00 0.00 0.00 0.00
0.03 0.01 0.00 0.00 0.00 0.00 0.00 0.00 0.00 0.00 0.00 0.00 0.00 0.00 0.00 0.00 0.00 0.00 0.00 0.00 0.00 0.00 0.00 0.00 0.00 0.01 0.03 0.05 0.08 0.20 0.21 0.09 0.05 0.05 0.02 0.01 0.01 0.02 0.01 0.00 0.00 0.00 0.00 0.00 0.00 0.00 0.00 0.00 0.00
0.00 0.00 0.00 0.00 0.00 0.00 0.00 0.00 0.00 0.00 0.00 0.00 0.00 0.00 0.00 0.00 0.00 0.00 0.00 0.00 0.00 0.00 0.00 0.00 0.00 0.00 0.01 0.04 0.10 0.10 0.08 0.07 0.06 0.02 0.03 0.12 0.07 0.07 0.07 0.03 0.02 0.01 0.00 0.00 0.00 0.00 0.00 0.00 0.00
0.00 0.00 0.00 0.00 0.00 0.00 0.00 0.00 0.00 0.00 0.00 0.00 0.00 0.00 0.00 0.00 0.00 0.00 0.00 0.00 0.00 0.00 0.00 0.00 0.00 0.00 0.00 0.01 0.02 0.04 0.02 0.13 0.15 0.09 0.23 0.15 0.20 0.22 0.18 0.07 0.04 0.05 0.02 0.01 0.01 0.00 0.00 0.01 0.05
0.00 0.00 0.00 0.00 0.00 0.00 0.00 0.00 0.00 0.00 0.00 0.00 0.00 0.00 0.00 0.00 0.00 0.00 0.00 0.00 0.00 0.00 0.00 0.00 0.00 0.00 0.00 0.00 0.00 0.00 0.02 0.03 0.04 0.12 0.08 0.10 0.17 0.27 0.22 0.17 0.15 0.10 0.07 0.05 0.03 0.04 0.07 0.06 0.11
0.01 0.00 0.00 0.00 0.00 0.00 0.00 0.00 0.00 0.00 0.00 0.00 0.00 0.00 0.00 0.00 0.00 0.00 0.00 0.00 0.00 0.00 0.00 0.00 0.00 0.00 0.00 0.00 0.00 0.01 0.02 0.03 0.04 0.03 0.00 0.00 0.16 0.27 0.29 0.21 0.17 0.23 0.18 0.15 0.09 0.14 0.15 0.14 0.12
0.02 0.00 0.00 0.00 0.00 0.00 0.00 0.00 0.00 0.00 0.00 0.00 0.00 0.00 0.00 0.00 0.00 0.00 0.00 0.00 0.00 0.00 0.00 0.00 0.00 0.00 0.00 0.00 0.00 0.00 0.00 0.00 0.00 0.00 0.02 0.03 0.11 0.20 0.31 0.30 0.26 0.23 0.19 0.16 0.22 0.29 0.28 0.26 0.14
0.04 0.00 0.00 0.00 0.00 0.00 0.00 0.00 0.00 0.00 0.00 0.00 0.00 0.00 0.00 0.00 0.00 0.00 0.00 0.00 0.00 0.00 0.00 0.00 0.00 0.00 0.00 0.00 0.00 0.01 0.01 0.00 0.00 0.00 0.01 0.02 0.06 0.13 0.21 0.22 0.23 0.18 0.20 0.30 0.24 0.21 0.22 0.22 0.22
0.03 0.00 0.00 0.00 0.00 0.00 0.00 0.00 0.00 0.00 0.00 0.00 0.00 0.00 0.00 0.00 0.00 0.00 0.00 0.00 0.00 0.00 0.00 0.00 0.00 0.00 0.00 0.00 0.00 0.00 0.01 0.01 0.01 0.02 0.06 0.03 0.04 0.07 0.12 0.15 0.11 0.18 0.18 0.18 0.24 0.34 0.33 0.31 0.32
0.01 0.03 0.04 0.04 0.01 0.00 0.00 0.00 0.00 0.00 0.00 0.00 0.00 0.00 0.00 0.00 0.00 0.00 0.00 0.00 0.00 0.00 0.00 0.00 0.00 0.00 0.00 0.00 0.00 0.00 0.00 0.01 0.01 0.03 0.08 0.08 0.04 0.03 0.05 0.12 0.16 0.14 0.17 0.22 0.31 0.28 0.31 0.40 0.38
0.01 0.02 0.03 0.01 0.00 0.00 0.00 0.00 0.00 0.00 0.00 0.00 0.00 0.00 0.00 0.00 0.00 0.00 0.00 0.00 0.00 0.00 0.00 0.00 0.00 0.00 0.00 0.00 0.00 0.00 0.00 0.00 0.00 0.03 0.01 0.02 0.03 0.03 0.05 0.14 0.17 0.18 0.18 0.16 0.24 0.24 0.19 0.24 0.28
0.03 0.02 0.00 0.00 0.00 0.00 0.00 0.00 0.00 0.00 0.00 0.00 0.00 0.00 0.00 0.00 0.00 0.00 0.00 0.00 0.00 0.00 0.00 0.00 0.00 0.00 0.00 0.00 0.00 0.00 0.00 0.00 0.00 0.00 0.00 0.00 0.01 0.02 0.03 0.07 0.15 0.17 0.17 0.19 0.21 0.22 0.22 0.22 0.25
0.02 0.00 0.02 0.00 0.00 0.00 0.00 0.00 0.00 0.00 0.00 0.00 0.00 0.00 0.00 0.00 0.00 0.00 0.00 0.00 0.00 0.00 0.00 0.00 0.00 0.00 0.00 0.00 0.00 0.00 0.00 0.00 0.00 0.00 0.00 0.00 0.01 0.02 0.03 0.05 0.06 0.07 0.08 0.11 0.15 0.17 0.20 0.25 0.25
0.03 0.00 0.00 0.01 0.00 0.00 0.00 0.00 0.00 0.00 0.00 0.00 0.00 0.00 0.00 0.00 0.00 0.00 0.00 0.00 0.00 0.00 0.00 0.00 0.00 0.00 0.00 0.00 0.00 0.00 0.00 0.00 0.00 0.00 0.00 0.00 0.01 0.02 0.02 0.02 0.02 0.03 0.03 0.04 0.05 0.06 0.11 0.16 0.17
0.01 0.00 0.00 0.01 0.01 0.00 0.00 0.00 0.00 0.00 0.00 0.00 0.00 0.00 0.00 0.00 0.00 0.00 0.00 0.00 0.00 0.00 0.00 0.00 0.00 0.00 0.00 0.00 0.00 0.00 0.00 0.00 0.00 0.01 0.02 0.02 0.03 0.03 0.03 0.02 0.01 0.01 0.01 0.01 0.04 0.10 0.17 0.18 0.18

GFSSGP_prec_precacc24_063.txt.gz
Total_Precipitation_Accumulation
0.00 0.00 0.00 0.00 0.00 0.00 0.00 0.00 0.00 0.00 0.00 0.00 0.00 0.00 0.00 0.00 0.00 0.00 0.00 0.00 0.00 0.00 0.01 0.01 0.02 0.03 0.04 0.06 0.05 0.03 0.04 0.03 0.02 0.01 0.01 0.00 0.00 0.00 0.00 0.01 0.03 0.06 0.13 0.27 0.26 0.06 0.00 0.00 0.00
0.00 0.00 0.00 0.00 0.00 0.00 0.00 0.00 0.00 0.00 0.00 0.00 0.00 0.00 0.00 0.00 0.00 0.00 0.00 0.00 0.00 0.00 0.00 0.00 0.01 0.03 0.03 0.05 0.03 0.02 0.02 0.01 0.00 0.01 0.01 0.00 0.00 0.00 0.01 0.02 0.07 0.10 0.19 0.16 0.03 0.00 0.00 0.00 0.00
0.00 0.00 0.00 0.00 0.00 0.00 0.00 0.00 0.00 0.00 0.00 0.00 0.00 0.00 0.00 0.00 0.00 0.00 0.00 0.00 0.00 0.00 0.00 0.01 0.02 0.02 0.02 0.04 0.03 0.03 0.03 0.02 0.01 0.00 0.00 0.00 0.02 0.03 0.03 0.05 0.05 0.03 0.02 0.00 0.00 0.00 0.00 0.00 0.00
0.00 0.00 0.00 0.00 0.00 0.00 0.00 0.00 0.00 0.00 0.00 0.00 0.00 0.00 0.00 0.00 0.00 0.00 0.00 0.00 0.00 0.00 0.00 0.01 0.02 0.01 0.02 0.04 0.05 0.03 0.03 0.02 0.01 0.01 0.00 0.02 0.02 0.02 0.03 0.02 0.00 0.00 0.00 0.00 0.00 0.00 0.00 0.00 0.00
0.00 0.00 0.00 0.00 0.00 0.00 0.00 0.00 0.00 0.00 0.00 0.00 0.00 0.00 0.00 0.00 0.00 0.00 0.00 0.00 0.00 0.00 0.00 0.01 0.02 0.02 0.02 0.04 0.05 0.03 0.03 0.02 0.01 0.00 0.00 0.02 0.02 0.01 0.01 0.00 0.00 0.00 0.00 0.00 0.00 0.00 0.00 0.00 0.00
0.10 0.03 0.01 0.00 0.00 0.00 0.00 0.00 0.00 0.00 0.00 0.00 0.00 0.00 0.02 0.01 0.00 0.01 0.00 0.00 0.00 0.00 0.00 0.00 0.01 0.02 0.03 0.03 0.03 0.03 0.03 0.03 0.01 0.00 0.01 0.01 0.01 0.01 0.01 0.00 0.00 0.00 0.00 0.00 0.00 0.00 0.00 0.00 0.00
0.13 0.16 0.04 0.00 0.00 0.00 0.00 0.00 0.00 0.00 0.00 0.00 0.00 0.02 0.08 0.03 0.01 0.02 0.00 0.00 0.00 0.00 0.00 0.00 0.00 0.01 0.02 0.02 0.02 0.03 0.02 0.02 0.00 0.00 0.00 0.00 0.01 0.01 0.01 0.00 0.00 0.00 0.00 0.00 0.00 0.00 0.00 0.00 0.00
0.04 0.16 0.10 0.02 0.00 0.00 0.00 0.00 0.00 0.00 0.00 0.00 0.00 0.01 0.05 0.02 0.00 0.02 0.02 0.01 0.00 0.00 0.00 0.00 0.00 0.00 0.00 0.01 0.01 0.02 0.02 0.01 0.00 0.00 0.00 0.00 0.00 0.00 0.00 0.00 0.00 0.00 0.01 0.01 0.01 0.00 0.00 0.00 0.00
0.08 0.15 0.23 0.07 0.01 0.00 0.00 0.00 0.00 0.00 0.00 0.00 0.00 0.00 0.00 0.01 0.01 0.03 0.02 0.01 0.02 0.01 0.00 0.00 0.00 0.00 0.00 0.00 0.00 0.00 0.01 0.01 0.00 0.00 0.00 0.00 0.00 0.00 0.00 0.00 0.00 0.00 0.02 0.02 0.02 0.00 0.00 0.00 0.00
0.24 0.26 0.06 0.02 0.01 0.01 0.02 0.00 0.00 0.00 0.00 0.00 0.00 0.00 0.00 0.01 0.05 0.05 0.03 0.01 0.03 0.01 0.00 0.00 0.00 0.00 0.00 0.00 0.00 0.00 0.00 0.00 0.00 0.00 0.00 0.00 0.00 0.00 0.00 0.00 0.00 0.00 0.03 0.02 0.03 0.00 0.00 0.00 0.00
0.11 0.14 0.00 0.01 0.03 0.14 0.07 0.01 0.00 0.00 0.00 0.00 0.02 0.00 0.00 0.01 0.04 0.05 0.04 0.03 0.01 0.01 0.00 0.00 0.00 0.00 0.00 0.00 0.00 0.00 0.00 0.00 0.00 0.00 0.00 0.00 0.00 0.00 0.00 0.00 0.00 0.00 0.01 0.00 0.01 0.00 0.00 0.00 0.00
0.02 0.00 0.00 0.02 0.06 0.17 0.09 0.02 0.00 0.00 0.00 0.00 0.03 0.04 0.03 0.01 0.01 0.03 0.03 0.05 0.02 0.01 0.00 0.00 0.00 0.00 0.00 0.00 0.00 0.00 0.00 0.00 0.00 0.00 0.00 0.00 0.00 0.00 0.00 0.00 0.00 0.00 0.00 0.00 0.00 0.00 0.00 0.00 0.00
0.00 0.00 0.01 0.06 0.04 0.04 0.11 0.10 0.00 0.00 0.00 0.00 0.01 0.03 0.01 0.00 0.00 0.01 0.01 0.02 0.01 0.00 0.00 0.01 0.01 0.01 0.02 0.02 0.02 0.00 0.00 0.00 0.00 0.00 0.00 0.00 0.00 0.00 0.00 0.00 0.00 0.00 0.00 0.00 0.00 0.00 0.00 0.00 0.00
0.00 0.00 0.02 0.06 0.02 0.02 0.10 0.11 0.06 0.00 0.00 0.00 0.01 0.01 0.00 0.00 0.00 0.00 0.00 0.00 0.00 0.00 0.01 0.02 0.04 0.02 0.00 0.03 0.03 0.02 0.00 0.00 0.00 0.00 0.00 0.00 0.00 0.00 0.00 0.00 0.00 0.00 0.00 0.00 0.00 0.00 0.00 0.00 0.00
0.01 0.05 0.03 0.01 0.00 0.00 0.01 0.09 0.10 0.00 0.00 0.00 0.01 0.00 0.00 0.00 0.00 0.00 0.00 0.00 0.00 0.00 0.01 0.01 0.01 0.00 0.00 0.01 0.04 0.04 0.05 0.03 0.00 0.00 0.00 0.00 0.00 0.00 0.00 0.00 0.00 0.00 0.00 0.00 0.00 0.00 0.00 0.00 0.00
0.01 0.06 0.02 0.00 0.00 0.00 0.05 0.04 0.01 0.02 0.00 0.00 0.00 0.00 0.00 0.00 0.00 0.00 0.00 0.00 0.00 0.00 0.00 0.01 0.02 0.02 0.01 0.02 0.05 0.10 0.11 0.06 0.05 0.05 0.01 0.00 0.00 0.00 0.00 0.00 0.00 0.00 0.00 0.00 0.00 0.00 0.00 0.00 0.00
0.03 0.01 0.00 0.00 0.00 0.00 0.00 0.00 0.01 0.00 0.00 0.00 0.00 0.00 0.00 0.00 0.00 0.00 0.00 0.00 0.00 0.00 0.00 0.00 0.00 0.01 0.02 0.03 0.04 0.16 0.16 0.08 0.03 0.05 0.02 0.01 0.01 0.02 0.01 0.00 0.00 0.00 0.00 0.00 0.00 0.00 0.00 0.00 0.00
0.00 0.00 0.00 0.00 0.00 0.00 0.00 0.00 0.00 0.00 0.00 0.00 0.00 0.00 0.00 0.00 0.00 0.00 0.00 0.00 0.00 0.00 0.00 0.00 0.00 0.00 0.00 0.00 0.05 0.07 0.06 0.04 0.03 0.02 0.03 0.12 0.07 0.07 0.07 0.03 0.02 0.01 0.00 0.00 0.00 0.00 0.00 0.00 0.00
0.00 0.00 0.00 0.00 0.00 0.00 0.00 0.00 0.00 0.00 0.00 0.00 0.00 0.00 0.00 0.00 0.00 0.00 0.00 0.00 0.00 0.00 0.00 0.00 0.00 0.00 0.00 0.00 0.01 0.03 0.01 0.11 0.13 0.09 0.24 0.16 0.19 0.19 0.18 0.09 0.07 0.07 0.04 0.03 0.01 0.00 0.00 0.01 0.05
0.00 0.00 0.00 0.00 0.00 0.00 0.00 0.00 0.00 0.00 0.00 0.00 0.00 0.00 0.00 0.00 0.00 0.00 0.00 0.00 0.00 0.00 0.00 0.00 0.00 0.00 0.00 0.00 0.00 0.00 0.01 0.02 0.03 0.09 0.08 0.10 0.16 0.19 0.18 0.18 0.16 0.10 0.07 0.06 0.04 0.05 0.08 0.07 0.14
0.01 0.00 0.00 0.00 0.00 0.00 0.00 0.00 0.00 0.00 0.00 0.00 0.00 0.00 0.00 0.00 0.00 0.00 0.00 0.00 0.00 0.00 0.00 0.00 0.00 0.00 0.00 0.00 0.00 0.00 0.00 0.00 0.01 0.01 0.00 0.00 0.09 0.17 0.19 0.17 0.17 0.23 0.18 0.15 0.09 0.14 0.16 0.16 0.14
0.02 0.00 0.00 0.00 0.00 0.00 0.00 0.00 0.00 0.00 0.00 0.00 0.00 0.00 0.00 0.00 0.00 0.00 0.00 0.00 0.00 0.00 0.00 0.00 0.00 0.00 0.00 0.00 0.00 0.00 0.00 0.00 0.00 0.00 0.00 0.00 0.04 0.11 0.20 0.23 0.23 0.20 0.18 0.15 0.21 0.29 0.28 0.26 0.15
0.04 0.00 0.00 0.00 0.00 0.00 0.00 0.00 0.00 0.00 0.00 0.00 0.00 0.00 0.00 0.00 0.00 0.00 0.00 0.00 0.00 0.00 0.00 0.00 0.00 0.00 0.00 0.00 0.00 0.00 0.00 0.00 0.00 0.00 0.00 0.00 0.03 0.08 0.14 0.16 0.19 0.13 0.14 0.25 0.22 0.21 0.22 0.22 0.23
0.03 0.00 0.00 0.00 0.00 0.00 0.00 0.00 0.00 0.00 0.00 0.00 0.00 0.00 0.00 0.00 0.00 0.00 0.00 0.00 0.00 0.00 0.00 0.00 0.00 0.00 0.00 0.00 0.00 0.00 0.00 0.00 0.00 0.02 0.04 0.02 0.02 0.04 0.08 0.10 0.07 0.14 0.13 0.14 0.21 0.34 0.34 0.32 0.33
0.01 0.03 0.05 0.05 0.03 0.00 0.00 0.00 0.00 0.00 0.00 0.00 0.00 0.00 0.00 0.00 0.00 0.00 0.00 0.00 0.00 0.00 0.00 0.00 0.00 0.00 0.00 0.00 0.00 0.00 0.00 0.01 0.01 0.01 0.03 0.03 0.03 0.02 0.04 0.09 0.12 0.10 0.14 0.20 0.29 0.27 0.31 0.40 0.38
0.02 0.02 0.03 0.01 0.00 0.00 0.00 0.00 0.00 0.00 0.00 0.00 0.00 0.00 0.00 0.00 0.00 0.00 0.00 0.00 0.00 0.00 0.00 0.00 0.00 0.00 0.00 0.00 0.00 0.00 0.00 0.00 0.00 0.02 0.01 0.01 0.00 0.00 0.03 0.11 0.14 0.15 0.15 0.14 0.22 0.22 0.18 0.24 0.28
0.04 0.02 0.00 0.00 0.00 0.00 0.00 0.00 0.00 0.00 0.00 0.00 0.00 0.00 0.00 0.00 0.00 0.00 0.00 0.00 0.00 0.00 0.00 0.00 0.00 0.00 0.00 0.00 0.00 0.00 0.00 0.00 0.00 0.00 0.00 0.00 0.00 0.00 0.01 0.05 0.12 0.14 0.15 0.17 0.20 0.21 0.21 0.22 0.25
0.02 0.00 0.02 0.00 0.00 0.00 0.00 0.00 0.00 0.00 0.00 0.00 0.00 0.00 0.00 0.00 0.00 0.00 0.00 0.00 0.00 0.00 0.00 0.00 0.00 0.00 0.00 0.00 0.00 0.00 0.00 0.00 0.00 0.00 0.00 0.00 0.00 0.00 0.01 0.02 0.03 0.05 0.07 0.11 0.15 0.17 0.19 0.24 0.24
0.03 0.00 0.00 0.01 0.00 0.00 0.00 0.00 0.00 0.00 0.00 0.00 0.00 0.00 0.00 0.00 0.00 0.00 0.00 0.00 0.00 0.00 0.00 0.00 0.00 0.00 0.00 0.00 0.00 0.00 0.00 0.00 0.00 0.00 0.00 0.00 0.00 0.00 0.00 0.00 0.01 0.03 0.03 0.04 0.05 0.06 0.08 0.12 0.14
0.01 0.00 0.00 0.01 0.01 0.00 0.00 0.00 0.00 0.00 0.00 0.00 0.00 0.00 0.00 0.00 0.00 0.00 0.00 0.00 0.00 0.00 0.00 0.00 0.00 0.00 0.00 0.00 0.00 0.00 0.00 0.00 0.00 0.00 0.00 0.00 0.00 0.00 0.01 0.01 0.01 0.01 0.01 0.01 0.03 0.04 0.05 0.07 0.10

GFSSGP_prec_precacc24_066.txt.gz
Total_Precipitation_Accumulation
0.00 0.00 0.00 0.00 0.00 0.00 0.00 0.00 0.00 0.00 0.00 0.00 0.00 0.00 0.00 0.00 0.00 0.00 0.00 0.00 0.00 0.00 0.00 0.01 0.02 0.03 0.03 0.05 0.04 0.03 0.04 0.04 0.03 0.01 0.00 0.00 0.00 0.00 0.00 0.01 0.02 0.04 0.09 0.21 0.17 0.03 0.00 0.00 0.00
0.00 0.00 0.00 0.00 0.00 0.00 0.00 0.00 0.00 0.00 0.00 0.00 0.00 0.00 0.00 0.00 0.00 0.00 0.00 0.00 0.00 0.00 0.00 0.01 0.01 0.03 0.02 0.04 0.03 0.02 0.02 0.01 0.00 0.00 0.00 0.00 0.00 0.00 0.01 0.03 0.07 0.09 0.18 0.14 0.02 0.00 0.00 0.00 0.00
0.00 0.00 0.00 0.00 0.00 0.00 0.00 0.00 0.00 0.00 0.00 0.00 0.00 0.00 0.00 0.00 0.00 0.00 0.00 0.00 0.00 0.00 0.00 0.01 0.02 0.02 0.02 0.03 0.03 0.03 0.02 0.01 0.01 0.00 0.00 0.00 0.02 0.03 0.04 0.06 0.05 0.03 0.02 0.00 0.00 0.00 0.00 0.00 0.00
0.00 0.00 0.00 0.00 0.00 0.00 0.00 0.00 0.00 0.00 0.00 0.00 0.00 0.00 0.00 0.00 0.00 0.00 0.00 0.00 0.00 0.00 0.00 0.02 0.03 0.01 0.02 0.05 0.05 0.03 0.03 0.01 0.01 0.00 0.00 0.02 0.02 0.02 0.04 0.02 0.00 0.00 0.00 0.00 0.00 0.00 0.00 0.00 0.00
0.00 0.00 0.00 0.00 0.00 0.00 0.00 0.00 0.00 0.00 0.00 0.00 0.00 0.00 0.00 0.00 0.00 0.00 0.00 0.00 0.00 0.00 0.00 0.01 0.02 0.02 0.02 0.04 0.05 0.03 0.03 0.01 0.01 0.01 0.02 0.02 0.02 0.02 0.02 0.00 0.00 0.00 0.00 0.00 0.00 0.00 0.00 0.00 0.00
0.12 0.03 0.01 0.00 0.00 0.00 0.00 0.00 0.00 0.00 0.00 0.00 0.00 0.00 0.02 0.01 0.00 0.01 0.00 0.00 0.00 0.00 0.00 0.01 0.02 0.02 0.03 0.03 0.03 0.03 0.02 0.02 0.01 0.00 0.02 0.02 0.02 0.02 0.01 0.00 0.00 0.00 0.00 0.00 0.00 0.00 0.00 0.00 0.00
0.24 0.17 0.04 0.00 0.00 0.00 0.00 0.00 0.00 0.00 0.00 0.00 0.00 0.02 0.08 0.03 0.01 0.02 0.00 0.00 0.00 0.00 0.00 0.00 0.01 0.01 0.02 0.02 0.02 0.03 0.01 0.02 0.00 0.00 0.00 0.01 0.02 0.02 0.01 0.00 0.00 0.00 0.00 0.00 0.00 0.00 0.00 0.00 0.00
0.10 0.18 0.10 0.02 0.00 0.00 0.00 0.00 0.00 0.00 0.00 0.00 0.00 0.01 0.05 0.02 0.00 0.02 0.02 0.01 0.00 0.00 0.00 0.00 0.00 0.00 0.00 0.01 0.01 0.02 0.02 0.01 0.00 0.00 0.00 0.00 0.00 0.00 0.00 0.00 0.00 0.00 0.00 0.01 0.01 0.00 0.00 0.00 0.00
0.15 0.21 0.24 0.07 0.01 0.00 0.00 0.00 0.00 0.00 0.00 0.00 0.00 0.00 0.00 0.01 0.01 0.03 0.02 0.01 0.02 0.01 0.00 0.00 0.00 0.00 0.00 0.00 0.00 0.00 0.01 0.01 0.00 0.00 0.00 0.00 0.00 0.00 0.00 0.00 0.00 0.00 0.02 0.02 0.02 0.00 0.00 0.00 0.00
0.36 0.40 0.07 0.02 0.01 0.01 0.02 0.00 0.00 0.00 0.00 0.01 0.02 0.02 0.01 0.01 0.05 0.06 0.06 0.02 0.02 0.01 0.00 0.00 0.00 0.00 0.00 0.00 0.00 0.00 0.00 0.00 0.00 0.00 0.00 0.00 0.00 0.00 0.00 0.00 0.00 0.00 0.02 0.02 0.02 0.00 0.00 0.00 0.00
0.20 0.23 0.01 0.01 0.03 0.14 0.07 0.01 0.00 0.00 0.00 0.00 0.03 0.07 0.07 0.02 0.05 0.08 0.06 0.03 0.00 0.00 0.00 0.00 0.00 0.00 0.00 0.00 0.00 0.00 0.00 0.00 0.00 0.00 0.00 0.00 0.00 0.00 0.00 0.00 0.00 0.00 0.01 0.00 0.01 0.00 0.00 0.00 0.00
0.04 0.03 0.00 0.03 0.07 0.17 0.09 0.02 0.00 0.00 0.00 0.00 0.03 0.09 0.12 0.12 0.09 0.06 0.05 0.05 0.02 0.01 0.00 0.00 0.00 0.00 0.00 0.00 0.00 0.00 0.00 0.00 0.00 0.00 0.00 0.00 0.00 0.00 0.00 0.00 0.00 0.00 0.00 0.00 0.00 0.00 0.00 0.00 0.00
0.00 0.00 0.02 0.08 0.06 0.04 0.12 0.10 0.01 0.00 0.00 0.00 0.01 0.04 0.04 0.07 0.07 0.07 0.05 0.03 0.00 0.00 0.00 0.00 0.01 0.01 0.02 0.02 0.02 0.00 0.00 0.00 0.00 0.00 0.00 0.00 0.00 0.00 0.00 0.00 0.00 0.00 0.00 0.00 0.00 0.00 0.00 0.00 0.00
0.00 0.01 0.06 0.14 0.04 0.03 0.11 0.11 0.06 0.00 0.00 0.00 0.01 0.03 0.01 0.03 0.05 0.03 0.02 0.02 0.00 0.00 0.00 0.00 0.04 0.02 0.00 0.03 0.03 0.02 0.00 0.00 0.00 0.00 0.00 0.00 0.00 0.00 0.00 0.00 0.00 0.00 0.00 0.00 0.00 0.00 0.00 0.00 0.00
0.02 0.08 0.11 0.10 0.08 0.03 0.03 0.16 0.11 0.00 0.00 0.00 0.01 0.02 0.01 0.00 0.00 0.02 0.02 0.01 0.00 0.00 0.00 0.00 0.00 0.00 0.00 0.01 0.04 0.03 0.04 0.02 0.00 0.00 0.00 0.00 0.00 0.00 0.00 0.00 0.00 0.00 0.00 0.00 0.00 0.00 0.00 0.00 0.00
0.03 0.10 0.05 0.03 0.07 0.05 0.10 0.09 0.02 0.03 0.00 0.00 0.00 0.00 0.00 0.00 0.00 0.00 0.00 0.00 0.00 0.00 0.00 0.00 0.01 0.02 0.01 0.02 0.04 0.08 0.07 0.04 0.04 0.03 0.01 0.00 0.00 0.00 0.00 0.00 0.00 0.00 0.00 0.00 0.00 0.00 0.00 0.00 0.00
0.04 0.02 0.00 0.00 0.01 0.01 0.02 0.00 0.02 0.03 0.01 0.00 0.00 0.00 0.00 0.00 0.00 0.00 0.00 0.00 0.00 0.00 0.00 0.00 0.00 0.01 0.03 0.03 0.03 0.10 0.10 0.06 0.02 0.03 0.02 0.01 0.01 0.02 0.01 0.00 0.00 0.00 0.00 0.00 0.00 0.00 0.00 0.00 0.00
0.00 0.00 0.00 0.00 0.00 0.00 0.00 0.00 0.00 0.01 0.02 0.00 0.00 0.00 0.00 0.00 0.00 0.00 0.00 0.00 0.00 0.00 0.00 0.00 0.00 0.00 0.00 0.00 0.02 0.03 0.05 0.04 0.03 0.01 0.02 0.11 0.06 0.07 0.07 0.03 0.02 0.01 0.00 0.00 0.00 0.00 0.00 0.00 0.00
0.00 0.00 0.00 0.00 0.00 0.00 0.00 0.00 0.00 0.00 0.02 0.01 0.00 0.00 0.00 0.00 0.00 0.00 0.00 0.00 0.00 0.00 0.00 0.00 0.00 0.00 0.00 0.00 0.01 0.03 0.01 0.08 0.11 0.06 0.19 0.15 0.18 0.17 0.17 0.09 0.07 0.08 0.04 0.04 0.02 0.01 0.00 0.01 0.05
0.00 0.00 0.00 0.00 0.00 0.00 0.00 0.00 0.00 0.00 0.00 0.00 0.00 0.00 0.00 0.00 0.00 0.00 0.00 0.00 0.00 0.00 0.00 0.00 0.00 0.00 0.00 0.00 0.00 0.00 0.00 0.01 0.01 0.04 0.05 0.11 0.14 0.15 0.16 0.16 0.15 0.11 0.08 0.06 0.04 0.05 0.08 0.07 0.14
0.00 0.00 0.00 0.00 0.00 0.00 0.00 0.00 0.00 0.00 0.00 0.00 0.00 0.00 0.00 0.00 0.00 0.00 0.00 0.00 0.00 0.00 0.00 0.00 0.00 0.00 0.00 0.00 0.00 0.00 0.00 0.00 0.00 0.01 0.00 0.00 0.05 0.10 0.11 0.12 0.13 0.21 0.17 0.14 0.09 0.14 0.16 0.16 0.14
0.01 0.00 0.00 0.00 0.00 0.00 0.00 0.00 0.00 0.00 0.00 0.00 0.00 0.00 0.00 0.00 0.00 0.00 0.00 0.00 0.00 0.00 0.00 0.00 0.00 0.00 0.00 0.00 0.00 0.00 0.00 0.00 0.00 0.00 0.00 0.00 0.00 0.04 0.12 0.15 0.18 0.17 0.15 0.13 0.18 0.25 0.24 0.25 0.15
0.02 0.00 0.00 0.00 0.00 0.00 0.00 0.00 0.00 0.00 0.00 0.00 0.00 0.00 0.00 0.00 0.00 0.00 0.00 0.00 0.00 0.00 0.00 0.00 0.00 0.00 0.00 0.00 0.00 0.00 0.00 0.00 0.00 0.00 0.00 0.00 0.00 0.03 0.08 0.08 0.13 0.11 0.12 0.20 0.16 0.17 0.19 0.21 0.23
0.03 0.00 0.00 0.00 0.00 0.00 0.00 0.00 0.00 0.00 0.00 0.00 0.00 0.00 0.00 0.00 0.00 0.00 0.00 0.00 0.00 0.00 0.00 0.00 0.00 0.00 0.00 0.00 0.00 0.00 0.00 0.00 0.00 0.00 0.01 0.01 0.00 0.02 0.06 0.08 0.05 0.09 0.11 0.11 0.16 0.30 0.32 0.31 0.32
0.01 0.03 0.05 0.05 0.03 0.00 0.00 0.00 0.00 0.00 0.00 0.00 0.00 0.00 0.00 0.00 0.00 0.00 0.00 0.00 0.00 0.00 0.00 0.00 0.00 0.00 0.00 0.00 0.00 0.00 0.00 0.00 0.00 0.00 0.01 0.01 0.01 0.01 0.02 0.07 0.09 0.08 0.11 0.16 0.25 0.23 0.28 0.38 0.37
0.02 0.02 0.03 0.01 0.00 0.00 0.00 0.00 0.00 0.00 0.00 0.00 0.00 0.00 0.00 0.00 0.00 0.00 0.00 0.00 0.00 0.00 0.00 0.00 0.00 0.00 0.00 0.00 0.00 0.00 0.00 0.00 0.00 0.01 0.00 0.01 0.00 0.00 0.01 0.09 0.11 0.12 0.12 0.12 0.19 0.18 0.16 0.22 0.26
0.04 0.02 0.00 0.00 0.00 0.00 0.00 0.00 0.00 0.00 0.00 0.00 0.00 0.00 0.00 0.00 0.00 0.00 0.00 0.00 0.00 0.00 0.00 0.00 0.00 0.00 0.00 0.00 0.00 0.00 0.00 0.00 0.00 0.00 0.00 0.00 0.00 0.00 0.00 0.02 0.06 0.08 0.09 0.14 0.16 0.18 0.20 0.21 0.24
0.02 0.00 0.03 0.00 0.00 0.00 0.00 0.00 0.00 0.00 0.00 0.00 0.00 0.00 0.00 0.00 0.00 0.00 0.00 0.00 0.00 0.00 0.00 0.00 0.00 0.00 0.00 0.00 0.00 0.00 0.00 0.00 0.00 0.00 0.00 0.00 0.00 0.00 0.00 0.00 0.00 0.01 0.03 0.08 0.13 0.16 0.19 0.24 0.24
0.03 0.00 0.00 0.01 0.00 0.00 0.00 0.00 0.00 0.00 0.00 0.00 0.00 0.00 0.00 0.00 0.00 0.00 0.00 0.00 0.00 0.00 0.00 0.00 0.00 0.00 0.00 0.00 0.00 0.00 0.00 0.00 0.00 0.00 0.00 0.00 0.00 0.00 0.00 0.00 0.00 0.00 0.01 0.02 0.04 0.06 0.08 0.11 0.13
0.02 0.00 0.00 0.01 0.01 0.00 0.00 0.00 0.00 0.00 0.00 0.00 0.00 0.00 0.00 0.00 0.00 0.00 0.00 0.00 0.00 0.00 0.00 0.00 0.00 0.00 0.00 0.00 0.00 0.00 0.00 0.00 0.00 0.00 0.00 0.00 0.00 0.00 0.00 0.00 0.00 0.00 0.00 0.01 0.03 0.04 0.05 0.07 0.08

GFSSGP_prec_precacc24_069.txt.gz
Total_Precipitation_Accumulation
0.00 0.00 0.00 0.00 0.00 0.00 0.00 0.00 0.00 0.00 0.00 0.00 0.00 0.00 0.00 0.00 0.00 0.00 0.00 0.00 0.00 0.00 0.01 0.01 0.02 0.03 0.03 0.05 0.03 0.02 0.04 0.05 0.03 0.01 0.00 0.00 0.00 0.00 0.00 0.01 0.01 0.03 0.07 0.15 0.07 0.00 0.00 0.00 0.00
0.00 0.00 0.00 0.00 0.00 0.00 0.00 0.00 0.00 0.00 0.00 0.00 0.00 0.00 0.00 0.00 0.00 0.00 0.00 0.00 0.00 0.00 0.00 0.01 0.02 0.03 0.02 0.03 0.02 0.02 0.04 0.02 0.00 0.00 0.00 0.00 0.00 0.00 0.01 0.02 0.06 0.07 0.15 0.11 0.01 0.00 0.00 0.00 0.00
0.00 0.00 0.00 0.00 0.00 0.00 0.00 0.00 0.00 0.00 0.00 0.00 0.00 0.00 0.00 0.00 0.00 0.00 0.00 0.00 0.00 0.00 0.00 0.02 0.03 0.02 0.01 0.02 0.02 0.02 0.02 0.01 0.01 0.00 0.00 0.00 0.02 0.03 0.05 0.06 0.04 0.03 0.02 0.00 0.00 0.00 0.00 0.00 0.00
0.00 0.00 0.00 0.00 0.00 0.00 0.00 0.00 0.00 0.00 0.00 0.00 0.00 0.00 0.00 0.00 0.00 0.00 0.00 0.00 0.00 0.00 0.00 0.02 0.04 0.01 0.01 0.04 0.04 0.03 0.02 0.01 0.00 0.00 0.00 0.02 0.02 0.03 0.05 0.02 0.00 0.00 0.00 0.00 0.00 0.00 0.00 0.00 0.00
0.00 0.00 0.00 0.00 0.00 0.00 0.00 0.00 0.00 0.00 0.00 0.00 0.00 0.00 0.00 0.00 0.00 0.00 0.00 0.00 0.00 0.00 0.00 0.02 0.03 0.02 0.02 0.04 0.05 0.03 0.03 0.01 0.00 0.01 0.02 0.02 0.02 0.03 0.03 0.00 0.00 0.00 0.00 0.00 0.00 0.00 0.00 0.00 0.00
0.15 0.04 0.01 0.00 0.00 0.00 0.00 0.00 0.00 0.00 0.00 0.00 0.00 0.00 0.02 0.01 0.00 0.01 0.00 0.00 0.00 0.00 0.00 0.01 0.02 0.02 0.03 0.03 0.03 0.03 0.02 0.02 0.00 0.01 0.04 0.03 0.03 0.04 0.01 0.00 0.00 0.00 0.00 0.00 0.00 0.00 0.00 0.00 0.00
0.29 0.23 0.04 0.00 0.00 0.00 0.00 0.00 0.00 0.00 0.00 0.00 0.00 0.02 0.08 0.03 0.01 0.02 0.00 0.00 0.00 0.00 0.00 0.01 0.01 0.01 0.02 0.02 0.02 0.03 0.01 0.01 0.00 0.00 0.01 0.02 0.03 0.03 0.02 0.00 0.00 0.00 0.00 0.00 0.00 0.00 0.00 0.00 0.00
0.14 0.26 0.13 0.02 0.00 0.00 0.00 0.00 0.00 0.00 0.00 0.00 0.00 0.01 0.05 0.02 0.00 0.02 0.02 0.01 0.00 0.00 0.00 0.00 0.00 0.00 0.00 0.01 0.01 0.02 0.01 0.01 0.00 0.00 0.00 0.00 0.00 0.00 0.00 0.00 0.00 0.00 0.00 0.01 0.01 0.00 0.00 0.00 0.00
0.20 0.26 0.29 0.08 0.01 0.00 0.00 0.00 0.00 0.00 0.00 0.00 0.00 0.00 0.00 0.01 0.01 0.02 0.01 0.01 0.02 0.00 0.00 0.00 0.00 0.00 0.00 0.00 0.00 0.00 0.00 0.01 0.00 0.00 0.00 0.00 0.00 0.00 0.00 0.00 0.00 0.00 0.01 0.01 0.01 0.00 0.00 0.00 0.00
0.43 0.43 0.09 0.02 0.01 0.01 0.02 0.00 0.00 0.00 0.00 0.01 0.02 0.02 0.02 0.05 0.12 0.07 0.05 0.01 0.02 0.01 0.00 0.00 0.00 0.00 0.00 0.00 0.00 0.00 0.00 0.00 0.00 0.00 0.00 0.00 0.00 0.00 0.00 0.00 0.00 0.00 0.02 0.01 0.01 0.00 0.00 0.00 0.00
0.27 0.24 0.01 0.01 0.03 0.14 0.07 0.01 0.00 0.00 0.00 0.00 0.03 0.07 0.08 0.04 0.12 0.15 0.10 0.03 0.00 0.00 0.00 0.00 0.00 0.00 0.00 0.00 0.00 0.00 0.00 0.00 0.00 0.00 0.00 0.00 0.00 0.00 0.00 0.00 0.00 0.00 0.00 0.00 0.00 0.00 0.00 0.00 0.00
0.06 0.03 0.01 0.04 0.08 0.17 0.09 0.02 0.00 0.00 0.00 0.00 0.03 0.09 0.13 0.17 0.20 0.17 0.14 0.08 0.03 0.01 0.00 0.00 0.00 0.00 0.00 0.00 0.00 0.00 0.00 0.00 0.00 0.00 0.00 0.00 0.00 0.00 0.00 0.00 0.00 0.00 0.00 0.00 0.00 0.00 0.00 0.00 0.00
0.01 0.02 0.04 0.11 0.07 0.04 0.12 0.10 0.01 0.00 0.00 0.00 0.01 0.04 0.04 0.09 0.13 0.15 0.11 0.04 0.01 0.01 0.00 0.00 0.00 0.00 0.00 0.00 0.00 0.00 0.00 0.00 0.00 0.00 0.00 0.00 0.00 0.00 0.00 0.00 0.00 0.00 0.00 0.00 0.00 0.00 0.00 0.00 0.00
0.01 0.02 0.08 0.17 0.08 0.04 0.11 0.11 0.06 0.00 0.00 0.00 0.01 0.03 0.01 0.04 0.07 0.08 0.09 0.11 0.09 0.02 0.00 0.00 0.04 0.02 0.00 0.01 0.01 0.02 0.00 0.00 0.00 0.00 0.00 0.00 0.00 0.00 0.00 0.00 0.00 0.00 0.00 0.00 0.00 0.00 0.00 0.00 0.00
0.03 0.10 0.17 0.14 0.15 0.10 0.05 0.16 0.11 0.00 0.00 0.00 0.01 0.02 0.01 0.00 0.00 0.05 0.05 0.09 0.11 0.05 0.00 0.00 0.00 0.00 0.00 0.01 0.03 0.02 0.03 0.02 0.00 0.00 0.00 0.00 0.00 0.00 0.00 0.00 0.00 0.00 0.00 0.00 0.00 0.00 0.00 0.00 0.00
0.07 0.13 0.07 0.06 0.12 0.24 0.20 0.13 0.02 0.03 0.00 0.00 0.00 0.00 0.00 0.00 0.00 0.00 0.00 0.03 0.04 0.03 0.00 0.00 0.00 0.01 0.00 0.00 0.02 0.05 0.03 0.01 0.03 0.03 0.01 0.00 0.00 0.00 0.00 0.00 0.00 0.00 0.00 0.00 0.00 0.00 0.00 0.00 0.00
0.06 0.02 0.00 0.01 0.04 0.09 0.08 0.03 0.02 0.03 0.01 0.00 0.00 0.00 0.00 0.00 0.00 0.00 0.00 0.00 0.00 0.00 0.00 0.00 0.00 0.01 0.02 0.01 0.00 0.04 0.05 0.01 0.01 0.03 0.02 0.01 0.01 0.02 0.01 0.00 0.00 0.00 0.00 0.00 0.00 0.00 0.00 0.00 0.00
0.00 0.00 0.00 0.00 0.00 0.01 0.00 0.00 0.00 0.02 0.02 0.00 0.00 0.00 0.00 0.00 0.00 0.00 0.00 0.00 0.00 0.00 0.00 0.00 0.00 0.00 0.00 0.00 0.01 0.02 0.04 0.04 0.03 0.00 0.01 0.08 0.05 0.06 0.07 0.03 0.02 0.01 0.00 0.00 0.00 0.00 0.00 0.00 0.00
0.00 0.00 0.00 0.00 0.00 0.00 0.00 0.00 0.01 0.00 0.02 0.01 0.01 0.00 0.00 0.00 0.00 0.00 0.00 0.00 0.00 0.00 0.00 0.00 0.00 0.00 0.00 0.00 0.00 0.02 0.00 0.06 0.10 0.05 0.13 0.14 0.16 0.13 0.16 0.09 0.07 0.08 0.04 0.04 0.02 0.01 0.00 0.01 0.05
0.00 0.00 0.00 0.00 0.00 0.00 0.00 0.00 0.00 0.00 0.00 0.00 0.00 0.00 0.00 0.00 0.00 0.00 0.00 0.00 0.00 0.00 0.00 0.00 0.00 0.00 0.00 0.00 0.00 0.00 0.00 0.00 0.01 0.02 0.03 0.11 0.13 0.13 0.12 0.15 0.14 0.11 0.08 0.06 0.04 0.05 0.08 0.07 0.14
0.00 0.00 0.00 0.00 0.00 0.00 0.00 0.00 0.00 0.00 0.00 0.00 0.00 0.00 0.00 0.00 0.00 0.00 0.00 0.00 0.00 0.00 0.00 0.00 0.00 0.00 0.00 0.00 0.00 0.00 0.00 0.00 0.00 0.00 0.00 0.00 0.05 0.08 0.06 0.10 0.12 0.18 0.16 0.14 0.09 0.14 0.16 0.16 0.14
0.00 0.00 0.00 0.00 0.00 0.00 0.00 0.00 0.00 0.00 0.00 0.00 0.00 0.00 0.00 0.00 0.00 0.00 0.00 0.00 0.00 0.00 0.00 0.00 0.00 0.00 0.00 0.00 0.00 0.00 0.00 0.00 0.00 0.00 0.00 0.00 0.00 0.01 0.07 0.12 0.14 0.12 0.12 0.12 0.16 0.24 0.23 0.24 0.15
0.01 0.00 0.00 0.00 0.00 0.00 0.00 0.00 0.00 0.00 0.00 0.00 0.00 0.00 0.00 0.00 0.00 0.00 0.00 0.00 0.00 0.00 0.00 0.00 0.00 0.00 0.00 0.00 0.00 0.00 0.00 0.00 0.00 0.00 0.00 0.00 0.00 0.00 0.02 0.04 0.09 0.08 0.09 0.17 0.14 0.15 0.18 0.20 0.22
0.02 0.00 0.00 0.00 0.00 0.00 0.00 0.00 0.00 0.00 0.00 0.00 0.00 0.00 0.00 0.00 0.00 0.00 0.00 0.00 0.00 0.00 0.00 0.00 0.00 0.00 0.00 0.00 0.00 0.00 0.00 0.00 0.00 0.00 0.00 0.00 0.00 0.00 0.02 0.04 0.03 0.06 0.09 0.09 0.13 0.26 0.28 0.28 0.30
0.01 0.03 0.05 0.05 0.03 0.00 0.00 0.00 0.00 0.00 0.00 0.00 0.00 0.00 0.00 0.00 0.00 0.00 0.00 0.00 0.00 0.00 0.00 0.00 0.00 0.00 0.00 0.00 0.00 0.00 0.00 0.00 0.00 0.00 0.00 0.00 0.00 0.01 0.01 0.04 0.06 0.05 0.06 0.10 0.17 0.18 0.24 0.34 0.34
0.02 0.02 0.03 0.01 0.00 0.00 0.00 0.00 0.00 0.00 0.00 0.00 0.00 0.00 0.00 0.00 0.00 0.00 0.00 0.00 0.00 0.00 0.00 0.00 0.00 0.00 0.00 0.00 0.00 0.00 0.00 0.00 0.00 0.00 0.00 0.00 0.00 0.00 0.01 0.05 0.06 0.06 0.06 0.06 0.08 0.10 0.12 0.20 0.25
0.04 0.02 0.00 0.00 0.00 0.00 0.00 0.00 0.00 0.00 0.00 0.00 0.00 0.00 0.00 0.00 0.00 0.00 0.00 0.00 0.00 0.00 0.00 0.00 0.00 0.00 0.00 0.00 0.00 0.00 0.00 0.00 0.00 0.00 0.00 0.00 0.00 0.00 0.00 0.01 0.04 0.04 0.04 0.06 0.09 0.11 0.13 0.17 0.22
0.02 0.00 0.03 0.00 0.00 0.00 0.00 0.00 0.00 0.00 0.00 0.00 0.00 0.00 0.00 0.00 0.00 0.00 0.00 0.00 0.00 0.00 0.00 0.00 0.00 0.00 0.00 0.00 0.00 0.00 0.00 0.00 0.00 0.00 0.00 0.00 0.00 0.00 0.00 0.00 0.00 0.01 0.02 0.04 0.08 0.11 0.14 0.20 0.22
0.03 0.00 0.00 0.01 0.00 0.00 0.00 0.00 0.00 0.00 0.00 0.00 0.00 0.00 0.00 0.00 0.00 0.00 0.00 0.00 0.00 0.00 0.00 0.00 0.00 0.00 0.00 0.00 0.00 0.00 0.00 0.00 0.00 0.00 0.00 0.00 0.00 0.00 0.00 0.00 0.00 0.00 0.00 0.01 0.03 0.04 0.07 0.10 0.13
0.02 0.00 0.00 0.01 0.01 0.00 0.00 0.00 0.00 0.00 0.00 0.00 0.00 0.00 0.00 0.00 0.00 0.00 0.00 0.00 0.00 0.00 0.00 0.00 0.00 0.00 0.00 0.00 0.00 0.00 0.00 0.00 0.00 0.00 0.00 0.00 0.00 0.00 0.00 0.00 0.00 0.00 0.00 0.01 0.03 0.04 0.05 0.06 0.07

GFSSGP_prec_precacc24_072.txt.gz
Total_Precipitation_Accumulation
0.00 0.00 0.00 0.00 0.00 0.00 0.00 0.00 0.00 0.00 0.00 0.00 0.00 0.00 0.00 0.00 0.00 0.00 0.00 0.00 0.00 0.00 0.01 0.01 0.03 0.03 0.03 0.04 0.02 0.02 0.05 0.06 0.03 0.01 0.00 0.00 0.00 0.00 0.00 0.01 0.01 0.03 0.07 0.09 0.02 0.00 0.00 0.00 0.00
0.00 0.00 0.00 0.00 0.00 0.00 0.00 0.00 0.00 0.00 0.00 0.00 0.00 0.00 0.00 0.00 0.00 0.00 0.00 0.00 0.00 0.00 0.00 0.01 0.02 0.04 0.03 0.01 0.01 0.02 0.05 0.02 0.00 0.00 0.00 0.00 0.00 0.01 0.01 0.02 0.04 0.05 0.11 0.06 0.00 0.00 0.00 0.00 0.00
0.00 0.00 0.00 0.00 0.00 0.00 0.00 0.00 0.00 0.00 0.00 0.00 0.00 0.00 0.00 0.00 0.00 0.00 0.00 0.00 0.00 0.00 0.00 0.02 0.04 0.03 0.02 0.02 0.01 0.03 0.02 0.01 0.00 0.00 0.00 0.00 0.02 0.04 0.05 0.05 0.04 0.02 0.01 0.00 0.00 0.00 0.00 0.00 0.00
0.00 0.00 0.00 0.00 0.00 0.00 0.00 0.00 0.00 0.00 0.00 0.00 0.00 0.00 0.00 0.00 0.00 0.00 0.00 0.00 0.00 0.00 0.00 0.03 0.04 0.01 0.01 0.03 0.03 0.03 0.02 0.01 0.00 0.00 0.00 0.02 0.02 0.04 0.05 0.02 0.00 0.00 0.00 0.00 0.00 0.00 0.00 0.00 0.00
0.00 0.00 0.00 0.00 0.00 0.00 0.00 0.00 0.00 0.00 0.00 0.00 0.00 0.00 0.00 0.00 0.00 0.00 0.00 0.00 0.00 0.00 0.00 0.02 0.04 0.01 0.01 0.03 0.04 0.03 0.02 0.01 0.00 0.00 0.02 0.02 0.02 0.04 0.03 0.00 0.00 0.00 0.00 0.00 0.00 0.00 0.00 0.00 0.00
0.16 0.04 0.01 0.00 0.00 0.00 0.00 0.00 0.00 0.00 0.00 0.00 0.00 0.00 0.02 0.01 0.00 0.02 0.00 0.00 0.00 0.00 0.00 0.02 0.03 0.02 0.02 0.03 0.03 0.03 0.02 0.02 0.00 0.01 0.04 0.03 0.04 0.05 0.01 0.00 0.00 0.00 0.00 0.00 0.00 0.00 0.00 0.00 0.00
0.31 0.23 0.04 0.00 0.00 0.00 0.00 0.00 0.00 0.00 0.00 0.00 0.00 0.02 0.08 0.03 0.01 0.03 0.01 0.00 0.00 0.00 0.00 0.02 0.01 0.01 0.02 0.02 0.02 0.03 0.01 0.01 0.00 0.01 0.01 0.02 0.04 0.04 0.02 0.00 0.00 0.00 0.00 0.00 0.00 0.00 0.00 0.00 0.00
0.16 0.27 0.13 0.02 0.00 0.00 0.00 0.00 0.00 0.00 0.00 0.00 0.00 0.01 0.05 0.02 0.01 0.03 0.03 0.01 0.00 0.00 0.00 0.01 0.00 0.00 0.00 0.01 0.01 0.02 0.01 0.00 0.00 0.00 0.00 0.00 0.00 0.00 0.00 0.00 0.00 0.00 0.00 0.00 0.00 0.00 0.00 0.00 0.00
0.28 0.31 0.30 0.08 0.01 0.00 0.00 0.00 0.00 0.00 0.00 0.00 0.00 0.00 0.00 0.01 0.02 0.03 0.02 0.02 0.03 0.02 0.01 0.01 0.00 0.00 0.00 0.00 0.00 0.00 0.00 0.00 0.00 0.00 0.00 0.00 0.00 0.00 0.00 0.00 0.00 0.00 0.00 0.01 0.00 0.00 0.00 0.00 0.00
0.49 0.46 0.09 0.02 0.01 0.01 0.02 0.00 0.00 0.00 0.00 0.01 0.02 0.02 0.03 0.06 0.13 0.07 0.06 0.02 0.03 0.02 0.01 0.01 0.00 0.00 0.00 0.00 0.00 0.00 0.00 0.00 0.00 0.00 0.00 0.00 0.00 0.00 0.00 0.00 0.00 0.00 0.01 0.01 0.00 0.00 0.00 0.00 0.00
0.31 0.26 0.01 0.01 0.03 0.14 0.07 0.01 0.00 0.00 0.00 0.00 0.03 0.07 0.09 0.06 0.13 0.21 0.10 0.03 0.00 0.00 0.00 0.01 0.01 0.00 0.00 0.00 0.00 0.00 0.00 0.00 0.00 0.00 0.00 0.00 0.00 0.00 0.00 0.00 0.00 0.00 0.00 0.00 0.00 0.00 0.00 0.00 0.00
0.08 0.05 0.02 0.04 0.09 0.17 0.09 0.02 0.00 0.00 0.00 0.00 0.03 0.09 0.15 0.20 0.23 0.21 0.16 0.09 0.03 0.00 0.00 0.01 0.01 0.00 0.00 0.00 0.00 0.00 0.00 0.00 0.00 0.00 0.00 0.00 0.00 0.00 0.00 0.00 0.00 0.00 0.00 0.00 0.00 0.00 0.00 0.00 0.00
0.02 0.04 0.05 0.13 0.07 0.04 0.12 0.10 0.01 0.00 0.00 0.00 0.01 0.04 0.06 0.16 0.17 0.18 0.14 0.05 0.02 0.01 0.00 0.00 0.01 0.00 0.00 0.00 0.00 0.00 0.00 0.00 0.00 0.00 0.00 0.00 0.00 0.00 0.00 0.00 0.00 0.00 0.00 0.00 0.00 0.00 0.00 0.00 0.00
0.02 0.06 0.12 0.20 0.10 0.04 0.11 0.11 0.06 0.00 0.00 0.00 0.01 0.03 0.02 0.05 0.07 0.08 0.09 0.17 0.22 0.04 0.00 0.00 0.02 0.01 0.00 0.00 0.00 0.00 0.00 0.00 0.00 0.00 0.00 0.00 0.00 0.00 0.00 0.00 0.00 0.00 0.00 0.00 0.00 0.00 0.00 0.00 0.00
0.05 0.12 0.23 0.22 0.22 0.13 0.05 0.18 0.11 0.00 0.00 0.00 0.01 0.02 0.01 0.00 0.00 0.05 0.05 0.11 0.14 0.13 0.04 0.00 0.00 0.00 0.00 0.00 0.01 0.00 0.00 0.00 0.00 0.00 0.00 0.00 0.00 0.00 0.00 0.00 0.00 0.00 0.00 0.00 0.00 0.00 0.00 0.00 0.00
0.12 0.17 0.10 0.08 0.18 0.28 0.22 0.15 0.02 0.03 0.00 0.00 0.00 0.00 0.00 0.00 0.00 0.00 0.00 0.05 0.05 0.03 0.02 0.01 0.00 0.01 0.00 0.00 0.01 0.04 0.00 0.00 0.00 0.00 0.00 0.00 0.00 0.00 0.00 0.00 0.00 0.00 0.00 0.00 0.00 0.00 0.00 0.00 0.00
0.09 0.04 0.01 0.02 0.06 0.10 0.09 0.03 0.02 0.04 0.01 0.00 0.00 0.00 0.00 0.00 0.00 0.00 0.00 0.00 0.01 0.00 0.02 0.02 0.02 0.01 0.02 0.01 0.00 0.03 0.03 0.00 0.00 0.00 0.00 0.00 0.00 0.01 0.01 0.00 0.00 0.00 0.00 0.00 0.00 0.00 0.00 0.00 0.00
0.00 0.00 0.00 0.00 0.02 0.01 0.00 0.00 0.01 0.02 0.02 0.00 0.00 0.00 0.00 0.00 0.00 0.00 0.00 0.00 0.00 0.00 0.01 0.02 0.04 0.00 0.00 0.00 0.01 0.00 0.03 0.03 0.03 0.00 0.00 0.00 0.00 0.02 0.05 0.03 0.02 0.01 0.00 0.00 0.00 0.00 0.00 0.00 0.00
0.00 0.00 0.00 0.00 0.00 0.00 0.00 0.01 0.01 0.00 0.02 0.01 0.01 0.00 0.00 0.00 0.00 0.00 0.00 0.00 0.00 0.00 0.00 0.00 0.00 0.00 0.00 0.00 0.00 0.02 0.00 0.04 0.09 0.05 0.07 0.10 0.12 0.12 0.13 0.08 0.07 0.08 0.04 0.04 0.02 0.01 0.00 0.01 0.05
0.00 0.00 0.00 0.00 0.00 0.01 0.00 0.00 0.00 0.00 0.00 0.00 0.00 0.00 0.00 0.00 0.00 0.00 0.00 0.00 0.00 0.00 0.00 0.00 0.00 0.00 0.00 0.00 0.00 0.00 0.00 0.00 0.00 0.02 0.03 0.10 0.12 0.12 0.12 0.14 0.12 0.10 0.08 0.06 0.04 0.05 0.08 0.07 0.14
0.00 0.00 0.00 0.00 0.00 0.00 0.00 0.00 0.00 0.00 0.00 0.00 0.00 0.00 0.00 0.00 0.00 0.00 0.00 0.00 0.00 0.00 0.00 0.00 0.00 0.00 0.00 0.00 0.00 0.00 0.00 0.00 0.00 0.00 0.00 0.00 0.05 0.07 0.05 0.05 0.07 0.14 0.15 0.14 0.10 0.15 0.17 0.16 0.14
0.00 0.00 0.00 0.00 0.00 0.00 0.00 0.00 0.00 0.00 0.00 0.00 0.00 0.00 0.00 0.00 0.00 0.00 0.00 0.00 0.00 0.00 0.00 0.00 0.00 0.00 0.00 0.00 0.00 0.00 0.00 0.00 0.00 0.00 0.00 0.00 0.00 0.01 0.04 0.08 0.10 0.08 0.08 0.11 0.16 0.24 0.23 0.24 0.15
0.01 0.00 0.00 0.00 0.00 0.00 0.00 0.00 0.00 0.00 0.00 0.00 0.00 0.00 0.00 0.00 0.00 0.00 0.00 0.00 0.00 0.00 0.00 0.00 0.00 0.00 0.00 0.00 0.00 0.00 0.00 0.00 0.00 0.00 0.00 0.00 0.00 0.00 0.01 0.01 0.05 0.07 0.08 0.11 0.11 0.14 0.16 0.18 0.22
0.01 0.00 0.00 0.00 0.00 0.00 0.00 0.00 0.00 0.00 0.00 0.00 0.00 0.00 0.00 0.00 0.00 0.00 0.00 0.00 0.00 0.00 0.00 0.00 0.00 0.00 0.00 0.00 0.00 0.00 0.00 0.00 0.00 0.00 0.00 0.00 0.00 0.00 0.01 0.02 0.02 0.02 0.06 0.06 0.11 0.18 0.22 0.23 0.27
0.01 0.01 0.04 0.05 0.03 0.00 0.00 0.00 0.00 0.00 0.00 0.00 0.00 0.00 0.00 0.00 0.00 0.00 0.00 0.00 0.00 0.00 0.00 0.00 0.00 0.00 0.00 0.00 0.00 0.00 0.00 0.00 0.00 0.00 0.00 0.00 0.00 0.01 0.01 0.04 0.05 0.03 0.02 0.04 0.06 0.09 0.16 0.29 0.30
0.01 0.01 0.03 0.01 0.01 0.00 0.00 0.00 0.00 0.00 0.00 0.00 0.00 0.00 0.00 0.00 0.00 0.00 0.00 0.00 0.00 0.00 0.00 0.00 0.00 0.00 0.00 0.00 0.00 0.00 0.00 0.00 0.00 0.00 0.00 0.00 0.00 0.00 0.01 0.04 0.04 0.04 0.03 0.03 0.03 0.04 0.05 0.14 0.20
0.04 0.02 0.00 0.00 0.00 0.00 0.00 0.00 0.00 0.00 0.00 0.00 0.00 0.00 0.00 0.00 0.00 0.00 0.00 0.00 0.00 0.00 0.00 0.00 0.00 0.00 0.00 0.00 0.00 0.00 0.00 0.00 0.00 0.00 0.00 0.00 0.00 0.00 0.00 0.01 0.04 0.03 0.02 0.04 0.07 0.07 0.07 0.10 0.15
0.02 0.00 0.03 0.00 0.00 0.00 0.00 0.00 0.00 0.00 0.00 0.00 0.00 0.00 0.00 0.00 0.00 0.00 0.00 0.00 0.00 0.00 0.00 0.00 0.00 0.00 0.00 0.00 0.00 0.00 0.00 0.00 0.00 0.00 0.00 0.00 0.00 0.00 0.00 0.00 0.00 0.00 0.01 0.03 0.07 0.09 0.10 0.14 0.16
0.04 0.00 0.00 0.01 0.00 0.00 0.00 0.00 0.00 0.00 0.00 0.00 0.00 0.00 0.00 0.00 0.00 0.00 0.00 0.00 0.00 0.00 0.00 0.00 0.00 0.00 0.00 0.00 0.00 0.00 0.00 0.00 0.00 0.00 0.00 0.00 0.00 0.00 0.00 0.00 0.00 0.00 0.00 0.01 0.02 0.04 0.06 0.09 0.11
0.02 0.00 0.00 0.01 0.01 0.00 0.00 0.00 0.00 0.00 0.00 0.00 0.00 0.00 0.00 0.00 0.00 0.00 0.00 0.00 0.00 0.00 0.00 0.00 0.00 0.00 0.00 0.00 0.00 0.00 0.00 0.00 0.00 0.00 0.00 0.00 0.00 0.00 0.00 0.00 0.00 0.00 0.00 0.01 0.02 0.04 0.05 0.06 0.07

GFSSGP_prec_precacc24_075.txt.gz
Total_Precipitation_Accumulation
0.00 0.00 0.00 0.00 0.00 0.00 0.00 0.00 0.00 0.00 0.00 0.00 0.00 0.00 0.01 0.00 0.00 0.00 0.00 0.00 0.00 0.00 0.01 0.01 0.03 0.03 0.05 0.03 0.02 0.02 0.04 0.05 0.03 0.01 0.00 0.00 0.00 0.00 0.00 0.00 0.01 0.03 0.05 0.03 0.00 0.00 0.00 0.00 0.00
0.00 0.00 0.00 0.00 0.00 0.00 0.00 0.00 0.00 0.00 0.00 0.00 0.00 0.00 0.00 0.00 0.00 0.00 0.00 0.00 0.00 0.00 0.00 0.02 0.03 0.04 0.03 0.00 0.01 0.02 0.04 0.02 0.00 0.00 0.00 0.00 0.00 0.01 0.00 0.01 0.03 0.04 0.05 0.01 0.00 0.00 0.00 0.00 0.00
0.00 0.00 0.00 0.00 0.00 0.00 0.00 0.00 0.00 0.00 0.00 0.00 0.00 0.00 0.00 0.00 0.00 0.00 0.00 0.00 0.00 0.00 0.00 0.03 0.04 0.03 0.01 0.01 0.00 0.02 0.02 0.00 0.00 0.00 0.00 0.00 0.03 0.05 0.04 0.04 0.03 0.01 0.00 0.00 0.00 0.00 0.00 0.00 0.00
0.00 0.00 0.00 0.00 0.00 0.00 0.00 0.00 0.00 0.00 0.00 0.00 0.00 0.00 0.00 0.00 0.00 0.00 0.00 0.00 0.00 0.00 0.00 0.03 0.05 0.02 0.01 0.02 0.02 0.02 0.01 0.00 0.00 0.00 0.00 0.02 0.04 0.05 0.05 0.02 0.00 0.00 0.00 0.00 0.00 0.00 0.00 0.00 0.00
0.00 0.00 0.00 0.00 0.00 0.00 0.00 0.00 0.00 0.00 0.00 0.00 0.00 0.00 0.00 0.00 0.00 0.00 0.00 0.00 0.00 0.00 0.00 0.03 0.05 0.02 0.01 0.02 0.02 0.01 0.01 0.00 0.00 0.00 0.02 0.02 0.03 0.04 0.03 0.00 0.00 0.00 0.00 0.00 0.00 0.00 0.00 0.00 0.00
0.19 0.04 0.01 0.00 0.00 0.00 0.00 0.00 0.00 0.00 0.00 0.00 0.00 0.00 0.02 0.01 0.00 0.02 0.00 0.00 0.00 0.00 0.00 0.03 0.04 0.01 0.02 0.02 0.02 0.02 0.01 0.01 0.00 0.01 0.04 0.03 0.05 0.05 0.01 0.00 0.00 0.00 0.00 0.00 0.00 0.00 0.00 0.00 0.00
0.36 0.23 0.04 0.00 0.00 0.00 0.00 0.00 0.00 0.00 0.00 0.00 0.00 0.02 0.08 0.03 0.02 0.03 0.01 0.00 0.00 0.00 0.00 0.02 0.02 0.01 0.01 0.02 0.02 0.02 0.01 0.00 0.00 0.01 0.01 0.03 0.05 0.04 0.02 0.00 0.00 0.00 0.00 0.00 0.00 0.00 0.00 0.00 0.00
0.18 0.29 0.14 0.02 0.00 0.00 0.00 0.00 0.00 0.00 0.00 0.00 0.00 0.01 0.07 0.03 0.03 0.04 0.03 0.01 0.00 0.00 0.01 0.01 0.01 0.00 0.00 0.01 0.01 0.01 0.01 0.00 0.00 0.00 0.00 0.00 0.00 0.01 0.00 0.00 0.00 0.00 0.00 0.00 0.00 0.00 0.00 0.00 0.00
0.32 0.38 0.32 0.08 0.01 0.00 0.00 0.00 0.00 0.00 0.00 0.00 0.00 0.02 0.02 0.03 0.07 0.07 0.03 0.02 0.03 0.02 0.02 0.01 0.00 0.00 0.00 0.00 0.00 0.00 0.00 0.00 0.00 0.00 0.00 0.00 0.00 0.00 0.00 0.00 0.00 0.00 0.00 0.00 0.00 0.00 0.00 0.00 0.00
0.67 0.62 0.10 0.02 0.01 0.01 0.02 0.00 0.00 0.00 0.00 0.01 0.02 0.02 0.03 0.08 0.18 0.14 0.09 0.03 0.04 0.03 0.03 0.02 0.01 0.00 0.00 0.00 0.00 0.00 0.00 0.00 0.00 0.00 0.00 0.00 0.00 0.00 0.00 0.00 0.00 0.00 0.00 0.00 0.00 0.00 0.00 0.00 0.00
0.40 0.45 0.04 0.01 0.04 0.14 0.07 0.01 0.00 0.00 0.00 0.00 0.03 0.07 0.10 0.08 0.17 0.24 0.12 0.04 0.01 0.01 0.01 0.01 0.01 0.01 0.00 0.00 0.00 0.00 0.00 0.00 0.00 0.00 0.00 0.00 0.00 0.00 0.00 0.00 0.00 0.00 0.00 0.00 0.00 0.00 0.00 0.00 0.00
0.10 0.09 0.08 0.07 0.09 0.17 0.09 0.02 0.00 0.00 0.00 0.00 0.03 0.09 0.17 0.24 0.25 0.22 0.18 0.10 0.03 0.01 0.00 0.02 0.01 0.01 0.00 0.00 0.00 0.00 0.00 0.00 0.00 0.00 0.00 0.00 0.00 0.00 0.00 0.00 0.00 0.00 0.00 0.00 0.00 0.00 0.00 0.00 0.00
0.04 0.07 0.07 0.23 0.08 0.04 0.12 0.10 0.01 0.00 0.00 0.00 0.01 0.04 0.08 0.23 0.23 0.20 0.17 0.08 0.03 0.02 0.00 0.01 0.02 0.01 0.00 0.00 0.00 0.00 0.00 0.00 0.00 0.00 0.00 0.00 0.00 0.00 0.00 0.00 0.00 0.00 0.00 0.00 0.00 0.00 0.00 0.00 0.00
0.02 0.07 0.14 0.26 0.18 0.05 0.11 0.11 0.06 0.00 0.00 0.00 0.01 0.03 0.03 0.07 0.11 0.12 0.10 0.18 0.24 0.06 0.02 0.02 0.02 0.01 0.00 0.00 0.00 0.00 0.00 0.00 0.00 0.00 0.00 0.00 0.00 0.00 0.00 0.00 0.00 0.00 0.00 0.00 0.00 0.00 0.00 0.00 0.00
0.06 0.15 0.26 0.26 0.37 0.17 0.06 0.21 0.11 0.00 0.00 0.00 0.01 0.02 0.01 0.01 0.06 0.05 0.05 0.11 0.14 0.18 0.12 0.05 0.01 0.00 0.00 0.00 0.01 0.00 0.00 0.00 0.00 0.00 0.00 0.00 0.00 0.00 0.00 0.00 0.00 0.00 0.00 0.00 0.00 0.00 0.00 0.00 0.00
0.15 0.21 0.15 0.10 0.24 0.34 0.25 0.16 0.02 0.03 0.00 0.00 0.00 0.00 0.00 0.01 0.01 0.00 0.00 0.05 0.05 0.04 0.03 0.04 0.01 0.01 0.00 0.00 0.01 0.03 0.00 0.00 0.00 0.00 0.00 0.00 0.00 0.00 0.00 0.00 0.00 0.00 0.00 0.00 0.00 0.00 0.00 0.00 0.00
0.13 0.05 0.02 0.04 0.09 0.15 0.10 0.05 0.02 0.04 0.01 0.00 0.00 0.00 0.00 0.00 0.00 0.00 0.00 0.00 0.01 0.00 0.02 0.03 0.02 0.01 0.02 0.02 0.00 0.02 0.02 0.00 0.00 0.00 0.00 0.00 0.00 0.00 0.01 0.00 0.00 0.00 0.00 0.00 0.00 0.00 0.00 0.00 0.00
0.01 0.00 0.00 0.01 0.04 0.05 0.04 0.03 0.01 0.02 0.02 0.00 0.00 0.00 0.00 0.00 0.00 0.00 0.00 0.00 0.00 0.00 0.01 0.02 0.04 0.00 0.00 0.00 0.01 0.00 0.02 0.02 0.02 0.00 0.00 0.00 0.00 0.02 0.05 0.03 0.02 0.01 0.00 0.00 0.00 0.00 0.00 0.00 0.00
0.00 0.01 0.01 0.00 0.01 0.02 0.02 0.02 0.02 0.00 0.02 0.01 0.01 0.00 0.00 0.00 0.00 0.00 0.00 0.00 0.00 0.00 0.00 0.00 0.00 0.00 0.00 0.00 0.00 0.01 0.00 0.01 0.06 0.05 0.07 0.10 0.12 0.12 0.13 0.08 0.07 0.08 0.04 0.04 0.03 0.02 0.01 0.01 0.05
0.00 0.01 0.02 0.02 0.02 0.02 0.01 0.00 0.00 0.00 0.00 0.00 0.00 0.00 0.00 0.00 0.00 0.00 0.00 0.00 0.00 0.00 0.00 0.00 0.00 0.00 0.00 0.00 0.00 0.00 0.00 0.00 0.00 0.01 0.03 0.10 0.12 0.12 0.12 0.13 0.12 0.10 0.08 0.06 0.04 0.05 0.09 0.07 0.14
0.00 0.00 0.01 0.01 0.02 0.02 0.00 0.00 0.00 0.00 0.00 0.00 0.00 0.00 0.00 0.00 0.00 0.00 0.00 0.00 0.00 0.00 0.00 0.00 0.00 0.00 0.00 0.00 0.00 0.00 0.00 0.00 0.00 0.00 0.00 0.00 0.04 0.07 0.05 0.04 0.07 0.14 0.16 0.15 0.10 0.16 0.17 0.16 0.14
0.01 0.00 0.00 0.00 0.01 0.00 0.00 0.00 0.00 0.00 0.00 0.00 0.00 0.00 0.00 0.00 0.00 0.00 0.00 0.00 0.00 0.00 0.00 0.00 0.00 0.00 0.00 0.00 0.00 0.00 0.00 0.00 0.00 0.00 0.00 0.00 0.00 0.01 0.03 0.06 0.08 0.07 0.08 0.11 0.16 0.23 0.22 0.24 0.15
0.01 0.00 0.00 0.00 0.00 0.00 0.00 0.00 0.00 0.00 0.00 0.00 0.00 0.00 0.00 0.00 0.00 0.00 0.00 0.00 0.00 0.00 0.00 0.00 0.00 0.00 0.00 0.00 0.00 0.00 0.00 0.00 0.00 0.00 0.00 0.00 0.00 0.00 0.00 0.00 0.03 0.05 0.07 0.08 0.09 0.13 0.14 0.16 0.21
0.01 0.00 0.00 0.00 0.00 0.00 0.00 0.00 0.00 0.00 0.00 0.00 0.00 0.00 0.00 0.00 0.00 0.00 0.00 0.00 0.00 0.00 0.00 0.00 0.00 0.00 0.00 0.00 0.00 0.00 0.00 0.00 0.00 0.00 0.00 0.00 0.00 0.00 0.01 0.02 0.02 0.02 0.03 0.04 0.07 0.12 0.18 0.20 0.23
0.01 0.01 0.03 0.05 0.03 0.00 0.00 0.00 0.00 0.00 0.00 0.00 0.00 0.00 0.00 0.00 0.00 0.00 0.00 0.00 0.00 0.00 0.00 0.00 0.00 0.00 0.00 0.00 0.00 0.00 0.00 0.00 0.00 0.00 0.00 0.00 0.00 0.00 0.01 0.04 0.05 0.03 0.02 0.02 0.03 0.05 0.12 0.23 0.26
0.03 0.01 0.02 0.01 0.01 0.00 0.00 0.00 0.00 0.00 0.00 0.00 0.00 0.00 0.00 0.00 0.00 0.00 0.00 0.00 0.00 0.00 0.00 0.00 0.00 0.00 0.00 0.00 0.00 0.00 0.00 0.00 0.00 0.00 0.00 0.00 0.00 0.00 0.00 0.04 0.04 0.03 0.03 0.02 0.02 0.03 0.04 0.11 0.18
0.04 0.01 0.00 0.00 0.00 0.00 0.00 0.00 0.00 0.00 0.00 0.00 0.00 0.00 0.00 0.00 0.00 0.00 0.00 0.00 0.00 0.00 0.00 0.00 0.00 0.00 0.00 0.00 0.00 0.00 0.00 0.00 0.00 0.00 0.00 0.00 0.00 0.00 0.00 0.01 0.03 0.02 0.01 0.02 0.03 0.03 0.04 0.07 0.12
0.02 0.00 0.01 0.00 0.00 0.00 0.00 0.00 0.00 0.00 0.00 0.00 0.00 0.00 0.00 0.00 0.00 0.00 0.00 0.00 0.00 0.00 0.00 0.00 0.00 0.00 0.00 0.00 0.00 0.00 0.00 0.00 0.00 0.00 0.00 0.00 0.00 0.00 0.00 0.00 0.00 0.00 0.00 0.01 0.02 0.04 0.04 0.09 0.11
0.04 0.00 0.00 0.01 0.00 0.00 0.00 0.00 0.00 0.00 0.00 0.00 0.00 0.00 0.00 0.00 0.00 0.00 0.00 0.00 0.00 0.00 0.00 0.00 0.00 0.00 0.00 0.00 0.00 0.00 0.00 0.00 0.00 0.00 0.00 0.00 0.00 0.00 0.00 0.00 0.00 0.00 0.00 0.01 0.01 0.02 0.03 0.04 0.06
0.02 0.00 0.00 0.02 0.01 0.00 0.00 0.00 0.00 0.00 0.00 0.00 0.00 0.00 0.00 0.00 0.00 0.00 0.00 0.00 0.00 0.00 0.00 0.00 0.00 0.00 0.00 0.00 0.00 0.00 0.00 0.00 0.00 0.00 0.00 0.00 0.00 0.00 0.00 0.00 0.00 0.00 0.00 0.01 0.02 0.03 0.03 0.04 0.04

GFSSGP_prec_precacc24_078.txt.gz
Total_Precipitation_Accumulation
0.00 0.00 0.00 0.00 0.00 0.00 0.00 0.00 0.00 0.00 0.00 0.00 0.00 0.00 0.02 0.00 0.00 0.01 0.00 0.00 0.00 0.00 0.01 0.01 0.02 0.03 0.05 0.03 0.02 0.02 0.04 0.05 0.03 0.01 0.00 0.00 0.00 0.00 0.00 0.00 0.01 0.03 0.03 0.01 0.00 0.00 0.00 0.00 0.00
0.00 0.00 0.00 0.00 0.00 0.00 0.00 0.00 0.00 0.00 0.00 0.00 0.00 0.00 0.03 0.00 0.00 0.00 0.00 0.00 0.00 0.00 0.00 0.02 0.03 0.04 0.03 0.00 0.01 0.02 0.04 0.02 0.00 0.00 0.01 0.01 0.01 0.01 0.00 0.01 0.03 0.03 0.02 0.00 0.00 0.00 0.00 0.00 0.00
0.00 0.00 0.00 0.00 0.00 0.00 0.00 0.00 0.00 0.00 0.00 0.00 0.00 0.00 0.05 0.05 0.01 0.00 0.00 0.00 0.00 0.00 0.00 0.03 0.05 0.04 0.00 0.00 0.00 0.02 0.01 0.00 0.00 0.00 0.00 0.02 0.04 0.04 0.02 0.03 0.02 0.00 0.00 0.00 0.00 0.00 0.00 0.00 0.00
0.00 0.00 0.00 0.00 0.00 0.00 0.00 0.00 0.00 0.00 0.00 0.00 0.00 0.00 0.06 0.08 0.00 0.00 0.00 0.00 0.00 0.00 0.00 0.03 0.06 0.02 0.00 0.01 0.02 0.01 0.00 0.00 0.00 0.00 0.00 0.04 0.05 0.04 0.05 0.02 0.00 0.00 0.00 0.00 0.00 0.00 0.00 0.00 0.00
0.01 0.02 0.00 0.00 0.00 0.00 0.00 0.00 0.00 0.00 0.00 0.00 0.00 0.01 0.06 0.02 0.03 0.02 0.00 0.00 0.00 0.00 0.00 0.03 0.06 0.02 0.01 0.02 0.01 0.01 0.00 0.00 0.00 0.00 0.02 0.04 0.04 0.04 0.03 0.00 0.00 0.00 0.00 0.00 0.00 0.00 0.00 0.00 0.00
0.20 0.05 0.01 0.00 0.00 0.00 0.00 0.00 0.00 0.00 0.00 0.00 0.00 0.11 0.15 0.03 0.01 0.03 0.00 0.00 0.00 0.00 0.00 0.03 0.05 0.01 0.02 0.01 0.01 0.01 0.00 0.00 0.00 0.01 0.04 0.05 0.06 0.05 0.01 0.00 0.00 0.00 0.00 0.00 0.00 0.00 0.00 0.00 0.00
0.34 0.24 0.04 0.00 0.00 0.00 0.00 0.00 0.00 0.00 0.00 0.00 0.00 0.04 0.25 0.07 0.03 0.03 0.01 0.01 0.00 0.00 0.00 0.03 0.02 0.01 0.01 0.01 0.01 0.01 0.00 0.00 0.00 0.01 0.01 0.04 0.06 0.04 0.02 0.00 0.00 0.00 0.00 0.00 0.00 0.00 0.00 0.00 0.00
0.22 0.30 0.13 0.02 0.00 0.00 0.00 0.00 0.00 0.00 0.00 0.00 0.00 0.02 0.11 0.06 0.04 0.04 0.03 0.02 0.00 0.00 0.01 0.02 0.01 0.00 0.00 0.00 0.01 0.00 0.00 0.00 0.00 0.00 0.00 0.00 0.00 0.01 0.00 0.00 0.00 0.00 0.00 0.00 0.00 0.00 0.00 0.00 0.00
0.40 0.41 0.24 0.08 0.04 0.01 0.00 0.00 0.00 0.00 0.00 0.00 0.00 0.11 0.07 0.04 0.11 0.09 0.04 0.04 0.03 0.02 0.02 0.02 0.01 0.00 0.00 0.00 0.00 0.00 0.00 0.00 0.00 0.00 0.00 0.00 0.00 0.00 0.00 0.00 0.00 0.00 0.00 0.00 0.00 0.00 0.00 0.00 0.00
0.78 0.69 0.09 0.02 0.01 0.01 0.02 0.00 0.00 0.00 0.00 0.01 0.02 0.03 0.03 0.08 0.21 0.19 0.09 0.04 0.06 0.04 0.04 0.03 0.01 0.00 0.00 0.00 0.00 0.00 0.00 0.00 0.00 0.00 0.00 0.00 0.00 0.00 0.00 0.00 0.00 0.00 0.00 0.00 0.00 0.00 0.00 0.00 0.00
0.53 0.56 0.06 0.06 0.09 0.16 0.07 0.01 0.00 0.00 0.00 0.00 0.03 0.07 0.10 0.10 0.19 0.31 0.16 0.05 0.03 0.04 0.04 0.03 0.02 0.01 0.00 0.00 0.00 0.00 0.00 0.00 0.00 0.00 0.00 0.00 0.00 0.00 0.00 0.00 0.00 0.00 0.00 0.00 0.00 0.00 0.00 0.00 0.00
0.17 0.16 0.13 0.12 0.14 0.20 0.10 0.02 0.00 0.00 0.00 0.00 0.03 0.09 0.19 0.28 0.27 0.23 0.20 0.13 0.09 0.04 0.03 0.04 0.03 0.01 0.01 0.00 0.00 0.00 0.00 0.00 0.00 0.00 0.00 0.00 0.00 0.00 0.00 0.00 0.00 0.00 0.00 0.00 0.00 0.00 0.00 0.00 0.00
0.11 0.10 0.09 0.28 0.17 0.06 0.13 0.10 0.01 0.00 0.00 0.00 0.01 0.04 0.10 0.29 0.26 0.25 0.31 0.15 0.11 0.09 0.07 0.06 0.02 0.02 0.01 0.00 0.00 0.00 0.00 0.00 0.00 0.00 0.00 0.00 0.00 0.00 0.00 0.00 0.00 0.00 0.00 0.00 0.00 0.00 0.00 0.00 0.00
0.03 0.09 0.19 0.30 0.29 0.18 0.15 0.12 0.06 0.00 0.00 0.00 0.01 0.03 0.04 0.11 0.13 0.26 0.35 0.35 0.29 0.08 0.05 0.13 0.06 0.02 0.01 0.01 0.00 0.00 0.00 0.00 0.00 0.00 0.00 0.00 0.00 0.00 0.00 0.00 0.00 0.00 0.00 0.00 0.00 0.00 0.00 0.00 0.00
0.06 0.16 0.42 0.31 0.41 0.26 0.22 0.30 0.11 0.00 0.00 0.00 0.01 0.02 0.01 0.04 0.16 0.14 0.09 0.23 0.20 0.22 0.14 0.11 0.06 0.07 0.02 0.01 0.00 0.00 0.00 0.00 0.00 0.00 0.00 0.00 0.00 0.00 0.00 0.00 0.00 0.00 0.00 0.00 0.00 0.00 0.00 0.00 0.00
0.16 0.23 0.21 0.24 0.36 0.57 0.36 0.18 0.02 0.03 0.00 0.00 0.00 0.00 0.00 0.01 0.01 0.04 0.07 0.08 0.09 0.09 0.08 0.10 0.05 0.05 0.02 0.01 0.01 0.01 0.00 0.00 0.00 0.00 0.00 0.00 0.00 0.00 0.00 0.00 0.00 0.00 0.00 0.00 0.00 0.00 0.00 0.00 0.00
0.16 0.07 0.02 0.06 0.11 0.35 0.30 0.14 0.02 0.04 0.01 0.00 0.00 0.00 0.00 0.00 0.01 0.00 0.03 0.04 0.04 0.02 0.07 0.11 0.07 0.01 0.02 0.03 0.01 0.01 0.01 0.00 0.00 0.00 0.00 0.00 0.00 0.00 0.01 0.00 0.00 0.00 0.00 0.00 0.00 0.00 0.00 0.00 0.00
0.01 0.00 0.00 0.01 0.06 0.09 0.13 0.10 0.02 0.02 0.02 0.00 0.00 0.00 0.00 0.00 0.00 0.00 0.00 0.01 0.02 0.06 0.07 0.08 0.12 0.02 0.01 0.01 0.03 0.00 0.01 0.02 0.01 0.00 0.00 0.00 0.00 0.01 0.04 0.03 0.02 0.01 0.00 0.00 0.00 0.00 0.00 0.00 0.01
0.00 0.01 0.01 0.00 0.02 0.03 0.04 0.05 0.04 0.00 0.02 0.01 0.01 0.00 0.00 0.00 0.00 0.00 0.00 0.00 0.00 0.02 0.06 0.04 0.03 0.06 0.02 0.01 0.01 0.01 0.00 0.02 0.06 0.04 0.06 0.10 0.11 0.11 0.10 0.07 0.06 0.08 0.04 0.04 0.03 0.03 0.01 0.01 0.06
0.04 0.01 0.03 0.03 0.04 0.06 0.02 0.00 0.00 0.00 0.00 0.00 0.00 0.00 0.00 0.00 0.00 0.00 0.00 0.00 0.00 0.00 0.01 0.05 0.04 0.04 0.08 0.02 0.05 0.04 0.02 0.02 0.02 0.01 0.02 0.06 0.10 0.11 0.10 0.10 0.07 0.07 0.06 0.06 0.05 0.06 0.09 0.08 0.15
0.01 0.00 0.01 0.04 0.04 0.05 0.02 0.00 0.00 0.00 0.00 0.00 0.00 0.00 0.00 0.00 0.00 0.00 0.00 0.00 0.00 0.00 0.00 0.00 0.04 0.02 0.03 0.06 0.00 0.02 0.06 0.04 0.02 0.01 0.00 0.00 0.01 0.03 0.04 0.03 0.05 0.09 0.12 0.09 0.09 0.11 0.16 0.16 0.14
0.02 0.00 0.00 0.02 0.04 0.01 0.00 0.00 0.00 0.00 0.00 0.00 0.00 0.00 0.00 0.00 0.00 0.00 0.00 0.00 0.00 0.00 0.00 0.00 0.00 0.00 0.01 0.01 0.00 0.01 0.00 0.00 0.00 0.00 0.00 0.00 0.00 0.00 0.00 0.03 0.06 0.07 0.06 0.07 0.12 0.17 0.15 0.21 0.15
0.02 0.00 0.01 0.02 0.02 0.01 0.01 0.00 0.00 0.00 0.00 0.00 0.00 0.00 0.00 0.00 0.00 0.00 0.00 0.00 0.00 0.00 0.00 0.00 0.00 0.00 0.00 0.00 0.00 0.00 0.00 0.00 0.00 0.00 0.00 0.00 0.00 0.00 0.00 0.00 0.02 0.04 0.06 0.06 0.06 0.07 0.07 0.10 0.15
0.02 0.02 0.01 0.01 0.01 0.01 0.00 0.00 0.00 0.00 0.00 0.00 0.00 0.00 0.00 0.00 0.00 0.00 0.00 0.00 0.00 0.00 0.00 0.00 0.00 0.00 0.00 0.00 0.00 0.00 0.00 0.00 0.00 0.00 0.00 0.00 0.00 0.00 0.00 0.01 0.01 0.02 0.02 0.03 0.06 0.09 0.12 0.14 0.17
0.02 0.03 0.02 0.04 0.03 0.00 0.00 0.00 0.00 0.00 0.00 0.00 0.00 0.00 0.00 0.00 0.00 0.00 0.00 0.00 0.00 0.00 0.00 0.00 0.00 0.00 0.00 0.00 0.00 0.00 0.00 0.00 0.00 0.00 0.00 0.00 0.00 0.00 0.00 0.00 0.02 0.02 0.01 0.01 0.02 0.03 0.09 0.16 0.19
0.03 0.00 0.00 0.01 0.00 0.00 0.00 0.00 0.00 0.00 0.00 0.00 0.00 0.00 0.00 0.00 0.00 0.00 0.00 0.00 0.00 0.00 0.00 0.00 0.00 0.00 0.00 0.00 0.00 0.00 0.00 0.00 0.00 0.00 0.00 0.00 0.00 0.00 0.00 0.00 0.00 0.00 0.01 0.00 0.01 0.01 0.02 0.06 0.12
0.05 0.01 0.00 0.00 0.00 0.00 0.00 0.00 0.00 0.00 0.00 0.00 0.00 0.00 0.00 0.00 0.00 0.00 0.00 0.00 0.00 0.00 0.00 0.00 0.00 0.00 0.00 0.00 0.00 0.00 0.00 0.00 0.00 0.00 0.00 0.00 0.00 0.00 0.00 0.00 0.00 0.00 0.00 0.00 0.01 0.01 0.01 0.03 0.06
0.02 0.01 0.01 0.01 0.00 0.00 0.00 0.00 0.00 0.00 0.00 0.00 0.00 0.00 0.00 0.00 0.00 0.00 0.00 0.00 0.00 0.00 0.00 0.00 0.00 0.00 0.00 0.00 0.00 0.00 0.00 0.00 0.00 0.00 0.00 0.00 0.00 0.00 0.00 0.00 0.00 0.00 0.00 0.00 0.00 0.01 0.01 0.02 0.03
0.02 0.01 0.01 0.00 0.00 0.00 0.00 0.00 0.00 0.00 0.00 0.00 0.00 0.00 0.00 0.00 0.00 0.00 0.00 0.00 0.00 0.00 0.00 0.00 0.00 0.00 0.00 0.00 0.00 0.00 0.00 0.00 0.00 0.00 0.00 0.00 0.00 0.00 0.00 0.00 0.00 0.00 0.00 0.00 0.00 0.00 0.00 0.00 0.01
0.03 0.01 0.00 0.01 0.00 0.00 0.00 0.00 0.00 0.00 0.00 0.00 0.00 0.00 0.00 0.00 0.00 0.00 0.00 0.00 0.00 0.00 0.00 0.00 0.00 0.00 0.00 0.00 0.00 0.00 0.00 0.00 0.00 0.00 0.00 0.00 0.00 0.00 0.00 0.00 0.00 0.00 0.00 0.00 0.00 0.00 0.01 0.01 0.01

GFSSGP_prec_precacc24_081.txt.gz
Total_Precipitation_Accumulation
0.00 0.00 0.00 0.00 0.00 0.00 0.00 0.00 0.00 0.00 0.00 0.00 0.00 0.00 0.03 0.00 0.00 0.01 0.00 0.00 0.00 0.00 0.01 0.01 0.02 0.02 0.06 0.03 0.01 0.02 0.03 0.04 0.02 0.01 0.00 0.00 0.00 0.00 0.00 0.00 0.02 0.02 0.01 0.01 0.00 0.00 0.00 0.00 0.00
0.00 0.00 0.00 0.00 0.00 0.00 0.00 0.00 0.00 0.00 0.00 0.00 0.00 0.00 0.05 0.02 0.00 0.00 0.00 0.00 0.00 0.00 0.00 0.02 0.03 0.04 0.03 0.00 0.01 0.02 0.03 0.02 0.00 0.00 0.01 0.01 0.01 0.00 0.00 0.01 0.03 0.02 0.01 0.00 0.00 0.00 0.00 0.00 0.00
0.01 0.04 0.01 0.00 0.00 0.00 0.00 0.00 0.00 0.00 0.00 0.00 0.00 0.00 0.07 0.10 0.02 0.00 0.00 0.00 0.00 0.00 0.00 0.03 0.05 0.04 0.00 0.00 0.00 0.01 0.00 0.00 0.00 0.00 0.01 0.02 0.03 0.02 0.02 0.03 0.02 0.00 0.00 0.00 0.00 0.00 0.00 0.00 0.00
0.02 0.07 0.03 0.00 0.00 0.00 0.00 0.00 0.00 0.00 0.00 0.00 0.00 0.03 0.16 0.17 0.02 0.00 0.00 0.00 0.00 0.00 0.00 0.03 0.06 0.02 0.00 0.00 0.01 0.00 0.00 0.00 0.00 0.00 0.01 0.04 0.04 0.03 0.04 0.02 0.00 0.00 0.00 0.00 0.00 0.00 0.00 0.00 0.00
0.05 0.10 0.01 0.00 0.00 0.00 0.00 0.00 0.00 0.00 0.00 0.00 0.00 0.06 0.18 0.33 0.09 0.07 0.00 0.00 0.00 0.00 0.00 0.03 0.06 0.02 0.01 0.01 0.00 0.00 0.00 0.00 0.00 0.01 0.03 0.04 0.03 0.04 0.03 0.00 0.00 0.00 0.00 0.00 0.00 0.00 0.00 0.00 0.00
0.26 0.15 0.01 0.00 0.00 0.00 0.00 0.00 0.00 0.00 0.00 0.00 0.00 0.11 0.24 0.47 0.37 0.11 0.04 0.00 0.00 0.00 0.00 0.03 0.05 0.01 0.02 0.01 0.00 0.00 0.00 0.00 0.00 0.01 0.05 0.05 0.05 0.05 0.01 0.00 0.00 0.00 0.00 0.00 0.00 0.00 0.00 0.00 0.00
0.34 0.16 0.02 0.00 0.00 0.00 0.00 0.00 0.00 0.00 0.00 0.00 0.00 0.03 0.20 0.16 0.62 0.10 0.10 0.04 0.00 0.00 0.00 0.03 0.02 0.01 0.01 0.01 0.00 0.00 0.00 0.00 0.00 0.01 0.02 0.04 0.06 0.04 0.02 0.00 0.00 0.00 0.00 0.00 0.00 0.00 0.00 0.00 0.00
0.30 0.25 0.05 0.00 0.00 0.01 0.00 0.00 0.00 0.00 0.00 0.00 0.00 0.01 0.09 0.09 0.17 0.13 0.13 0.14 0.02 0.00 0.01 0.02 0.01 0.00 0.00 0.00 0.00 0.00 0.00 0.00 0.00 0.00 0.00 0.00 0.00 0.01 0.00 0.00 0.00 0.00 0.00 0.00 0.00 0.00 0.00 0.00 0.00
0.46 0.43 0.11 0.02 0.03 0.02 0.00 0.00 0.00 0.00 0.00 0.00 0.01 0.12 0.08 0.05 0.21 0.22 0.24 0.29 0.10 0.03 0.02 0.02 0.01 0.00 0.00 0.00 0.00 0.00 0.00 0.00 0.00 0.00 0.00 0.00 0.00 0.00 0.00 0.00 0.00 0.00 0.00 0.00 0.00 0.00 0.00 0.00 0.00
0.81 0.70 0.05 0.02 0.04 0.01 0.01 0.00 0.00 0.00 0.00 0.01 0.03 0.03 0.03 0.08 0.28 0.47 0.48 0.23 0.21 0.08 0.05 0.03 0.01 0.00 0.00 0.00 0.00 0.00 0.00 0.00 0.00 0.00 0.00 0.00 0.00 0.00 0.00 0.00 0.00 0.00 0.00 0.00 0.00 0.00 0.00 0.00 0.00
0.61 0.65 0.10 0.16 0.14 0.16 0.06 0.01 0.00 0.00 0.00 0.00 0.03 0.07 0.10 0.10 0.19 0.40 0.70 0.31 0.20 0.13 0.09 0.05 0.02 0.01 0.00 0.00 0.00 0.00 0.00 0.00 0.00 0.00 0.00 0.00 0.00 0.00 0.00 0.00 0.00 0.00 0.00 0.00 0.00 0.00 0.00 0.00 0.00
0.22 0.21 0.18 0.19 0.19 0.21 0.10 0.02 0.00 0.00 0.00 0.00 0.03 0.10 0.20 0.29 0.27 0.23 0.46 0.47 0.23 0.05 0.09 0.07 0.03 0.02 0.01 0.00 0.00 0.00 0.00 0.00 0.00 0.00 0.00 0.00 0.00 0.00 0.00 0.00 0.00 0.00 0.00 0.00 0.00 0.00 0.00 0.00 0.00
0.13 0.14 0.14 0.34 0.27 0.10 0.14 0.10 0.01 0.00 0.00 0.00 0.01 0.04 0.14 0.34 0.29 0.30 0.37 0.30 0.15 0.12 0.08 0.08 0.03 0.02 0.02 0.00 0.00 0.00 0.00 0.00 0.00 0.00 0.00 0.00 0.00 0.00 0.00 0.00 0.00 0.00 0.00 0.00 0.00 0.00 0.00 0.00 0.00
0.04 0.12 0.23 0.36 0.35 0.37 0.18 0.13 0.06 0.00 0.00 0.00 0.01 0.03 0.05 0.14 0.17 0.31 0.45 0.52 0.41 0.12 0.10 0.23 0.12 0.04 0.02 0.01 0.00 0.00 0.00 0.00 0.00 0.00 0.00 0.00 0.00 0.00 0.00 0.00 0.00 0.00 0.00 0.00 0.00 0.00 0.00 0.00 0.00
0.08 0.20 0.51 0.43 0.53 0.41 0.28 0.39 0.12 0.00 0.00 0.00 0.01 0.02 0.01 0.04 0.16 0.22 0.26 0.38 0.37 0.34 0.30 0.17 0.13 0.15 0.04 0.02 0.00 0.00 0.00 0.00 0.00 0.00 0.00 0.00 0.00 0.00 0.00 0.00 0.00 0.00 0.00 0.00 0.00 0.00 0.00 0.00 0.00
0.19 0.30 0.31 0.35 0.51 0.68 0.51 0.28 0.05 0.03 0.00 0.00 0.00 0.00 0.00 0.01 0.01 0.07 0.10 0.12 0.18 0.17 0.16 0.20 0.14 0.14 0.08 0.04 0.01 0.00 0.00 0.00 0.00 0.00 0.00 0.00 0.00 0.00 0.00 0.00 0.00 0.00 0.00 0.00 0.00 0.00 0.00 0.00 0.00
0.17 0.14 0.12 0.14 0.21 0.46 0.38 0.19 0.05 0.05 0.01 0.00 0.00 0.00 0.00 0.00 0.01 0.00 0.07 0.11 0.11 0.08 0.24 0.33 0.21 0.08 0.07 0.08 0.06 0.01 0.00 0.00 0.00 0.00 0.00 0.00 0.00 0.00 0.00 0.00 0.00 0.00 0.00 0.00 0.00 0.00 0.00 0.00 0.00
0.02 0.01 0.01 0.03 0.10 0.11 0.15 0.15 0.07 0.06 0.02 0.00 0.00 0.00 0.00 0.00 0.00 0.00 0.01 0.04 0.06 0.14 0.11 0.11 0.17 0.08 0.04 0.05 0.14 0.05 0.02 0.01 0.01 0.00 0.00 0.00 0.00 0.00 0.03 0.02 0.02 0.01 0.00 0.00 0.00 0.00 0.00 0.00 0.01
0.01 0.01 0.01 0.01 0.04 0.04 0.04 0.07 0.06 0.03 0.03 0.01 0.01 0.00 0.00 0.00 0.00 0.00 0.00 0.00 0.02 0.11 0.14 0.07 0.04 0.17 0.08 0.02 0.04 0.09 0.03 0.01 0.05 0.12 0.08 0.08 0.08 0.08 0.07 0.05 0.06 0.07 0.04 0.04 0.03 0.02 0.01 0.01 0.06
0.05 0.01 0.03 0.05 0.08 0.10 0.03 0.01 0.00 0.00 0.01 0.00 0.00 0.00 0.00 0.00 0.00 0.00 0.00 0.00 0.00 0.01 0.10 0.17 0.18 0.24 0.23 0.19 0.11 0.07 0.05 0.04 0.04 0.08 0.05 0.07 0.07 0.07 0.06 0.06 0.04 0.04 0.05 0.05 0.04 0.04 0.03 0.06 0.12
0.03 0.00 0.01 0.05 0.09 0.10 0.07 0.04 0.00 0.00 0.00 0.00 0.00 0.00 0.00 0.00 0.00 0.00 0.00 0.00 0.00 0.00 0.01 0.02 0.13 0.11 0.10 0.18 0.12 0.11 0.19 0.21 0.15 0.11 0.07 0.01 0.01 0.01 0.01 0.01 0.01 0.02 0.03 0.03 0.04 0.06 0.07 0.08 0.08
0.03 0.00 0.00 0.02 0.06 0.02 0.02 0.03 0.00 0.00 0.00 0.00 0.00 0.00 0.00 0.00 0.00 0.00 0.00 0.00 0.00 0.00 0.00 0.00 0.01 0.05 0.11 0.06 0.12 0.13 0.08 0.06 0.02 0.01 0.00 0.00 0.00 0.00 0.00 0.00 0.00 0.01 0.02 0.02 0.03 0.06 0.06 0.09 0.06
0.04 0.01 0.02 0.04 0.04 0.02 0.02 0.00 0.00 0.00 0.00 0.00 0.00 0.00 0.00 0.00 0.00 0.00 0.00 0.00 0.00 0.00 0.00 0.00 0.00 0.01 0.06 0.04 0.03 0.04 0.01 0.00 0.00 0.00 0.00 0.00 0.00 0.00 0.00 0.00 0.01 0.01 0.01 0.01 0.01 0.01 0.02 0.06 0.09
0.03 0.04 0.04 0.04 0.04 0.01 0.00 0.00 0.00 0.00 0.00 0.00 0.00 0.00 0.00 0.00 0.00 0.00 0.00 0.00 0.00 0.00 0.00 0.00 0.00 0.00 0.01 0.02 0.00 0.02 0.00 0.00 0.00 0.00 0.00 0.00 0.00 0.00 0.00 0.00 0.00 0.00 0.01 0.01 0.02 0.03 0.04 0.05 0.07
0.03 0.04 0.13 0.12 0.04 0.00 0.00 0.00 0.00 0.00 0.00 0.00 0.00 0.00 0.00 0.00 0.00 0.00 0.00 0.00 0.00 0.00 0.00 0.00 0.00 0.00 0.00 0.00 0.00 0.00 0.00 0.00 0.00 0.00 0.00 0.00 0.00 0.00 0.00 0.00 0.00 0.00 0.00 0.00 0.00 0.01 0.02 0.04 0.08
0.04 0.01 0.01 0.02 0.00 0.00 0.00 0.00 0.00 0.00 0.00 0.00 0.00 0.00 0.00 0.00 0.00 0.00 0.00 0.00 0.00 0.00 0.00 0.00 0.00 0.00 0.00 0.00 0.00 0.00 0.00 0.00 0.00 0.00 0.00 0.00 0.00 0.00 0.00 0.00 0.00 0.00 0.00 0.00 0.00 0.00 0.00 0.02 0.03
0.05 0.02 0.00 0.00 0.00 0.00 0.00 0.00 0.00 0.00 0.00 0.00 0.00 0.00 0.00 0.00 0.00 0.00 0.00 0.00 0.00 0.00 0.00 0.00 0.00 0.00 0.00 0.00 0.00 0.00 0.00 0.00 0.00 0.00 0.00 0.00 0.00 0.00 0.00 0.00 0.00 0.00 0.00 0.00 0.00 0.00 0.00 0.00 0.01
0.02 0.01 0.01 0.00 0.00 0.00 0.00 0.00 0.00 0.00 0.00 0.00 0.00 0.00 0.00 0.00 0.00 0.00 0.00 0.00 0.00 0.00 0.00 0.00 0.00 0.00 0.00 0.00 0.00 0.00 0.00 0.00 0.00 0.00 0.00 0.00 0.00 0.00 0.00 0.00 0.00 0.00 0.00 0.00 0.00 0.00 0.00 0.00 0.00
0.02 0.01 0.01 0.00 0.00 0.00 0.00 0.00 0.00 0.00 0.00 0.00 0.00 0.00 0.00 0.00 0.00 0.00 0.00 0.00 0.00 0.00 0.00 0.00 0.00 0.00 0.00 0.00 0.00 0.00 0.00 0.00 0.00 0.00 0.00 0.00 0.00 0.00 0.00 0.00 0.00 0.00 0.00 0.00 0.00 0.00 0.00 0.00 0.00
0.03 0.01 0.00 0.01 0.00 0.00 0.00 0.00 0.00 0.00 0.00 0.00 0.00 0.00 0.00 0.00 0.00 0.00 0.00 0.00 0.00 0.00 0.00 0.00 0.00 0.00 0.00 0.00 0.00 0.00 0.00 0.00 0.00 0.00 0.00 0.00 0.00 0.00 0.00 0.00 0.00 0.00 0.00 0.00 0.00 0.00 0.00 0.00 0.00

GFSSGP_prec_precacc24_084.txt.gz
Total_Precipitation_Accumulation
0.00 0.00 0.00 0.00 0.00 0.00 0.00 0.00 0.00 0.00 0.02 0.00 0.00 0.00 0.03 0.00 0.00 0.01 0.00 0.00 0.00 0.00 0.01 0.01 0.02 0.03 0.06 0.03 0.01 0.02 0.02 0.04 0.02 0.01 0.00 0.00 0.00 0.00 0.00 0.01 0.01 0.01 0.01 0.01 0.00 0.00 0.00 0.00 0.00
0.00 0.01 0.01 0.00 0.00 0.00 0.00 0.00 0.00 0.00 0.00 0.00 0.00 0.01 0.06 0.03 0.00 0.00 0.00 0.00 0.00 0.00 0.00 0.02 0.03 0.04 0.03 0.00 0.01 0.02 0.03 0.02 0.00 0.00 0.01 0.01 0.01 0.00 0.00 0.01 0.02 0.01 0.01 0.00 0.00 0.00 0.00 0.00 0.00
0.01 0.08 0.02 0.00 0.00 0.00 0.00 0.00 0.00 0.00 0.00 0.00 0.01 0.01 0.11 0.10 0.02 0.00 0.00 0.00 0.00 0.00 0.00 0.03 0.04 0.04 0.00 0.00 0.00 0.01 0.01 0.00 0.00 0.00 0.01 0.02 0.02 0.02 0.02 0.02 0.01 0.00 0.00 0.00 0.00 0.00 0.00 0.00 0.00
0.03 0.14 0.08 0.00 0.00 0.00 0.00 0.00 0.00 0.00 0.00 0.00 0.01 0.05 0.23 0.18 0.02 0.00 0.00 0.00 0.00 0.00 0.01 0.04 0.06 0.02 0.00 0.00 0.01 0.00 0.00 0.00 0.00 0.01 0.01 0.03 0.03 0.02 0.03 0.01 0.00 0.00 0.00 0.00 0.00 0.00 0.00 0.00 0.00
0.07 0.18 0.03 0.00 0.00 0.00 0.00 0.00 0.00 0.00 0.00 0.00 0.00 0.10 0.28 0.40 0.10 0.10 0.01 0.00 0.00 0.00 0.01 0.04 0.07 0.02 0.00 0.01 0.00 0.00 0.00 0.00 0.01 0.01 0.03 0.03 0.03 0.04 0.02 0.00 0.00 0.00 0.00 0.00 0.00 0.00 0.00 0.00 0.00
0.31 0.21 0.03 0.00 0.00 0.00 0.00 0.00 0.00 0.00 0.00 0.00 0.00 0.15 0.34 0.57 0.42 0.19 0.10 0.01 0.00 0.00 0.01 0.05 0.06 0.01 0.02 0.00 0.00 0.00 0.00 0.00 0.01 0.02 0.05 0.04 0.05 0.05 0.01 0.00 0.00 0.00 0.00 0.00 0.00 0.00 0.00 0.00 0.00
0.38 0.17 0.02 0.00 0.00 0.00 0.00 0.00 0.00 0.00 0.00 0.00 0.00 0.03 0.27 0.29 0.82 0.38 0.25 0.14 0.01 0.01 0.01 0.04 0.03 0.02 0.01 0.00 0.00 0.00 0.00 0.00 0.00 0.02 0.02 0.04 0.05 0.04 0.02 0.00 0.00 0.00 0.00 0.00 0.00 0.00 0.00 0.00 0.00
0.36 0.29 0.05 0.00 0.00 0.01 0.00 0.00 0.00 0.00 0.00 0.00 0.00 0.01 0.12 0.13 0.35 0.53 0.44 0.35 0.08 0.01 0.01 0.02 0.01 0.01 0.00 0.00 0.00 0.00 0.00 0.00 0.00 0.01 0.01 0.00 0.00 0.01 0.00 0.00 0.00 0.00 0.00 0.00 0.00 0.00 0.00 0.00 0.00
0.53 0.51 0.14 0.00 0.02 0.02 0.00 0.00 0.00 0.00 0.00 0.00 0.01 0.12 0.09 0.05 0.22 0.38 0.62 0.61 0.21 0.05 0.03 0.02 0.01 0.00 0.00 0.00 0.00 0.00 0.00 0.00 0.00 0.00 0.00 0.00 0.00 0.00 0.00 0.00 0.00 0.00 0.00 0.00 0.00 0.00 0.00 0.00 0.00
0.85 0.68 0.08 0.02 0.05 0.01 0.01 0.00 0.00 0.00 0.00 0.01 0.04 0.04 0.03 0.07 0.24 0.47 0.94 0.67 0.33 0.10 0.06 0.03 0.01 0.00 0.00 0.00 0.00 0.00 0.00 0.00 0.00 0.00 0.00 0.00 0.00 0.00 0.00 0.00 0.00 0.00 0.00 0.00 0.00 0.00 0.00 0.00 0.00
0.69 0.62 0.12 0.19 0.15 0.07 0.02 0.01 0.00 0.00 0.00 0.00 0.04 0.08 0.11 0.10 0.17 0.36 0.85 1.16 0.76 0.36 0.14 0.06 0.02 0.01 0.00 0.00 0.00 0.00 0.00 0.00 0.00 0.00 0.00 0.00 0.00 0.00 0.00 0.00 0.00 0.00 0.00 0.00 0.00 0.00 0.00 0.00 0.00
0.35 0.24 0.27 0.27 0.26 0.14 0.02 0.01 0.00 0.00 0.00 0.00 0.04 0.12 0.21 0.29 0.27 0.22 0.46 0.94 1.92 0.61 0.23 0.09 0.04 0.02 0.01 0.00 0.00 0.00 0.00 0.00 0.00 0.00 0.00 0.00 0.00 0.00 0.00 0.00 0.00 0.00 0.00 0.00 0.00 0.00 0.00 0.00 0.00
0.24 0.18 0.27 0.44 0.35 0.13 0.06 0.04 0.01 0.00 0.00 0.00 0.01 0.04 0.15 0.39 0.30 0.31 0.38 0.39 1.15 1.44 0.68 0.20 0.04 0.02 0.02 0.00 0.00 0.00 0.00 0.00 0.00 0.00 0.00 0.00 0.00 0.00 0.00 0.00 0.00 0.00 0.00 0.00 0.00 0.00 0.00 0.00 0.00
0.09 0.24 0.30 0.53 0.41 0.42 0.15 0.10 0.06 0.00 0.00 0.00 0.01 0.03 0.06 0.16 0.20 0.33 0.47 0.57 0.49 0.43 0.66 0.54 0.25 0.05 0.02 0.01 0.00 0.00 0.00 0.00 0.00 0.00 0.00 0.00 0.00 0.00 0.00 0.00 0.00 0.00 0.00 0.00 0.00 0.00 0.00 0.00 0.00
0.13 0.27 0.61 0.59 0.64 0.61 0.36 0.40 0.12 0.00 0.00 0.00 0.01 0.02 0.03 0.10 0.22 0.28 0.33 0.43 0.42 0.40 0.41 0.34 0.38 0.29 0.05 0.02 0.01 0.00 0.00 0.00 0.00 0.00 0.00 0.00 0.00 0.00 0.00 0.00 0.00 0.00 0.00 0.00 0.00 0.00 0.00 0.00 0.00
0.23 0.35 0.42 0.46 0.65 0.91 0.76 0.34 0.07 0.03 0.00 0.00 0.00 0.00 0.01 0.05 0.06 0.16 0.15 0.16 0.29 0.26 0.19 0.27 0.34 0.41 0.24 0.09 0.02 0.00 0.00 0.00 0.00 0.00 0.00 0.00 0.00 0.00 0.00 0.00 0.00 0.00 0.00 0.00 0.00 0.00 0.00 0.00 0.00
0.21 0.18 0.16 0.17 0.27 0.73 0.70 0.36 0.09 0.07 0.01 0.00 0.00 0.00 0.00 0.00 0.01 0.01 0.08 0.11 0.12 0.12 0.27 0.36 0.29 0.23 0.25 0.27 0.16 0.05 0.00 0.00 0.00 0.00 0.00 0.00 0.00 0.00 0.00 0.00 0.00 0.00 0.00 0.00 0.00 0.00 0.00 0.00 0.00
0.03 0.04 0.05 0.09 0.14 0.31 0.46 0.28 0.14 0.09 0.02 0.00 0.00 0.00 0.00 0.00 0.00 0.00 0.02 0.07 0.08 0.20 0.16 0.13 0.18 0.10 0.08 0.21 0.35 0.12 0.03 0.01 0.00 0.00 0.00 0.00 0.00 0.00 0.00 0.00 0.00 0.00 0.00 0.00 0.00 0.00 0.00 0.00 0.01
0.02 0.02 0.03 0.03 0.05 0.09 0.13 0.10 0.10 0.05 0.03 0.01 0.01 0.00 0.00 0.00 0.00 0.00 0.00 0.01 0.05 0.23 0.25 0.12 0.04 0.18 0.15 0.16 0.20 0.13 0.05 0.08 0.12 0.21 0.11 0.03 0.03 0.02 0.02 0.02 0.02 0.03 0.02 0.02 0.02 0.02 0.01 0.00 0.01
0.05 0.03 0.06 0.10 0.13 0.11 0.04 0.02 0.01 0.02 0.01 0.00 0.00 0.00 0.00 0.00 0.00 0.00 0.00 0.00 0.00 0.03 0.16 0.28 0.26 0.31 0.28 0.27 0.23 0.16 0.22 0.31 0.33 0.24 0.12 0.16 0.04 0.02 0.01 0.02 0.03 0.02 0.01 0.01 0.02 0.02 0.02 0.02 0.03
0.04 0.01 0.01 0.07 0.14 0.15 0.10 0.04 0.00 0.00 0.00 0.00 0.00 0.00 0.00 0.00 0.00 0.00 0.00 0.00 0.00 0.00 0.01 0.06 0.24 0.14 0.12 0.20 0.17 0.17 0.26 0.27 0.24 0.18 0.11 0.13 0.11 0.08 0.03 0.00 0.00 0.01 0.01 0.01 0.01 0.03 0.04 0.04 0.03
0.04 0.00 0.01 0.06 0.08 0.06 0.10 0.05 0.00 0.00 0.00 0.00 0.00 0.00 0.00 0.00 0.00 0.00 0.00 0.00 0.00 0.00 0.00 0.02 0.05 0.08 0.14 0.11 0.13 0.22 0.19 0.20 0.16 0.14 0.06 0.10 0.09 0.04 0.00 0.00 0.00 0.00 0.00 0.00 0.01 0.00 0.01 0.03 0.02
0.05 0.01 0.02 0.07 0.09 0.03 0.05 0.01 0.00 0.00 0.00 0.00 0.00 0.00 0.00 0.00 0.00 0.00 0.00 0.00 0.00 0.00 0.00 0.00 0.00 0.04 0.16 0.10 0.11 0.15 0.12 0.07 0.03 0.02 0.04 0.04 0.02 0.00 0.00 0.00 0.00 0.00 0.00 0.00 0.00 0.00 0.00 0.00 0.02
0.04 0.04 0.05 0.06 0.10 0.04 0.00 0.00 0.00 0.00 0.00 0.00 0.00 0.00 0.00 0.00 0.00 0.00 0.00 0.00 0.00 0.00 0.00 0.00 0.00 0.00 0.04 0.08 0.08 0.12 0.06 0.07 0.08 0.07 0.05 0.03 0.02 0.00 0.00 0.00 0.00 0.00 0.00 0.00 0.00 0.01 0.01 0.01 0.02
0.05 0.06 0.18 0.19 0.16 0.01 0.00 0.00 0.00 0.00 0.00 0.00 0.00 0.00 0.00 0.00 0.00 0.00 0.00 0.00 0.00 0.00 0.00 0.00 0.00 0.00 0.00 0.04 0.06 0.09 0.06 0.04 0.02 0.02 0.03 0.02 0.00 0.00 0.00 0.00 0.00 0.00 0.00 0.00 0.00 0.00 0.01 0.02 0.02
0.05 0.02 0.03 0.04 0.02 0.00 0.00 0.00 0.00 0.00 0.00 0.00 0.00 0.00 0.00 0.00 0.00 0.00 0.00 0.00 0.00 0.00 0.00 0.00 0.00 0.00 0.00 0.00 0.00 0.01 0.02 0.02 0.02 0.00 0.00 0.00 0.00 0.00 0.00 0.00 0.00 0.00 0.00 0.00 0.00 0.00 0.00 0.01 0.01
0.05 0.02 0.00 0.00 0.00 0.00 0.00 0.00 0.00 0.00 0.00 0.00 0.00 0.00 0.00 0.00 0.00 0.00 0.00 0.00 0.00 0.00 0.00 0.00 0.00 0.00 0.00 0.00 0.00 0.00 0.00 0.00 0.00 0.00 0.00 0.00 0.00 0.00 0.00 0.00 0.00 0.00 0.00 0.00 0.00 0.00 0.00 0.00 0.00
0.02 0.01 0.01 0.00 0.00 0.00 0.00 0.00 0.00 0.00 0.00 0.00 0.00 0.00 0.00 0.00 0.00 0.00 0.00 0.00 0.00 0.00 0.00 0.00 0.00 0.00 0.00 0.00 0.00 0.00 0.00 0.00 0.00 0.00 0.00 0.00 0.00 0.00 0.00 0.00 0.00 0.00 0.00 0.00 0.00 0.00 0.00 0.00 0.00
0.02 0.01 0.01 0.00 0.00 0.00 0.00 0.00 0.00 0.00 0.00 0.00 0.00 0.00 0.00 0.00 0.00 0.00 0.00 0.00 0.00 0.00 0.00 0.00 0.00 0.00 0.00 0.00 0.00 0.00 0.00 0.00 0.00 0.00 0.00 0.00 0.00 0.00 0.00 0.00 0.00 0.00 0.00 0.00 0.00 0.00 0.00 0.00 0.00
0.03 0.01 0.00 0.01 0.00 0.00 0.00 0.00 0.00 0.00 0.00 0.00 0.00 0.00 0.00 0.00 0.00 0.00 0.00 0.00 0.00 0.00 0.00 0.00 0.00 0.00 0.00 0.00 0.00 0.00 0.00 0.00 0.00 0.00 0.00 0.00 0.00 0.00 0.00 0.00 0.00 0.00 0.00 0.00 0.00 0.00 0.00 0.00 0.00

GFSSGP_prec_precacc24_087.txt.gz
Total_Precipitation_Accumulation
0.00 0.00 0.00 0.00 0.00 0.00 0.00 0.00 0.00 0.01 0.06 0.00 0.00 0.01 0.03 0.00 0.00 0.01 0.00 0.00 0.00 0.00 0.01 0.01 0.02 0.03 0.07 0.03 0.01 0.00 0.01 0.03 0.01 0.00 0.00 0.02 0.02 0.02 0.01 0.00 0.00 0.01 0.01 0.01 0.00 0.00 0.00 0.00 0.00
0.00 0.02 0.03 0.02 0.00 0.00 0.00 0.00 0.00 0.00 0.04 0.00 0.00 0.02 0.10 0.03 0.00 0.01 0.01 0.00 0.00 0.00 0.01 0.02 0.03 0.05 0.03 0.00 0.00 0.01 0.03 0.02 0.00 0.00 0.01 0.01 0.01 0.00 0.00 0.01 0.00 0.01 0.01 0.00 0.00 0.00 0.00 0.00 0.00
0.01 0.09 0.11 0.02 0.00 0.00 0.00 0.00 0.00 0.00 0.00 0.01 0.01 0.01 0.18 0.11 0.02 0.00 0.00 0.01 0.00 0.00 0.01 0.02 0.05 0.06 0.01 0.01 0.00 0.01 0.01 0.00 0.00 0.00 0.01 0.01 0.02 0.02 0.02 0.01 0.00 0.00 0.00 0.00 0.00 0.00 0.00 0.00 0.00
0.06 0.17 0.19 0.01 0.00 0.00 0.00 0.00 0.00 0.00 0.01 0.01 0.02 0.06 0.29 0.20 0.02 0.00 0.00 0.01 0.00 0.01 0.01 0.04 0.06 0.03 0.01 0.01 0.01 0.01 0.01 0.01 0.00 0.01 0.01 0.02 0.03 0.02 0.03 0.01 0.00 0.00 0.00 0.00 0.00 0.00 0.00 0.00 0.00
0.16 0.28 0.11 0.02 0.00 0.00 0.00 0.00 0.00 0.00 0.00 0.00 0.01 0.12 0.37 0.46 0.10 0.10 0.01 0.00 0.00 0.00 0.02 0.04 0.07 0.02 0.00 0.01 0.00 0.01 0.01 0.01 0.01 0.01 0.03 0.03 0.02 0.03 0.02 0.00 0.00 0.00 0.00 0.00 0.00 0.00 0.00 0.00 0.00
0.41 0.30 0.11 0.03 0.00 0.00 0.00 0.00 0.00 0.00 0.00 0.00 0.00 0.16 0.46 0.75 0.54 0.19 0.10 0.01 0.00 0.01 0.03 0.07 0.07 0.01 0.02 0.00 0.00 0.00 0.01 0.01 0.01 0.02 0.04 0.04 0.04 0.04 0.01 0.00 0.00 0.00 0.00 0.00 0.00 0.00 0.00 0.00 0.00
0.49 0.26 0.06 0.01 0.00 0.00 0.00 0.00 0.00 0.00 0.00 0.00 0.00 0.04 0.30 0.62 1.10 0.40 0.26 0.16 0.01 0.02 0.03 0.07 0.03 0.02 0.01 0.00 0.00 0.00 0.01 0.01 0.01 0.02 0.02 0.04 0.05 0.03 0.01 0.00 0.00 0.00 0.00 0.00 0.00 0.00 0.00 0.00 0.00
0.48 0.50 0.11 0.00 0.00 0.01 0.00 0.00 0.00 0.00 0.00 0.00 0.00 0.01 0.12 0.26 1.07 0.77 0.49 0.42 0.08 0.02 0.02 0.03 0.02 0.01 0.00 0.00 0.00 0.00 0.00 0.00 0.02 0.01 0.01 0.00 0.00 0.01 0.00 0.00 0.00 0.00 0.00 0.00 0.00 0.00 0.00 0.00 0.00
0.72 0.83 0.32 0.01 0.02 0.02 0.00 0.00 0.00 0.00 0.00 0.00 0.01 0.12 0.09 0.06 0.58 0.65 0.71 0.72 0.24 0.06 0.03 0.02 0.01 0.00 0.00 0.00 0.00 0.00 0.00 0.00 0.01 0.00 0.00 0.00 0.00 0.00 0.00 0.00 0.00 0.00 0.00 0.00 0.00 0.00 0.00 0.00 0.00
1.03 0.98 0.31 0.03 0.05 0.01 0.01 0.00 0.00 0.00 0.00 0.00 0.04 0.04 0.03 0.07 0.26 0.55 0.98 0.78 0.44 0.13 0.06 0.03 0.01 0.00 0.00 0.00 0.00 0.00 0.00 0.00 0.00 0.00 0.00 0.00 0.00 0.00 0.00 0.00 0.00 0.00 0.00 0.00 0.00 0.00 0.00 0.00 0.00
0.83 0.90 0.28 0.24 0.17 0.05 0.03 0.01 0.00 0.00 0.00 0.00 0.02 0.08 0.10 0.09 0.16 0.37 0.86 1.28 1.00 0.60 0.28 0.09 0.02 0.01 0.00 0.00 0.00 0.00 0.00 0.00 0.00 0.00 0.00 0.00 0.00 0.00 0.00 0.00 0.00 0.00 0.00 0.00 0.00 0.00 0.00 0.00 0.00
0.43 0.59 0.42 0.38 0.29 0.14 0.03 0.01 0.00 0.00 0.00 0.00 0.01 0.09 0.18 0.27 0.26 0.21 0.45 0.94 2.17 1.48 0.71 0.44 0.14 0.02 0.01 0.00 0.00 0.00 0.00 0.00 0.00 0.00 0.00 0.00 0.00 0.00 0.00 0.00 0.00 0.00 0.00 0.00 0.00 0.00 0.00 0.00 0.00
0.28 0.44 0.52 0.50 0.37 0.18 0.06 0.01 0.02 0.00 0.00 0.00 0.01 0.04 0.17 0.39 0.30 0.31 0.39 0.45 1.24 2.46 1.89 0.73 0.36 0.13 0.02 0.00 0.00 0.00 0.00 0.00 0.00 0.00 0.00 0.00 0.00 0.00 0.00 0.00 0.00 0.00 0.00 0.00 0.00 0.00 0.00 0.00 0.00
0.11 0.41 0.55 0.61 0.48 0.47 0.13 0.05 0.01 0.00 0.00 0.01 0.03 0.11 0.12 0.20 0.22 0.34 0.50 0.58 0.50 0.58 1.28 1.25 0.63 0.30 0.07 0.01 0.00 0.00 0.00 0.00 0.00 0.00 0.00 0.00 0.00 0.00 0.00 0.00 0.00 0.00 0.00 0.00 0.00 0.00 0.00 0.00 0.00
0.13 0.44 0.82 0.67 0.78 0.66 0.39 0.34 0.04 0.00 0.00 0.01 0.01 0.05 0.13 0.22 0.29 0.31 0.34 0.46 0.46 0.41 0.45 0.63 0.69 0.67 0.28 0.10 0.01 0.00 0.00 0.00 0.00 0.00 0.00 0.00 0.00 0.00 0.00 0.00 0.00 0.00 0.00 0.00 0.00 0.00 0.00 0.00 0.00
0.24 0.50 0.69 0.62 0.87 1.12 0.80 0.39 0.07 0.02 0.00 0.00 0.00 0.01 0.08 0.15 0.17 0.31 0.21 0.18 0.31 0.28 0.21 0.31 0.40 0.67 0.65 0.40 0.16 0.03 0.00 0.00 0.00 0.00 0.00 0.00 0.00 0.00 0.00 0.00 0.00 0.00 0.00 0.00 0.00 0.00 0.00 0.00 0.00
0.24 0.30 0.39 0.38 0.46 1.12 0.94 0.52 0.12 0.07 0.01 0.00 0.00 0.00 0.01 0.06 0.11 0.14 0.16 0.14 0.16 0.20 0.34 0.43 0.34 0.28 0.40 0.56 0.41 0.22 0.10 0.02 0.01 0.01 0.00 0.00 0.00 0.00 0.00 0.00 0.00 0.00 0.00 0.00 0.00 0.00 0.00 0.00 0.00
0.03 0.10 0.16 0.30 0.30 0.59 0.79 0.44 0.28 0.10 0.02 0.00 0.00 0.00 0.00 0.00 0.01 0.04 0.12 0.10 0.11 0.32 0.26 0.24 0.28 0.18 0.15 0.31 0.49 0.32 0.22 0.14 0.02 0.01 0.00 0.00 0.00 0.00 0.00 0.00 0.00 0.00 0.00 0.00 0.00 0.00 0.00 0.00 0.01
0.02 0.03 0.06 0.11 0.14 0.20 0.31 0.36 0.27 0.07 0.03 0.01 0.01 0.00 0.00 0.00 0.00 0.00 0.02 0.04 0.10 0.32 0.30 0.17 0.12 0.26 0.26 0.22 0.27 0.32 0.23 0.27 0.22 0.26 0.15 0.03 0.00 0.00 0.00 0.00 0.00 0.00 0.00 0.01 0.01 0.02 0.01 0.01 0.01
0.07 0.03 0.07 0.13 0.17 0.14 0.12 0.11 0.17 0.08 0.01 0.00 0.00 0.00 0.00 0.00 0.00 0.00 0.00 0.01 0.04 0.11 0.23 0.35 0.33 0.42 0.32 0.30 0.26 0.20 0.27 0.39 0.54 0.52 0.36 0.37 0.17 0.04 0.02 0.01 0.01 0.01 0.01 0.00 0.01 0.02 0.01 0.01 0.00
0.06 0.01 0.01 0.08 0.16 0.17 0.15 0.07 0.02 0.05 0.01 0.00 0.00 0.00 0.00 0.00 0.00 0.00 0.00 0.00 0.00 0.01 0.08 0.13 0.30 0.19 0.16 0.26 0.25 0.20 0.32 0.33 0.29 0.20 0.13 0.16 0.25 0.31 0.22 0.16 0.12 0.08 0.03 0.01 0.01 0.02 0.02 0.02 0.01
0.06 0.01 0.02 0.09 0.09 0.11 0.19 0.10 0.00 0.00 0.01 0.00 0.00 0.00 0.00 0.00 0.00 0.00 0.00 0.00 0.00 0.00 0.01 0.07 0.06 0.09 0.18 0.23 0.29 0.26 0.23 0.24 0.20 0.24 0.15 0.21 0.17 0.18 0.11 0.08 0.08 0.04 0.01 0.00 0.00 0.00 0.01 0.02 0.01
0.06 0.02 0.04 0.11 0.12 0.04 0.10 0.09 0.00 0.00 0.00 0.00 0.00 0.00 0.00 0.00 0.00 0.00 0.00 0.00 0.00 0.00 0.00 0.00 0.09 0.14 0.30 0.19 0.18 0.30 0.30 0.19 0.16 0.10 0.09 0.12 0.15 0.13 0.11 0.08 0.05 0.03 0.01 0.00 0.00 0.00 0.00 0.00 0.02
0.08 0.05 0.07 0.13 0.16 0.06 0.00 0.00 0.00 0.00 0.00 0.00 0.00 0.00 0.00 0.00 0.00 0.00 0.00 0.00 0.00 0.00 0.00 0.00 0.01 0.05 0.14 0.21 0.23 0.28 0.20 0.18 0.13 0.13 0.13 0.12 0.12 0.11 0.06 0.04 0.02 0.01 0.00 0.00 0.00 0.00 0.00 0.00 0.01
0.11 0.06 0.23 0.27 0.28 0.02 0.00 0.00 0.00 0.00 0.00 0.00 0.00 0.00 0.00 0.00 0.00 0.00 0.00 0.00 0.00 0.00 0.00 0.00 0.00 0.00 0.02 0.07 0.15 0.20 0.16 0.16 0.13 0.11 0.07 0.06 0.04 0.02 0.01 0.00 0.00 0.00 0.00 0.00 0.00 0.00 0.00 0.01 0.02
0.07 0.02 0.03 0.07 0.05 0.00 0.00 0.00 0.00 0.00 0.00 0.00 0.00 0.00 0.00 0.00 0.00 0.00 0.00 0.00 0.00 0.00 0.00 0.00 0.00 0.00 0.00 0.00 0.02 0.11 0.12 0.11 0.08 0.08 0.07 0.04 0.03 0.01 0.00 0.00 0.00 0.00 0.00 0.00 0.00 0.00 0.00 0.01 0.01
0.06 0.02 0.00 0.00 0.00 0.00 0.00 0.00 0.00 0.00 0.00 0.00 0.00 0.00 0.00 0.00 0.00 0.00 0.00 0.00 0.00 0.00 0.00 0.00 0.00 0.00 0.00 0.00 0.00 0.00 0.01 0.01 0.05 0.03 0.02 0.01 0.00 0.00 0.00 0.00 0.00 0.00 0.00 0.00 0.00 0.00 0.00 0.00 0.00
0.02 0.01 0.00 0.00 0.00 0.00 0.00 0.00 0.00 0.00 0.00 0.00 0.00 0.00 0.00 0.00 0.00 0.00 0.00 0.00 0.00 0.00 0.00 0.00 0.00 0.00 0.00 0.00 0.00 0.00 0.00 0.00 0.00 0.00 0.00 0.00 0.00 0.00 0.00 0.00 0.00 0.00 0.00 0.00 0.00 0.00 0.00 0.00 0.00
0.01 0.01 0.01 0.00 0.00 0.00 0.00 0.00 0.00 0.00 0.00 0.00 0.00 0.00 0.00 0.00 0.00 0.00 0.00 0.00 0.00 0.00 0.00 0.00 0.00 0.00 0.00 0.00 0.00 0.00 0.00 0.00 0.00 0.00 0.00 0.00 0.00 0.00 0.00 0.00 0.00 0.00 0.00 0.00 0.00 0.00 0.00 0.00 0.00
0.02 0.01 0.00 0.01 0.00 0.00 0.00 0.00 0.00 0.00 0.00 0.00 0.00 0.00 0.00 0.00 0.00 0.00 0.00 0.00 0.00 0.00 0.00 0.00 0.00 0.00 0.00 0.00 0.00 0.00 0.00 0.00 0.00 0.00 0.00 0.00 0.00 0.00 0.00 0.00 0.00 0.00 0.00 0.00 0.00 0.00 0.00 0.00 0.00

GFSSGP_prec_precacc24_090.txt.gz
Total_Precipitation_Accumulation
0.00 0.01 0.01 0.03 0.02 0.00 0.00 0.00 0.00 0.02 0.09 0.01 0.00 0.02 0.04 0.00 0.00 0.02 0.01 0.00 0.00 0.00 0.01 0.02 0.02 0.03 0.07 0.03 0.00 0.00 0.01 0.02 0.03 0.05 0.06 0.08 0.09 0.06 0.01 0.00 0.00 0.01 0.01 0.01 0.00 0.00 0.00 0.00 0.00
0.01 0.02 0.04 0.11 0.03 0.00 0.00 0.00 0.00 0.00 0.06 0.02 0.00 0.03 0.13 0.03 0.00 0.02 0.03 0.01 0.00 0.00 0.00 0.02 0.03 0.05 0.04 0.00 0.00 0.01 0.02 0.02 0.01 0.04 0.07 0.07 0.05 0.01 0.00 0.00 0.00 0.01 0.01 0.00 0.00 0.00 0.00 0.00 0.00
0.02 0.09 0.18 0.11 0.02 0.00 0.00 0.00 0.00 0.00 0.00 0.07 0.04 0.01 0.23 0.12 0.03 0.02 0.01 0.04 0.01 0.00 0.01 0.02 0.05 0.06 0.01 0.01 0.00 0.01 0.01 0.00 0.00 0.01 0.02 0.03 0.02 0.02 0.01 0.00 0.00 0.00 0.00 0.00 0.00 0.00 0.00 0.00 0.00
0.10 0.24 0.27 0.08 0.01 0.00 0.00 0.00 0.00 0.00 0.01 0.03 0.09 0.08 0.33 0.25 0.03 0.01 0.02 0.02 0.01 0.01 0.01 0.04 0.08 0.04 0.01 0.01 0.01 0.01 0.01 0.01 0.00 0.01 0.01 0.02 0.03 0.02 0.02 0.00 0.00 0.00 0.00 0.00 0.00 0.00 0.00 0.00 0.00
0.20 0.37 0.18 0.14 0.05 0.00 0.00 0.00 0.00 0.00 0.00 0.00 0.07 0.18 0.41 0.50 0.12 0.12 0.03 0.00 0.00 0.01 0.03 0.05 0.09 0.02 0.00 0.02 0.01 0.02 0.02 0.01 0.01 0.01 0.01 0.02 0.02 0.03 0.01 0.00 0.00 0.00 0.00 0.00 0.00 0.00 0.00 0.00 0.00
0.43 0.38 0.20 0.12 0.02 0.00 0.00 0.00 0.00 0.00 0.00 0.00 0.02 0.22 0.50 0.87 0.62 0.26 0.11 0.01 0.00 0.01 0.05 0.09 0.08 0.01 0.02 0.01 0.01 0.02 0.03 0.01 0.01 0.02 0.03 0.03 0.03 0.03 0.00 0.00 0.00 0.00 0.00 0.00 0.00 0.00 0.00 0.00 0.00
0.41 0.31 0.13 0.08 0.01 0.00 0.00 0.00 0.00 0.00 0.00 0.00 0.00 0.10 0.39 0.76 1.30 0.54 0.31 0.17 0.02 0.03 0.05 0.09 0.03 0.02 0.01 0.00 0.00 0.02 0.03 0.02 0.01 0.02 0.02 0.04 0.04 0.02 0.00 0.00 0.00 0.00 0.00 0.00 0.00 0.00 0.00 0.00 0.00
0.44 0.57 0.20 0.03 0.01 0.01 0.00 0.00 0.00 0.00 0.00 0.00 0.00 0.03 0.20 0.36 1.44 1.05 0.62 0.49 0.16 0.09 0.05 0.04 0.02 0.01 0.00 0.00 0.00 0.00 0.02 0.02 0.02 0.01 0.01 0.00 0.00 0.01 0.00 0.00 0.00 0.00 0.00 0.00 0.00 0.00 0.00 0.00 0.00
0.69 0.84 0.42 0.06 0.03 0.02 0.00 0.00 0.00 0.00 0.00 0.01 0.01 0.12 0.10 0.16 1.19 1.40 0.91 0.76 0.30 0.15 0.11 0.05 0.02 0.00 0.00 0.00 0.00 0.00 0.01 0.02 0.01 0.00 0.00 0.00 0.00 0.00 0.00 0.00 0.00 0.00 0.00 0.00 0.00 0.00 0.00 0.00 0.00
0.95 0.89 0.33 0.07 0.06 0.01 0.02 0.00 0.00 0.00 0.01 0.04 0.04 0.03 0.03 0.14 0.40 1.39 1.46 0.85 0.45 0.15 0.09 0.05 0.03 0.01 0.00 0.00 0.00 0.00 0.00 0.01 0.00 0.00 0.00 0.00 0.00 0.00 0.00 0.00 0.00 0.00 0.00 0.00 0.00 0.00 0.00 0.00 0.00
0.79 0.83 0.28 0.28 0.23 0.08 0.04 0.02 0.00 0.00 0.01 0.00 0.01 0.02 0.03 0.09 0.17 0.47 1.10 1.51 1.06 0.63 0.37 0.20 0.07 0.02 0.00 0.00 0.00 0.00 0.00 0.00 0.00 0.00 0.00 0.00 0.00 0.00 0.00 0.00 0.00 0.00 0.00 0.00 0.00 0.00 0.00 0.00 0.00
0.47 0.56 0.42 0.44 0.40 0.25 0.05 0.03 0.00 0.00 0.00 0.00 0.01 0.04 0.09 0.17 0.19 0.18 0.46 1.15 2.35 1.57 0.89 0.63 0.22 0.03 0.01 0.00 0.00 0.00 0.00 0.00 0.00 0.00 0.00 0.00 0.00 0.00 0.00 0.00 0.00 0.00 0.00 0.00 0.00 0.00 0.00 0.00 0.00
0.31 0.44 0.52 0.62 0.57 0.38 0.11 0.05 0.02 0.01 0.00 0.02 0.02 0.04 0.14 0.33 0.24 0.26 0.38 0.50 1.40 2.59 1.96 0.89 0.54 0.19 0.04 0.00 0.00 0.00 0.00 0.00 0.00 0.00 0.00 0.00 0.00 0.00 0.00 0.00 0.00 0.00 0.00 0.00 0.00 0.00 0.00 0.00 0.00
0.12 0.40 0.60 0.80 0.73 0.78 0.22 0.08 0.03 0.02 0.02 0.10 0.15 0.15 0.12 0.17 0.17 0.31 0.50 0.59 0.51 0.59 1.31 1.38 0.83 0.40 0.14 0.03 0.00 0.00 0.00 0.00 0.00 0.00 0.00 0.00 0.00 0.00 0.00 0.00 0.00 0.00 0.00 0.00 0.00 0.00 0.00 0.00 0.00
0.14 0.45 0.80 0.96 1.13 1.07 0.49 0.33 0.06 0.03 0.04 0.10 0.12 0.16 0.22 0.29 0.35 0.31 0.34 0.47 0.47 0.42 0.45 0.66 0.79 0.76 0.34 0.18 0.04 0.00 0.00 0.00 0.00 0.00 0.00 0.00 0.00 0.00 0.00 0.00 0.00 0.00 0.00 0.00 0.00 0.00 0.00 0.00 0.00
0.26 0.51 0.75 0.86 1.20 1.65 0.82 0.39 0.09 0.04 0.06 0.06 0.14 0.21 0.23 0.24 0.23 0.33 0.26 0.21 0.32 0.31 0.21 0.30 0.40 0.70 0.71 0.55 0.24 0.10 0.05 0.03 0.01 0.00 0.00 0.00 0.00 0.00 0.00 0.00 0.00 0.00 0.00 0.00 0.00 0.00 0.00 0.00 0.00
0.26 0.31 0.45 0.55 0.74 1.57 1.07 0.56 0.14 0.06 0.04 0.01 0.05 0.12 0.20 0.28 0.28 0.28 0.24 0.17 0.19 0.24 0.34 0.43 0.34 0.28 0.42 0.61 0.54 0.38 0.19 0.13 0.09 0.07 0.00 0.00 0.00 0.00 0.00 0.00 0.00 0.00 0.00 0.00 0.00 0.00 0.00 0.00 0.00
0.03 0.11 0.20 0.42 0.48 0.88 1.07 0.51 0.34 0.09 0.01 0.00 0.00 0.02 0.02 0.08 0.08 0.14 0.18 0.13 0.13 0.35 0.29 0.26 0.28 0.19 0.16 0.35 0.56 0.41 0.30 0.34 0.18 0.08 0.01 0.00 0.00 0.00 0.00 0.00 0.00 0.00 0.00 0.00 0.00 0.00 0.00 0.00 0.01
0.02 0.03 0.07 0.26 0.41 0.40 0.53 0.46 0.43 0.14 0.00 0.00 0.00 0.00 0.00 0.01 0.02 0.02 0.13 0.12 0.13 0.37 0.34 0.21 0.16 0.29 0.29 0.31 0.39 0.44 0.28 0.34 0.33 0.36 0.21 0.04 0.01 0.00 0.00 0.00 0.00 0.00 0.00 0.00 0.01 0.02 0.02 0.01 0.01
0.07 0.03 0.08 0.24 0.43 0.34 0.27 0.22 0.23 0.30 0.03 0.00 0.00 0.00 0.00 0.00 0.00 0.01 0.01 0.07 0.23 0.26 0.34 0.45 0.38 0.57 0.39 0.34 0.30 0.24 0.35 0.44 0.60 0.66 0.57 0.62 0.38 0.22 0.13 0.03 0.02 0.02 0.01 0.00 0.01 0.02 0.01 0.01 0.00
0.07 0.02 0.02 0.11 0.22 0.26 0.24 0.12 0.04 0.15 0.11 0.01 0.00 0.00 0.00 0.00 0.00 0.00 0.00 0.01 0.07 0.14 0.18 0.22 0.38 0.35 0.19 0.27 0.42 0.43 0.47 0.37 0.33 0.26 0.18 0.25 0.32 0.38 0.39 0.35 0.35 0.30 0.16 0.05 0.02 0.02 0.02 0.02 0.01
0.08 0.03 0.05 0.11 0.10 0.12 0.22 0.14 0.00 0.02 0.06 0.04 0.00 0.00 0.00 0.00 0.00 0.00 0.00 0.00 0.00 0.02 0.12 0.12 0.12 0.20 0.37 0.54 0.65 0.37 0.33 0.43 0.25 0.45 0.32 0.42 0.34 0.31 0.34 0.26 0.18 0.14 0.12 0.12 0.08 0.02 0.01 0.02 0.01
0.07 0.03 0.07 0.13 0.12 0.05 0.12 0.12 0.00 0.00 0.01 0.00 0.00 0.00 0.00 0.00 0.00 0.00 0.00 0.00 0.00 0.00 0.00 0.02 0.16 0.27 0.47 0.40 0.48 0.58 0.70 0.58 0.49 0.48 0.32 0.31 0.33 0.33 0.28 0.24 0.20 0.17 0.13 0.08 0.05 0.01 0.00 0.00 0.01
0.09 0.07 0.10 0.13 0.17 0.06 0.00 0.00 0.00 0.00 0.00 0.00 0.00 0.00 0.00 0.00 0.00 0.00 0.00 0.00 0.00 0.00 0.00 0.00 0.01 0.06 0.20 0.30 0.31 0.42 0.35 0.31 0.29 0.32 0.36 0.32 0.25 0.16 0.10 0.08 0.07 0.04 0.02 0.01 0.00 0.00 0.00 0.00 0.01
0.13 0.10 0.32 0.36 0.36 0.03 0.00 0.00 0.00 0.00 0.00 0.00 0.00 0.00 0.00 0.00 0.00 0.00 0.00 0.00 0.00 0.00 0.00 0.00 0.00 0.00 0.02 0.09 0.20 0.27 0.27 0.26 0.23 0.25 0.23 0.22 0.17 0.09 0.01 0.00 0.00 0.00 0.00 0.00 0.00 0.00 0.00 0.01 0.02
0.10 0.02 0.05 0.09 0.07 0.00 0.00 0.00 0.00 0.00 0.00 0.00 0.00 0.00 0.00 0.00 0.00 0.00 0.00 0.00 0.00 0.00 0.00 0.00 0.00 0.00 0.00 0.00 0.04 0.14 0.15 0.17 0.16 0.17 0.18 0.17 0.13 0.08 0.02 0.00 0.00 0.00 0.00 0.00 0.00 0.00 0.00 0.01 0.01
0.07 0.02 0.00 0.00 0.00 0.00 0.00 0.00 0.00 0.00 0.00 0.00 0.00 0.00 0.00 0.00 0.00 0.00 0.00 0.00 0.00 0.00 0.00 0.00 0.00 0.00 0.00 0.00 0.00 0.00 0.01 0.02 0.08 0.07 0.06 0.04 0.03 0.01 0.00 0.00 0.00 0.00 0.00 0.00 0.00 0.00 0.00 0.00 0.00
0.02 0.01 0.00 0.00 0.00 0.00 0.00 0.00 0.00 0.00 0.00 0.00 0.00 0.00 0.00 0.00 0.00 0.00 0.00 0.00 0.00 0.00 0.00 0.00 0.00 0.00 0.00 0.00 0.00 0.00 0.00 0.00 0.00 0.01 0.01 0.01 0.00 0.00 0.00 0.00 0.00 0.00 0.00 0.00 0.00 0.00 0.00 0.00 0.00
0.01 0.01 0.01 0.00 0.00 0.00 0.00 0.00 0.00 0.00 0.00 0.00 0.00 0.00 0.00 0.00 0.00 0.00 0.00 0.00 0.00 0.00 0.00 0.00 0.00 0.00 0.00 0.00 0.00 0.00 0.00 0.00 0.00 0.00 0.00 0.00 0.00 0.00 0.00 0.00 0.00 0.00 0.00 0.00 0.00 0.00 0.00 0.00 0.00
0.02 0.01 0.00 0.00 0.00 0.00 0.00 0.00 0.00 0.00 0.00 0.00 0.00 0.00 0.00 0.00 0.00 0.00 0.00 0.00 0.00 0.00 0.00 0.00 0.00 0.00 0.00 0.00 0.00 0.00 0.00 0.00 0.00 0.00 0.00 0.00 0.00 0.00 0.00 0.00 0.00 0.00 0.00 0.00 0.00 0.00 0.00 0.00 0.00

GFSSGP_prec_precacc24_093.txt.gz
Total_Precipitation_Accumulation
0.00 0.01 0.01 0.03 0.04 0.01 0.00 0.00 0.00 0.02 0.11 0.02 0.00 0.02 0.04 0.00 0.00 0.02 0.01 0.01 0.00 0.00 0.01 0.03 0.02 0.04 0.07 0.03 0.00 0.00 0.01 0.03 0.05 0.07 0.09 0.11 0.11 0.07 0.01 0.00 0.00 0.01 0.01 0.01 0.00 0.00 0.00 0.00 0.00
0.01 0.02 0.04 0.14 0.05 0.00 0.00 0.00 0.00 0.00 0.06 0.04 0.02 0.03 0.14 0.03 0.00 0.03 0.06 0.04 0.00 0.00 0.01 0.02 0.03 0.06 0.04 0.00 0.00 0.00 0.01 0.04 0.10 0.13 0.13 0.13 0.11 0.01 0.00 0.00 0.00 0.01 0.01 0.00 0.00 0.00 0.00 0.00 0.00
0.02 0.09 0.21 0.19 0.04 0.00 0.00 0.00 0.00 0.00 0.00 0.14 0.18 0.03 0.27 0.17 0.03 0.02 0.03 0.06 0.02 0.01 0.01 0.02 0.05 0.06 0.01 0.00 0.00 0.01 0.01 0.03 0.08 0.12 0.19 0.18 0.04 0.02 0.00 0.00 0.00 0.01 0.01 0.01 0.01 0.00 0.00 0.00 0.00
0.10 0.26 0.32 0.13 0.05 0.00 0.00 0.00 0.00 0.00 0.01 0.03 0.21 0.17 0.38 0.32 0.04 0.02 0.04 0.04 0.02 0.02 0.02 0.04 0.08 0.04 0.01 0.01 0.01 0.01 0.01 0.01 0.03 0.06 0.07 0.04 0.03 0.02 0.00 0.00 0.00 0.00 0.00 0.00 0.00 0.00 0.00 0.00 0.00
0.20 0.38 0.21 0.16 0.07 0.00 0.00 0.00 0.00 0.00 0.00 0.00 0.12 0.36 0.48 0.58 0.18 0.20 0.04 0.03 0.01 0.02 0.04 0.05 0.10 0.02 0.00 0.02 0.01 0.02 0.02 0.01 0.01 0.02 0.02 0.02 0.02 0.02 0.00 0.00 0.00 0.00 0.00 0.00 0.00 0.00 0.00 0.00 0.00
0.41 0.39 0.23 0.13 0.03 0.00 0.00 0.00 0.00 0.00 0.00 0.00 0.03 0.28 0.60 0.96 0.80 0.51 0.13 0.03 0.01 0.01 0.05 0.11 0.09 0.01 0.02 0.01 0.02 0.03 0.03 0.01 0.01 0.01 0.01 0.02 0.03 0.01 0.00 0.00 0.00 0.00 0.00 0.00 0.00 0.00 0.00 0.00 0.00
0.37 0.27 0.14 0.08 0.01 0.00 0.00 0.01 0.00 0.00 0.00 0.00 0.00 0.11 0.47 0.86 1.57 0.86 0.40 0.20 0.03 0.04 0.06 0.12 0.04 0.02 0.01 0.00 0.02 0.02 0.03 0.02 0.01 0.02 0.02 0.03 0.03 0.01 0.00 0.00 0.00 0.00 0.00 0.00 0.00 0.00 0.00 0.00 0.00
0.42 0.51 0.18 0.04 0.01 0.01 0.00 0.01 0.00 0.00 0.00 0.01 0.01 0.03 0.23 0.48 1.74 1.53 0.83 0.52 0.19 0.13 0.09 0.05 0.02 0.01 0.00 0.00 0.01 0.02 0.03 0.02 0.02 0.01 0.01 0.00 0.00 0.00 0.00 0.00 0.00 0.00 0.00 0.00 0.00 0.00 0.00 0.00 0.00
0.69 0.83 0.37 0.06 0.03 0.02 0.01 0.01 0.01 0.00 0.00 0.01 0.01 0.12 0.10 0.24 1.44 2.19 1.58 0.85 0.36 0.22 0.16 0.05 0.02 0.00 0.00 0.00 0.00 0.02 0.03 0.02 0.01 0.00 0.00 0.00 0.00 0.00 0.00 0.00 0.00 0.00 0.00 0.00 0.00 0.00 0.00 0.00 0.00
0.95 0.90 0.31 0.07 0.06 0.01 0.02 0.01 0.01 0.01 0.01 0.05 0.05 0.03 0.02 0.15 0.61 2.47 3.30 1.31 0.54 0.19 0.15 0.07 0.03 0.01 0.00 0.00 0.00 0.00 0.01 0.01 0.00 0.00 0.00 0.00 0.00 0.00 0.00 0.00 0.00 0.00 0.00 0.00 0.00 0.00 0.00 0.00 0.00
0.78 0.84 0.28 0.28 0.23 0.10 0.05 0.02 0.01 0.04 0.04 0.01 0.01 0.01 0.02 0.09 0.22 1.16 2.30 1.99 1.32 0.75 0.48 0.21 0.07 0.02 0.00 0.00 0.00 0.00 0.00 0.01 0.00 0.00 0.00 0.00 0.00 0.00 0.00 0.00 0.00 0.00 0.00 0.00 0.00 0.00 0.00 0.00 0.00
0.49 0.57 0.43 0.43 0.38 0.29 0.08 0.07 0.04 0.04 0.01 0.01 0.02 0.05 0.10 0.13 0.12 0.31 0.68 1.29 2.56 1.78 1.05 0.66 0.22 0.03 0.01 0.00 0.00 0.00 0.00 0.00 0.00 0.00 0.00 0.00 0.00 0.00 0.00 0.00 0.00 0.00 0.00 0.00 0.00 0.00 0.00 0.00 0.00
0.35 0.44 0.52 0.60 0.55 0.42 0.16 0.07 0.05 0.03 0.02 0.04 0.13 0.18 0.21 0.34 0.20 0.21 0.36 0.51 1.59 2.86 2.27 1.00 0.56 0.19 0.04 0.00 0.00 0.00 0.00 0.00 0.00 0.00 0.00 0.00 0.00 0.00 0.00 0.00 0.00 0.00 0.00 0.00 0.00 0.00 0.00 0.00 0.00
0.15 0.40 0.60 0.78 0.70 0.81 0.34 0.11 0.06 0.03 0.06 0.17 0.33 0.21 0.17 0.18 0.16 0.27 0.43 0.51 0.47 0.97 1.56 1.46 0.87 0.40 0.14 0.03 0.00 0.00 0.00 0.00 0.00 0.00 0.00 0.00 0.00 0.00 0.00 0.00 0.00 0.00 0.00 0.00 0.00 0.00 0.00 0.00 0.00
0.17 0.50 0.78 0.93 1.06 1.08 0.77 0.52 0.10 0.04 0.11 0.24 0.31 0.31 0.28 0.30 0.35 0.33 0.33 0.39 0.36 0.56 0.61 0.66 0.79 0.76 0.34 0.18 0.04 0.00 0.00 0.00 0.00 0.00 0.00 0.00 0.00 0.00 0.00 0.00 0.00 0.00 0.00 0.00 0.00 0.00 0.00 0.00 0.00
0.27 0.54 0.78 0.85 1.16 1.65 1.23 0.66 0.17 0.05 0.13 0.18 0.35 0.50 0.37 0.26 0.24 0.39 0.34 0.24 0.29 0.31 0.23 0.30 0.40 0.70 0.71 0.55 0.24 0.10 0.05 0.03 0.01 0.00 0.00 0.00 0.00 0.00 0.00 0.00 0.00 0.00 0.00 0.00 0.00 0.00 0.00 0.00 0.00
0.29 0.35 0.49 0.56 0.71 1.73 1.59 0.95 0.33 0.08 0.08 0.08 0.15 0.27 0.43 0.49 0.50 0.49 0.40 0.23 0.27 0.31 0.36 0.43 0.34 0.28 0.42 0.61 0.54 0.38 0.20 0.13 0.09 0.07 0.00 0.00 0.00 0.00 0.00 0.00 0.00 0.00 0.00 0.00 0.00 0.00 0.00 0.00 0.00
0.04 0.12 0.21 0.43 0.50 1.02 1.54 0.96 0.49 0.12 0.04 0.04 0.06 0.11 0.13 0.31 0.36 0.37 0.36 0.21 0.19 0.40 0.31 0.27 0.29 0.19 0.16 0.35 0.56 0.41 0.30 0.34 0.19 0.10 0.02 0.02 0.00 0.00 0.00 0.00 0.00 0.00 0.00 0.00 0.00 0.00 0.00 0.00 0.01
0.02 0.05 0.09 0.28 0.43 0.48 0.86 0.83 0.57 0.16 0.03 0.03 0.04 0.05 0.08 0.14 0.26 0.32 0.37 0.32 0.24 0.42 0.34 0.23 0.16 0.29 0.29 0.31 0.39 0.45 0.28 0.34 0.34 0.40 0.27 0.07 0.02 0.00 0.00 0.00 0.00 0.00 0.00 0.00 0.01 0.02 0.02 0.01 0.01
0.09 0.05 0.09 0.26 0.50 0.51 0.54 0.61 0.34 0.33 0.05 0.02 0.03 0.02 0.02 0.04 0.11 0.20 0.15 0.16 0.32 0.33 0.40 0.47 0.40 0.57 0.39 0.34 0.30 0.24 0.36 0.46 0.60 0.69 0.65 0.75 0.50 0.33 0.25 0.08 0.03 0.03 0.03 0.02 0.01 0.02 0.01 0.01 0.00
0.09 0.03 0.02 0.15 0.28 0.30 0.35 0.40 0.20 0.17 0.13 0.03 0.01 0.00 0.00 0.00 0.01 0.04 0.14 0.13 0.20 0.24 0.27 0.29 0.45 0.40 0.19 0.28 0.42 0.49 0.56 0.42 0.36 0.30 0.26 0.31 0.47 0.53 0.57 0.55 0.56 0.48 0.35 0.23 0.16 0.08 0.04 0.02 0.01
0.10 0.03 0.05 0.11 0.10 0.13 0.25 0.24 0.11 0.06 0.10 0.07 0.01 0.00 0.00 0.00 0.00 0.00 0.04 0.08 0.05 0.05 0.17 0.19 0.19 0.28 0.45 0.71 0.83 0.59 0.51 0.55 0.34 0.54 0.44 0.55 0.50 0.48 0.53 0.53 0.44 0.33 0.21 0.20 0.18 0.12 0.08 0.05 0.02
0.09 0.03 0.08 0.13 0.12 0.05 0.12 0.14 0.04 0.02 0.02 0.03 0.01 0.01 0.00 0.00 0.00 0.00 0.00 0.00 0.01 0.02 0.02 0.05 0.24 0.39 0.62 0.62 0.79 0.92 1.01 0.81 0.76 0.80 0.65 0.62 0.71 0.82 0.78 0.67 0.57 0.43 0.28 0.18 0.14 0.09 0.04 0.01 0.01
0.10 0.10 0.12 0.13 0.17 0.06 0.00 0.01 0.00 0.00 0.00 0.00 0.01 0.00 0.02 0.00 0.00 0.00 0.00 0.00 0.00 0.00 0.00 0.00 0.02 0.08 0.23 0.35 0.39 0.55 0.48 0.53 0.49 0.51 0.56 0.59 0.67 0.72 0.69 0.49 0.31 0.21 0.09 0.04 0.05 0.03 0.01 0.00 0.00
0.15 0.19 0.36 0.39 0.37 0.03 0.00 0.00 0.00 0.00 0.00 0.00 0.00 0.00 0.01 0.01 0.00 0.00 0.00 0.00 0.00 0.00 0.00 0.00 0.00 0.00 0.02 0.10 0.22 0.32 0.38 0.39 0.40 0.40 0.34 0.30 0.27 0.26 0.19 0.15 0.08 0.02 0.00 0.00 0.01 0.00 0.00 0.00 0.01
0.16 0.06 0.06 0.09 0.07 0.00 0.00 0.00 0.00 0.00 0.00 0.00 0.00 0.00 0.00 0.00 0.00 0.00 0.00 0.00 0.00 0.00 0.00 0.00 0.00 0.00 0.00 0.00 0.04 0.15 0.17 0.20 0.21 0.24 0.27 0.26 0.24 0.20 0.12 0.06 0.03 0.00 0.00 0.00 0.00 0.00 0.00 0.00 0.00
0.07 0.02 0.00 0.00 0.00 0.00 0.00 0.00 0.00 0.00 0.00 0.00 0.00 0.00 0.00 0.00 0.00 0.00 0.00 0.00 0.00 0.00 0.00 0.00 0.00 0.00 0.00 0.00 0.00 0.00 0.01 0.02 0.08 0.08 0.07 0.06 0.05 0.04 0.02 0.00 0.00 0.00 0.00 0.00 0.00 0.00 0.00 0.00 0.00
0.02 0.01 0.00 0.00 0.00 0.00 0.00 0.00 0.00 0.00 0.00 0.00 0.00 0.00 0.00 0.00 0.00 0.00 0.00 0.00 0.00 0.00 0.00 0.00 0.00 0.00 0.00 0.00 0.00 0.00 0.00 0.00 0.00 0.01 0.01 0.01 0.00 0.00 0.00 0.00 0.00 0.00 0.00 0.00 0.00 0.00 0.00 0.00 0.00
0.01 0.01 0.01 0.00 0.00 0.00 0.00 0.00 0.00 0.00 0.00 0.00 0.00 0.00 0.00 0.00 0.00 0.00 0.00 0.00 0.00 0.00 0.00 0.00 0.00 0.00 0.00 0.00 0.00 0.00 0.00 0.00 0.00 0.00 0.00 0.00 0.00 0.00 0.00 0.00 0.00 0.00 0.00 0.00 0.00 0.00 0.00 0.00 0.00
0.02 0.01 0.00 0.00 0.00 0.00 0.00 0.00 0.00 0.00 0.00 0.00 0.00 0.00 0.00 0.00 0.00 0.00 0.00 0.00 0.00 0.00 0.00 0.00 0.00 0.00 0.00 0.00 0.00 0.00 0.00 0.00 0.00 0.00 0.00 0.00 0.00 0.00 0.00 0.00 0.00 0.00 0.00 0.00 0.00 0.00 0.00 0.00 0.00

GFSSGP_prec_precacc24_096.txt.gz
Total_Precipitation_Accumulation
0.00 0.01 0.01 0.04 0.04 0.01 0.00 0.00 0.00 0.02 0.11 0.03 0.01 0.03 0.06 0.00 0.00 0.02 0.01 0.01 0.00 0.00 0.02 0.03 0.02 0.04 0.07 0.02 0.00 0.00 0.01 0.03 0.06 0.07 0.10 0.14 0.15 0.07 0.01 0.00 0.00 0.01 0.01 0.01 0.01 0.01 0.00 0.00 0.00
0.02 0.02 0.04 0.15 0.05 0.00 0.00 0.00 0.00 0.00 0.06 0.04 0.05 0.05 0.15 0.06 0.00 0.03 0.06 0.04 0.01 0.00 0.02 0.02 0.04 0.05 0.03 0.00 0.00 0.00 0.00 0.04 0.11 0.15 0.17 0.19 0.16 0.01 0.00 0.00 0.00 0.01 0.01 0.01 0.01 0.00 0.01 0.00 0.00
0.02 0.09 0.21 0.20 0.05 0.00 0.00 0.00 0.00 0.00 0.00 0.14 0.23 0.09 0.29 0.20 0.06 0.03 0.03 0.07 0.04 0.02 0.03 0.03 0.05 0.06 0.01 0.00 0.00 0.01 0.00 0.05 0.15 0.21 0.29 0.31 0.10 0.01 0.00 0.00 0.01 0.01 0.01 0.02 0.01 0.00 0.00 0.00 0.00
0.10 0.27 0.34 0.13 0.05 0.00 0.00 0.00 0.00 0.00 0.01 0.03 0.22 0.23 0.43 0.37 0.08 0.07 0.05 0.06 0.04 0.04 0.03 0.04 0.08 0.04 0.00 0.01 0.01 0.01 0.01 0.02 0.12 0.20 0.23 0.16 0.05 0.01 0.00 0.00 0.01 0.01 0.01 0.01 0.01 0.00 0.00 0.00 0.00
0.21 0.40 0.21 0.16 0.07 0.00 0.00 0.00 0.00 0.00 0.00 0.00 0.12 0.38 0.51 0.62 0.26 0.35 0.12 0.04 0.02 0.04 0.06 0.05 0.10 0.03 0.00 0.02 0.01 0.02 0.02 0.01 0.05 0.11 0.07 0.03 0.03 0.01 0.00 0.00 0.01 0.01 0.01 0.01 0.00 0.00 0.00 0.00 0.00
0.41 0.40 0.23 0.14 0.03 0.00 0.00 0.00 0.00 0.00 0.00 0.01 0.04 0.28 0.63 0.97 0.87 0.77 0.37 0.07 0.02 0.03 0.07 0.12 0.11 0.01 0.02 0.01 0.02 0.03 0.03 0.02 0.02 0.04 0.02 0.02 0.02 0.01 0.00 0.01 0.01 0.01 0.01 0.01 0.00 0.00 0.00 0.00 0.00
0.36 0.27 0.14 0.08 0.01 0.00 0.00 0.01 0.00 0.00 0.01 0.02 0.00 0.11 0.47 0.87 1.60 1.10 0.75 0.31 0.05 0.06 0.07 0.14 0.06 0.02 0.01 0.01 0.02 0.02 0.03 0.02 0.01 0.02 0.02 0.03 0.02 0.01 0.00 0.01 0.01 0.01 0.01 0.01 0.00 0.00 0.00 0.00 0.00
0.40 0.51 0.18 0.04 0.01 0.01 0.00 0.02 0.00 0.00 0.00 0.01 0.02 0.05 0.23 0.49 1.75 1.75 1.53 0.85 0.23 0.17 0.11 0.08 0.03 0.01 0.00 0.01 0.01 0.02 0.03 0.02 0.02 0.01 0.01 0.00 0.00 0.00 0.00 0.00 0.00 0.00 0.00 0.00 0.00 0.00 0.00 0.00 0.00
0.63 0.82 0.37 0.06 0.03 0.02 0.01 0.01 0.01 0.01 0.00 0.01 0.01 0.12 0.10 0.24 1.47 2.32 2.69 2.23 0.53 0.29 0.23 0.09 0.03 0.00 0.00 0.01 0.01 0.02 0.03 0.02 0.01 0.00 0.00 0.00 0.00 0.00 0.00 0.00 0.00 0.00 0.00 0.00 0.00 0.00 0.00 0.00 0.00
0.90 0.87 0.31 0.07 0.06 0.01 0.02 0.01 0.01 0.02 0.01 0.05 0.08 0.06 0.03 0.14 0.62 2.51 3.90 3.80 1.58 0.27 0.22 0.07 0.03 0.00 0.00 0.01 0.01 0.02 0.01 0.01 0.00 0.00 0.00 0.00 0.00 0.00 0.00 0.00 0.00 0.00 0.00 0.00 0.00 0.00 0.00 0.00 0.00
0.73 0.83 0.28 0.28 0.22 0.10 0.06 0.03 0.01 0.05 0.05 0.01 0.01 0.04 0.03 0.08 0.23 1.16 2.64 3.80 3.22 1.15 0.60 0.21 0.06 0.01 0.00 0.00 0.01 0.02 0.02 0.01 0.00 0.00 0.00 0.00 0.00 0.00 0.00 0.00 0.00 0.00 0.00 0.00 0.00 0.00 0.00 0.00 0.00
0.47 0.55 0.41 0.43 0.38 0.30 0.09 0.08 0.07 0.05 0.02 0.01 0.03 0.17 0.16 0.12 0.14 0.36 0.98 1.86 3.53 2.55 1.28 0.67 0.21 0.02 0.00 0.00 0.00 0.01 0.02 0.00 0.00 0.00 0.00 0.00 0.00 0.00 0.00 0.00 0.00 0.00 0.00 0.00 0.00 0.00 0.00 0.00 0.00
0.34 0.42 0.51 0.58 0.55 0.43 0.20 0.10 0.10 0.05 0.02 0.04 0.18 0.34 0.37 0.32 0.18 0.21 0.48 0.70 2.10 3.75 2.83 1.11 0.56 0.19 0.03 0.00 0.00 0.00 0.01 0.01 0.00 0.00 0.00 0.00 0.00 0.00 0.00 0.00 0.00 0.00 0.00 0.00 0.00 0.00 0.00 0.00 0.00
0.15 0.38 0.57 0.77 0.70 0.81 0.36 0.13 0.10 0.06 0.09 0.18 0.38 0.34 0.36 0.30 0.16 0.28 0.46 0.50 0.46 1.40 2.24 1.83 1.00 0.41 0.14 0.03 0.00 0.00 0.00 0.00 0.00 0.00 0.00 0.00 0.00 0.00 0.00 0.00 0.00 0.00 0.00 0.00 0.00 0.00 0.00 0.00 0.00
0.16 0.49 0.75 0.86 1.01 1.08 0.80 0.51 0.10 0.04 0.11 0.25 0.33 0.38 0.51 0.44 0.37 0.34 0.33 0.38 0.33 0.61 1.23 0.99 0.95 0.84 0.34 0.18 0.04 0.00 0.00 0.00 0.00 0.00 0.00 0.00 0.00 0.00 0.00 0.00 0.00 0.00 0.00 0.00 0.00 0.00 0.00 0.00 0.00
0.30 0.65 0.86 0.84 1.11 1.63 1.25 0.64 0.17 0.05 0.13 0.19 0.39 0.60 0.55 0.37 0.26 0.39 0.34 0.23 0.28 0.33 0.50 0.48 0.49 0.80 0.71 0.55 0.24 0.10 0.05 0.03 0.01 0.00 0.00 0.00 0.00 0.00 0.00 0.00 0.00 0.00 0.00 0.00 0.00 0.00 0.00 0.00 0.00
0.31 0.45 0.63 0.62 0.71 1.74 1.61 0.95 0.36 0.15 0.10 0.09 0.18 0.36 0.62 0.67 0.56 0.50 0.40 0.24 0.28 0.31 0.37 0.47 0.35 0.31 0.42 0.61 0.54 0.38 0.20 0.13 0.09 0.07 0.00 0.00 0.00 0.00 0.00 0.00 0.00 0.00 0.00 0.00 0.00 0.00 0.00 0.00 0.00
0.09 0.13 0.25 0.48 0.50 1.02 1.55 0.97 0.61 0.29 0.15 0.06 0.07 0.15 0.27 0.56 0.58 0.41 0.39 0.25 0.24 0.43 0.31 0.25 0.26 0.19 0.16 0.35 0.56 0.41 0.30 0.34 0.19 0.10 0.02 0.02 0.00 0.00 0.00 0.00 0.00 0.00 0.00 0.00 0.00 0.00 0.00 0.00 0.01
0.08 0.11 0.12 0.35 0.47 0.48 0.87 0.88 0.70 0.33 0.23 0.07 0.05 0.08 0.17 0.42 0.58 0.55 0.54 0.44 0.34 0.48 0.35 0.23 0.18 0.29 0.29 0.31 0.39 0.45 0.28 0.34 0.34 0.40 0.27 0.07 0.02 0.01 0.01 0.01 0.00 0.00 0.00 0.00 0.01 0.01 0.02 0.01 0.01
0.13 0.09 0.14 0.29 0.52 0.51 0.55 0.65 0.50 0.48 0.22 0.14 0.05 0.06 0.10 0.19 0.38 0.86 0.61 0.43 0.48 0.47 0.44 0.49 0.40 0.58 0.39 0.34 0.30 0.24 0.36 0.46 0.60 0.69 0.65 0.78 0.54 0.39 0.31 0.14 0.05 0.04 0.03 0.02 0.03 0.05 0.04 0.02 0.00
0.12 0.05 0.04 0.18 0.29 0.30 0.36 0.53 0.42 0.35 0.27 0.12 0.04 0.04 0.06 0.07 0.16 0.49 0.56 0.52 0.63 0.55 0.35 0.33 0.47 0.40 0.20 0.28 0.42 0.49 0.57 0.42 0.36 0.31 0.26 0.33 0.55 0.61 0.69 0.70 0.72 0.59 0.43 0.29 0.21 0.12 0.06 0.08 0.04
0.13 0.05 0.06 0.13 0.11 0.13 0.25 0.39 0.33 0.27 0.24 0.10 0.04 0.03 0.04 0.03 0.04 0.15 0.25 0.33 0.33 0.23 0.24 0.23 0.21 0.29 0.46 0.71 0.84 0.60 0.54 0.58 0.37 0.58 0.49 0.61 0.56 0.52 0.66 0.78 0.70 0.76 0.54 0.33 0.23 0.13 0.09 0.06 0.03
0.14 0.06 0.09 0.13 0.13 0.05 0.12 0.25 0.22 0.15 0.09 0.06 0.03 0.03 0.02 0.01 0.01 0.03 0.08 0.09 0.19 0.16 0.07 0.10 0.25 0.42 0.63 0.63 0.83 1.08 1.34 0.98 0.83 0.88 0.77 0.74 0.85 0.95 0.93 0.94 0.97 0.93 0.89 0.61 0.32 0.18 0.08 0.02 0.00
0.14 0.15 0.14 0.15 0.17 0.06 0.02 0.11 0.11 0.04 0.03 0.05 0.02 0.01 0.02 0.00 0.00 0.01 0.00 0.01 0.04 0.05 0.07 0.04 0.02 0.12 0.29 0.39 0.47 0.72 0.67 0.73 0.58 0.58 0.68 0.72 0.80 0.88 1.03 1.01 0.94 0.84 0.49 0.29 0.18 0.08 0.04 0.01 0.01
0.18 0.21 0.37 0.38 0.37 0.03 0.02 0.03 0.03 0.00 0.00 0.01 0.02 0.00 0.01 0.02 0.00 0.00 0.00 0.00 0.00 0.00 0.00 0.00 0.00 0.00 0.04 0.13 0.28 0.41 0.55 0.63 0.56 0.50 0.43 0.43 0.37 0.34 0.31 0.34 0.34 0.33 0.24 0.09 0.02 0.01 0.00 0.00 0.01
0.24 0.07 0.07 0.09 0.07 0.01 0.00 0.01 0.00 0.00 0.00 0.00 0.01 0.00 0.00 0.01 0.01 0.00 0.00 0.00 0.00 0.00 0.00 0.00 0.00 0.00 0.00 0.00 0.05 0.21 0.21 0.23 0.26 0.26 0.30 0.34 0.33 0.29 0.19 0.12 0.07 0.04 0.02 0.00 0.00 0.00 0.00 0.00 0.00
0.08 0.02 0.00 0.00 0.00 0.00 0.01 0.00 0.00 0.00 0.00 0.00 0.00 0.00 0.00 0.00 0.00 0.01 0.00 0.00 0.00 0.00 0.00 0.00 0.00 0.00 0.00 0.00 0.00 0.00 0.02 0.04 0.10 0.08 0.07 0.07 0.07 0.08 0.06 0.03 0.02 0.00 0.00 0.00 0.00 0.00 0.00 0.00 0.00
0.02 0.01 0.00 0.00 0.00 0.00 0.00 0.00 0.00 0.00 0.00 0.00 0.00 0.00 0.00 0.00 0.00 0.00 0.00 0.00 0.00 0.00 0.00 0.00 0.00 0.00 0.00 0.00 0.00 0.00 0.00 0.00 0.00 0.01 0.01 0.01 0.01 0.02 0.02 0.02 0.01 0.00 0.00 0.00 0.00 0.00 0.00 0.00 0.00
0.01 0.01 0.01 0.00 0.00 0.00 0.00 0.00 0.00 0.00 0.00 0.00 0.00 0.00 0.00 0.00 0.00 0.00 0.00 0.00 0.00 0.00 0.00 0.00 0.00 0.00 0.00 0.00 0.00 0.00 0.00 0.00 0.00 0.00 0.00 0.00 0.00 0.00 0.00 0.00 0.00 0.00 0.00 0.00 0.00 0.00 0.00 0.00 0.00
0.02 0.01 0.00 0.00 0.00 0.00 0.00 0.00 0.00 0.00 0.00 0.00 0.00 0.00 0.00 0.00 0.00 0.00 0.00 0.00 0.00 0.00 0.00 0.00 0.00 0.00 0.00 0.00 0.00 0.00 0.00 0.00 0.00 0.00 0.00 0.00 0.00 0.00 0.00 0.00 0.00 0.00 0.00 0.00 0.00 0.00 0.00 0.00 0.00

GFSSGP_prec_precacc24_099.txt.gz
Total_Precipitation_Accumulation
0.00 0.01 0.01 0.04 0.04 0.01 0.00 0.00 0.00 0.02 0.11 0.03 0.01 0.03 0.05 0.01 0.00 0.03 0.01 0.01 0.00 0.00 0.02 0.03 0.02 0.04 0.05 0.01 0.00 0.00 0.01 0.03 0.06 0.08 0.10 0.14 0.18 0.08 0.01 0.00 0.01 0.01 0.01 0.02 0.02 0.01 0.00 0.00 0.00
0.02 0.02 0.04 0.16 0.06 0.00 0.00 0.00 0.00 0.00 0.06 0.04 0.05 0.05 0.15 0.06 0.00 0.03 0.06 0.04 0.01 0.01 0.03 0.03 0.03 0.05 0.02 0.00 0.01 0.00 0.00 0.05 0.12 0.16 0.18 0.22 0.21 0.01 0.00 0.00 0.00 0.01 0.02 0.02 0.01 0.00 0.01 0.00 0.00
0.02 0.09 0.21 0.20 0.05 0.00 0.00 0.00 0.00 0.00 0.00 0.14 0.23 0.09 0.29 0.20 0.07 0.04 0.04 0.07 0.05 0.04 0.04 0.03 0.05 0.05 0.01 0.01 0.00 0.00 0.01 0.06 0.16 0.22 0.33 0.37 0.15 0.00 0.00 0.00 0.01 0.01 0.01 0.02 0.02 0.00 0.00 0.00 0.00
0.10 0.27 0.34 0.13 0.05 0.00 0.00 0.00 0.00 0.00 0.01 0.03 0.22 0.23 0.43 0.37 0.08 0.09 0.07 0.06 0.05 0.07 0.06 0.04 0.08 0.03 0.01 0.01 0.01 0.01 0.02 0.03 0.14 0.23 0.31 0.25 0.06 0.00 0.00 0.01 0.01 0.01 0.02 0.02 0.01 0.00 0.00 0.00 0.00
0.21 0.40 0.21 0.16 0.07 0.00 0.00 0.00 0.00 0.00 0.00 0.00 0.12 0.38 0.51 0.62 0.26 0.35 0.15 0.07 0.03 0.06 0.10 0.06 0.10 0.03 0.00 0.02 0.01 0.03 0.04 0.04 0.09 0.17 0.13 0.07 0.01 0.00 0.01 0.01 0.01 0.02 0.02 0.01 0.00 0.00 0.00 0.00 0.00
0.38 0.40 0.23 0.14 0.03 0.00 0.00 0.00 0.00 0.00 0.00 0.01 0.04 0.28 0.63 0.97 0.87 0.77 0.45 0.21 0.06 0.07 0.15 0.13 0.12 0.02 0.02 0.01 0.03 0.04 0.04 0.04 0.08 0.10 0.07 0.04 0.01 0.01 0.01 0.01 0.01 0.02 0.02 0.01 0.00 0.00 0.00 0.00 0.00
0.31 0.27 0.14 0.08 0.01 0.00 0.00 0.01 0.00 0.00 0.01 0.02 0.00 0.11 0.47 0.87 1.59 1.11 0.84 0.59 0.23 0.11 0.15 0.16 0.08 0.04 0.01 0.01 0.02 0.04 0.04 0.05 0.06 0.04 0.04 0.03 0.02 0.01 0.01 0.01 0.02 0.02 0.02 0.01 0.00 0.00 0.00 0.00 0.00
0.39 0.50 0.17 0.04 0.01 0.01 0.00 0.02 0.00 0.00 0.00 0.01 0.02 0.05 0.21 0.48 1.73 1.74 1.56 1.28 0.78 0.57 0.23 0.13 0.07 0.03 0.00 0.01 0.01 0.03 0.04 0.03 0.03 0.02 0.01 0.00 0.00 0.01 0.01 0.01 0.01 0.01 0.01 0.00 0.00 0.00 0.00 0.00 0.00
0.59 0.75 0.35 0.06 0.03 0.02 0.01 0.01 0.01 0.01 0.00 0.01 0.01 0.10 0.08 0.22 1.42 2.29 2.70 2.68 1.83 1.28 0.68 0.21 0.08 0.02 0.00 0.01 0.01 0.02 0.03 0.03 0.01 0.00 0.00 0.00 0.00 0.00 0.00 0.00 0.00 0.01 0.00 0.00 0.00 0.00 0.00 0.00 0.00
0.73 0.72 0.31 0.07 0.06 0.01 0.02 0.01 0.01 0.02 0.01 0.05 0.08 0.06 0.03 0.13 0.56 2.46 3.89 3.94 2.64 1.56 0.95 0.51 0.10 0.00 0.00 0.01 0.02 0.02 0.01 0.01 0.00 0.00 0.00 0.00 0.00 0.00 0.00 0.00 0.00 0.00 0.00 0.00 0.00 0.00 0.00 0.00 0.00
0.64 0.64 0.25 0.28 0.22 0.10 0.06 0.03 0.01 0.05 0.05 0.01 0.01 0.05 0.12 0.17 0.22 1.15 2.66 3.92 3.73 2.15 1.22 0.69 0.22 0.02 0.01 0.01 0.02 0.02 0.02 0.01 0.00 0.00 0.00 0.00 0.00 0.00 0.00 0.00 0.00 0.00 0.00 0.00 0.00 0.00 0.00 0.00 0.00
0.45 0.51 0.35 0.40 0.37 0.30 0.09 0.08 0.07 0.05 0.02 0.01 0.03 0.18 0.24 0.29 0.21 0.39 1.00 1.90 3.81 3.40 1.75 1.00 0.56 0.04 0.01 0.02 0.02 0.02 0.02 0.00 0.00 0.00 0.00 0.00 0.00 0.00 0.00 0.00 0.00 0.00 0.00 0.00 0.00 0.00 0.00 0.00 0.00
0.32 0.39 0.49 0.48 0.54 0.43 0.20 0.10 0.10 0.05 0.02 0.04 0.19 0.35 0.41 0.52 0.36 0.24 0.47 0.68 2.17 4.10 3.61 1.90 1.02 0.25 0.03 0.04 0.05 0.03 0.02 0.01 0.00 0.00 0.00 0.00 0.00 0.00 0.00 0.00 0.00 0.00 0.00 0.00 0.00 0.00 0.00 0.00 0.00
0.16 0.37 0.54 0.71 0.61 0.81 0.36 0.13 0.12 0.06 0.10 0.18 0.38 0.34 0.36 0.38 0.29 0.30 0.45 0.50 0.48 1.55 3.02 3.50 1.70 0.43 0.14 0.05 0.03 0.04 0.02 0.00 0.00 0.00 0.00 0.00 0.00 0.00 0.00 0.00 0.00 0.00 0.00 0.00 0.00 0.00 0.00 0.00 0.00
0.16 0.47 0.72 0.82 0.86 1.04 0.81 0.49 0.11 0.04 0.11 0.26 0.33 0.38 0.51 0.48 0.48 0.42 0.34 0.38 0.35 0.60 1.46 2.15 1.60 0.94 0.34 0.18 0.04 0.02 0.02 0.01 0.00 0.00 0.00 0.00 0.00 0.00 0.00 0.00 0.00 0.00 0.00 0.00 0.00 0.00 0.00 0.00 0.00
0.27 0.62 0.82 0.82 1.05 1.57 1.29 0.65 0.17 0.07 0.16 0.20 0.40 0.60 0.56 0.42 0.37 0.51 0.36 0.23 0.28 0.32 0.64 0.97 0.71 1.04 0.78 0.55 0.24 0.10 0.05 0.03 0.01 0.00 0.00 0.00 0.00 0.00 0.00 0.00 0.00 0.00 0.00 0.00 0.00 0.00 0.00 0.00 0.00
0.28 0.46 0.69 0.68 0.69 1.72 1.65 0.97 0.38 0.15 0.11 0.10 0.19 0.37 0.63 0.72 0.70 0.69 0.45 0.25 0.28 0.31 0.39 0.55 0.45 0.39 0.59 0.68 0.54 0.38 0.20 0.13 0.09 0.07 0.01 0.00 0.00 0.00 0.00 0.00 0.00 0.00 0.00 0.00 0.00 0.00 0.00 0.00 0.00
0.10 0.16 0.30 0.56 0.49 1.01 1.57 0.96 0.68 0.32 0.15 0.06 0.07 0.15 0.29 0.61 0.76 0.72 0.50 0.31 0.25 0.43 0.31 0.26 0.31 0.25 0.24 0.43 0.60 0.41 0.30 0.34 0.19 0.10 0.02 0.02 0.00 0.00 0.00 0.00 0.00 0.00 0.00 0.00 0.00 0.00 0.00 0.00 0.00
0.08 0.12 0.18 0.46 0.59 0.47 0.87 0.87 0.70 0.33 0.23 0.07 0.05 0.08 0.20 0.49 0.80 0.92 0.77 0.50 0.41 0.50 0.35 0.23 0.19 0.34 0.33 0.38 0.45 0.45 0.28 0.34 0.34 0.40 0.27 0.07 0.02 0.01 0.01 0.01 0.00 0.00 0.00 0.00 0.00 0.00 0.01 0.00 0.01
0.13 0.10 0.17 0.32 0.56 0.53 0.55 0.65 0.50 0.48 0.22 0.14 0.08 0.06 0.16 0.34 0.68 1.52 0.96 0.60 0.55 0.50 0.45 0.50 0.44 0.60 0.46 0.47 0.53 0.35 0.40 0.47 0.63 0.69 0.65 0.78 0.54 0.39 0.32 0.15 0.06 0.05 0.03 0.02 0.03 0.05 0.07 0.05 0.02
0.13 0.06 0.09 0.24 0.31 0.31 0.37 0.54 0.43 0.35 0.27 0.13 0.07 0.06 0.11 0.15 0.29 1.25 1.44 0.70 0.74 0.62 0.44 0.38 0.52 0.45 0.26 0.39 0.53 0.64 0.68 0.47 0.38 0.32 0.27 0.34 0.56 0.62 0.69 0.71 0.74 0.60 0.45 0.34 0.27 0.15 0.13 0.18 0.11
0.15 0.06 0.10 0.21 0.17 0.18 0.26 0.48 0.44 0.29 0.28 0.15 0.06 0.04 0.10 0.10 0.13 0.50 1.18 0.85 0.78 0.62 0.56 0.39 0.32 0.36 0.50 0.81 0.91 0.65 0.63 0.69 0.42 0.62 0.52 0.61 0.56 0.52 0.67 0.78 0.71 0.83 0.83 0.66 0.45 0.26 0.16 0.09 0.07
0.20 0.08 0.12 0.14 0.13 0.09 0.13 0.33 0.42 0.34 0.30 0.15 0.05 0.03 0.06 0.09 0.13 0.18 0.46 0.55 0.72 0.70 0.43 0.28 0.34 0.47 0.69 0.70 0.97 1.16 1.40 1.07 0.96 0.97 0.78 0.74 0.85 0.98 0.94 0.95 1.00 1.00 1.08 1.09 0.92 0.64 0.34 0.16 0.07
0.19 0.18 0.15 0.17 0.20 0.11 0.07 0.25 0.32 0.29 0.30 0.20 0.02 0.02 0.05 0.04 0.07 0.05 0.10 0.25 0.32 0.39 0.33 0.17 0.05 0.12 0.31 0.41 0.57 0.82 0.89 0.88 0.69 0.65 0.73 0.75 0.84 0.95 1.11 1.09 1.05 1.00 0.80 0.66 0.54 0.34 0.19 0.08 0.03
0.21 0.24 0.42 0.42 0.41 0.10 0.09 0.11 0.21 0.11 0.11 0.06 0.02 0.02 0.03 0.04 0.01 0.02 0.02 0.05 0.07 0.10 0.05 0.09 0.16 0.07 0.11 0.15 0.28 0.45 0.71 0.82 0.87 0.81 0.60 0.50 0.47 0.46 0.41 0.43 0.46 0.50 0.48 0.28 0.15 0.08 0.02 0.00 0.00
0.25 0.11 0.10 0.10 0.08 0.04 0.03 0.09 0.12 0.03 0.02 0.02 0.03 0.02 0.01 0.03 0.03 0.01 0.00 0.00 0.00 0.00 0.00 0.00 0.00 0.01 0.02 0.03 0.05 0.22 0.28 0.38 0.43 0.40 0.40 0.45 0.49 0.45 0.30 0.21 0.14 0.11 0.06 0.04 0.01 0.00 0.00 0.00 0.00
0.07 0.01 0.00 0.01 0.00 0.01 0.03 0.07 0.08 0.03 0.01 0.02 0.04 0.04 0.00 0.00 0.00 0.02 0.01 0.00 0.00 0.00 0.00 0.00 0.00 0.00 0.00 0.00 0.00 0.00 0.02 0.05 0.13 0.09 0.07 0.09 0.10 0.12 0.15 0.15 0.10 0.06 0.03 0.01 0.01 0.00 0.00 0.00 0.00
0.02 0.01 0.00 0.00 0.00 0.00 0.00 0.01 0.04 0.04 0.05 0.04 0.08 0.03 0.00 0.00 0.00 0.00 0.01 0.00 0.00 0.00 0.00 0.00 0.00 0.00 0.00 0.00 0.00 0.00 0.00 0.00 0.01 0.01 0.02 0.03 0.01 0.03 0.04 0.06 0.07 0.02 0.01 0.01 0.00 0.00 0.00 0.00 0.00
0.00 0.01 0.01 0.00 0.00 0.00 0.00 0.01 0.00 0.00 0.01 0.00 0.01 0.00 0.00 0.00 0.00 0.00 0.00 0.00 0.00 0.00 0.00 0.00 0.00 0.00 0.00 0.00 0.00 0.00 0.00 0.00 0.00 0.00 0.00 0.00 0.00 0.00 0.01 0.01 0.02 0.02 0.01 0.00 0.00 0.00 0.00 0.00 0.00
0.02 0.00 0.00 0.00 0.00 0.00 0.00 0.00 0.00 0.00 0.00 0.00 0.00 0.00 0.00 0.00 0.00 0.00 0.00 0.00 0.00 0.00 0.00 0.00 0.00 0.00 0.00 0.00 0.00 0.00 0.00 0.00 0.00 0.00 0.00 0.00 0.00 0.00 0.00 0.01 0.02 0.02 0.01 0.00 0.00 0.00 0.00 0.00 0.00

GFSSGP_prec_precacc24_102.txt.gz
Total_Precipitation_Accumulation
0.00 0.01 0.01 0.04 0.04 0.01 0.00 0.00 0.00 0.02 0.11 0.03 0.01 0.02 0.03 0.00 0.01 0.09 0.02 0.01 0.00 0.00 0.02 0.03 0.02 0.04 0.04 0.01 0.00 0.00 0.01 0.04 0.07 0.09 0.10 0.14 0.21 0.08 0.01 0.02 0.01 0.01 0.02 0.02 0.01 0.01 0.00 0.00 0.00
0.02 0.02 0.04 0.16 0.06 0.00 0.00 0.00 0.00 0.00 0.06 0.04 0.05 0.05 0.12 0.06 0.01 0.04 0.07 0.04 0.01 0.01 0.03 0.03 0.03 0.04 0.02 0.00 0.01 0.00 0.00 0.06 0.12 0.16 0.18 0.22 0.22 0.01 0.00 0.01 0.00 0.01 0.03 0.02 0.01 0.00 0.01 0.00 0.00
0.02 0.09 0.21 0.20 0.05 0.00 0.00 0.00 0.00 0.00 0.00 0.14 0.23 0.09 0.24 0.15 0.06 0.05 0.04 0.07 0.05 0.04 0.04 0.03 0.05 0.05 0.01 0.01 0.00 0.00 0.01 0.07 0.18 0.24 0.33 0.38 0.17 0.00 0.00 0.00 0.01 0.02 0.01 0.02 0.02 0.00 0.00 0.00 0.00
0.10 0.27 0.34 0.13 0.05 0.00 0.00 0.00 0.00 0.00 0.01 0.03 0.22 0.23 0.37 0.30 0.08 0.09 0.07 0.06 0.05 0.07 0.07 0.05 0.09 0.04 0.01 0.01 0.01 0.02 0.02 0.04 0.17 0.26 0.32 0.26 0.07 0.00 0.00 0.01 0.01 0.01 0.03 0.02 0.01 0.00 0.00 0.00 0.00
0.20 0.37 0.21 0.16 0.07 0.00 0.00 0.00 0.00 0.00 0.00 0.00 0.12 0.37 0.46 0.60 0.23 0.34 0.15 0.07 0.03 0.06 0.11 0.06 0.12 0.04 0.01 0.02 0.01 0.05 0.04 0.04 0.12 0.20 0.18 0.08 0.02 0.01 0.01 0.01 0.01 0.02 0.03 0.01 0.00 0.00 0.00 0.00 0.00
0.32 0.38 0.22 0.14 0.03 0.00 0.00 0.00 0.00 0.00 0.00 0.01 0.04 0.18 0.50 0.95 0.86 0.76 0.45 0.22 0.07 0.09 0.18 0.17 0.13 0.03 0.02 0.01 0.03 0.06 0.05 0.05 0.10 0.16 0.16 0.06 0.01 0.01 0.01 0.01 0.02 0.03 0.02 0.01 0.01 0.00 0.00 0.00 0.00
0.24 0.24 0.13 0.08 0.01 0.00 0.00 0.01 0.00 0.00 0.01 0.02 0.00 0.09 0.29 0.83 1.58 1.11 0.84 0.61 0.31 0.31 0.29 0.32 0.12 0.04 0.01 0.01 0.03 0.08 0.06 0.06 0.08 0.15 0.13 0.03 0.01 0.01 0.01 0.02 0.02 0.03 0.02 0.01 0.00 0.00 0.00 0.00 0.00
0.33 0.44 0.16 0.04 0.01 0.01 0.00 0.02 0.00 0.00 0.00 0.01 0.02 0.04 0.16 0.45 1.72 1.76 1.57 1.29 0.86 0.94 0.64 0.47 0.20 0.03 0.00 0.01 0.02 0.08 0.07 0.04 0.05 0.08 0.03 0.01 0.00 0.01 0.01 0.01 0.02 0.02 0.02 0.00 0.00 0.00 0.00 0.00 0.00
0.52 0.66 0.33 0.06 0.00 0.01 0.01 0.01 0.01 0.01 0.00 0.01 0.01 0.00 0.04 0.21 1.39 2.31 2.72 2.67 1.88 1.47 1.21 0.79 0.55 0.16 0.03 0.01 0.01 0.05 0.06 0.04 0.04 0.04 0.01 0.00 0.00 0.00 0.00 0.00 0.01 0.01 0.02 0.00 0.00 0.00 0.00 0.00 0.00
0.61 0.65 0.30 0.07 0.05 0.01 0.02 0.01 0.01 0.02 0.01 0.05 0.08 0.05 0.03 0.13 0.55 2.43 3.90 3.94 2.64 1.69 1.41 1.16 0.76 0.33 0.11 0.02 0.02 0.04 0.06 0.04 0.02 0.02 0.00 0.00 0.00 0.00 0.00 0.00 0.01 0.01 0.01 0.00 0.00 0.00 0.00 0.00 0.00
0.52 0.53 0.23 0.22 0.16 0.08 0.06 0.03 0.01 0.05 0.05 0.01 0.01 0.05 0.12 0.19 0.28 1.10 2.62 3.90 3.72 2.17 1.44 1.11 0.72 0.41 0.18 0.05 0.02 0.03 0.07 0.06 0.05 0.01 0.00 0.00 0.00 0.00 0.00 0.00 0.00 0.00 0.00 0.00 0.00 0.00 0.00 0.00 0.00
0.38 0.44 0.31 0.35 0.32 0.27 0.08 0.08 0.07 0.05 0.02 0.01 0.03 0.18 0.22 0.26 0.25 0.45 0.99 1.87 3.75 3.42 1.86 1.24 0.92 0.37 0.14 0.08 0.02 0.02 0.02 0.03 0.02 0.01 0.00 0.00 0.00 0.00 0.00 0.00 0.00 0.00 0.00 0.00 0.00 0.00 0.00 0.00 0.00
0.25 0.36 0.47 0.43 0.46 0.40 0.19 0.10 0.10 0.05 0.02 0.04 0.19 0.35 0.40 0.47 0.38 0.25 0.34 0.62 2.10 4.05 3.59 1.96 1.40 1.26 0.34 0.21 0.06 0.04 0.02 0.01 0.00 0.00 0.00 0.00 0.00 0.00 0.00 0.00 0.00 0.00 0.00 0.00 0.00 0.00 0.00 0.00 0.00
0.15 0.35 0.49 0.67 0.51 0.67 0.33 0.13 0.12 0.06 0.10 0.18 0.38 0.35 0.35 0.34 0.29 0.37 0.31 0.36 0.44 1.53 3.00 3.46 2.07 1.32 1.10 0.41 0.09 0.06 0.02 0.00 0.00 0.00 0.00 0.00 0.00 0.00 0.00 0.00 0.00 0.00 0.00 0.00 0.00 0.00 0.00 0.00 0.00
0.16 0.46 0.56 0.76 0.82 0.95 0.65 0.40 0.11 0.04 0.11 0.26 0.35 0.39 0.52 0.47 0.40 0.49 0.72 0.43 0.37 0.61 1.48 2.20 2.32 1.52 1.07 0.67 0.27 0.12 0.05 0.01 0.00 0.00 0.00 0.00 0.00 0.00 0.00 0.00 0.00 0.00 0.00 0.00 0.00 0.00 0.00 0.00 0.00
0.26 0.60 0.76 0.68 0.94 1.35 1.19 0.63 0.17 0.07 0.16 0.20 0.41 0.62 0.57 0.42 0.37 0.53 0.40 0.38 0.38 0.34 0.62 0.95 0.94 1.40 0.98 0.77 0.47 0.31 0.15 0.05 0.01 0.00 0.00 0.00 0.00 0.00 0.00 0.00 0.00 0.00 0.00 0.00 0.00 0.00 0.00 0.00 0.00
0.25 0.45 0.69 0.66 0.66 1.52 1.46 0.88 0.37 0.15 0.11 0.12 0.19 0.41 0.63 0.72 0.71 0.73 0.50 0.28 0.28 0.31 0.35 0.50 0.47 0.47 0.72 0.75 0.69 0.51 0.34 0.23 0.11 0.07 0.01 0.00 0.00 0.00 0.00 0.00 0.00 0.00 0.00 0.00 0.00 0.00 0.00 0.00 0.00
0.11 0.17 0.31 0.59 0.54 1.00 1.48 0.90 0.69 0.36 0.16 0.06 0.10 0.16 0.29 0.61 0.77 0.73 0.56 0.45 0.31 0.43 0.28 0.23 0.26 0.28 0.30 0.56 0.64 0.44 0.35 0.43 0.25 0.11 0.02 0.02 0.00 0.00 0.00 0.00 0.00 0.00 0.00 0.00 0.00 0.00 0.00 0.00 0.00
0.08 0.12 0.18 0.48 0.66 0.48 0.85 0.84 0.69 0.48 0.39 0.10 0.09 0.12 0.20 0.50 0.81 0.97 0.85 0.62 0.57 0.63 0.40 0.23 0.18 0.29 0.33 0.46 0.59 0.46 0.28 0.35 0.36 0.41 0.30 0.09 0.03 0.01 0.01 0.01 0.00 0.00 0.00 0.00 0.00 0.00 0.00 0.00 0.00
0.10 0.10 0.16 0.34 0.61 0.50 0.55 0.65 0.50 0.48 0.26 0.16 0.08 0.07 0.18 0.36 0.70 1.58 1.07 0.76 0.80 0.79 0.54 0.48 0.45 0.59 0.40 0.51 0.71 0.62 0.48 0.46 0.63 0.69 0.66 0.78 0.55 0.39 0.32 0.15 0.07 0.05 0.03 0.02 0.03 0.04 0.06 0.06 0.05
0.13 0.06 0.09 0.29 0.34 0.32 0.39 0.56 0.44 0.36 0.27 0.13 0.07 0.06 0.11 0.20 0.33 1.32 1.61 1.09 0.99 1.05 0.53 0.40 0.51 0.48 0.28 0.38 0.62 0.75 0.86 0.73 0.45 0.36 0.31 0.34 0.57 0.62 0.69 0.71 0.74 0.61 0.45 0.34 0.29 0.16 0.16 0.26 0.20
0.14 0.07 0.12 0.29 0.30 0.40 0.28 0.52 0.46 0.29 0.28 0.15 0.07 0.04 0.14 0.16 0.19 0.65 1.65 1.38 1.22 0.98 0.63 0.43 0.37 0.40 0.53 0.87 0.99 0.73 0.75 0.86 0.74 0.84 0.60 0.70 0.66 0.60 0.72 0.81 0.72 0.84 0.85 0.69 0.49 0.33 0.25 0.19 0.19
0.20 0.10 0.12 0.14 0.16 0.46 0.20 0.36 0.51 0.40 0.31 0.15 0.05 0.06 0.14 0.16 0.22 0.33 0.85 1.15 1.38 1.11 0.70 0.42 0.47 0.56 0.76 0.74 1.08 1.26 1.46 1.11 1.06 1.15 0.99 0.84 0.92 1.02 0.99 0.97 1.01 1.00 1.08 1.10 0.93 0.73 0.55 0.42 0.29
0.19 0.16 0.14 0.16 0.24 0.36 0.11 0.37 0.51 0.45 0.40 0.29 0.04 0.08 0.15 0.16 0.21 0.19 0.21 0.67 0.84 0.89 0.90 0.55 0.26 0.20 0.40 0.47 0.68 0.94 0.98 0.92 0.72 0.74 0.86 0.84 0.88 0.99 1.16 1.13 1.07 1.00 0.82 0.68 0.59 0.39 0.31 0.23 0.14
0.22 0.25 0.48 0.47 0.50 0.23 0.24 0.22 0.41 0.33 0.23 0.22 0.06 0.11 0.23 0.23 0.23 0.08 0.07 0.27 0.34 0.42 0.46 0.36 0.36 0.24 0.32 0.27 0.46 0.53 0.78 0.90 0.96 0.90 0.72 0.66 0.58 0.50 0.43 0.44 0.47 0.51 0.51 0.42 0.34 0.20 0.12 0.07 0.02
0.32 0.25 0.23 0.19 0.20 0.21 0.14 0.24 0.42 0.26 0.29 0.15 0.06 0.12 0.13 0.14 0.12 0.02 0.01 0.06 0.05 0.12 0.14 0.08 0.08 0.11 0.19 0.32 0.33 0.36 0.46 0.57 0.62 0.54 0.51 0.54 0.59 0.63 0.47 0.31 0.23 0.18 0.11 0.07 0.05 0.01 0.01 0.00 0.00
0.08 0.02 0.00 0.06 0.03 0.08 0.19 0.35 0.38 0.38 0.34 0.06 0.06 0.07 0.10 0.15 0.04 0.02 0.01 0.00 0.00 0.00 0.00 0.00 0.00 0.00 0.00 0.00 0.02 0.07 0.04 0.07 0.22 0.21 0.16 0.18 0.26 0.28 0.29 0.30 0.25 0.16 0.10 0.05 0.03 0.01 0.00 0.00 0.00
0.01 0.00 0.00 0.01 0.03 0.05 0.06 0.05 0.22 0.30 0.18 0.08 0.10 0.09 0.03 0.02 0.00 0.01 0.01 0.01 0.00 0.00 0.00 0.00 0.00 0.00 0.00 0.00 0.00 0.00 0.00 0.02 0.04 0.03 0.07 0.17 0.13 0.10 0.08 0.11 0.12 0.07 0.07 0.07 0.03 0.03 0.05 0.02 0.01
0.00 0.00 0.00 0.00 0.00 0.00 0.01 0.06 0.03 0.05 0.04 0.02 0.04 0.03 0.01 0.00 0.00 0.00 0.00 0.00 0.00 0.00 0.00 0.00 0.00 0.00 0.00 0.00 0.00 0.00 0.00 0.00 0.00 0.00 0.01 0.03 0.01 0.01 0.01 0.01 0.03 0.03 0.01 0.01 0.01 0.01 0.01 0.01 0.00
0.00 0.00 0.00 0.00 0.00 0.00 0.00 0.04 0.00 0.00 0.00 0.00 0.01 0.00 0.00 0.00 0.00 0.00 0.00 0.00 0.00 0.00 0.00 0.00 0.00 0.00 0.00 0.00 0.00 0.00 0.00 0.00 0.00 0.00 0.00 0.00 0.00 0.00 0.00 0.01 0.02 0.03 0.03 0.02 0.02 0.02 0.02 0.00 0.00

GFSSGP_prec_precacc24_105.txt.gz
Total_Precipitation_Accumulation
0.00 0.01 0.01 0.04 0.04 0.01 0.00 0.00 0.00 0.02 0.11 0.03 0.00 0.02 0.03 0.00 0.01 0.09 0.02 0.03 0.00 0.00 0.02 0.03 0.02 0.03 0.03 0.00 0.00 0.00 0.01 0.04 0.07 0.10 0.10 0.14 0.26 0.09 0.01 0.03 0.01 0.02 0.02 0.01 0.01 0.01 0.01 0.01 0.00
0.01 0.02 0.04 0.16 0.06 0.00 0.00 0.00 0.00 0.00 0.06 0.04 0.04 0.05 0.10 0.04 0.01 0.04 0.08 0.04 0.01 0.01 0.03 0.03 0.03 0.04 0.01 0.00 0.01 0.00 0.00 0.06 0.12 0.17 0.18 0.23 0.24 0.01 0.01 0.02 0.01 0.02 0.02 0.01 0.01 0.00 0.01 0.00 0.00
0.00 0.05 0.21 0.20 0.05 0.00 0.00 0.00 0.00 0.00 0.00 0.14 0.22 0.09 0.22 0.10 0.05 0.04 0.05 0.07 0.05 0.04 0.04 0.03 0.05 0.04 0.01 0.01 0.00 0.01 0.01 0.08 0.18 0.24 0.34 0.41 0.18 0.00 0.02 0.01 0.01 0.02 0.01 0.02 0.02 0.00 0.00 0.00 0.00
0.08 0.20 0.31 0.13 0.05 0.00 0.00 0.00 0.00 0.00 0.01 0.03 0.22 0.20 0.26 0.20 0.07 0.10 0.07 0.06 0.05 0.07 0.07 0.05 0.08 0.03 0.01 0.01 0.01 0.02 0.02 0.04 0.17 0.27 0.33 0.29 0.09 0.01 0.01 0.01 0.01 0.01 0.03 0.02 0.01 0.00 0.00 0.00 0.00
0.17 0.30 0.20 0.16 0.07 0.00 0.00 0.00 0.00 0.00 0.00 0.00 0.12 0.32 0.33 0.29 0.17 0.29 0.15 0.07 0.03 0.06 0.11 0.06 0.12 0.03 0.01 0.02 0.01 0.05 0.05 0.05 0.14 0.22 0.18 0.10 0.04 0.01 0.01 0.01 0.01 0.02 0.03 0.01 0.00 0.00 0.00 0.00 0.00
0.22 0.25 0.21 0.14 0.03 0.00 0.00 0.00 0.00 0.00 0.00 0.01 0.04 0.17 0.41 0.51 0.51 0.67 0.41 0.23 0.07 0.09 0.20 0.18 0.15 0.06 0.01 0.01 0.03 0.07 0.07 0.06 0.12 0.18 0.17 0.10 0.03 0.01 0.01 0.01 0.02 0.03 0.02 0.01 0.01 0.00 0.00 0.00 0.00
0.20 0.20 0.13 0.08 0.01 0.00 0.00 0.01 0.00 0.00 0.01 0.02 0.00 0.09 0.28 0.71 0.99 1.04 0.76 0.58 0.36 0.41 0.42 0.45 0.19 0.13 0.02 0.01 0.03 0.09 0.09 0.07 0.11 0.17 0.18 0.08 0.02 0.01 0.01 0.02 0.02 0.03 0.02 0.01 0.00 0.00 0.00 0.00 0.00
0.23 0.38 0.16 0.04 0.01 0.00 0.00 0.02 0.00 0.00 0.00 0.01 0.02 0.04 0.15 0.40 1.59 1.69 1.51 1.23 0.93 1.07 0.75 0.55 0.29 0.13 0.05 0.01 0.02 0.09 0.11 0.04 0.08 0.12 0.06 0.01 0.00 0.01 0.01 0.01 0.02 0.02 0.02 0.01 0.00 0.00 0.00 0.00 0.00
0.43 0.59 0.32 0.06 0.00 0.00 0.01 0.01 0.01 0.01 0.00 0.01 0.00 0.00 0.02 0.19 1.28 2.19 2.53 2.45 1.87 1.56 1.35 0.98 0.75 0.24 0.10 0.06 0.02 0.06 0.15 0.06 0.05 0.06 0.02 0.01 0.00 0.00 0.00 0.00 0.01 0.02 0.02 0.00 0.00 0.00 0.00 0.00 0.00
0.51 0.52 0.30 0.05 0.02 0.01 0.02 0.01 0.01 0.02 0.01 0.05 0.07 0.05 0.03 0.13 0.48 2.15 3.51 3.75 2.49 1.69 1.49 1.30 1.06 0.54 0.20 0.07 0.08 0.09 0.17 0.10 0.04 0.04 0.02 0.00 0.00 0.00 0.00 0.00 0.01 0.02 0.01 0.00 0.00 0.00 0.00 0.00 0.00
0.43 0.42 0.19 0.12 0.11 0.07 0.06 0.03 0.01 0.05 0.05 0.01 0.01 0.04 0.12 0.18 0.28 1.01 2.08 3.64 3.55 2.07 1.40 1.14 1.07 0.94 0.46 0.12 0.07 0.10 0.25 0.13 0.10 0.03 0.01 0.01 0.00 0.00 0.00 0.00 0.00 0.01 0.00 0.00 0.00 0.00 0.00 0.00 0.00
0.32 0.40 0.25 0.26 0.26 0.24 0.08 0.08 0.07 0.05 0.02 0.01 0.03 0.17 0.20 0.25 0.26 0.46 0.74 1.53 3.62 3.41 1.81 1.20 0.95 0.67 0.51 0.25 0.05 0.03 0.17 0.14 0.07 0.06 0.01 0.00 0.00 0.00 0.00 0.00 0.00 0.00 0.00 0.00 0.00 0.00 0.00 0.00 0.00
0.24 0.32 0.42 0.36 0.36 0.36 0.18 0.10 0.10 0.05 0.02 0.04 0.19 0.35 0.36 0.41 0.37 0.23 0.30 0.48 2.05 4.01 3.58 1.94 1.42 1.33 0.48 0.35 0.08 0.04 0.04 0.26 0.04 0.07 0.02 0.00 0.00 0.00 0.00 0.00 0.00 0.00 0.00 0.00 0.00 0.00 0.00 0.00 0.00
0.14 0.32 0.45 0.62 0.44 0.49 0.30 0.11 0.12 0.06 0.10 0.18 0.38 0.35 0.35 0.32 0.25 0.33 0.25 0.21 0.31 1.50 2.96 3.36 2.02 1.35 1.18 0.79 0.27 0.07 0.02 0.08 0.10 0.02 0.03 0.00 0.00 0.00 0.00 0.00 0.00 0.00 0.00 0.00 0.00 0.00 0.00 0.00 0.00
0.14 0.41 0.47 0.64 0.70 0.80 0.59 0.31 0.10 0.04 0.11 0.26 0.35 0.39 0.52 0.46 0.40 0.41 0.55 0.30 0.22 0.50 1.32 2.14 2.28 1.51 1.21 1.11 0.69 0.17 0.05 0.01 0.02 0.00 0.00 0.00 0.00 0.00 0.00 0.00 0.00 0.00 0.00 0.00 0.00 0.00 0.00 0.00 0.00
0.23 0.53 0.66 0.58 0.78 1.23 1.04 0.53 0.14 0.07 0.16 0.20 0.41 0.62 0.57 0.42 0.37 0.50 0.37 0.35 0.39 0.39 0.59 0.92 0.94 1.36 1.10 1.33 0.96 0.55 0.17 0.05 0.01 0.00 0.00 0.00 0.00 0.00 0.00 0.00 0.00 0.00 0.00 0.00 0.00 0.00 0.00 0.00 0.00
0.21 0.37 0.59 0.58 0.56 1.41 1.38 0.83 0.34 0.14 0.11 0.12 0.19 0.41 0.63 0.72 0.71 0.73 0.47 0.21 0.24 0.37 0.28 0.33 0.44 0.46 0.74 0.92 1.19 0.93 0.53 0.27 0.11 0.07 0.01 0.00 0.00 0.00 0.00 0.00 0.00 0.00 0.00 0.00 0.00 0.00 0.00 0.00 0.00
0.10 0.19 0.30 0.58 0.49 0.98 1.46 0.84 0.64 0.33 0.17 0.06 0.10 0.17 0.29 0.61 0.77 0.74 0.58 0.44 0.28 0.39 0.32 0.29 0.26 0.25 0.29 0.56 0.81 0.94 0.74 0.64 0.31 0.12 0.02 0.02 0.00 0.00 0.00 0.00 0.00 0.00 0.00 0.00 0.00 0.00 0.00 0.00 0.00
0.07 0.12 0.17 0.47 0.65 0.47 0.85 0.83 0.67 0.46 0.45 0.12 0.11 0.13 0.22 0.51 0.82 0.98 0.88 0.67 0.60 0.59 0.38 0.27 0.23 0.19 0.29 0.48 0.64 0.62 0.52 0.69 0.61 0.44 0.32 0.11 0.03 0.01 0.01 0.01 0.00 0.00 0.00 0.00 0.00 0.00 0.00 0.00 0.00
0.10 0.12 0.17 0.32 0.60 0.47 0.54 0.65 0.49 0.48 0.31 0.20 0.10 0.07 0.19 0.39 0.74 1.62 1.15 0.80 0.83 0.95 0.60 0.49 0.37 0.45 0.27 0.36 0.74 0.75 0.58 0.54 0.80 0.82 0.73 0.85 0.62 0.42 0.32 0.15 0.07 0.05 0.03 0.02 0.03 0.04 0.06 0.06 0.05
0.12 0.07 0.09 0.29 0.31 0.27 0.35 0.53 0.44 0.37 0.27 0.13 0.07 0.06 0.11 0.23 0.40 1.36 1.66 1.18 1.03 1.24 0.78 0.63 0.55 0.50 0.29 0.31 0.56 0.78 0.85 0.74 0.48 0.33 0.35 0.39 0.62 0.66 0.69 0.71 0.74 0.61 0.45 0.34 0.29 0.18 0.17 0.26 0.20
0.13 0.07 0.13 0.29 0.34 0.46 0.34 0.52 0.47 0.30 0.28 0.15 0.07 0.04 0.14 0.22 0.32 0.71 1.69 1.45 1.28 1.22 0.83 0.66 0.71 0.62 0.57 0.91 0.92 0.66 0.74 0.88 0.91 1.09 0.82 0.85 0.73 0.66 0.77 0.92 0.85 0.96 0.98 0.81 0.67 0.46 0.31 0.23 0.21
0.18 0.09 0.11 0.12 0.19 0.57 0.32 0.46 0.54 0.41 0.31 0.15 0.05 0.06 0.16 0.24 0.31 0.39 0.92 1.24 1.45 1.47 0.90 0.60 0.88 0.89 0.90 0.84 1.19 1.27 1.46 1.13 1.10 1.24 1.26 1.12 1.11 1.18 1.17 1.17 1.20 1.13 1.18 1.17 1.00 0.87 0.72 0.62 0.40
0.17 0.15 0.12 0.14 0.26 0.56 0.20 0.42 0.63 0.55 0.42 0.29 0.05 0.12 0.22 0.25 0.29 0.24 0.29 0.92 1.48 1.25 1.15 0.78 0.52 0.45 0.59 0.61 0.82 0.99 0.99 0.93 0.73 0.79 1.00 1.02 0.99 1.03 1.17 1.16 1.15 1.08 0.87 0.72 0.63 0.43 0.37 0.33 0.21
0.20 0.25 0.43 0.49 0.63 0.36 0.32 0.31 0.62 0.49 0.27 0.25 0.17 0.26 0.31 0.28 0.27 0.18 0.23 0.54 1.20 0.81 0.80 0.61 0.58 0.50 0.57 0.43 0.61 0.67 0.85 0.94 0.98 0.93 0.80 0.80 0.69 0.57 0.45 0.47 0.51 0.54 0.53 0.43 0.35 0.22 0.16 0.13 0.08
0.32 0.28 0.38 0.33 0.34 0.37 0.26 0.45 0.73 0.47 0.41 0.35 0.32 0.36 0.31 0.30 0.28 0.28 0.22 0.16 0.44 0.56 0.39 0.27 0.26 0.34 0.50 0.57 0.54 0.52 0.58 0.73 0.76 0.64 0.55 0.58 0.62 0.67 0.52 0.36 0.28 0.24 0.16 0.12 0.10 0.05 0.02 0.02 0.01
0.08 0.06 0.14 0.27 0.18 0.15 0.33 0.62 0.71 0.59 0.57 0.32 0.47 0.31 0.34 0.32 0.19 0.20 0.17 0.06 0.15 0.23 0.17 0.09 0.06 0.04 0.03 0.02 0.07 0.23 0.32 0.29 0.39 0.30 0.18 0.19 0.27 0.31 0.38 0.36 0.34 0.29 0.19 0.12 0.09 0.05 0.01 0.00 0.00
0.01 0.01 0.03 0.06 0.08 0.19 0.16 0.21 0.78 0.81 0.43 0.22 0.25 0.22 0.16 0.08 0.04 0.04 0.05 0.02 0.02 0.03 0.01 0.00 0.00 0.00 0.00 0.00 0.00 0.03 0.03 0.03 0.07 0.09 0.16 0.22 0.17 0.13 0.12 0.15 0.15 0.10 0.10 0.10 0.05 0.04 0.06 0.07 0.03
0.00 0.00 0.00 0.00 0.00 0.03 0.03 0.26 0.47 0.38 0.16 0.07 0.07 0.06 0.03 0.06 0.04 0.02 0.01 0.00 0.00 0.00 0.00 0.00 0.00 0.00 0.00 0.00 0.00 0.00 0.00 0.00 0.00 0.00 0.02 0.05 0.04 0.04 0.04 0.04 0.04 0.04 0.02 0.02 0.01 0.01 0.02 0.05 0.04
0.00 0.00 0.00 0.00 0.00 0.00 0.01 0.19 0.14 0.08 0.08 0.02 0.06 0.02 0.00 0.01 0.00 0.00 0.00 0.00 0.00 0.00 0.00 0.00 0.00 0.00 0.00 0.00 0.00 0.00 0.00 0.00 0.00 0.00 0.00 0.00 0.00 0.00 0.00 0.02 0.03 0.04 0.03 0.02 0.03 0.03 0.03 0.04 0.03

GFSSGP_prec_precacc24_108.txt.gz
Total_Precipitation_Accumulation
0.00 0.01 0.01 0.04 0.04 0.01 0.00 0.00 0.00 0.02 0.09 0.02 0.00 0.02 0.03 0.00 0.01 0.09 0.02 0.03 0.00 0.00 0.02 0.03 0.02 0.03 0.02 0.00 0.00 0.00 0.01 0.04 0.07 0.10 0.10 0.14 0.31 0.09 0.01 0.03 0.03 0.03 0.02 0.01 0.02 0.02 0.01 0.01 0.00
0.01 0.01 0.03 0.16 0.06 0.00 0.00 0.00 0.00 0.00 0.06 0.04 0.04 0.05 0.09 0.03 0.01 0.04 0.08 0.04 0.01 0.01 0.03 0.03 0.02 0.03 0.01 0.00 0.01 0.00 0.01 0.06 0.12 0.18 0.18 0.23 0.28 0.02 0.02 0.02 0.01 0.02 0.02 0.01 0.01 0.01 0.01 0.00 0.00
0.00 0.01 0.19 0.20 0.05 0.00 0.00 0.00 0.00 0.00 0.00 0.14 0.22 0.09 0.18 0.10 0.05 0.04 0.05 0.07 0.05 0.04 0.04 0.03 0.04 0.04 0.01 0.01 0.01 0.01 0.01 0.08 0.17 0.25 0.36 0.41 0.23 0.03 0.04 0.01 0.02 0.02 0.01 0.02 0.02 0.00 0.00 0.00 0.00
0.07 0.14 0.26 0.13 0.05 0.00 0.00 0.00 0.00 0.00 0.00 0.03 0.21 0.18 0.20 0.19 0.07 0.09 0.07 0.06 0.05 0.07 0.07 0.04 0.07 0.03 0.01 0.01 0.01 0.02 0.02 0.05 0.17 0.27 0.35 0.30 0.12 0.06 0.05 0.02 0.01 0.01 0.03 0.02 0.01 0.00 0.00 0.00 0.00
0.15 0.21 0.18 0.16 0.07 0.00 0.00 0.00 0.00 0.00 0.00 0.00 0.12 0.28 0.24 0.23 0.17 0.26 0.13 0.07 0.03 0.06 0.11 0.04 0.11 0.04 0.01 0.02 0.01 0.05 0.05 0.05 0.13 0.22 0.20 0.10 0.07 0.09 0.05 0.01 0.01 0.02 0.03 0.01 0.00 0.00 0.00 0.00 0.00
0.17 0.19 0.20 0.14 0.03 0.00 0.00 0.00 0.00 0.00 0.00 0.01 0.03 0.14 0.30 0.44 0.54 0.66 0.37 0.23 0.08 0.09 0.20 0.17 0.16 0.11 0.03 0.01 0.03 0.07 0.07 0.06 0.13 0.18 0.20 0.11 0.06 0.06 0.02 0.01 0.02 0.03 0.02 0.01 0.01 0.00 0.00 0.00 0.00
0.16 0.17 0.13 0.08 0.01 0.00 0.00 0.01 0.00 0.00 0.01 0.02 0.00 0.07 0.20 0.59 0.84 0.85 0.69 0.55 0.39 0.43 0.44 0.49 0.20 0.16 0.06 0.02 0.03 0.09 0.09 0.08 0.11 0.19 0.23 0.09 0.04 0.03 0.02 0.02 0.02 0.03 0.02 0.01 0.00 0.00 0.00 0.00 0.00
0.17 0.34 0.16 0.04 0.01 0.00 0.00 0.02 0.00 0.00 0.00 0.01 0.02 0.04 0.11 0.35 1.46 1.38 1.32 1.13 0.95 1.12 0.83 0.65 0.35 0.15 0.05 0.03 0.03 0.10 0.12 0.06 0.08 0.14 0.12 0.03 0.01 0.01 0.01 0.01 0.03 0.03 0.02 0.01 0.00 0.00 0.00 0.00 0.00
0.32 0.49 0.30 0.06 0.00 0.00 0.01 0.01 0.01 0.01 0.00 0.01 0.00 0.00 0.01 0.19 1.30 2.06 2.19 2.17 1.80 1.57 1.39 1.08 0.84 0.32 0.14 0.07 0.03 0.07 0.17 0.10 0.07 0.08 0.05 0.02 0.00 0.00 0.00 0.00 0.01 0.02 0.02 0.01 0.00 0.00 0.00 0.00 0.00
0.36 0.46 0.26 0.05 0.00 0.00 0.01 0.01 0.01 0.02 0.01 0.05 0.06 0.05 0.03 0.14 0.50 2.13 3.05 3.31 2.37 1.67 1.49 1.34 1.12 0.58 0.25 0.09 0.08 0.09 0.21 0.18 0.05 0.05 0.03 0.01 0.00 0.00 0.00 0.00 0.01 0.02 0.02 0.00 0.00 0.00 0.00 0.00 0.00
0.32 0.36 0.17 0.09 0.09 0.05 0.05 0.02 0.01 0.05 0.05 0.01 0.01 0.03 0.11 0.18 0.29 1.02 1.90 2.80 3.00 1.85 1.35 1.14 1.10 1.03 0.54 0.15 0.08 0.10 0.28 0.21 0.15 0.04 0.01 0.02 0.01 0.00 0.00 0.00 0.01 0.01 0.00 0.00 0.00 0.00 0.00 0.00 0.00
0.20 0.36 0.17 0.18 0.16 0.20 0.07 0.07 0.07 0.05 0.02 0.01 0.03 0.15 0.20 0.25 0.26 0.47 0.75 1.07 1.93 2.87 1.67 1.18 0.96 0.68 0.57 0.30 0.07 0.04 0.17 0.21 0.18 0.09 0.02 0.02 0.01 0.01 0.00 0.00 0.00 0.00 0.00 0.00 0.00 0.00 0.00 0.00 0.00
0.12 0.27 0.29 0.26 0.26 0.30 0.17 0.10 0.10 0.05 0.02 0.04 0.19 0.35 0.34 0.37 0.35 0.22 0.29 0.39 1.06 2.70 2.98 1.82 1.42 1.33 0.48 0.36 0.10 0.04 0.05 0.30 0.18 0.14 0.05 0.01 0.01 0.01 0.00 0.00 0.00 0.00 0.00 0.00 0.00 0.00 0.00 0.00 0.00
0.09 0.20 0.37 0.42 0.38 0.43 0.28 0.11 0.12 0.06 0.10 0.18 0.38 0.35 0.34 0.29 0.22 0.30 0.22 0.17 0.24 1.19 2.40 3.05 1.89 1.34 1.18 0.79 0.27 0.07 0.03 0.11 0.31 0.14 0.07 0.02 0.01 0.00 0.00 0.00 0.00 0.00 0.00 0.00 0.00 0.00 0.00 0.00 0.00
0.09 0.32 0.35 0.48 0.59 0.60 0.51 0.30 0.10 0.04 0.11 0.25 0.35 0.39 0.50 0.40 0.34 0.35 0.49 0.25 0.17 0.44 1.21 1.97 2.04 1.37 1.20 1.11 0.69 0.18 0.05 0.02 0.22 0.26 0.09 0.03 0.01 0.00 0.00 0.00 0.00 0.00 0.00 0.00 0.00 0.00 0.00 0.00 0.00
0.19 0.46 0.54 0.47 0.64 1.01 0.79 0.47 0.12 0.07 0.16 0.20 0.41 0.62 0.56 0.38 0.33 0.41 0.32 0.31 0.28 0.30 0.56 0.85 0.75 1.08 0.94 1.29 0.96 0.57 0.20 0.05 0.05 0.33 0.25 0.08 0.01 0.00 0.00 0.00 0.00 0.00 0.00 0.00 0.00 0.00 0.00 0.00 0.00
0.16 0.33 0.55 0.55 0.50 1.14 1.06 0.66 0.30 0.12 0.11 0.12 0.19 0.41 0.63 0.72 0.70 0.72 0.46 0.21 0.23 0.33 0.25 0.30 0.36 0.33 0.56 0.77 1.13 0.93 0.63 0.31 0.11 0.14 0.23 0.17 0.03 0.00 0.00 0.00 0.00 0.00 0.00 0.00 0.00 0.00 0.00 0.00 0.00
0.09 0.16 0.26 0.52 0.46 0.78 1.16 0.71 0.57 0.30 0.17 0.06 0.10 0.17 0.29 0.61 0.77 0.74 0.57 0.41 0.25 0.33 0.27 0.27 0.26 0.26 0.34 0.44 0.66 0.97 0.86 0.75 0.35 0.14 0.04 0.05 0.01 0.00 0.00 0.00 0.00 0.00 0.00 0.00 0.00 0.00 0.00 0.00 0.00
0.06 0.12 0.16 0.45 0.63 0.42 0.77 0.80 0.63 0.44 0.45 0.12 0.11 0.13 0.22 0.51 0.82 0.98 0.88 0.67 0.57 0.47 0.28 0.22 0.24 0.20 0.30 0.40 0.53 0.68 0.66 0.77 0.59 0.38 0.28 0.11 0.03 0.02 0.01 0.01 0.00 0.00 0.00 0.00 0.00 0.00 0.00 0.00 0.00
0.09 0.11 0.15 0.27 0.55 0.46 0.53 0.64 0.49 0.47 0.31 0.20 0.10 0.07 0.19 0.39 0.74 1.62 1.16 0.82 0.84 0.96 0.57 0.39 0.29 0.40 0.25 0.33 0.67 0.75 0.56 0.46 0.64 0.76 0.72 0.78 0.61 0.43 0.32 0.15 0.07 0.05 0.03 0.02 0.03 0.04 0.06 0.05 0.05
0.11 0.06 0.09 0.27 0.27 0.22 0.32 0.52 0.44 0.37 0.27 0.13 0.07 0.06 0.11 0.24 0.41 1.38 1.68 1.20 1.06 1.25 0.84 0.66 0.51 0.54 0.34 0.32 0.58 0.82 0.96 0.91 0.57 0.39 0.43 0.41 0.56 0.59 0.67 0.70 0.74 0.61 0.45 0.35 0.29 0.18 0.18 0.27 0.20
0.13 0.07 0.13 0.27 0.34 0.42 0.26 0.53 0.47 0.30 0.28 0.15 0.07 0.04 0.14 0.22 0.33 0.76 1.72 1.49 1.31 1.24 0.87 0.71 0.83 0.74 0.71 1.00 1.02 0.66 0.73 0.89 0.88 1.04 0.82 0.92 0.80 0.65 0.78 0.93 0.85 0.97 1.02 0.90 0.77 0.57 0.44 0.30 0.23
0.17 0.09 0.11 0.09 0.16 0.59 0.30 0.54 0.54 0.42 0.31 0.15 0.05 0.06 0.16 0.25 0.32 0.44 0.97 1.27 1.46 1.52 0.92 0.69 1.17 1.25 1.05 1.08 1.50 1.33 1.44 1.17 1.18 1.35 1.34 1.20 1.31 1.44 1.32 1.33 1.38 1.29 1.32 1.34 1.15 1.05 0.90 0.78 0.56
0.16 0.15 0.11 0.12 0.23 0.60 0.22 0.48 0.67 0.58 0.43 0.29 0.05 0.12 0.23 0.28 0.34 0.32 0.39 0.98 1.54 1.30 1.21 0.86 0.86 1.02 0.98 0.93 1.25 1.26 1.11 0.95 0.80 0.90 1.12 1.10 1.07 1.21 1.43 1.39 1.29 1.20 0.97 0.80 0.70 0.53 0.48 0.45 0.32
0.18 0.25 0.39 0.46 0.62 0.41 0.35 0.36 0.65 0.50 0.28 0.25 0.17 0.29 0.38 0.36 0.39 0.28 0.28 0.58 1.48 1.02 1.02 0.85 0.96 0.92 0.93 0.80 1.11 0.93 1.05 1.12 1.10 1.04 0.97 1.08 0.93 0.75 0.62 0.62 0.61 0.60 0.56 0.45 0.37 0.23 0.17 0.18 0.14
0.31 0.30 0.44 0.39 0.42 0.44 0.29 0.52 0.89 0.66 0.52 0.49 0.40 0.64 0.68 0.42 0.37 0.43 0.36 0.47 1.02 1.13 0.91 0.76 0.66 0.67 0.76 0.93 0.83 0.78 0.69 0.83 0.85 0.71 0.63 0.68 0.78 0.88 0.69 0.44 0.32 0.25 0.17 0.14 0.11 0.06 0.05 0.05 0.05
0.08 0.13 0.29 0.44 0.33 0.21 0.41 0.74 0.96 0.97 1.01 0.63 0.92 0.81 0.66 0.50 0.45 0.51 0.52 0.56 0.62 0.62 0.49 0.37 0.28 0.23 0.21 0.15 0.17 0.37 0.48 0.45 0.50 0.37 0.22 0.23 0.28 0.34 0.43 0.40 0.37 0.31 0.22 0.14 0.11 0.07 0.03 0.01 0.01
0.01 0.06 0.11 0.13 0.18 0.26 0.18 0.32 1.15 1.23 0.83 0.61 0.55 0.44 0.38 0.32 0.27 0.26 0.26 0.23 0.34 0.34 0.18 0.09 0.06 0.02 0.01 0.01 0.03 0.13 0.16 0.18 0.22 0.21 0.21 0.28 0.23 0.15 0.13 0.15 0.15 0.10 0.12 0.12 0.06 0.05 0.06 0.07 0.03
0.01 0.05 0.01 0.00 0.01 0.07 0.07 0.50 0.87 0.78 0.43 0.19 0.17 0.21 0.22 0.23 0.18 0.11 0.05 0.03 0.04 0.03 0.02 0.01 0.00 0.00 0.00 0.00 0.00 0.00 0.00 0.00 0.00 0.02 0.04 0.07 0.08 0.06 0.06 0.06 0.05 0.05 0.03 0.03 0.02 0.02 0.02 0.05 0.05
0.00 0.00 0.00 0.00 0.00 0.00 0.04 0.42 0.48 0.34 0.24 0.10 0.09 0.06 0.04 0.05 0.02 0.02 0.01 0.00 0.00 0.00 0.00 0.00 0.00 0.00 0.00 0.00 0.00 0.00 0.00 0.00 0.00 0.00 0.00 0.00 0.00 0.00 0.01 0.02 0.04 0.05 0.04 0.04 0.05 0.06 0.06 0.08 0.08

GFSSGP_prec_precacc24_111.txt.gz
Total_Precipitation_Accumulation
0.00 0.01 0.01 0.03 0.04 0.01 0.00 0.00 0.00 0.01 0.05 0.02 0.00 0.01 0.02 0.00 0.01 0.09 0.02 0.03 0.00 0.00 0.02 0.03 0.01 0.02 0.01 0.00 0.00 0.01 0.01 0.05 0.07 0.10 0.10 0.13 0.29 0.07 0.01 0.04 0.04 0.04 0.02 0.02 0.02 0.02 0.01 0.01 0.01
0.01 0.01 0.02 0.13 0.05 0.00 0.00 0.00 0.00 0.00 0.02 0.04 0.04 0.03 0.05 0.03 0.01 0.03 0.07 0.04 0.01 0.01 0.03 0.03 0.02 0.02 0.00 0.00 0.01 0.01 0.01 0.07 0.13 0.19 0.19 0.24 0.29 0.02 0.03 0.03 0.02 0.02 0.02 0.01 0.01 0.01 0.01 0.00 0.00
0.00 0.00 0.10 0.18 0.05 0.00 0.00 0.00 0.00 0.00 0.00 0.13 0.22 0.08 0.12 0.09 0.04 0.04 0.05 0.06 0.05 0.04 0.03 0.03 0.03 0.02 0.00 0.00 0.00 0.01 0.01 0.08 0.18 0.26 0.37 0.42 0.27 0.04 0.06 0.02 0.02 0.02 0.01 0.02 0.02 0.00 0.00 0.00 0.00
0.04 0.10 0.15 0.12 0.05 0.00 0.00 0.00 0.00 0.00 0.00 0.02 0.20 0.17 0.14 0.17 0.07 0.09 0.06 0.05 0.05 0.06 0.06 0.03 0.06 0.02 0.00 0.01 0.01 0.01 0.02 0.05 0.17 0.27 0.37 0.31 0.16 0.12 0.07 0.02 0.01 0.01 0.03 0.02 0.01 0.00 0.00 0.00 0.00
0.06 0.12 0.10 0.14 0.07 0.00 0.00 0.00 0.00 0.00 0.00 0.00 0.11 0.26 0.14 0.17 0.19 0.29 0.20 0.13 0.04 0.06 0.10 0.04 0.10 0.03 0.01 0.01 0.01 0.04 0.04 0.05 0.14 0.22 0.20 0.11 0.11 0.18 0.07 0.01 0.01 0.02 0.03 0.01 0.00 0.00 0.00 0.00 0.00
0.06 0.10 0.12 0.11 0.03 0.00 0.00 0.00 0.00 0.00 0.00 0.01 0.03 0.12 0.18 0.25 0.43 0.73 0.49 0.40 0.25 0.14 0.18 0.15 0.15 0.11 0.03 0.01 0.03 0.07 0.05 0.05 0.13 0.19 0.21 0.12 0.09 0.16 0.04 0.01 0.02 0.03 0.02 0.01 0.01 0.00 0.00 0.00 0.00
0.04 0.09 0.08 0.08 0.01 0.00 0.00 0.01 0.00 0.00 0.01 0.02 0.00 0.07 0.16 0.25 0.57 0.88 0.78 0.67 0.59 0.63 0.48 0.47 0.20 0.15 0.06 0.02 0.03 0.10 0.09 0.07 0.12 0.20 0.24 0.11 0.05 0.11 0.04 0.02 0.02 0.03 0.02 0.01 0.00 0.00 0.00 0.00 0.00
0.04 0.13 0.10 0.04 0.01 0.00 0.00 0.02 0.00 0.00 0.00 0.01 0.02 0.04 0.11 0.23 0.74 1.17 1.33 1.19 1.07 1.23 0.98 0.75 0.37 0.15 0.05 0.03 0.03 0.11 0.13 0.06 0.10 0.17 0.13 0.05 0.01 0.05 0.06 0.01 0.03 0.03 0.02 0.01 0.00 0.00 0.00 0.00 0.00
0.12 0.16 0.12 0.05 0.00 0.00 0.01 0.01 0.01 0.01 0.00 0.01 0.00 0.00 0.01 0.18 0.95 1.80 2.12 2.09 1.84 1.66 1.49 1.20 0.92 0.34 0.14 0.07 0.03 0.07 0.18 0.11 0.08 0.11 0.07 0.07 0.01 0.00 0.00 0.00 0.01 0.02 0.02 0.01 0.00 0.00 0.00 0.00 0.00
0.12 0.09 0.03 0.04 0.00 0.00 0.01 0.01 0.01 0.02 0.01 0.05 0.06 0.05 0.03 0.14 0.48 2.04 3.02 3.22 2.28 1.67 1.52 1.39 1.15 0.59 0.25 0.10 0.09 0.10 0.21 0.19 0.06 0.06 0.05 0.04 0.01 0.00 0.00 0.00 0.01 0.02 0.02 0.00 0.00 0.00 0.00 0.00 0.00
0.10 0.05 0.01 0.04 0.06 0.05 0.03 0.01 0.01 0.05 0.05 0.01 0.01 0.03 0.11 0.18 0.29 1.02 1.89 2.68 2.79 1.63 1.25 1.15 1.14 1.05 0.55 0.16 0.09 0.11 0.28 0.21 0.15 0.05 0.04 0.03 0.01 0.00 0.00 0.00 0.01 0.01 0.00 0.00 0.00 0.00 0.00 0.00 0.00
0.10 0.01 0.01 0.06 0.12 0.16 0.05 0.07 0.06 0.05 0.02 0.01 0.02 0.14 0.19 0.25 0.26 0.47 0.74 1.06 1.69 2.00 1.21 0.86 0.88 0.68 0.57 0.30 0.07 0.04 0.17 0.21 0.18 0.11 0.06 0.04 0.01 0.01 0.00 0.00 0.00 0.00 0.00 0.00 0.00 0.00 0.00 0.00 0.00
0.08 0.01 0.03 0.16 0.22 0.25 0.15 0.09 0.09 0.05 0.02 0.04 0.18 0.32 0.32 0.36 0.35 0.22 0.28 0.32 0.97 1.67 1.78 1.33 1.13 1.27 0.50 0.36 0.10 0.04 0.05 0.30 0.18 0.18 0.09 0.03 0.01 0.01 0.01 0.00 0.00 0.00 0.00 0.00 0.00 0.00 0.00 0.00 0.00
0.07 0.03 0.11 0.31 0.30 0.37 0.25 0.08 0.11 0.06 0.10 0.17 0.35 0.25 0.27 0.26 0.20 0.29 0.19 0.16 0.23 1.04 1.78 2.34 1.51 1.10 1.14 0.80 0.28 0.07 0.03 0.11 0.31 0.22 0.14 0.03 0.01 0.01 0.01 0.00 0.00 0.00 0.00 0.00 0.00 0.00 0.00 0.00 0.00
0.07 0.13 0.13 0.39 0.45 0.54 0.47 0.27 0.08 0.04 0.11 0.25 0.34 0.36 0.40 0.29 0.27 0.33 0.47 0.22 0.13 0.44 1.17 1.68 1.72 0.98 0.97 1.03 0.68 0.18 0.05 0.02 0.22 0.30 0.24 0.15 0.06 0.02 0.01 0.00 0.00 0.00 0.00 0.00 0.00 0.00 0.00 0.00 0.00
0.16 0.28 0.26 0.30 0.43 0.79 0.70 0.38 0.11 0.06 0.16 0.20 0.40 0.61 0.49 0.28 0.21 0.27 0.27 0.29 0.27 0.28 0.54 0.82 0.69 0.82 0.54 0.98 0.82 0.55 0.20 0.05 0.05 0.33 0.34 0.24 0.22 0.08 0.03 0.01 0.00 0.00 0.00 0.00 0.00 0.00 0.00 0.00 0.00
0.14 0.20 0.31 0.34 0.31 0.75 0.81 0.49 0.27 0.12 0.11 0.12 0.19 0.41 0.62 0.66 0.61 0.60 0.38 0.19 0.20 0.25 0.18 0.23 0.31 0.28 0.41 0.48 0.88 0.75 0.53 0.29 0.11 0.14 0.35 0.55 0.31 0.27 0.07 0.03 0.00 0.00 0.00 0.00 0.00 0.00 0.00 0.00 0.00
0.09 0.10 0.16 0.30 0.29 0.50 0.82 0.55 0.43 0.29 0.17 0.06 0.10 0.17 0.29 0.61 0.76 0.70 0.47 0.38 0.22 0.21 0.17 0.16 0.16 0.17 0.27 0.34 0.52 0.77 0.68 0.62 0.33 0.15 0.07 0.26 0.66 0.48 0.28 0.07 0.01 0.00 0.00 0.00 0.00 0.00 0.00 0.00 0.00
0.06 0.11 0.13 0.37 0.54 0.31 0.58 0.54 0.47 0.42 0.45 0.12 0.11 0.13 0.22 0.51 0.82 0.98 0.87 0.64 0.52 0.38 0.22 0.17 0.16 0.12 0.19 0.34 0.46 0.50 0.49 0.57 0.48 0.33 0.26 0.14 0.17 0.38 0.30 0.09 0.04 0.01 0.00 0.00 0.00 0.00 0.00 0.00 0.00
0.08 0.10 0.14 0.24 0.51 0.43 0.45 0.55 0.33 0.40 0.31 0.20 0.10 0.07 0.19 0.39 0.74 1.62 1.16 0.81 0.80 0.88 0.49 0.32 0.21 0.29 0.21 0.30 0.63 0.71 0.56 0.39 0.45 0.48 0.52 0.61 0.53 0.48 0.46 0.23 0.08 0.05 0.03 0.02 0.03 0.04 0.06 0.05 0.05
0.09 0.06 0.08 0.26 0.25 0.20 0.27 0.50 0.42 0.32 0.26 0.13 0.07 0.06 0.11 0.24 0.41 1.38 1.68 1.20 1.07 1.25 0.77 0.60 0.46 0.50 0.30 0.26 0.50 0.80 0.95 0.91 0.56 0.40 0.45 0.43 0.49 0.46 0.56 0.61 0.67 0.54 0.43 0.35 0.29 0.18 0.18 0.27 0.20
0.11 0.06 0.11 0.24 0.34 0.38 0.18 0.49 0.47 0.29 0.27 0.15 0.07 0.04 0.14 0.22 0.33 0.77 1.72 1.50 1.34 1.24 0.86 0.66 0.82 0.74 0.66 0.88 0.87 0.63 0.72 0.92 0.88 0.96 0.77 0.84 0.78 0.63 0.77 0.93 0.81 0.94 1.01 0.91 0.77 0.58 0.44 0.31 0.24
0.16 0.08 0.09 0.06 0.13 0.59 0.25 0.49 0.55 0.42 0.31 0.15 0.05 0.06 0.16 0.25 0.32 0.45 1.02 1.32 1.50 1.56 0.95 0.70 1.11 1.16 0.93 0.99 1.44 1.21 1.33 1.12 1.18 1.36 1.37 1.17 1.27 1.41 1.32 1.31 1.37 1.28 1.32 1.38 1.22 1.13 0.97 0.83 0.62
0.12 0.14 0.09 0.06 0.17 0.61 0.23 0.54 0.69 0.58 0.44 0.29 0.05 0.12 0.23 0.28 0.35 0.34 0.44 1.03 1.58 1.36 1.32 0.92 0.90 1.03 0.95 0.86 1.21 1.31 1.04 0.97 0.91 1.02 1.14 1.07 1.01 1.16 1.49 1.58 1.52 1.42 1.14 0.98 0.86 0.63 0.55 0.49 0.35
0.12 0.25 0.34 0.38 0.53 0.41 0.37 0.42 0.67 0.52 0.28 0.25 0.17 0.29 0.40 0.40 0.49 0.37 0.38 0.72 1.54 1.09 1.16 0.91 0.97 0.98 1.15 1.03 1.31 1.25 1.27 1.22 1.24 1.19 1.12 1.15 0.96 0.79 0.66 0.70 0.78 0.80 0.74 0.60 0.48 0.29 0.19 0.20 0.16
0.29 0.30 0.47 0.39 0.41 0.45 0.30 0.57 0.95 0.74 0.55 0.51 0.42 0.67 0.95 0.90 0.87 0.68 0.51 0.67 1.12 1.29 1.07 0.91 0.81 0.87 1.11 1.33 1.43 1.09 1.38 1.28 1.21 0.95 0.83 0.83 0.89 1.00 0.81 0.55 0.46 0.41 0.27 0.21 0.17 0.09 0.06 0.05 0.06
0.07 0.15 0.34 0.50 0.37 0.28 0.47 0.83 1.14 1.25 1.18 0.69 1.11 1.24 1.14 0.78 0.93 0.86 0.92 1.23 0.97 1.09 0.98 0.89 0.75 0.61 0.45 0.30 0.35 0.58 0.80 0.83 0.79 0.61 0.43 0.37 0.39 0.44 0.52 0.47 0.44 0.38 0.27 0.17 0.13 0.10 0.06 0.03 0.04
0.01 0.11 0.17 0.17 0.23 0.31 0.25 0.43 1.43 1.60 1.15 0.91 0.97 0.87 0.68 0.61 0.66 0.56 0.62 0.61 0.65 0.62 0.51 0.37 0.29 0.19 0.10 0.07 0.13 0.27 0.33 0.34 0.36 0.32 0.29 0.36 0.33 0.25 0.20 0.19 0.18 0.13 0.13 0.14 0.08 0.08 0.08 0.08 0.05
0.05 0.10 0.02 0.01 0.02 0.09 0.12 0.68 1.18 1.14 0.76 0.48 0.50 0.54 0.53 0.51 0.41 0.33 0.29 0.24 0.21 0.21 0.16 0.10 0.03 0.01 0.01 0.02 0.03 0.04 0.04 0.03 0.05 0.06 0.07 0.09 0.11 0.09 0.09 0.06 0.06 0.05 0.04 0.05 0.04 0.03 0.03 0.06 0.06
0.01 0.01 0.00 0.00 0.01 0.00 0.05 0.59 0.78 0.67 0.48 0.26 0.24 0.17 0.12 0.08 0.04 0.04 0.02 0.00 0.00 0.01 0.00 0.00 0.00 0.00 0.00 0.00 0.00 0.00 0.00 0.00 0.00 0.00 0.00 0.00 0.00 0.00 0.01 0.02 0.04 0.05 0.04 0.05 0.07 0.07 0.07 0.08 0.09

GFSSGP_prec_precacc24_114.txt.gz
Total_Precipitation_Accumulation
0.00 0.00 0.00 0.01 0.01 0.01 0.00 0.00 0.00 0.00 0.02 0.02 0.00 0.01 0.02 0.00 0.01 0.09 0.02 0.03 0.00 0.00 0.02 0.02 0.01 0.02 0.01 0.01 0.01 0.01 0.01 0.05 0.05 0.06 0.05 0.06 0.22 0.03 0.01 0.05 0.04 0.04 0.04 0.03 0.02 0.02 0.01 0.01 0.01
0.00 0.00 0.00 0.05 0.02 0.00 0.00 0.00 0.00 0.00 0.00 0.02 0.04 0.02 0.02 0.03 0.01 0.02 0.05 0.03 0.01 0.01 0.03 0.02 0.02 0.01 0.00 0.01 0.00 0.01 0.01 0.07 0.13 0.16 0.14 0.18 0.25 0.02 0.05 0.05 0.03 0.03 0.03 0.02 0.01 0.01 0.01 0.00 0.00
0.00 0.00 0.03 0.09 0.03 0.00 0.00 0.00 0.00 0.00 0.00 0.07 0.19 0.08 0.06 0.08 0.04 0.03 0.03 0.03 0.04 0.04 0.03 0.02 0.02 0.01 0.00 0.01 0.01 0.01 0.01 0.09 0.19 0.28 0.37 0.41 0.27 0.06 0.11 0.05 0.03 0.02 0.01 0.02 0.02 0.01 0.00 0.00 0.00
0.00 0.03 0.07 0.05 0.03 0.00 0.00 0.00 0.00 0.00 0.00 0.01 0.13 0.16 0.10 0.13 0.06 0.08 0.05 0.05 0.06 0.06 0.06 0.03 0.04 0.01 0.00 0.01 0.01 0.01 0.02 0.05 0.18 0.29 0.41 0.33 0.19 0.14 0.15 0.05 0.01 0.01 0.03 0.02 0.01 0.00 0.00 0.00 0.00
0.01 0.02 0.03 0.02 0.03 0.00 0.00 0.00 0.00 0.00 0.00 0.00 0.04 0.20 0.10 0.12 0.17 0.28 0.26 0.20 0.07 0.06 0.09 0.02 0.08 0.03 0.01 0.01 0.00 0.03 0.03 0.05 0.14 0.23 0.21 0.12 0.13 0.28 0.11 0.02 0.01 0.02 0.03 0.01 0.00 0.00 0.00 0.00 0.00
0.02 0.02 0.02 0.02 0.00 0.00 0.00 0.00 0.00 0.00 0.00 0.00 0.01 0.06 0.14 0.13 0.35 0.69 0.62 0.55 0.36 0.17 0.19 0.13 0.14 0.11 0.03 0.01 0.02 0.05 0.04 0.06 0.13 0.19 0.22 0.15 0.11 0.26 0.09 0.01 0.02 0.03 0.02 0.01 0.01 0.00 0.00 0.00 0.00
0.02 0.02 0.01 0.00 0.00 0.00 0.00 0.01 0.00 0.00 0.01 0.02 0.00 0.01 0.08 0.12 0.37 0.74 0.76 0.74 0.72 0.74 0.68 0.57 0.23 0.17 0.08 0.02 0.02 0.08 0.06 0.07 0.12 0.20 0.25 0.14 0.07 0.15 0.07 0.02 0.02 0.03 0.02 0.01 0.00 0.00 0.00 0.00 0.00
0.03 0.05 0.01 0.01 0.00 0.00 0.00 0.02 0.00 0.00 0.00 0.01 0.02 0.02 0.03 0.13 0.37 0.89 1.21 1.13 1.03 1.24 1.11 0.98 0.53 0.18 0.08 0.05 0.03 0.10 0.11 0.05 0.10 0.17 0.13 0.06 0.02 0.07 0.13 0.02 0.03 0.03 0.02 0.01 0.00 0.00 0.00 0.00 0.00
0.07 0.09 0.01 0.00 0.00 0.00 0.00 0.01 0.01 0.01 0.00 0.00 0.00 0.00 0.00 0.08 0.34 1.06 1.93 2.05 1.79 1.60 1.49 1.32 1.05 0.53 0.21 0.07 0.03 0.06 0.17 0.10 0.08 0.12 0.08 0.07 0.01 0.01 0.04 0.01 0.01 0.02 0.02 0.01 0.00 0.00 0.00 0.00 0.00
0.08 0.05 0.00 0.00 0.00 0.00 0.00 0.00 0.01 0.02 0.01 0.01 0.04 0.04 0.02 0.06 0.34 1.20 2.51 3.15 2.27 1.65 1.53 1.42 1.23 0.67 0.27 0.11 0.09 0.10 0.21 0.18 0.06 0.08 0.07 0.05 0.03 0.00 0.00 0.00 0.01 0.02 0.02 0.00 0.00 0.00 0.00 0.00 0.00
0.05 0.03 0.00 0.00 0.00 0.02 0.02 0.01 0.01 0.05 0.03 0.00 0.00 0.03 0.11 0.18 0.26 0.89 1.63 2.45 2.72 1.60 1.15 1.04 1.13 1.11 0.64 0.20 0.10 0.11 0.31 0.23 0.15 0.06 0.05 0.07 0.05 0.01 0.00 0.00 0.01 0.01 0.00 0.00 0.00 0.00 0.00 0.00 0.00
0.04 0.01 0.00 0.00 0.00 0.04 0.03 0.05 0.06 0.05 0.02 0.01 0.02 0.14 0.19 0.25 0.25 0.46 0.71 0.84 1.50 1.91 1.03 0.67 0.80 0.69 0.59 0.34 0.08 0.04 0.18 0.23 0.18 0.11 0.06 0.05 0.04 0.03 0.00 0.00 0.00 0.00 0.00 0.00 0.00 0.00 0.00 0.00 0.00
0.04 0.01 0.02 0.00 0.00 0.04 0.09 0.05 0.08 0.04 0.02 0.02 0.17 0.31 0.31 0.36 0.35 0.20 0.25 0.26 0.82 1.55 1.71 1.17 0.95 1.21 0.49 0.37 0.10 0.04 0.05 0.30 0.18 0.18 0.09 0.04 0.02 0.02 0.01 0.00 0.00 0.00 0.00 0.00 0.00 0.00 0.00 0.00 0.00
0.05 0.03 0.02 0.03 0.02 0.04 0.15 0.05 0.09 0.04 0.08 0.08 0.24 0.20 0.27 0.26 0.20 0.29 0.18 0.13 0.22 1.03 1.74 2.21 1.32 1.01 1.07 0.78 0.28 0.07 0.03 0.11 0.31 0.22 0.15 0.05 0.05 0.02 0.01 0.00 0.00 0.00 0.00 0.00 0.00 0.00 0.00 0.00 0.00
0.06 0.10 0.07 0.02 0.02 0.12 0.35 0.21 0.05 0.01 0.07 0.15 0.23 0.23 0.31 0.22 0.21 0.30 0.45 0.20 0.12 0.43 1.17 1.65 1.62 0.90 0.92 0.95 0.65 0.18 0.05 0.02 0.22 0.30 0.24 0.15 0.07 0.03 0.02 0.01 0.02 0.02 0.01 0.00 0.00 0.00 0.00 0.00 0.00
0.13 0.23 0.17 0.03 0.03 0.21 0.63 0.33 0.08 0.03 0.11 0.14 0.26 0.41 0.34 0.19 0.16 0.24 0.21 0.26 0.25 0.25 0.53 0.82 0.68 0.80 0.48 0.83 0.74 0.47 0.16 0.03 0.04 0.33 0.34 0.24 0.23 0.16 0.08 0.03 0.03 0.04 0.03 0.00 0.00 0.00 0.00 0.00 0.00
0.10 0.18 0.26 0.17 0.03 0.29 0.66 0.46 0.24 0.10 0.08 0.11 0.15 0.29 0.43 0.44 0.43 0.46 0.30 0.16 0.16 0.21 0.18 0.23 0.31 0.28 0.39 0.42 0.75 0.60 0.44 0.18 0.03 0.09 0.34 0.55 0.32 0.36 0.22 0.12 0.07 0.06 0.07 0.01 0.00 0.00 0.00 0.00 0.00
0.09 0.09 0.11 0.19 0.12 0.21 0.54 0.48 0.37 0.28 0.16 0.06 0.10 0.15 0.27 0.52 0.69 0.60 0.41 0.35 0.20 0.18 0.14 0.14 0.16 0.17 0.26 0.30 0.46 0.68 0.59 0.41 0.17 0.08 0.07 0.26 0.67 0.53 0.62 0.44 0.30 0.30 0.29 0.08 0.00 0.00 0.00 0.00 0.00
0.06 0.10 0.11 0.22 0.28 0.11 0.36 0.44 0.30 0.35 0.45 0.12 0.11 0.13 0.21 0.49 0.80 0.95 0.75 0.56 0.49 0.33 0.19 0.12 0.12 0.09 0.16 0.25 0.34 0.39 0.46 0.50 0.37 0.23 0.20 0.13 0.18 0.40 0.46 0.53 0.56 0.50 0.47 0.19 0.03 0.00 0.00 0.00 0.00
0.08 0.10 0.12 0.13 0.25 0.23 0.30 0.44 0.27 0.18 0.29 0.20 0.10 0.07 0.19 0.39 0.74 1.61 1.15 0.75 0.61 0.74 0.38 0.23 0.17 0.14 0.15 0.26 0.60 0.67 0.47 0.34 0.39 0.35 0.31 0.36 0.33 0.32 0.40 0.30 0.22 0.27 0.29 0.16 0.11 0.07 0.06 0.05 0.05
0.08 0.05 0.08 0.23 0.18 0.11 0.18 0.45 0.40 0.22 0.17 0.12 0.07 0.06 0.11 0.24 0.41 1.38 1.68 1.19 1.00 1.11 0.67 0.51 0.38 0.33 0.28 0.25 0.33 0.58 0.80 0.87 0.51 0.35 0.41 0.37 0.45 0.40 0.44 0.47 0.47 0.36 0.36 0.37 0.34 0.22 0.19 0.27 0.20
0.09 0.04 0.09 0.22 0.33 0.37 0.15 0.47 0.47 0.27 0.22 0.12 0.06 0.04 0.14 0.22 0.33 0.77 1.72 1.50 1.34 1.22 0.75 0.62 0.75 0.62 0.47 0.57 0.50 0.52 0.62 0.73 0.83 0.76 0.61 0.65 0.64 0.53 0.61 0.84 0.82 0.94 0.94 0.80 0.71 0.57 0.44 0.31 0.24
0.15 0.07 0.06 0.04 0.13 0.61 0.24 0.50 0.54 0.42 0.31 0.15 0.05 0.06 0.16 0.25 0.32 0.45 1.02 1.32 1.51 1.57 0.95 0.68 1.04 1.03 0.76 0.78 1.14 0.92 0.93 0.73 0.85 1.00 1.18 1.08 1.15 1.26 1.25 1.31 1.40 1.32 1.32 1.35 1.20 1.12 0.97 0.84 0.62
0.12 0.12 0.05 0.05 0.18 0.64 0.24 0.59 0.70 0.59 0.46 0.30 0.05 0.12 0.23 0.28 0.35 0.34 0.44 1.04 1.59 1.39 1.37 1.00 0.97 1.04 0.90 0.77 1.12 1.17 0.89 0.84 0.76 0.83 0.95 0.95 1.03 1.30 1.61 1.65 1.59 1.54 1.25 1.09 0.97 0.78 0.69 0.61 0.45
0.11 0.22 0.25 0.29 0.46 0.40 0.39 0.49 0.69 0.58 0.30 0.26 0.18 0.30 0.40 0.40 0.49 0.37 0.39 0.75 1.59 1.16 1.24 0.99 1.09 1.10 1.22 1.05 1.29 1.19 1.17 1.14 1.15 1.12 1.05 1.06 0.94 0.85 0.83 0.92 0.91 0.89 0.82 0.70 0.59 0.40 0.32 0.33 0.26
0.27 0.30 0.47 0.38 0.39 0.45 0.30 0.60 0.99 0.84 0.61 0.54 0.42 0.68 0.97 1.06 1.04 0.76 0.58 0.73 1.15 1.36 1.19 1.02 0.93 0.96 1.16 1.42 1.59 1.16 1.45 1.34 1.32 1.10 1.11 0.99 0.96 1.10 0.91 0.64 0.57 0.50 0.36 0.28 0.26 0.17 0.13 0.13 0.12
0.06 0.16 0.38 0.54 0.38 0.32 0.50 0.87 1.17 1.30 1.21 0.71 1.17 1.27 1.35 1.33 1.42 1.15 1.13 1.41 1.04 1.14 1.09 1.00 0.82 0.74 0.65 0.56 0.55 0.70 1.05 1.11 1.13 0.93 0.71 0.61 0.59 0.58 0.67 0.59 0.52 0.47 0.35 0.24 0.18 0.12 0.08 0.07 0.07
0.02 0.13 0.19 0.20 0.26 0.36 0.32 0.47 1.52 1.72 1.28 1.05 1.13 1.17 1.05 1.06 1.03 0.92 1.07 1.04 1.03 0.89 0.82 0.66 0.61 0.55 0.34 0.17 0.20 0.39 0.43 0.41 0.45 0.43 0.38 0.43 0.43 0.35 0.31 0.28 0.23 0.17 0.17 0.17 0.11 0.10 0.11 0.12 0.07
0.06 0.13 0.04 0.02 0.03 0.14 0.15 0.76 1.34 1.35 1.02 0.75 0.78 0.82 0.79 0.76 0.66 0.64 0.65 0.61 0.53 0.49 0.34 0.30 0.31 0.27 0.11 0.08 0.14 0.11 0.10 0.11 0.10 0.11 0.14 0.15 0.19 0.17 0.16 0.13 0.11 0.08 0.05 0.07 0.05 0.04 0.05 0.09 0.08
0.01 0.01 0.00 0.01 0.01 0.00 0.06 0.69 0.94 0.89 0.69 0.44 0.37 0.24 0.16 0.10 0.07 0.09 0.12 0.17 0.19 0.16 0.10 0.10 0.08 0.08 0.06 0.05 0.03 0.00 0.00 0.00 0.00 0.00 0.01 0.01 0.01 0.01 0.01 0.03 0.05 0.07 0.07 0.07 0.08 0.09 0.10 0.11 0.12

GFSSGP_prec_precacc24_117.txt.gz
Total_Precipitation_Accumulation
0.00 0.00 0.00 0.00 0.00 0.00 0.00 0.00 0.00 0.00 0.00 0.00 0.00 0.01 0.01 0.00 0.01 0.09 0.01 0.02 0.00 0.00 0.02 0.01 0.01 0.02 0.02 0.02 0.02 0.01 0.01 0.03 0.02 0.04 0.03 0.04 0.20 0.03 0.01 0.05 0.04 0.06 0.06 0.03 0.02 0.02 0.01 0.02 0.01
0.00 0.00 0.00 0.01 0.00 0.00 0.00 0.00 0.00 0.00 0.00 0.00 0.03 0.02 0.01 0.03 0.01 0.02 0.02 0.01 0.01 0.01 0.02 0.01 0.01 0.00 0.01 0.02 0.01 0.01 0.01 0.04 0.04 0.07 0.08 0.12 0.19 0.02 0.07 0.05 0.04 0.05 0.04 0.02 0.01 0.00 0.01 0.00 0.00
0.00 0.00 0.01 0.01 0.00 0.00 0.00 0.00 0.00 0.00 0.00 0.00 0.04 0.06 0.03 0.03 0.03 0.02 0.02 0.01 0.02 0.03 0.03 0.02 0.01 0.00 0.01 0.01 0.01 0.01 0.02 0.06 0.12 0.17 0.21 0.27 0.25 0.08 0.20 0.08 0.05 0.02 0.01 0.01 0.01 0.01 0.00 0.00 0.00
0.00 0.01 0.01 0.01 0.00 0.00 0.00 0.00 0.00 0.00 0.00 0.00 0.01 0.06 0.04 0.06 0.05 0.07 0.03 0.03 0.04 0.05 0.05 0.02 0.02 0.01 0.02 0.02 0.01 0.01 0.02 0.04 0.15 0.23 0.37 0.31 0.19 0.23 0.30 0.12 0.02 0.01 0.02 0.02 0.01 0.00 0.00 0.00 0.00
0.01 0.01 0.00 0.00 0.00 0.00 0.00 0.00 0.00 0.00 0.00 0.00 0.00 0.02 0.04 0.04 0.11 0.20 0.24 0.19 0.09 0.05 0.07 0.02 0.06 0.03 0.02 0.02 0.01 0.03 0.04 0.05 0.14 0.22 0.20 0.12 0.15 0.43 0.22 0.04 0.01 0.02 0.02 0.01 0.00 0.00 0.00 0.00 0.00
0.01 0.01 0.00 0.00 0.00 0.00 0.00 0.00 0.00 0.00 0.00 0.00 0.01 0.00 0.03 0.04 0.16 0.44 0.60 0.54 0.44 0.27 0.26 0.13 0.12 0.12 0.04 0.02 0.02 0.06 0.05 0.07 0.13 0.19 0.22 0.16 0.13 0.33 0.19 0.02 0.01 0.03 0.02 0.01 0.00 0.00 0.00 0.00 0.00
0.01 0.01 0.00 0.00 0.00 0.00 0.00 0.00 0.00 0.00 0.00 0.02 0.00 0.00 0.00 0.02 0.09 0.42 0.67 0.72 0.72 0.82 0.80 0.64 0.26 0.18 0.09 0.02 0.01 0.08 0.08 0.11 0.15 0.21 0.25 0.14 0.08 0.16 0.16 0.03 0.02 0.03 0.02 0.01 0.00 0.00 0.00 0.00 0.00
0.01 0.02 0.00 0.00 0.00 0.00 0.00 0.00 0.00 0.00 0.00 0.00 0.01 0.02 0.00 0.01 0.06 0.40 1.00 1.09 1.00 1.21 1.13 1.07 0.64 0.27 0.09 0.06 0.04 0.09 0.11 0.06 0.12 0.18 0.14 0.06 0.02 0.07 0.17 0.03 0.02 0.03 0.02 0.01 0.00 0.00 0.00 0.00 0.00
0.02 0.04 0.00 0.00 0.00 0.00 0.00 0.00 0.00 0.01 0.00 0.00 0.00 0.00 0.00 0.01 0.08 0.27 1.25 1.95 1.72 1.53 1.45 1.41 1.18 0.63 0.26 0.11 0.06 0.13 0.18 0.10 0.09 0.13 0.09 0.08 0.02 0.02 0.06 0.01 0.01 0.02 0.02 0.01 0.00 0.00 0.00 0.00 0.00
0.02 0.01 0.00 0.00 0.00 0.00 0.00 0.00 0.00 0.01 0.00 0.00 0.03 0.03 0.01 0.03 0.06 0.11 0.66 2.69 2.17 1.61 1.46 1.41 1.26 0.80 0.36 0.20 0.15 0.10 0.23 0.18 0.06 0.08 0.08 0.06 0.03 0.01 0.00 0.00 0.01 0.02 0.02 0.00 0.00 0.00 0.00 0.00 0.00
0.00 0.01 0.00 0.00 0.00 0.00 0.01 0.00 0.00 0.01 0.00 0.00 0.00 0.03 0.11 0.16 0.14 0.13 0.40 1.97 2.46 1.48 1.04 1.03 1.12 1.12 0.66 0.26 0.15 0.14 0.40 0.31 0.16 0.06 0.05 0.08 0.06 0.03 0.02 0.01 0.01 0.01 0.00 0.00 0.00 0.00 0.00 0.00 0.00
0.00 0.00 0.00 0.00 0.00 0.01 0.01 0.01 0.03 0.01 0.01 0.00 0.01 0.13 0.18 0.24 0.20 0.21 0.39 0.65 1.28 1.70 0.87 0.63 0.79 0.69 0.59 0.34 0.09 0.04 0.19 0.27 0.22 0.13 0.06 0.06 0.04 0.05 0.03 0.00 0.00 0.00 0.00 0.00 0.00 0.00 0.00 0.00 0.00
0.00 0.00 0.00 0.00 0.00 0.01 0.04 0.03 0.05 0.02 0.01 0.00 0.07 0.17 0.24 0.33 0.33 0.17 0.20 0.24 0.62 1.26 1.40 1.06 0.93 1.21 0.49 0.37 0.10 0.04 0.05 0.30 0.19 0.19 0.10 0.06 0.05 0.08 0.04 0.01 0.00 0.00 0.00 0.00 0.00 0.00 0.00 0.00 0.00
0.01 0.01 0.00 0.02 0.01 0.01 0.02 0.01 0.06 0.03 0.03 0.01 0.05 0.14 0.21 0.24 0.19 0.29 0.18 0.12 0.17 0.63 1.50 2.13 1.28 1.00 1.07 0.78 0.28 0.07 0.03 0.11 0.31 0.22 0.16 0.08 0.08 0.06 0.04 0.02 0.00 0.01 0.01 0.01 0.00 0.00 0.00 0.00 0.00
0.01 0.02 0.03 0.01 0.01 0.03 0.06 0.03 0.02 0.00 0.01 0.01 0.03 0.08 0.25 0.20 0.21 0.25 0.43 0.20 0.12 0.24 1.01 1.65 1.62 0.90 0.92 0.95 0.66 0.18 0.05 0.02 0.22 0.30 0.24 0.15 0.07 0.04 0.02 0.02 0.02 0.03 0.03 0.03 0.01 0.00 0.00 0.00 0.00
0.09 0.17 0.12 0.01 0.02 0.03 0.13 0.03 0.00 0.02 0.03 0.02 0.05 0.12 0.20 0.17 0.15 0.18 0.13 0.19 0.24 0.23 0.52 0.82 0.68 0.80 0.48 0.83 0.74 0.47 0.16 0.03 0.04 0.33 0.34 0.24 0.23 0.16 0.08 0.03 0.03 0.06 0.06 0.05 0.02 0.00 0.00 0.00 0.00
0.05 0.14 0.21 0.15 0.02 0.05 0.08 0.04 0.05 0.08 0.04 0.04 0.04 0.14 0.20 0.23 0.21 0.25 0.14 0.09 0.08 0.15 0.16 0.23 0.31 0.28 0.39 0.42 0.75 0.60 0.43 0.18 0.03 0.09 0.34 0.55 0.32 0.36 0.22 0.13 0.08 0.06 0.09 0.08 0.05 0.02 0.00 0.00 0.00
0.08 0.08 0.10 0.18 0.09 0.06 0.07 0.03 0.21 0.25 0.14 0.02 0.04 0.06 0.16 0.29 0.40 0.37 0.23 0.27 0.14 0.13 0.12 0.13 0.16 0.17 0.26 0.30 0.46 0.68 0.59 0.41 0.16 0.06 0.06 0.25 0.66 0.53 0.62 0.44 0.31 0.31 0.35 0.46 0.42 0.16 0.05 0.01 0.00
0.06 0.08 0.10 0.20 0.25 0.03 0.03 0.06 0.15 0.32 0.42 0.10 0.07 0.09 0.14 0.37 0.56 0.65 0.52 0.36 0.39 0.28 0.18 0.11 0.11 0.09 0.16 0.25 0.34 0.38 0.45 0.50 0.36 0.19 0.14 0.09 0.16 0.41 0.47 0.54 0.56 0.52 0.52 0.44 0.42 0.35 0.18 0.08 0.02
0.05 0.09 0.11 0.11 0.18 0.06 0.02 0.05 0.16 0.16 0.26 0.18 0.07 0.05 0.17 0.35 0.63 1.42 1.02 0.66 0.52 0.67 0.33 0.21 0.15 0.13 0.15 0.26 0.60 0.67 0.47 0.33 0.38 0.33 0.24 0.22 0.21 0.20 0.29 0.26 0.23 0.28 0.39 0.37 0.29 0.28 0.25 0.15 0.09
0.06 0.05 0.08 0.19 0.13 0.07 0.07 0.16 0.24 0.20 0.15 0.10 0.06 0.05 0.11 0.24 0.40 1.34 1.54 1.07 0.86 1.02 0.58 0.45 0.30 0.29 0.27 0.25 0.33 0.51 0.72 0.83 0.49 0.31 0.33 0.31 0.32 0.26 0.28 0.30 0.29 0.20 0.20 0.25 0.27 0.26 0.31 0.36 0.25
0.07 0.04 0.09 0.22 0.34 0.37 0.13 0.39 0.37 0.24 0.17 0.09 0.05 0.04 0.14 0.22 0.33 0.76 1.68 1.42 1.28 1.19 0.70 0.54 0.68 0.54 0.40 0.41 0.32 0.31 0.44 0.61 0.73 0.67 0.49 0.52 0.49 0.38 0.44 0.61 0.60 0.78 0.87 0.73 0.62 0.50 0.42 0.33 0.28
0.14 0.07 0.05 0.03 0.14 0.62 0.23 0.51 0.50 0.40 0.29 0.12 0.04 0.05 0.16 0.25 0.32 0.45 1.02 1.32 1.49 1.54 0.93 0.65 0.96 0.91 0.61 0.57 0.83 0.59 0.62 0.51 0.58 0.68 0.86 0.77 0.77 0.78 0.77 0.90 1.05 1.08 1.18 1.25 1.11 1.05 0.94 0.85 0.65
0.10 0.09 0.04 0.05 0.18 0.65 0.24 0.60 0.70 0.59 0.52 0.30 0.05 0.12 0.24 0.29 0.35 0.34 0.44 1.04 1.59 1.39 1.37 1.00 0.96 1.02 0.88 0.73 1.05 1.04 0.76 0.62 0.55 0.64 0.75 0.69 0.61 0.74 1.05 1.29 1.40 1.41 1.21 1.07 0.93 0.77 0.71 0.65 0.52
0.09 0.13 0.21 0.26 0.45 0.40 0.39 0.52 0.71 0.62 0.38 0.31 0.21 0.33 0.39 0.39 0.49 0.38 0.39 0.75 1.59 1.16 1.25 1.00 1.10 1.12 1.28 1.12 1.32 1.17 1.07 1.01 0.98 0.97 0.94 0.98 0.85 0.69 0.70 0.99 1.04 0.97 0.89 0.76 0.66 0.46 0.37 0.39 0.33
0.21 0.26 0.47 0.38 0.39 0.45 0.30 0.61 0.99 0.88 0.70 0.60 0.44 0.70 0.98 1.07 1.07 0.78 0.59 0.74 1.17 1.38 1.20 1.02 0.96 1.01 1.26 1.50 1.66 1.16 1.43 1.31 1.28 1.03 1.03 0.92 0.86 0.99 0.84 0.67 0.89 0.95 0.65 0.45 0.32 0.23 0.20 0.18 0.17
0.06 0.18 0.39 0.57 0.38 0.33 0.50 0.87 1.17 1.30 1.24 0.73 1.19 1.30 1.36 1.42 1.61 1.22 1.20 1.43 1.05 1.18 1.20 1.12 0.90 0.86 0.76 0.67 0.60 0.74 1.12 1.18 1.17 0.99 0.75 0.70 0.72 0.69 0.73 0.65 0.56 0.53 0.45 0.37 0.26 0.18 0.12 0.11 0.10
0.02 0.13 0.22 0.23 0.28 0.37 0.33 0.48 1.55 1.75 1.31 1.10 1.24 1.25 1.19 1.37 1.35 1.19 1.25 1.18 1.13 1.01 1.00 0.79 0.68 0.67 0.46 0.51 0.42 0.50 0.64 0.57 0.58 0.59 0.64 0.56 0.56 0.56 0.48 0.38 0.31 0.26 0.25 0.26 0.21 0.17 0.16 0.16 0.09
0.09 0.16 0.06 0.04 0.06 0.17 0.16 0.76 1.39 1.41 1.10 0.89 0.89 0.92 0.92 0.91 0.85 0.89 1.00 1.02 0.91 0.77 0.53 0.55 0.56 0.66 0.30 0.42 0.38 0.22 0.23 0.17 0.14 0.15 0.24 0.26 0.32 0.32 0.30 0.37 0.38 0.25 0.22 0.25 0.19 0.15 0.14 0.18 0.16
0.01 0.02 0.01 0.03 0.06 0.02 0.07 0.72 0.96 0.91 0.77 0.55 0.44 0.28 0.17 0.11 0.09 0.16 0.27 0.40 0.45 0.42 0.37 0.36 0.57 0.43 0.24 0.21 0.16 0.10 0.14 0.10 0.09 0.04 0.07 0.09 0.08 0.09 0.07 0.08 0.12 0.16 0.15 0.15 0.18 0.19 0.13 0.13 0.13

GFSSGP_prec_precacc24_120.txt.gz
Total_Precipitation_Accumulation
0.00 0.00 0.00 0.00 0.00 0.00 0.00 0.00 0.00 0.00 0.00 0.00 0.00 0.00 0.00 0.00 0.01 0.09 0.01 0.02 0.00 0.00 0.02 0.01 0.02 0.02 0.02 0.02 0.02 0.01 0.01 0.03 0.02 0.06 0.03 0.01 0.16 0.02 0.01 0.05 0.04 0.06 0.06 0.03 0.02 0.01 0.01 0.02 0.01
0.00 0.00 0.00 0.00 0.00 0.00 0.00 0.00 0.00 0.00 0.00 0.00 0.00 0.00 0.00 0.00 0.00 0.01 0.02 0.00 0.00 0.01 0.03 0.01 0.02 0.01 0.02 0.02 0.01 0.01 0.01 0.03 0.02 0.06 0.04 0.06 0.14 0.01 0.07 0.05 0.04 0.07 0.03 0.01 0.01 0.00 0.01 0.01 0.00
0.00 0.00 0.00 0.00 0.00 0.00 0.00 0.00 0.00 0.00 0.00 0.00 0.00 0.00 0.00 0.00 0.00 0.01 0.01 0.00 0.00 0.02 0.03 0.02 0.02 0.02 0.04 0.03 0.02 0.01 0.02 0.04 0.04 0.07 0.12 0.14 0.20 0.11 0.22 0.10 0.08 0.04 0.01 0.00 0.00 0.00 0.00 0.00 0.00
0.00 0.00 0.00 0.00 0.00 0.00 0.00 0.00 0.00 0.00 0.00 0.00 0.00 0.00 0.00 0.00 0.01 0.02 0.01 0.02 0.03 0.04 0.05 0.02 0.02 0.04 0.05 0.03 0.02 0.01 0.01 0.04 0.07 0.10 0.21 0.20 0.18 0.33 0.44 0.19 0.07 0.01 0.01 0.01 0.00 0.00 0.00 0.00 0.00
0.00 0.00 0.00 0.00 0.00 0.00 0.00 0.00 0.00 0.00 0.00 0.00 0.00 0.00 0.00 0.01 0.03 0.04 0.17 0.18 0.08 0.05 0.07 0.02 0.06 0.06 0.08 0.09 0.07 0.07 0.05 0.06 0.10 0.13 0.16 0.12 0.15 0.49 0.35 0.14 0.02 0.01 0.01 0.00 0.00 0.00 0.00 0.00 0.00
0.00 0.00 0.00 0.00 0.00 0.00 0.00 0.00 0.00 0.00 0.00 0.00 0.00 0.00 0.00 0.03 0.09 0.18 0.36 0.50 0.43 0.27 0.27 0.13 0.10 0.13 0.06 0.07 0.10 0.12 0.10 0.09 0.14 0.17 0.23 0.20 0.16 0.35 0.27 0.12 0.03 0.02 0.01 0.00 0.00 0.00 0.00 0.00 0.00
0.00 0.00 0.00 0.00 0.00 0.00 0.00 0.00 0.00 0.00 0.00 0.00 0.00 0.00 0.00 0.01 0.06 0.16 0.32 0.61 0.70 0.81 0.81 0.66 0.28 0.20 0.10 0.02 0.02 0.11 0.12 0.15 0.18 0.24 0.27 0.16 0.11 0.19 0.21 0.09 0.03 0.02 0.02 0.01 0.00 0.00 0.00 0.00 0.00
0.00 0.00 0.00 0.00 0.00 0.00 0.00 0.00 0.00 0.00 0.00 0.00 0.00 0.00 0.00 0.00 0.05 0.17 0.29 0.76 0.95 1.17 1.11 1.04 0.68 0.35 0.10 0.05 0.04 0.10 0.12 0.11 0.15 0.20 0.15 0.08 0.03 0.08 0.21 0.06 0.03 0.02 0.02 0.01 0.00 0.00 0.00 0.00 0.00
0.00 0.00 0.00 0.00 0.00 0.00 0.00 0.00 0.00 0.00 0.00 0.00 0.00 0.00 0.00 0.01 0.04 0.12 0.13 0.56 1.54 1.45 1.37 1.37 1.22 0.66 0.31 0.11 0.09 0.16 0.18 0.12 0.11 0.14 0.10 0.10 0.03 0.02 0.10 0.04 0.02 0.02 0.02 0.01 0.00 0.00 0.00 0.00 0.00
0.00 0.00 0.00 0.00 0.00 0.00 0.00 0.00 0.00 0.00 0.00 0.00 0.00 0.00 0.00 0.02 0.04 0.06 0.06 0.18 1.13 1.53 1.38 1.40 1.26 0.85 0.37 0.22 0.18 0.10 0.26 0.19 0.06 0.08 0.09 0.07 0.04 0.02 0.03 0.04 0.02 0.02 0.02 0.00 0.00 0.00 0.00 0.00 0.00
0.00 0.00 0.00 0.00 0.00 0.00 0.00 0.00 0.00 0.00 0.00 0.00 0.00 0.01 0.10 0.14 0.11 0.05 0.05 0.15 0.56 1.08 0.92 1.02 1.12 1.12 0.66 0.28 0.15 0.12 0.45 0.35 0.16 0.06 0.07 0.10 0.09 0.06 0.06 0.05 0.01 0.01 0.00 0.00 0.00 0.00 0.00 0.00 0.00
0.00 0.00 0.00 0.00 0.00 0.00 0.00 0.00 0.00 0.00 0.00 0.00 0.00 0.01 0.10 0.22 0.16 0.13 0.07 0.08 0.31 0.92 0.63 0.62 0.79 0.69 0.59 0.34 0.09 0.03 0.17 0.26 0.23 0.15 0.07 0.07 0.05 0.08 0.07 0.05 0.01 0.00 0.00 0.00 0.00 0.00 0.00 0.00 0.00
0.00 0.00 0.00 0.00 0.00 0.00 0.00 0.00 0.00 0.00 0.00 0.00 0.01 0.01 0.06 0.28 0.30 0.14 0.05 0.03 0.10 0.37 0.84 0.95 0.93 1.21 0.49 0.37 0.10 0.04 0.04 0.30 0.22 0.21 0.11 0.14 0.09 0.10 0.06 0.06 0.04 0.01 0.00 0.01 0.00 0.00 0.00 0.00 0.00
0.01 0.00 0.00 0.00 0.00 0.00 0.00 0.00 0.02 0.00 0.00 0.00 0.00 0.01 0.02 0.11 0.19 0.28 0.14 0.06 0.05 0.17 0.81 1.76 1.14 0.99 1.07 0.78 0.28 0.07 0.03 0.11 0.31 0.22 0.16 0.11 0.13 0.16 0.08 0.06 0.03 0.01 0.01 0.01 0.01 0.00 0.00 0.00 0.00
0.01 0.01 0.00 0.00 0.00 0.00 0.02 0.02 0.01 0.00 0.00 0.01 0.01 0.01 0.01 0.07 0.18 0.25 0.43 0.19 0.11 0.11 0.36 1.32 1.46 0.82 0.92 0.95 0.66 0.18 0.05 0.02 0.22 0.30 0.24 0.15 0.08 0.06 0.05 0.05 0.05 0.04 0.05 0.03 0.03 0.01 0.00 0.00 0.00
0.01 0.02 0.01 0.00 0.00 0.00 0.07 0.02 0.00 0.02 0.03 0.01 0.01 0.02 0.02 0.06 0.13 0.18 0.13 0.19 0.24 0.20 0.23 0.64 0.60 0.70 0.48 0.83 0.74 0.48 0.16 0.03 0.04 0.33 0.34 0.24 0.23 0.16 0.09 0.03 0.04 0.08 0.09 0.07 0.03 0.01 0.00 0.00 0.00
0.00 0.02 0.06 0.09 0.00 0.03 0.06 0.04 0.02 0.01 0.02 0.02 0.01 0.05 0.01 0.05 0.16 0.24 0.14 0.08 0.07 0.13 0.13 0.17 0.28 0.25 0.39 0.42 0.75 0.61 0.44 0.18 0.03 0.09 0.34 0.55 0.32 0.36 0.22 0.13 0.08 0.06 0.09 0.09 0.06 0.03 0.01 0.00 0.00
0.03 0.06 0.06 0.12 0.08 0.06 0.06 0.02 0.09 0.07 0.03 0.00 0.03 0.02 0.03 0.04 0.19 0.33 0.20 0.23 0.10 0.10 0.11 0.13 0.15 0.16 0.26 0.30 0.46 0.69 0.60 0.41 0.16 0.06 0.06 0.25 0.66 0.53 0.62 0.45 0.31 0.31 0.36 0.46 0.42 0.16 0.06 0.02 0.00
0.00 0.03 0.06 0.13 0.21 0.03 0.02 0.00 0.02 0.16 0.22 0.05 0.05 0.05 0.05 0.09 0.25 0.43 0.34 0.25 0.29 0.22 0.17 0.10 0.10 0.09 0.16 0.25 0.34 0.38 0.45 0.50 0.36 0.19 0.14 0.09 0.16 0.40 0.46 0.53 0.57 0.52 0.53 0.44 0.42 0.38 0.20 0.09 0.04
0.02 0.04 0.06 0.08 0.16 0.05 0.02 0.01 0.00 0.01 0.10 0.06 0.05 0.01 0.09 0.19 0.36 0.77 0.55 0.39 0.36 0.52 0.29 0.19 0.15 0.13 0.15 0.26 0.60 0.67 0.47 0.33 0.38 0.33 0.23 0.20 0.17 0.15 0.22 0.20 0.21 0.28 0.40 0.38 0.28 0.27 0.25 0.16 0.11
0.03 0.03 0.06 0.16 0.12 0.07 0.06 0.04 0.02 0.01 0.00 0.01 0.03 0.01 0.05 0.16 0.25 0.89 1.11 0.68 0.44 0.70 0.49 0.40 0.28 0.28 0.27 0.24 0.33 0.51 0.71 0.83 0.49 0.31 0.32 0.29 0.23 0.18 0.16 0.15 0.13 0.10 0.14 0.20 0.23 0.23 0.30 0.34 0.25
0.04 0.02 0.07 0.19 0.33 0.36 0.13 0.24 0.15 0.03 0.04 0.05 0.02 0.01 0.10 0.19 0.30 0.62 1.48 1.17 1.00 1.01 0.63 0.50 0.66 0.53 0.39 0.41 0.32 0.30 0.41 0.59 0.71 0.62 0.45 0.47 0.43 0.33 0.31 0.37 0.34 0.36 0.57 0.62 0.59 0.50 0.42 0.33 0.27
0.08 0.04 0.04 0.03 0.14 0.62 0.23 0.41 0.33 0.27 0.23 0.09 0.02 0.03 0.15 0.25 0.31 0.42 0.94 1.24 1.32 1.41 0.88 0.60 0.95 0.88 0.59 0.56 0.79 0.43 0.29 0.33 0.51 0.60 0.74 0.65 0.64 0.64 0.62 0.63 0.65 0.58 0.60 0.84 0.95 0.97 0.90 0.85 0.65
0.06 0.04 0.01 0.04 0.19 0.66 0.22 0.51 0.60 0.55 0.52 0.27 0.05 0.12 0.23 0.29 0.35 0.33 0.44 1.03 1.55 1.34 1.30 0.96 0.96 0.98 0.82 0.69 0.97 0.88 0.57 0.44 0.47 0.58 0.64 0.55 0.48 0.59 0.71 0.78 0.78 0.79 0.81 0.84 0.82 0.73 0.69 0.64 0.51
0.06 0.12 0.19 0.26 0.45 0.40 0.37 0.50 0.68 0.62 0.40 0.34 0.25 0.35 0.41 0.40 0.49 0.37 0.39 0.75 1.59 1.16 1.25 1.00 1.10 1.12 1.26 1.09 1.26 1.09 0.92 0.79 0.82 0.87 0.86 0.86 0.76 0.62 0.59 0.80 0.79 0.67 0.67 0.70 0.66 0.47 0.39 0.40 0.34
0.12 0.26 0.47 0.38 0.39 0.45 0.30 0.60 1.00 0.88 0.71 0.64 0.47 0.72 1.00 1.07 1.06 0.79 0.62 0.76 1.18 1.39 1.21 1.04 0.98 1.04 1.27 1.50 1.68 1.15 1.41 1.31 1.24 1.02 1.00 0.84 0.78 0.91 0.77 0.61 0.85 0.93 0.71 0.53 0.46 0.34 0.24 0.21 0.20
0.05 0.18 0.40 0.59 0.39 0.33 0.50 0.88 1.17 1.30 1.24 0.73 1.22 1.33 1.37 1.50 1.71 1.27 1.33 1.47 1.06 1.20 1.25 1.16 0.93 0.89 0.81 0.76 0.69 0.80 1.14 1.18 1.15 0.99 0.76 0.70 0.71 0.68 0.72 0.62 0.55 0.53 0.50 0.52 0.47 0.37 0.25 0.18 0.16
0.03 0.14 0.25 0.26 0.30 0.38 0.33 0.50 1.57 1.75 1.32 1.12 1.26 1.28 1.25 1.52 1.55 1.34 1.43 1.20 1.14 1.03 1.03 0.83 0.71 0.69 0.47 0.55 0.44 0.52 0.73 0.63 0.69 0.71 0.79 0.72 0.66 0.68 0.70 0.58 0.38 0.31 0.28 0.30 0.28 0.26 0.28 0.30 0.22
0.10 0.17 0.08 0.06 0.07 0.17 0.16 0.77 1.41 1.41 1.12 0.91 0.89 0.92 0.93 0.96 0.96 1.02 1.10 1.08 0.94 0.99 0.74 0.75 0.65 0.81 0.47 0.75 0.59 0.30 0.51 0.51 0.31 0.34 0.50 0.48 0.51 0.44 0.36 0.50 0.53 0.31 0.27 0.33 0.28 0.25 0.24 0.26 0.27
0.01 0.02 0.01 0.03 0.07 0.03 0.07 0.72 0.96 0.92 0.78 0.59 0.45 0.28 0.17 0.11 0.10 0.18 0.33 0.48 0.53 0.53 0.51 0.59 0.92 0.80 0.51 0.72 0.64 0.37 0.39 0.37 0.20 0.17 0.20 0.20 0.23 0.24 0.18 0.16 0.22 0.31 0.24 0.21 0.26 0.28 0.22 0.17 0.16

GFSSGP_prec_precacc24_123.txt.gz
Total_Precipitation_Accumulation
0.00 0.00 0.00 0.00 0.00 0.00 0.00 0.00 0.00 0.00 0.00 0.00 0.00 0.00 0.00 0.00 0.01 0.07 0.01 0.02 0.00 0.00 0.02 0.01 0.02 0.02 0.02 0.02 0.02 0.02 0.01 0.04 0.03 0.09 0.06 0.01 0.13 0.01 0.01 0.05 0.04 0.06 0.06 0.02 0.02 0.02 0.01 0.02 0.01
0.00 0.00 0.00 0.00 0.00 0.00 0.00 0.00 0.00 0.00 0.00 0.00 0.00 0.00 0.00 0.00 0.00 0.01 0.02 0.00 0.00 0.01 0.03 0.01 0.03 0.03 0.04 0.03 0.01 0.01 0.01 0.03 0.02 0.05 0.04 0.03 0.09 0.01 0.07 0.05 0.04 0.07 0.03 0.01 0.01 0.00 0.01 0.01 0.00
0.00 0.00 0.00 0.00 0.00 0.00 0.00 0.00 0.00 0.00 0.00 0.00 0.00 0.00 0.00 0.00 0.00 0.00 0.01 0.00 0.00 0.01 0.04 0.02 0.02 0.03 0.07 0.05 0.03 0.02 0.01 0.04 0.03 0.07 0.08 0.08 0.13 0.12 0.22 0.10 0.09 0.04 0.00 0.00 0.00 0.00 0.00 0.00 0.00
0.00 0.00 0.00 0.00 0.00 0.00 0.00 0.00 0.00 0.00 0.00 0.00 0.00 0.00 0.00 0.00 0.01 0.01 0.00 0.02 0.02 0.02 0.07 0.05 0.02 0.05 0.09 0.07 0.04 0.02 0.01 0.03 0.05 0.07 0.14 0.12 0.16 0.38 0.50 0.24 0.12 0.01 0.00 0.00 0.00 0.00 0.00 0.00 0.00
0.00 0.00 0.00 0.00 0.00 0.00 0.00 0.00 0.00 0.00 0.00 0.00 0.00 0.00 0.00 0.01 0.03 0.04 0.14 0.16 0.08 0.04 0.04 0.03 0.07 0.09 0.12 0.12 0.09 0.08 0.05 0.05 0.07 0.07 0.10 0.09 0.17 0.55 0.44 0.27 0.10 0.00 0.00 0.00 0.00 0.00 0.00 0.00 0.00
0.00 0.00 0.00 0.00 0.00 0.00 0.00 0.00 0.00 0.00 0.00 0.00 0.00 0.00 0.00 0.03 0.09 0.17 0.28 0.36 0.39 0.25 0.23 0.12 0.08 0.13 0.08 0.12 0.13 0.14 0.11 0.08 0.10 0.13 0.19 0.24 0.21 0.39 0.34 0.21 0.10 0.01 0.00 0.00 0.00 0.00 0.00 0.00 0.00
0.00 0.00 0.00 0.00 0.00 0.00 0.00 0.00 0.00 0.00 0.00 0.00 0.00 0.00 0.00 0.01 0.06 0.16 0.23 0.32 0.51 0.77 0.76 0.67 0.27 0.19 0.10 0.05 0.06 0.13 0.14 0.13 0.15 0.23 0.27 0.18 0.13 0.19 0.24 0.17 0.08 0.02 0.01 0.00 0.00 0.00 0.00 0.00 0.00
0.00 0.00 0.00 0.00 0.00 0.00 0.00 0.00 0.00 0.00 0.00 0.00 0.00 0.00 0.00 0.00 0.05 0.16 0.26 0.33 0.41 0.77 0.98 1.00 0.66 0.36 0.10 0.05 0.06 0.11 0.13 0.12 0.16 0.20 0.16 0.09 0.05 0.08 0.24 0.09 0.05 0.03 0.01 0.01 0.00 0.00 0.00 0.00 0.00
0.00 0.00 0.00 0.00 0.00 0.00 0.00 0.00 0.00 0.00 0.00 0.00 0.00 0.00 0.00 0.01 0.04 0.11 0.10 0.11 0.25 0.46 0.91 1.25 1.17 0.66 0.33 0.11 0.09 0.16 0.18 0.13 0.13 0.14 0.10 0.10 0.03 0.02 0.11 0.05 0.02 0.03 0.02 0.01 0.00 0.00 0.00 0.00 0.00
0.00 0.00 0.00 0.00 0.00 0.00 0.00 0.00 0.00 0.00 0.00 0.00 0.00 0.00 0.00 0.02 0.04 0.05 0.04 0.04 0.05 0.22 0.64 0.95 1.20 0.84 0.38 0.22 0.17 0.10 0.26 0.19 0.06 0.08 0.09 0.07 0.04 0.02 0.05 0.05 0.04 0.04 0.02 0.00 0.00 0.00 0.00 0.00 0.00
0.00 0.00 0.00 0.00 0.00 0.00 0.00 0.00 0.00 0.00 0.00 0.00 0.00 0.00 0.00 0.03 0.08 0.04 0.01 0.03 0.04 0.07 0.29 0.54 0.96 1.11 0.66 0.28 0.15 0.13 0.47 0.36 0.17 0.06 0.07 0.10 0.09 0.08 0.10 0.08 0.02 0.01 0.00 0.00 0.00 0.00 0.00 0.00 0.00
0.00 0.00 0.00 0.00 0.00 0.00 0.00 0.00 0.00 0.00 0.00 0.00 0.00 0.00 0.00 0.00 0.07 0.10 0.03 0.02 0.02 0.07 0.16 0.28 0.45 0.67 0.58 0.32 0.07 0.03 0.19 0.27 0.24 0.15 0.07 0.07 0.05 0.09 0.13 0.09 0.03 0.01 0.00 0.00 0.00 0.00 0.00 0.00 0.00
0.00 0.00 0.00 0.00 0.00 0.00 0.00 0.00 0.00 0.00 0.00 0.00 0.00 0.00 0.00 0.01 0.07 0.10 0.04 0.02 0.01 0.01 0.06 0.15 0.46 1.15 0.49 0.33 0.05 0.00 0.03 0.30 0.22 0.21 0.11 0.14 0.12 0.13 0.09 0.12 0.10 0.06 0.02 0.02 0.00 0.00 0.00 0.00 0.00
0.00 0.00 0.00 0.00 0.00 0.00 0.00 0.00 0.00 0.00 0.00 0.00 0.00 0.00 0.00 0.01 0.02 0.22 0.14 0.05 0.01 0.01 0.02 0.08 0.43 0.96 1.07 0.76 0.25 0.03 0.01 0.11 0.31 0.22 0.16 0.12 0.15 0.22 0.14 0.12 0.07 0.05 0.07 0.02 0.01 0.00 0.00 0.00 0.00
0.00 0.00 0.00 0.00 0.00 0.00 0.00 0.00 0.00 0.00 0.00 0.00 0.01 0.01 0.01 0.01 0.02 0.16 0.43 0.19 0.10 0.07 0.04 0.11 0.79 0.72 0.91 0.95 0.65 0.16 0.02 0.02 0.22 0.30 0.24 0.16 0.09 0.09 0.11 0.11 0.12 0.13 0.15 0.12 0.05 0.01 0.00 0.00 0.00
0.00 0.00 0.00 0.00 0.00 0.00 0.01 0.00 0.00 0.00 0.00 0.00 0.01 0.02 0.01 0.00 0.01 0.06 0.12 0.19 0.24 0.19 0.08 0.11 0.37 0.46 0.41 0.83 0.74 0.48 0.17 0.03 0.04 0.33 0.34 0.24 0.24 0.16 0.10 0.05 0.05 0.11 0.17 0.16 0.07 0.01 0.00 0.00 0.00
0.00 0.00 0.00 0.00 0.00 0.00 0.00 0.00 0.00 0.00 0.00 0.02 0.01 0.04 0.00 0.00 0.01 0.05 0.09 0.07 0.07 0.13 0.11 0.08 0.18 0.17 0.23 0.35 0.75 0.61 0.45 0.19 0.03 0.09 0.34 0.55 0.32 0.36 0.22 0.13 0.08 0.07 0.12 0.11 0.07 0.03 0.01 0.00 0.00
0.01 0.04 0.00 0.03 0.06 0.03 0.00 0.00 0.02 0.05 0.03 0.00 0.03 0.01 0.01 0.00 0.00 0.02 0.09 0.17 0.09 0.10 0.11 0.12 0.09 0.10 0.18 0.22 0.41 0.69 0.61 0.42 0.17 0.07 0.06 0.25 0.66 0.53 0.62 0.45 0.31 0.31 0.37 0.48 0.43 0.17 0.06 0.02 0.01
0.00 0.00 0.00 0.01 0.08 0.02 0.00 0.00 0.01 0.16 0.22 0.05 0.05 0.05 0.02 0.01 0.02 0.06 0.11 0.18 0.21 0.20 0.16 0.10 0.09 0.04 0.12 0.18 0.29 0.38 0.46 0.52 0.37 0.20 0.14 0.09 0.16 0.40 0.46 0.53 0.56 0.52 0.53 0.45 0.43 0.40 0.22 0.10 0.05
0.02 0.03 0.01 0.03 0.11 0.03 0.01 0.01 0.00 0.01 0.10 0.06 0.02 0.00 0.02 0.05 0.06 0.10 0.20 0.22 0.29 0.49 0.28 0.18 0.11 0.10 0.08 0.13 0.36 0.56 0.43 0.31 0.37 0.33 0.23 0.20 0.17 0.15 0.21 0.20 0.19 0.27 0.41 0.39 0.30 0.28 0.24 0.14 0.10
0.02 0.01 0.00 0.09 0.08 0.04 0.04 0.02 0.01 0.01 0.00 0.00 0.00 0.00 0.01 0.09 0.12 0.13 0.24 0.50 0.33 0.63 0.41 0.35 0.24 0.24 0.20 0.13 0.22 0.36 0.60 0.79 0.49 0.31 0.33 0.29 0.22 0.17 0.16 0.15 0.11 0.08 0.12 0.16 0.17 0.20 0.25 0.27 0.19
0.02 0.02 0.04 0.12 0.26 0.31 0.12 0.15 0.03 0.01 0.00 0.00 0.00 0.00 0.04 0.12 0.21 0.26 0.55 0.65 0.55 0.62 0.31 0.35 0.56 0.47 0.35 0.31 0.25 0.25 0.32 0.48 0.66 0.61 0.42 0.47 0.43 0.33 0.31 0.37 0.33 0.30 0.29 0.30 0.37 0.37 0.36 0.32 0.25
0.02 0.02 0.01 0.02 0.13 0.58 0.23 0.33 0.13 0.08 0.01 0.00 0.00 0.02 0.11 0.17 0.19 0.28 0.56 0.77 0.79 0.87 0.52 0.42 0.86 0.83 0.53 0.49 0.66 0.35 0.23 0.25 0.40 0.55 0.75 0.65 0.63 0.62 0.61 0.62 0.62 0.51 0.41 0.36 0.37 0.53 0.66 0.74 0.62
0.01 0.01 0.00 0.02 0.16 0.61 0.17 0.37 0.39 0.30 0.24 0.12 0.05 0.11 0.20 0.25 0.28 0.30 0.34 0.79 1.26 1.00 1.03 0.82 0.93 0.98 0.79 0.67 0.87 0.78 0.35 0.29 0.37 0.52 0.62 0.54 0.45 0.52 0.62 0.69 0.68 0.63 0.51 0.48 0.47 0.50 0.57 0.59 0.50
0.02 0.08 0.15 0.22 0.42 0.33 0.31 0.43 0.50 0.51 0.30 0.29 0.26 0.35 0.40 0.38 0.48 0.36 0.37 0.71 1.52 1.07 1.20 0.92 0.94 1.05 1.19 1.07 1.26 1.06 0.76 0.60 0.51 0.56 0.69 0.79 0.66 0.51 0.50 0.72 0.68 0.51 0.43 0.52 0.55 0.42 0.39 0.42 0.35
0.10 0.22 0.44 0.38 0.37 0.42 0.28 0.53 0.89 0.84 0.68 0.63 0.47 0.71 0.99 1.06 1.05 0.79 0.64 0.84 1.23 1.40 1.21 1.05 0.97 1.07 1.27 1.48 1.68 1.14 1.35 1.17 1.08 0.88 0.90 0.74 0.63 0.76 0.67 0.53 0.78 0.87 0.67 0.50 0.46 0.36 0.27 0.23 0.21
0.04 0.19 0.40 0.60 0.39 0.34 0.48 0.81 1.10 1.27 1.23 0.71 1.18 1.29 1.37 1.52 1.75 1.29 1.39 1.55 1.10 1.21 1.25 1.18 0.96 0.94 0.85 0.80 0.74 0.83 1.17 1.18 1.13 0.99 0.76 0.69 0.70 0.65 0.64 0.51 0.47 0.48 0.47 0.52 0.47 0.43 0.33 0.24 0.19
0.03 0.14 0.26 0.30 0.32 0.39 0.33 0.48 1.53 1.71 1.28 1.09 1.18 1.25 1.25 1.53 1.58 1.37 1.49 1.24 1.17 1.05 1.04 0.86 0.73 0.73 0.51 0.57 0.45 0.53 0.73 0.64 0.69 0.73 0.80 0.72 0.67 0.68 0.69 0.57 0.39 0.32 0.29 0.30 0.28 0.28 0.30 0.32 0.25
0.10 0.18 0.09 0.08 0.08 0.18 0.16 0.75 1.41 1.41 1.11 0.90 0.88 0.91 0.92 0.96 0.97 1.05 1.13 1.10 0.96 1.02 0.78 0.76 0.67 0.83 0.49 0.78 0.61 0.31 0.52 0.58 0.32 0.34 0.51 0.52 0.60 0.57 0.44 0.57 0.69 0.55 0.40 0.39 0.35 0.29 0.28 0.33 0.34
0.02 0.02 0.02 0.05 0.08 0.03 0.07 0.72 0.96 0.92 0.78 0.60 0.46 0.28 0.17 0.11 0.10 0.18 0.33 0.49 0.55 0.56 0.56 0.65 0.97 0.87 0.57 0.78 0.68 0.42 0.49 0.79 0.55 0.38 0.33 0.37 0.44 0.52 0.42 0.29 0.32 0.40 0.38 0.30 0.33 0.39 0.28 0.22 0.22

GFSSGP_prec_precacc24_126.txt.gz
Total_Precipitation_Accumulation
0.00 0.00 0.00 0.00 0.00 0.00 0.00 0.00 0.00 0.00 0.00 0.00 0.00 0.00 0.00 0.00 0.00 0.00 0.01 0.02 0.00 0.00 0.02 0.01 0.02 0.02 0.02 0.02 0.02 0.02 0.01 0.03 0.03 0.10 0.09 0.02 0.11 0.01 0.01 0.03 0.04 0.05 0.04 0.02 0.02 0.02 0.01 0.02 0.01
0.00 0.00 0.00 0.00 0.00 0.00 0.00 0.00 0.00 0.00 0.00 0.00 0.00 0.00 0.00 0.00 0.00 0.00 0.01 0.00 0.00 0.01 0.03 0.01 0.03 0.03 0.04 0.03 0.01 0.01 0.01 0.03 0.02 0.05 0.04 0.03 0.07 0.01 0.07 0.04 0.04 0.06 0.01 0.01 0.01 0.00 0.01 0.01 0.00
0.00 0.00 0.00 0.00 0.00 0.00 0.00 0.00 0.00 0.00 0.00 0.00 0.00 0.00 0.00 0.00 0.00 0.00 0.00 0.00 0.00 0.01 0.06 0.02 0.02 0.04 0.09 0.07 0.04 0.02 0.01 0.04 0.02 0.06 0.08 0.06 0.11 0.12 0.22 0.10 0.09 0.03 0.00 0.00 0.00 0.00 0.00 0.00 0.00
0.00 0.00 0.00 0.00 0.00 0.00 0.00 0.00 0.00 0.00 0.00 0.00 0.00 0.00 0.00 0.00 0.01 0.00 0.00 0.02 0.03 0.04 0.09 0.07 0.03 0.08 0.11 0.09 0.05 0.03 0.02 0.03 0.02 0.04 0.12 0.09 0.14 0.41 0.52 0.24 0.12 0.01 0.00 0.00 0.00 0.00 0.00 0.00 0.00
0.00 0.00 0.00 0.00 0.00 0.00 0.00 0.00 0.00 0.00 0.00 0.00 0.00 0.00 0.00 0.01 0.03 0.04 0.14 0.16 0.08 0.05 0.04 0.09 0.09 0.11 0.12 0.13 0.10 0.09 0.07 0.06 0.04 0.04 0.05 0.06 0.18 0.61 0.50 0.31 0.14 0.01 0.00 0.00 0.00 0.00 0.00 0.00 0.00
0.00 0.00 0.00 0.00 0.00 0.00 0.00 0.00 0.00 0.00 0.00 0.00 0.00 0.00 0.00 0.03 0.09 0.17 0.28 0.35 0.38 0.23 0.21 0.13 0.08 0.13 0.09 0.12 0.13 0.13 0.12 0.09 0.09 0.08 0.10 0.20 0.24 0.44 0.38 0.25 0.18 0.04 0.00 0.00 0.00 0.00 0.00 0.00 0.00
0.00 0.00 0.00 0.00 0.00 0.00 0.00 0.00 0.00 0.00 0.00 0.00 0.00 0.00 0.00 0.01 0.06 0.16 0.22 0.31 0.43 0.57 0.62 0.51 0.25 0.18 0.10 0.05 0.05 0.09 0.12 0.13 0.13 0.12 0.18 0.17 0.14 0.19 0.25 0.20 0.14 0.05 0.00 0.00 0.00 0.00 0.00 0.00 0.00
0.00 0.00 0.00 0.00 0.00 0.00 0.00 0.00 0.00 0.00 0.00 0.00 0.00 0.00 0.00 0.00 0.04 0.15 0.25 0.32 0.32 0.39 0.57 0.65 0.55 0.36 0.10 0.05 0.05 0.06 0.10 0.11 0.14 0.14 0.14 0.09 0.05 0.07 0.23 0.09 0.05 0.04 0.01 0.00 0.00 0.00 0.00 0.00 0.00
0.00 0.00 0.00 0.00 0.00 0.00 0.00 0.00 0.00 0.00 0.00 0.00 0.00 0.00 0.00 0.01 0.04 0.07 0.08 0.10 0.19 0.26 0.37 0.66 0.70 0.53 0.31 0.12 0.08 0.13 0.15 0.11 0.11 0.11 0.10 0.10 0.03 0.02 0.11 0.05 0.01 0.02 0.02 0.00 0.00 0.00 0.00 0.00 0.00
0.00 0.00 0.00 0.00 0.00 0.00 0.00 0.00 0.00 0.00 0.00 0.00 0.00 0.00 0.00 0.01 0.02 0.02 0.03 0.03 0.04 0.08 0.16 0.29 0.53 0.52 0.29 0.27 0.21 0.08 0.22 0.16 0.05 0.06 0.08 0.07 0.04 0.03 0.05 0.05 0.03 0.03 0.02 0.00 0.00 0.00 0.00 0.00 0.00
0.00 0.00 0.00 0.00 0.00 0.00 0.00 0.00 0.00 0.00 0.00 0.00 0.00 0.00 0.00 0.00 0.01 0.01 0.01 0.03 0.03 0.03 0.04 0.11 0.45 0.72 0.49 0.25 0.19 0.14 0.42 0.31 0.11 0.05 0.07 0.10 0.09 0.08 0.11 0.09 0.02 0.01 0.00 0.00 0.00 0.00 0.00 0.00 0.00
0.00 0.00 0.00 0.00 0.00 0.00 0.00 0.00 0.00 0.00 0.00 0.00 0.00 0.00 0.00 0.00 0.01 0.02 0.02 0.02 0.02 0.02 0.02 0.02 0.07 0.33 0.45 0.27 0.07 0.05 0.21 0.26 0.22 0.14 0.07 0.07 0.05 0.09 0.14 0.11 0.04 0.01 0.00 0.00 0.00 0.00 0.00 0.00 0.00
0.00 0.00 0.00 0.00 0.00 0.00 0.00 0.00 0.00 0.00 0.00 0.00 0.00 0.00 0.00 0.00 0.01 0.03 0.02 0.01 0.01 0.00 0.01 0.03 0.07 0.12 0.17 0.16 0.05 0.01 0.08 0.33 0.25 0.23 0.11 0.14 0.12 0.13 0.10 0.13 0.11 0.07 0.03 0.02 0.00 0.00 0.00 0.00 0.00
0.00 0.00 0.00 0.00 0.00 0.00 0.00 0.00 0.00 0.00 0.00 0.00 0.00 0.00 0.00 0.00 0.00 0.00 0.04 0.02 0.01 0.01 0.00 0.00 0.01 0.06 0.10 0.40 0.18 0.01 0.01 0.14 0.33 0.22 0.16 0.12 0.15 0.23 0.15 0.15 0.09 0.06 0.08 0.04 0.02 0.00 0.00 0.00 0.00
0.00 0.00 0.00 0.00 0.00 0.00 0.00 0.00 0.00 0.00 0.00 0.00 0.00 0.00 0.00 0.00 0.00 0.00 0.00 0.01 0.01 0.02 0.01 0.00 0.03 0.07 0.17 0.46 0.43 0.07 0.00 0.03 0.24 0.31 0.24 0.16 0.10 0.09 0.13 0.14 0.15 0.17 0.23 0.19 0.10 0.02 0.00 0.00 0.00
0.00 0.00 0.00 0.00 0.00 0.00 0.00 0.00 0.00 0.00 0.00 0.00 0.00 0.00 0.00 0.00 0.00 0.00 0.00 0.01 0.11 0.13 0.05 0.07 0.10 0.06 0.19 0.60 0.50 0.27 0.07 0.02 0.06 0.36 0.36 0.25 0.25 0.17 0.10 0.07 0.06 0.16 0.24 0.24 0.12 0.03 0.01 0.00 0.00
0.00 0.00 0.00 0.00 0.00 0.00 0.00 0.00 0.00 0.00 0.00 0.00 0.00 0.00 0.00 0.00 0.00 0.01 0.00 0.00 0.04 0.12 0.10 0.06 0.12 0.08 0.09 0.27 0.59 0.48 0.30 0.09 0.02 0.11 0.37 0.55 0.33 0.37 0.23 0.14 0.10 0.16 0.21 0.18 0.14 0.09 0.03 0.00 0.00
0.00 0.02 0.00 0.00 0.00 0.00 0.00 0.00 0.00 0.00 0.01 0.00 0.00 0.00 0.01 0.00 0.00 0.01 0.03 0.02 0.01 0.04 0.08 0.08 0.06 0.06 0.12 0.08 0.35 0.65 0.55 0.34 0.12 0.08 0.08 0.27 0.71 0.56 0.62 0.45 0.31 0.33 0.41 0.53 0.50 0.19 0.09 0.02 0.01
0.00 0.00 0.00 0.00 0.00 0.00 0.00 0.00 0.00 0.00 0.06 0.02 0.01 0.02 0.01 0.01 0.01 0.01 0.03 0.06 0.06 0.05 0.06 0.07 0.06 0.03 0.10 0.09 0.13 0.36 0.46 0.50 0.35 0.20 0.14 0.09 0.16 0.41 0.46 0.56 0.60 0.53 0.53 0.45 0.45 0.42 0.24 0.11 0.06
0.01 0.03 0.01 0.00 0.04 0.01 0.00 0.00 0.00 0.00 0.06 0.04 0.02 0.00 0.00 0.03 0.04 0.04 0.09 0.06 0.04 0.20 0.18 0.15 0.07 0.07 0.05 0.07 0.13 0.26 0.32 0.31 0.35 0.33 0.26 0.25 0.19 0.15 0.21 0.20 0.19 0.27 0.41 0.39 0.30 0.29 0.25 0.14 0.08
0.01 0.01 0.00 0.01 0.02 0.00 0.00 0.00 0.00 0.00 0.00 0.00 0.00 0.00 0.00 0.03 0.08 0.06 0.07 0.11 0.07 0.20 0.32 0.33 0.21 0.18 0.15 0.08 0.13 0.23 0.37 0.50 0.40 0.28 0.32 0.32 0.25 0.19 0.16 0.15 0.11 0.07 0.11 0.15 0.16 0.19 0.22 0.18 0.10
0.01 0.00 0.01 0.02 0.10 0.08 0.10 0.11 0.01 0.00 0.00 0.00 0.00 0.00 0.00 0.06 0.14 0.12 0.08 0.13 0.12 0.26 0.24 0.30 0.51 0.42 0.31 0.24 0.16 0.15 0.20 0.31 0.35 0.40 0.38 0.44 0.38 0.29 0.26 0.36 0.34 0.29 0.27 0.28 0.34 0.31 0.27 0.24 0.14
0.00 0.00 0.00 0.01 0.09 0.21 0.15 0.30 0.04 0.02 0.00 0.00 0.00 0.00 0.03 0.10 0.11 0.12 0.16 0.17 0.13 0.46 0.25 0.29 0.73 0.74 0.47 0.45 0.55 0.25 0.17 0.21 0.30 0.38 0.57 0.62 0.64 0.63 0.61 0.62 0.62 0.51 0.41 0.36 0.36 0.44 0.46 0.48 0.42
0.00 0.00 0.00 0.01 0.11 0.36 0.13 0.26 0.19 0.14 0.14 0.03 0.03 0.05 0.11 0.13 0.14 0.15 0.23 0.37 0.75 0.49 0.47 0.45 0.73 0.90 0.71 0.60 0.76 0.66 0.27 0.25 0.34 0.44 0.49 0.47 0.44 0.52 0.61 0.66 0.66 0.63 0.50 0.45 0.43 0.45 0.46 0.46 0.42
0.01 0.05 0.08 0.17 0.32 0.21 0.16 0.31 0.30 0.29 0.17 0.13 0.22 0.26 0.20 0.19 0.27 0.30 0.32 0.48 1.26 0.75 0.79 0.66 0.76 0.88 0.98 0.94 1.09 0.98 0.69 0.52 0.43 0.47 0.57 0.64 0.57 0.48 0.53 0.73 0.70 0.50 0.41 0.38 0.36 0.30 0.29 0.36 0.35
0.02 0.08 0.31 0.29 0.26 0.25 0.16 0.38 0.58 0.62 0.42 0.50 0.45 0.61 0.87 0.94 0.97 0.78 0.63 0.80 1.22 1.30 1.07 1.01 0.97 1.00 1.14 1.19 1.40 1.00 1.17 0.98 0.89 0.75 0.80 0.68 0.57 0.63 0.55 0.46 0.73 0.81 0.62 0.47 0.43 0.36 0.26 0.24 0.23
0.02 0.18 0.40 0.54 0.36 0.27 0.32 0.53 0.79 0.92 0.90 0.68 1.16 1.26 1.27 1.38 1.71 1.29 1.40 1.57 1.14 1.22 1.26 1.19 1.01 1.00 0.89 0.83 0.75 0.80 1.17 1.18 1.06 0.88 0.68 0.62 0.58 0.52 0.52 0.38 0.34 0.41 0.42 0.49 0.47 0.43 0.34 0.25 0.23
0.03 0.15 0.26 0.29 0.30 0.35 0.27 0.45 1.36 1.45 1.14 1.05 1.16 1.20 1.23 1.51 1.58 1.36 1.50 1.24 1.21 1.08 1.06 0.87 0.74 0.73 0.51 0.58 0.47 0.54 0.73 0.63 0.67 0.74 0.77 0.60 0.58 0.63 0.68 0.54 0.43 0.32 0.24 0.26 0.28 0.26 0.27 0.31 0.26
0.10 0.18 0.09 0.09 0.08 0.19 0.15 0.70 1.37 1.36 1.08 0.88 0.85 0.89 0.91 0.96 0.96 1.04 1.14 1.12 0.97 1.04 0.84 0.81 0.67 0.84 0.50 0.79 0.62 0.32 0.53 0.58 0.33 0.36 0.53 0.52 0.60 0.58 0.45 0.57 0.70 0.55 0.41 0.41 0.43 0.41 0.43 0.41 0.37
0.02 0.02 0.02 0.06 0.10 0.04 0.08 0.69 0.96 0.91 0.78 0.60 0.45 0.28 0.17 0.11 0.10 0.18 0.34 0.51 0.56 0.56 0.61 0.73 1.01 0.88 0.57 0.78 0.69 0.44 0.51 0.81 0.56 0.40 0.34 0.40 0.47 0.56 0.45 0.32 0.39 0.56 0.62 0.60 0.52 0.63 0.56 0.38 0.32

GFSSGP_prec_precacc24_129.txt.gz
Total_Precipitation_Accumulation
0.00 0.00 0.00 0.00 0.00 0.00 0.00 0.00 0.00 0.00 0.00 0.00 0.00 0.00 0.00 0.00 0.00 0.00 0.00 0.00 0.00 0.01 0.03 0.01 0.02 0.02 0.02 0.02 0.03 0.02 0.01 0.03 0.04 0.10 0.10 0.02 0.05 0.00 0.01 0.02 0.03 0.04 0.06 0.03 0.03 0.02 0.01 0.01 0.00
0.00 0.00 0.00 0.00 0.00 0.00 0.00 0.00 0.00 0.00 0.00 0.00 0.00 0.00 0.00 0.00 0.00 0.00 0.00 0.00 0.00 0.01 0.04 0.01 0.03 0.03 0.05 0.03 0.01 0.02 0.01 0.02 0.02 0.04 0.04 0.02 0.05 0.01 0.05 0.03 0.03 0.05 0.02 0.01 0.01 0.00 0.01 0.01 0.00
0.00 0.00 0.00 0.00 0.00 0.00 0.00 0.00 0.00 0.00 0.00 0.00 0.00 0.00 0.00 0.00 0.00 0.00 0.00 0.00 0.00 0.02 0.08 0.02 0.02 0.05 0.10 0.07 0.05 0.03 0.02 0.03 0.02 0.05 0.08 0.03 0.09 0.11 0.21 0.10 0.09 0.03 0.00 0.00 0.00 0.00 0.00 0.00 0.00
0.00 0.00 0.00 0.00 0.00 0.00 0.00 0.00 0.00 0.00 0.00 0.00 0.00 0.00 0.00 0.00 0.01 0.00 0.00 0.02 0.03 0.05 0.13 0.10 0.06 0.13 0.14 0.10 0.06 0.04 0.04 0.04 0.02 0.03 0.11 0.06 0.12 0.40 0.51 0.26 0.12 0.01 0.00 0.00 0.00 0.00 0.00 0.00 0.00
0.00 0.00 0.00 0.00 0.00 0.00 0.00 0.00 0.00 0.00 0.00 0.00 0.00 0.00 0.00 0.01 0.03 0.04 0.14 0.16 0.08 0.05 0.07 0.17 0.16 0.16 0.17 0.17 0.11 0.09 0.08 0.06 0.03 0.02 0.04 0.03 0.17 0.62 0.53 0.32 0.14 0.01 0.00 0.00 0.00 0.00 0.00 0.00 0.00
0.00 0.00 0.00 0.00 0.00 0.00 0.00 0.00 0.00 0.00 0.00 0.00 0.00 0.00 0.00 0.03 0.09 0.17 0.28 0.35 0.38 0.23 0.20 0.11 0.08 0.13 0.13 0.14 0.16 0.13 0.12 0.09 0.07 0.05 0.07 0.17 0.24 0.45 0.39 0.27 0.21 0.05 0.00 0.00 0.00 0.00 0.00 0.00 0.00
0.00 0.00 0.00 0.00 0.00 0.00 0.00 0.00 0.00 0.00 0.00 0.00 0.00 0.00 0.00 0.01 0.06 0.15 0.22 0.29 0.39 0.47 0.49 0.39 0.18 0.10 0.10 0.06 0.05 0.08 0.10 0.13 0.11 0.09 0.12 0.12 0.13 0.19 0.25 0.20 0.17 0.07 0.00 0.00 0.00 0.00 0.00 0.00 0.00
0.00 0.00 0.00 0.00 0.00 0.00 0.00 0.00 0.00 0.00 0.00 0.00 0.00 0.00 0.00 0.00 0.04 0.13 0.19 0.25 0.24 0.27 0.47 0.57 0.45 0.27 0.06 0.05 0.05 0.05 0.06 0.10 0.12 0.10 0.11 0.08 0.05 0.07 0.23 0.09 0.06 0.05 0.01 0.00 0.00 0.00 0.00 0.00 0.00
0.00 0.00 0.00 0.00 0.00 0.00 0.00 0.00 0.00 0.00 0.00 0.00 0.00 0.00 0.00 0.01 0.04 0.06 0.06 0.07 0.13 0.16 0.23 0.47 0.50 0.45 0.24 0.07 0.07 0.12 0.06 0.09 0.09 0.09 0.08 0.09 0.03 0.02 0.11 0.05 0.01 0.02 0.02 0.00 0.00 0.00 0.00 0.00 0.00
0.00 0.00 0.00 0.00 0.00 0.00 0.00 0.00 0.00 0.00 0.00 0.00 0.00 0.00 0.00 0.01 0.02 0.02 0.03 0.03 0.03 0.04 0.07 0.15 0.23 0.31 0.20 0.21 0.15 0.03 0.11 0.10 0.03 0.04 0.07 0.06 0.04 0.03 0.05 0.05 0.03 0.02 0.01 0.00 0.00 0.00 0.00 0.00 0.00
0.00 0.00 0.00 0.00 0.00 0.00 0.00 0.00 0.00 0.00 0.00 0.00 0.00 0.00 0.00 0.00 0.00 0.01 0.01 0.03 0.03 0.03 0.03 0.06 0.10 0.19 0.21 0.18 0.14 0.06 0.23 0.24 0.07 0.03 0.06 0.09 0.08 0.08 0.11 0.09 0.01 0.01 0.00 0.00 0.00 0.00 0.00 0.00 0.00
0.00 0.00 0.00 0.00 0.00 0.00 0.00 0.00 0.00 0.00 0.00 0.00 0.00 0.00 0.00 0.00 0.00 0.01 0.02 0.02 0.02 0.02 0.02 0.02 0.03 0.03 0.08 0.10 0.05 0.04 0.08 0.15 0.17 0.09 0.05 0.06 0.05 0.09 0.14 0.11 0.04 0.01 0.00 0.00 0.00 0.00 0.00 0.00 0.00
0.00 0.00 0.00 0.00 0.00 0.00 0.00 0.00 0.00 0.00 0.00 0.00 0.00 0.00 0.00 0.00 0.00 0.00 0.00 0.01 0.01 0.00 0.01 0.03 0.04 0.04 0.03 0.02 0.02 0.01 0.06 0.10 0.22 0.17 0.10 0.15 0.12 0.14 0.10 0.13 0.11 0.07 0.03 0.02 0.00 0.00 0.00 0.00 0.00
0.00 0.00 0.00 0.00 0.00 0.00 0.00 0.00 0.00 0.00 0.00 0.00 0.00 0.00 0.00 0.00 0.00 0.00 0.00 0.00 0.00 0.00 0.00 0.00 0.01 0.01 0.01 0.01 0.01 0.00 0.01 0.08 0.28 0.24 0.16 0.14 0.20 0.25 0.16 0.15 0.10 0.06 0.08 0.04 0.02 0.00 0.00 0.00 0.00
0.00 0.00 0.00 0.00 0.00 0.00 0.00 0.00 0.00 0.00 0.00 0.00 0.00 0.00 0.00 0.00 0.00 0.00 0.00 0.00 0.00 0.00 0.00 0.00 0.00 0.00 0.00 0.01 0.00 0.01 0.00 0.03 0.25 0.34 0.25 0.18 0.16 0.12 0.14 0.15 0.16 0.18 0.25 0.21 0.11 0.02 0.00 0.00 0.00
0.00 0.00 0.00 0.00 0.00 0.00 0.00 0.00 0.00 0.00 0.00 0.00 0.00 0.00 0.00 0.00 0.00 0.00 0.00 0.00 0.00 0.00 0.00 0.00 0.00 0.00 0.00 0.01 0.00 0.03 0.04 0.02 0.06 0.38 0.39 0.28 0.26 0.17 0.11 0.07 0.07 0.20 0.35 0.34 0.17 0.06 0.04 0.00 0.00
0.00 0.00 0.00 0.00 0.00 0.00 0.00 0.00 0.00 0.00 0.00 0.00 0.00 0.00 0.00 0.00 0.00 0.00 0.00 0.00 0.00 0.00 0.00 0.00 0.00 0.02 0.01 0.04 0.03 0.05 0.11 0.06 0.02 0.12 0.39 0.57 0.38 0.41 0.26 0.15 0.10 0.18 0.28 0.26 0.21 0.18 0.16 0.09 0.02
0.00 0.00 0.00 0.00 0.00 0.00 0.00 0.00 0.00 0.00 0.00 0.00 0.00 0.00 0.00 0.00 0.00 0.00 0.00 0.00 0.00 0.00 0.00 0.00 0.01 0.02 0.09 0.03 0.06 0.10 0.16 0.12 0.06 0.07 0.09 0.30 0.77 0.60 0.64 0.47 0.32 0.33 0.41 0.56 0.59 0.27 0.24 0.13 0.09
0.00 0.00 0.00 0.00 0.00 0.00 0.00 0.00 0.00 0.00 0.00 0.00 0.00 0.00 0.00 0.00 0.00 0.00 0.00 0.00 0.00 0.00 0.00 0.00 0.01 0.02 0.09 0.06 0.05 0.12 0.18 0.16 0.09 0.09 0.11 0.11 0.19 0.47 0.51 0.59 0.66 0.60 0.58 0.49 0.50 0.48 0.36 0.17 0.11
0.00 0.00 0.00 0.00 0.00 0.00 0.00 0.00 0.00 0.00 0.00 0.00 0.00 0.00 0.00 0.00 0.00 0.00 0.01 0.01 0.01 0.04 0.02 0.01 0.00 0.02 0.03 0.04 0.04 0.10 0.20 0.21 0.16 0.13 0.16 0.19 0.15 0.18 0.30 0.27 0.26 0.37 0.47 0.42 0.31 0.36 0.30 0.17 0.13
0.00 0.00 0.00 0.00 0.00 0.00 0.00 0.00 0.00 0.00 0.00 0.00 0.00 0.00 0.00 0.00 0.00 0.02 0.02 0.02 0.03 0.01 0.06 0.08 0.07 0.07 0.07 0.03 0.07 0.12 0.24 0.31 0.25 0.20 0.21 0.27 0.22 0.20 0.21 0.20 0.16 0.12 0.14 0.16 0.15 0.18 0.22 0.18 0.10
0.00 0.00 0.00 0.01 0.04 0.01 0.01 0.08 0.00 0.00 0.00 0.00 0.00 0.00 0.00 0.00 0.01 0.05 0.03 0.06 0.05 0.02 0.04 0.07 0.15 0.15 0.17 0.15 0.12 0.10 0.14 0.23 0.16 0.14 0.16 0.29 0.34 0.30 0.30 0.31 0.28 0.22 0.22 0.17 0.16 0.18 0.20 0.20 0.13
0.00 0.00 0.00 0.00 0.03 0.08 0.02 0.20 0.01 0.01 0.00 0.00 0.00 0.00 0.01 0.02 0.01 0.06 0.10 0.09 0.05 0.10 0.05 0.11 0.32 0.40 0.27 0.31 0.41 0.20 0.16 0.19 0.25 0.29 0.30 0.34 0.46 0.52 0.53 0.56 0.56 0.47 0.35 0.35 0.31 0.30 0.29 0.29 0.31
0.00 0.00 0.00 0.00 0.06 0.15 0.04 0.20 0.08 0.05 0.13 0.03 0.02 0.02 0.03 0.04 0.06 0.11 0.15 0.12 0.11 0.14 0.22 0.22 0.47 0.65 0.51 0.45 0.62 0.59 0.26 0.24 0.32 0.38 0.36 0.29 0.33 0.48 0.62 0.74 0.68 0.63 0.47 0.44 0.41 0.41 0.40 0.35 0.36
0.00 0.03 0.02 0.07 0.18 0.07 0.07 0.22 0.10 0.13 0.13 0.11 0.11 0.11 0.12 0.15 0.23 0.20 0.17 0.22 0.41 0.35 0.46 0.43 0.55 0.63 0.74 0.79 0.94 0.83 0.62 0.48 0.41 0.44 0.49 0.50 0.47 0.42 0.55 0.74 0.73 0.52 0.44 0.40 0.37 0.30 0.25 0.30 0.31
0.00 0.04 0.15 0.13 0.12 0.09 0.04 0.17 0.28 0.40 0.30 0.30 0.18 0.37 0.69 0.79 0.81 0.52 0.43 0.70 0.84 0.86 0.83 0.82 0.82 0.82 0.91 0.98 1.19 0.84 1.05 0.81 0.75 0.65 0.76 0.64 0.56 0.65 0.60 0.49 0.79 0.89 0.69 0.47 0.41 0.35 0.26 0.23 0.22
0.01 0.14 0.27 0.33 0.22 0.20 0.18 0.27 0.47 0.71 0.67 0.42 0.75 1.01 1.03 1.20 1.56 1.11 1.24 1.52 0.99 0.99 1.09 1.11 0.96 0.97 0.88 0.82 0.72 0.64 0.90 0.96 0.89 0.80 0.67 0.61 0.59 0.56 0.49 0.35 0.27 0.31 0.35 0.45 0.44 0.41 0.34 0.26 0.23
0.03 0.14 0.23 0.24 0.25 0.21 0.18 0.29 0.79 0.94 0.89 0.91 1.01 1.06 1.10 1.45 1.54 1.34 1.46 1.24 1.19 1.05 1.05 0.87 0.74 0.73 0.51 0.58 0.47 0.52 0.70 0.61 0.64 0.68 0.69 0.57 0.55 0.63 0.69 0.51 0.42 0.31 0.22 0.24 0.28 0.27 0.26 0.27 0.24
0.10 0.18 0.09 0.09 0.08 0.17 0.13 0.51 0.94 1.03 0.96 0.83 0.82 0.86 0.90 0.90 0.93 1.03 1.13 1.12 0.97 1.04 0.84 0.83 0.68 0.84 0.51 0.80 0.62 0.32 0.53 0.58 0.33 0.36 0.53 0.52 0.60 0.58 0.46 0.58 0.70 0.55 0.41 0.40 0.42 0.41 0.43 0.48 0.45
0.02 0.02 0.02 0.06 0.11 0.04 0.07 0.53 0.82 0.84 0.70 0.58 0.40 0.27 0.17 0.10 0.09 0.18 0.33 0.51 0.56 0.56 0.61 0.74 1.03 0.88 0.57 0.78 0.69 0.44 0.52 0.81 0.57 0.41 0.35 0.41 0.48 0.56 0.45 0.33 0.39 0.56 0.61 0.60 0.55 0.65 0.59 0.47 0.52

GFSSGP_prec_precacc24_132.txt.gz
Total_Precipitation_Accumulation
0.00 0.00 0.00 0.00 0.00 0.00 0.00 0.00 0.00 0.00 0.00 0.00 0.00 0.00 0.00 0.00 0.00 0.00 0.00 0.00 0.00 0.02 0.04 0.03 0.04 0.02 0.03 0.05 0.04 0.04 0.02 0.03 0.04 0.10 0.10 0.02 0.00 0.00 0.01 0.02 0.02 0.06 0.07 0.04 0.03 0.02 0.01 0.01 0.00
0.00 0.00 0.00 0.00 0.00 0.00 0.00 0.00 0.00 0.00 0.00 0.00 0.00 0.00 0.00 0.00 0.00 0.00 0.00 0.00 0.00 0.02 0.05 0.02 0.04 0.04 0.05 0.04 0.03 0.05 0.02 0.02 0.02 0.04 0.05 0.02 0.01 0.00 0.05 0.03 0.02 0.06 0.03 0.01 0.01 0.00 0.01 0.01 0.00
0.00 0.00 0.00 0.00 0.00 0.00 0.00 0.00 0.00 0.00 0.00 0.00 0.00 0.00 0.00 0.00 0.00 0.00 0.00 0.00 0.00 0.02 0.09 0.03 0.05 0.07 0.11 0.08 0.06 0.04 0.03 0.03 0.02 0.05 0.07 0.03 0.05 0.08 0.18 0.09 0.08 0.03 0.01 0.00 0.00 0.00 0.00 0.00 0.00
0.00 0.00 0.00 0.00 0.00 0.00 0.00 0.00 0.00 0.00 0.00 0.00 0.00 0.00 0.00 0.00 0.01 0.00 0.00 0.02 0.03 0.05 0.17 0.13 0.11 0.18 0.16 0.10 0.07 0.06 0.05 0.03 0.01 0.02 0.09 0.05 0.09 0.35 0.47 0.24 0.12 0.01 0.00 0.00 0.00 0.00 0.00 0.00 0.00
0.00 0.00 0.00 0.00 0.00 0.00 0.00 0.00 0.00 0.00 0.00 0.00 0.00 0.00 0.00 0.00 0.02 0.04 0.14 0.16 0.08 0.06 0.08 0.21 0.22 0.20 0.22 0.21 0.12 0.11 0.10 0.07 0.03 0.02 0.02 0.03 0.14 0.54 0.50 0.33 0.14 0.01 0.00 0.00 0.00 0.00 0.00 0.00 0.00
0.00 0.00 0.00 0.00 0.00 0.00 0.00 0.00 0.00 0.00 0.00 0.00 0.00 0.00 0.00 0.00 0.01 0.10 0.26 0.34 0.37 0.23 0.19 0.11 0.07 0.10 0.12 0.16 0.18 0.13 0.12 0.09 0.06 0.04 0.04 0.16 0.21 0.42 0.40 0.29 0.23 0.05 0.00 0.00 0.00 0.00 0.00 0.00 0.00
0.00 0.00 0.00 0.00 0.00 0.00 0.00 0.00 0.00 0.00 0.00 0.00 0.00 0.00 0.00 0.00 0.00 0.05 0.14 0.23 0.34 0.44 0.46 0.34 0.17 0.09 0.06 0.06 0.07 0.12 0.11 0.11 0.10 0.07 0.06 0.11 0.11 0.18 0.25 0.21 0.18 0.09 0.00 0.00 0.00 0.00 0.00 0.00 0.00
0.00 0.00 0.00 0.00 0.00 0.00 0.00 0.00 0.00 0.00 0.00 0.00 0.00 0.00 0.00 0.00 0.00 0.03 0.07 0.13 0.16 0.22 0.38 0.47 0.39 0.26 0.06 0.04 0.04 0.05 0.06 0.08 0.11 0.08 0.04 0.06 0.05 0.07 0.23 0.09 0.06 0.07 0.02 0.00 0.00 0.00 0.00 0.00 0.00
0.00 0.00 0.00 0.00 0.00 0.00 0.00 0.00 0.00 0.00 0.00 0.00 0.00 0.00 0.00 0.00 0.00 0.01 0.02 0.03 0.08 0.13 0.19 0.37 0.41 0.37 0.20 0.06 0.07 0.11 0.04 0.05 0.08 0.06 0.05 0.08 0.03 0.02 0.11 0.05 0.01 0.02 0.02 0.00 0.00 0.00 0.00 0.00 0.00
0.00 0.00 0.00 0.00 0.00 0.00 0.00 0.00 0.00 0.00 0.00 0.00 0.00 0.00 0.00 0.00 0.00 0.00 0.01 0.02 0.03 0.04 0.07 0.10 0.17 0.27 0.16 0.20 0.15 0.02 0.07 0.02 0.02 0.03 0.06 0.06 0.04 0.03 0.05 0.05 0.03 0.02 0.02 0.01 0.00 0.00 0.00 0.00 0.00
0.00 0.00 0.00 0.00 0.00 0.00 0.00 0.00 0.00 0.00 0.00 0.00 0.00 0.00 0.00 0.00 0.00 0.00 0.00 0.00 0.02 0.03 0.03 0.05 0.07 0.10 0.12 0.15 0.13 0.06 0.21 0.16 0.02 0.02 0.05 0.08 0.08 0.07 0.11 0.09 0.01 0.01 0.00 0.00 0.00 0.00 0.00 0.00 0.00
0.00 0.00 0.00 0.00 0.00 0.00 0.00 0.00 0.00 0.00 0.00 0.00 0.00 0.00 0.00 0.00 0.00 0.00 0.00 0.00 0.00 0.01 0.02 0.02 0.02 0.02 0.03 0.04 0.03 0.04 0.07 0.08 0.07 0.07 0.04 0.04 0.04 0.08 0.14 0.11 0.04 0.01 0.00 0.00 0.00 0.00 0.00 0.00 0.00
0.00 0.00 0.00 0.00 0.00 0.00 0.00 0.00 0.00 0.00 0.00 0.00 0.00 0.00 0.00 0.00 0.00 0.00 0.00 0.00 0.00 0.00 0.01 0.03 0.04 0.04 0.03 0.01 0.00 0.01 0.06 0.06 0.09 0.11 0.09 0.14 0.12 0.12 0.10 0.13 0.11 0.07 0.03 0.02 0.00 0.00 0.00 0.00 0.00
0.00 0.00 0.00 0.00 0.00 0.00 0.00 0.00 0.00 0.00 0.00 0.00 0.00 0.00 0.00 0.00 0.00 0.00 0.00 0.00 0.00 0.00 0.00 0.00 0.01 0.01 0.01 0.01 0.00 0.00 0.00 0.04 0.07 0.12 0.13 0.15 0.29 0.33 0.16 0.15 0.10 0.06 0.09 0.04 0.02 0.00 0.00 0.00 0.00
0.00 0.00 0.00 0.00 0.00 0.00 0.00 0.00 0.00 0.00 0.00 0.00 0.00 0.00 0.00 0.00 0.00 0.00 0.00 0.00 0.00 0.00 0.00 0.00 0.00 0.00 0.00 0.00 0.00 0.00 0.00 0.02 0.04 0.08 0.16 0.16 0.19 0.17 0.16 0.15 0.16 0.18 0.26 0.25 0.14 0.04 0.01 0.00 0.00
0.00 0.00 0.00 0.00 0.00 0.00 0.00 0.00 0.00 0.00 0.00 0.00 0.00 0.00 0.00 0.00 0.00 0.00 0.00 0.00 0.00 0.00 0.00 0.00 0.00 0.00 0.00 0.00 0.00 0.00 0.01 0.02 0.02 0.06 0.14 0.21 0.29 0.23 0.14 0.08 0.07 0.21 0.37 0.40 0.25 0.11 0.06 0.00 0.00
0.00 0.00 0.00 0.00 0.00 0.00 0.00 0.00 0.00 0.00 0.00 0.00 0.00 0.00 0.00 0.00 0.00 0.00 0.00 0.00 0.00 0.00 0.00 0.00 0.00 0.00 0.00 0.00 0.00 0.01 0.01 0.02 0.01 0.04 0.17 0.40 0.35 0.45 0.34 0.20 0.13 0.21 0.32 0.29 0.24 0.25 0.20 0.12 0.08
0.00 0.00 0.00 0.00 0.00 0.00 0.00 0.00 0.00 0.00 0.00 0.00 0.00 0.00 0.00 0.00 0.00 0.00 0.00 0.00 0.00 0.00 0.00 0.00 0.00 0.00 0.00 0.00 0.00 0.01 0.02 0.01 0.02 0.05 0.08 0.27 0.77 0.61 0.69 0.51 0.36 0.39 0.46 0.58 0.59 0.27 0.29 0.27 0.28
0.00 0.00 0.00 0.00 0.00 0.00 0.00 0.00 0.00 0.00 0.00 0.00 0.00 0.00 0.00 0.00 0.00 0.00 0.00 0.00 0.00 0.00 0.00 0.00 0.00 0.00 0.00 0.00 0.00 0.03 0.03 0.01 0.02 0.04 0.08 0.10 0.19 0.47 0.55 0.64 0.71 0.64 0.60 0.51 0.55 0.57 0.43 0.24 0.26
0.00 0.00 0.00 0.00 0.00 0.00 0.00 0.00 0.00 0.00 0.00 0.00 0.00 0.00 0.00 0.00 0.00 0.00 0.00 0.00 0.00 0.00 0.00 0.00 0.00 0.00 0.00 0.00 0.00 0.01 0.05 0.02 0.02 0.03 0.09 0.15 0.15 0.18 0.32 0.30 0.31 0.43 0.55 0.53 0.43 0.42 0.38 0.24 0.19
0.00 0.00 0.00 0.00 0.00 0.00 0.00 0.00 0.00 0.00 0.00 0.00 0.00 0.00 0.00 0.00 0.00 0.00 0.00 0.00 0.00 0.00 0.00 0.00 0.00 0.00 0.00 0.00 0.00 0.01 0.06 0.08 0.07 0.07 0.09 0.12 0.18 0.20 0.22 0.26 0.25 0.19 0.21 0.25 0.24 0.27 0.33 0.23 0.16
0.00 0.00 0.00 0.00 0.02 0.01 0.01 0.05 0.00 0.00 0.00 0.00 0.00 0.00 0.00 0.00 0.00 0.00 0.00 0.02 0.02 0.00 0.00 0.00 0.00 0.00 0.00 0.00 0.01 0.01 0.04 0.08 0.05 0.06 0.10 0.12 0.17 0.26 0.30 0.35 0.37 0.33 0.31 0.18 0.12 0.10 0.19 0.19 0.12
0.00 0.00 0.00 0.00 0.02 0.05 0.01 0.12 0.00 0.00 0.00 0.00 0.00 0.00 0.00 0.01 0.00 0.01 0.04 0.06 0.04 0.05 0.03 0.01 0.02 0.01 0.01 0.01 0.01 0.02 0.07 0.08 0.14 0.16 0.18 0.23 0.24 0.26 0.38 0.41 0.43 0.37 0.30 0.36 0.33 0.26 0.24 0.22 0.19
0.00 0.00 0.00 0.00 0.03 0.08 0.01 0.14 0.03 0.02 0.11 0.03 0.02 0.02 0.02 0.01 0.01 0.02 0.05 0.06 0.05 0.09 0.16 0.14 0.12 0.08 0.09 0.07 0.10 0.22 0.08 0.14 0.16 0.20 0.18 0.17 0.24 0.31 0.37 0.52 0.55 0.53 0.43 0.46 0.55 0.51 0.45 0.36 0.30
0.00 0.02 0.01 0.01 0.06 0.02 0.04 0.18 0.06 0.12 0.13 0.11 0.11 0.08 0.04 0.06 0.11 0.10 0.11 0.18 0.13 0.15 0.24 0.19 0.16 0.21 0.38 0.37 0.37 0.49 0.37 0.26 0.26 0.31 0.30 0.21 0.22 0.25 0.40 0.63 0.68 0.53 0.50 0.50 0.49 0.42 0.36 0.34 0.34
0.00 0.02 0.08 0.05 0.02 0.02 0.02 0.10 0.12 0.21 0.19 0.16 0.10 0.09 0.32 0.66 0.72 0.38 0.29 0.39 0.26 0.29 0.31 0.33 0.42 0.49 0.64 0.63 0.91 0.57 0.93 0.70 0.64 0.58 0.68 0.55 0.39 0.44 0.44 0.42 0.80 0.95 0.76 0.55 0.49 0.39 0.27 0.23 0.19
0.01 0.06 0.12 0.16 0.06 0.14 0.10 0.15 0.22 0.33 0.22 0.10 0.30 0.52 0.71 1.02 1.31 0.80 0.89 1.01 0.53 0.60 0.77 0.82 0.74 0.78 0.70 0.69 0.62 0.50 0.74 0.80 0.78 0.72 0.63 0.57 0.58 0.52 0.43 0.32 0.26 0.31 0.34 0.47 0.50 0.46 0.37 0.27 0.22
0.03 0.09 0.16 0.17 0.14 0.15 0.15 0.18 0.43 0.52 0.49 0.52 0.71 0.84 0.87 1.22 1.31 1.11 1.25 1.03 0.87 0.73 0.88 0.78 0.68 0.71 0.50 0.57 0.45 0.43 0.58 0.47 0.49 0.57 0.64 0.51 0.49 0.61 0.68 0.52 0.42 0.31 0.21 0.22 0.28 0.28 0.29 0.30 0.26
0.09 0.13 0.08 0.08 0.07 0.13 0.09 0.26 0.54 0.63 0.69 0.71 0.72 0.71 0.71 0.73 0.79 0.94 1.09 1.09 0.93 1.01 0.82 0.82 0.68 0.84 0.51 0.80 0.62 0.32 0.53 0.58 0.33 0.35 0.51 0.50 0.56 0.56 0.44 0.58 0.73 0.59 0.44 0.41 0.43 0.41 0.43 0.47 0.45
0.01 0.02 0.02 0.06 0.10 0.04 0.05 0.30 0.48 0.57 0.54 0.50 0.37 0.22 0.13 0.06 0.07 0.16 0.33 0.51 0.56 0.56 0.61 0.74 1.03 0.88 0.57 0.78 0.69 0.44 0.52 0.81 0.58 0.42 0.36 0.41 0.48 0.57 0.45 0.32 0.37 0.55 0.61 0.58 0.52 0.62 0.56 0.43 0.47

GFSSGP_prec_precacc24_135.txt.gz
Total_Precipitation_Accumulation
0.00 0.00 0.00 0.00 0.00 0.00 0.00 0.00 0.00 0.00 0.00 0.00 0.00 0.00 0.00 0.00 0.00 0.00 0.00 0.00 0.00 0.02 0.05 0.04 0.06 0.05 0.06 0.09 0.07 0.06 0.02 0.03 0.04 0.10 0.10 0.02 0.00 0.00 0.01 0.01 0.02 0.06 0.10 0.04 0.02 0.02 0.01 0.01 0.00
0.00 0.00 0.00 0.00 0.00 0.00 0.00 0.00 0.00 0.00 0.00 0.00 0.00 0.00 0.00 0.00 0.00 0.00 0.00 0.00 0.00 0.02 0.05 0.02 0.08 0.06 0.07 0.06 0.06 0.08 0.04 0.02 0.01 0.03 0.04 0.01 0.00 0.00 0.04 0.02 0.03 0.08 0.04 0.01 0.01 0.00 0.01 0.00 0.00
0.00 0.00 0.00 0.00 0.00 0.00 0.00 0.00 0.00 0.00 0.00 0.00 0.00 0.00 0.00 0.00 0.00 0.00 0.00 0.00 0.00 0.03 0.09 0.04 0.08 0.09 0.14 0.10 0.08 0.06 0.04 0.03 0.02 0.04 0.07 0.02 0.01 0.07 0.17 0.08 0.08 0.04 0.01 0.00 0.00 0.00 0.00 0.00 0.00
0.00 0.00 0.00 0.00 0.00 0.00 0.00 0.00 0.00 0.00 0.00 0.00 0.00 0.00 0.00 0.00 0.00 0.00 0.00 0.02 0.03 0.06 0.17 0.16 0.16 0.20 0.19 0.12 0.07 0.06 0.05 0.03 0.01 0.02 0.07 0.03 0.04 0.30 0.45 0.24 0.12 0.01 0.00 0.00 0.00 0.00 0.00 0.00 0.00
0.00 0.00 0.00 0.00 0.00 0.00 0.00 0.00 0.00 0.00 0.00 0.00 0.00 0.00 0.00 0.00 0.00 0.01 0.07 0.10 0.07 0.07 0.09 0.27 0.29 0.28 0.26 0.22 0.13 0.11 0.10 0.07 0.03 0.01 0.02 0.02 0.10 0.45 0.48 0.33 0.14 0.01 0.00 0.00 0.00 0.00 0.00 0.00 0.00
0.00 0.00 0.00 0.00 0.00 0.00 0.00 0.00 0.00 0.00 0.00 0.00 0.00 0.00 0.00 0.00 0.00 0.02 0.14 0.17 0.21 0.18 0.21 0.13 0.08 0.11 0.16 0.21 0.23 0.16 0.13 0.09 0.07 0.05 0.04 0.15 0.18 0.33 0.42 0.31 0.25 0.06 0.00 0.00 0.00 0.00 0.00 0.00 0.00
0.00 0.00 0.00 0.00 0.00 0.00 0.00 0.00 0.00 0.00 0.00 0.00 0.00 0.00 0.00 0.00 0.00 0.00 0.03 0.09 0.15 0.22 0.40 0.33 0.21 0.16 0.12 0.07 0.08 0.15 0.15 0.12 0.10 0.06 0.05 0.09 0.10 0.11 0.25 0.23 0.20 0.12 0.01 0.00 0.00 0.00 0.00 0.00 0.00
0.00 0.00 0.00 0.00 0.00 0.00 0.00 0.00 0.00 0.00 0.00 0.00 0.00 0.00 0.00 0.00 0.00 0.00 0.00 0.01 0.04 0.10 0.22 0.36 0.38 0.30 0.10 0.06 0.04 0.04 0.05 0.08 0.09 0.05 0.04 0.04 0.04 0.03 0.18 0.09 0.06 0.10 0.04 0.00 0.00 0.00 0.00 0.00 0.00
0.00 0.00 0.00 0.00 0.00 0.00 0.00 0.00 0.00 0.00 0.00 0.00 0.00 0.00 0.00 0.00 0.00 0.00 0.00 0.00 0.00 0.03 0.08 0.25 0.33 0.35 0.21 0.07 0.07 0.11 0.03 0.04 0.06 0.03 0.04 0.03 0.02 0.02 0.10 0.05 0.01 0.03 0.03 0.00 0.00 0.00 0.00 0.00 0.00
0.00 0.00 0.00 0.00 0.00 0.00 0.00 0.00 0.00 0.00 0.00 0.00 0.00 0.00 0.00 0.00 0.00 0.00 0.00 0.00 0.00 0.00 0.03 0.06 0.13 0.26 0.15 0.19 0.14 0.02 0.07 0.02 0.00 0.02 0.04 0.03 0.03 0.03 0.05 0.05 0.03 0.02 0.01 0.01 0.01 0.00 0.00 0.00 0.00
0.00 0.00 0.00 0.00 0.00 0.00 0.00 0.00 0.00 0.00 0.00 0.00 0.00 0.00 0.00 0.00 0.00 0.00 0.00 0.00 0.00 0.00 0.00 0.00 0.03 0.08 0.12 0.14 0.13 0.06 0.21 0.16 0.02 0.01 0.03 0.06 0.07 0.07 0.11 0.09 0.01 0.01 0.00 0.00 0.01 0.00 0.00 0.00 0.00
0.00 0.00 0.00 0.00 0.00 0.00 0.00 0.00 0.00 0.00 0.00 0.00 0.00 0.00 0.00 0.00 0.00 0.00 0.00 0.00 0.00 0.00 0.00 0.00 0.00 0.02 0.02 0.04 0.03 0.04 0.07 0.08 0.06 0.05 0.02 0.03 0.04 0.08 0.14 0.11 0.04 0.01 0.00 0.00 0.00 0.00 0.00 0.00 0.00
0.00 0.00 0.00 0.00 0.00 0.00 0.00 0.00 0.00 0.00 0.00 0.00 0.00 0.00 0.00 0.00 0.00 0.00 0.00 0.00 0.00 0.00 0.00 0.00 0.00 0.00 0.01 0.01 0.00 0.01 0.06 0.06 0.09 0.07 0.06 0.13 0.12 0.12 0.09 0.13 0.11 0.07 0.03 0.02 0.00 0.00 0.00 0.00 0.00
0.00 0.00 0.00 0.00 0.00 0.00 0.00 0.00 0.00 0.00 0.00 0.00 0.00 0.00 0.00 0.00 0.00 0.00 0.00 0.00 0.00 0.00 0.00 0.00 0.00 0.00 0.00 0.00 0.00 0.00 0.00 0.04 0.07 0.04 0.06 0.15 0.29 0.33 0.16 0.15 0.10 0.06 0.09 0.04 0.02 0.00 0.00 0.00 0.00
0.00 0.00 0.00 0.00 0.00 0.00 0.00 0.00 0.00 0.00 0.00 0.00 0.00 0.00 0.00 0.00 0.00 0.00 0.00 0.00 0.00 0.00 0.00 0.00 0.00 0.00 0.00 0.00 0.00 0.00 0.00 0.02 0.04 0.04 0.01 0.04 0.15 0.17 0.21 0.17 0.16 0.19 0.31 0.31 0.18 0.08 0.06 0.02 0.01
0.00 0.00 0.00 0.00 0.00 0.00 0.00 0.00 0.00 0.00 0.00 0.00 0.00 0.00 0.00 0.00 0.00 0.00 0.00 0.00 0.00 0.00 0.00 0.00 0.00 0.00 0.00 0.00 0.00 0.00 0.01 0.02 0.02 0.05 0.05 0.05 0.08 0.15 0.15 0.11 0.07 0.22 0.46 0.54 0.36 0.19 0.12 0.02 0.00
0.00 0.00 0.00 0.00 0.00 0.00 0.00 0.00 0.00 0.00 0.00 0.00 0.00 0.00 0.00 0.00 0.00 0.00 0.00 0.00 0.00 0.00 0.00 0.00 0.00 0.00 0.00 0.00 0.00 0.01 0.01 0.02 0.01 0.04 0.05 0.02 0.07 0.19 0.29 0.21 0.16 0.26 0.43 0.42 0.35 0.30 0.23 0.13 0.08
0.00 0.00 0.00 0.00 0.00 0.00 0.00 0.00 0.00 0.00 0.00 0.00 0.00 0.00 0.00 0.00 0.00 0.00 0.00 0.00 0.00 0.00 0.00 0.00 0.00 0.00 0.00 0.00 0.00 0.01 0.02 0.01 0.01 0.04 0.04 0.05 0.11 0.14 0.42 0.48 0.40 0.46 0.54 0.66 0.65 0.30 0.31 0.28 0.32
0.00 0.00 0.00 0.00 0.00 0.00 0.00 0.00 0.00 0.00 0.00 0.00 0.00 0.00 0.00 0.00 0.00 0.00 0.00 0.00 0.00 0.00 0.00 0.00 0.00 0.00 0.00 0.00 0.00 0.00 0.01 0.01 0.01 0.02 0.05 0.05 0.05 0.11 0.27 0.58 0.72 0.70 0.65 0.56 0.64 0.68 0.54 0.29 0.30
0.00 0.00 0.00 0.00 0.00 0.00 0.00 0.00 0.00 0.00 0.00 0.00 0.00 0.00 0.00 0.00 0.00 0.00 0.00 0.00 0.00 0.00 0.00 0.00 0.00 0.00 0.00 0.00 0.00 0.00 0.00 0.01 0.02 0.02 0.05 0.11 0.08 0.09 0.16 0.22 0.32 0.50 0.62 0.58 0.48 0.50 0.48 0.34 0.32
0.00 0.00 0.00 0.00 0.00 0.00 0.00 0.00 0.00 0.00 0.00 0.00 0.00 0.00 0.00 0.00 0.00 0.00 0.00 0.00 0.00 0.00 0.00 0.00 0.00 0.00 0.00 0.00 0.00 0.00 0.01 0.02 0.03 0.04 0.05 0.08 0.10 0.10 0.14 0.19 0.20 0.22 0.28 0.31 0.31 0.35 0.42 0.33 0.29
0.00 0.00 0.00 0.00 0.01 0.00 0.01 0.04 0.00 0.00 0.00 0.00 0.00 0.00 0.00 0.00 0.00 0.00 0.00 0.00 0.00 0.00 0.00 0.00 0.00 0.00 0.00 0.00 0.00 0.00 0.00 0.01 0.01 0.04 0.07 0.09 0.12 0.15 0.19 0.27 0.34 0.34 0.35 0.23 0.21 0.21 0.30 0.31 0.24
0.00 0.00 0.00 0.00 0.02 0.04 0.01 0.08 0.00 0.00 0.00 0.00 0.00 0.00 0.00 0.01 0.00 0.00 0.00 0.00 0.01 0.01 0.00 0.00 0.00 0.00 0.00 0.01 0.00 0.00 0.00 0.00 0.02 0.06 0.10 0.18 0.16 0.17 0.27 0.36 0.40 0.35 0.30 0.34 0.34 0.29 0.28 0.30 0.30
0.00 0.00 0.00 0.00 0.02 0.05 0.00 0.07 0.02 0.02 0.11 0.03 0.02 0.02 0.02 0.01 0.00 0.00 0.00 0.01 0.01 0.02 0.05 0.08 0.08 0.02 0.01 0.01 0.00 0.00 0.01 0.01 0.01 0.03 0.08 0.12 0.19 0.25 0.25 0.30 0.31 0.31 0.27 0.29 0.47 0.53 0.49 0.47 0.44
0.00 0.01 0.01 0.01 0.02 0.01 0.02 0.12 0.04 0.10 0.13 0.11 0.11 0.08 0.03 0.02 0.01 0.01 0.01 0.04 0.07 0.08 0.10 0.13 0.16 0.15 0.14 0.12 0.08 0.06 0.03 0.04 0.02 0.07 0.10 0.10 0.15 0.18 0.35 0.54 0.51 0.32 0.32 0.35 0.40 0.44 0.44 0.43 0.46
0.00 0.01 0.04 0.02 0.01 0.01 0.01 0.05 0.05 0.14 0.16 0.14 0.09 0.06 0.05 0.18 0.21 0.12 0.14 0.18 0.16 0.13 0.15 0.18 0.27 0.29 0.30 0.23 0.29 0.16 0.13 0.15 0.22 0.26 0.41 0.35 0.25 0.31 0.31 0.31 0.65 0.80 0.66 0.48 0.44 0.38 0.30 0.30 0.24
0.01 0.04 0.06 0.10 0.03 0.07 0.05 0.05 0.03 0.06 0.06 0.04 0.11 0.09 0.23 0.75 0.83 0.46 0.49 0.34 0.17 0.14 0.28 0.31 0.26 0.40 0.46 0.54 0.44 0.29 0.41 0.41 0.43 0.45 0.41 0.42 0.47 0.43 0.34 0.25 0.18 0.24 0.29 0.44 0.49 0.47 0.40 0.30 0.22
0.02 0.04 0.10 0.13 0.10 0.09 0.09 0.07 0.14 0.15 0.17 0.22 0.30 0.41 0.57 0.92 0.92 0.81 0.90 0.64 0.56 0.46 0.55 0.50 0.45 0.54 0.41 0.51 0.34 0.29 0.41 0.31 0.35 0.45 0.56 0.43 0.39 0.51 0.61 0.48 0.39 0.28 0.20 0.21 0.26 0.26 0.31 0.31 0.28
0.05 0.08 0.06 0.07 0.07 0.11 0.05 0.08 0.23 0.27 0.36 0.42 0.39 0.38 0.39 0.46 0.56 0.72 0.85 0.88 0.76 0.83 0.68 0.73 0.65 0.83 0.49 0.78 0.59 0.28 0.50 0.55 0.29 0.31 0.47 0.47 0.52 0.53 0.41 0.57 0.72 0.58 0.44 0.41 0.42 0.40 0.42 0.47 0.44
0.01 0.01 0.02 0.06 0.10 0.04 0.03 0.14 0.18 0.24 0.31 0.34 0.21 0.11 0.05 0.03 0.06 0.15 0.32 0.50 0.56 0.55 0.60 0.74 1.03 0.88 0.56 0.78 0.69 0.44 0.52 0.81 0.58 0.42 0.36 0.41 0.48 0.57 0.45 0.33 0.38 0.55 0.60 0.57 0.51 0.61 0.55 0.43 0.47

GFSSGP_prec_precacc24_138.txt.gz
Total_Precipitation_Accumulation
0.00 0.00 0.00 0.00 0.00 0.00 0.00 0.00 0.00 0.00 0.00 0.00 0.00 0.00 0.00 0.00 0.00 0.00 0.00 0.00 0.00 0.03 0.05 0.05 0.08 0.09 0.11 0.13 0.09 0.07 0.03 0.03 0.04 0.10 0.09 0.02 0.00 0.00 0.01 0.00 0.01 0.08 0.10 0.03 0.02 0.02 0.01 0.01 0.00
0.00 0.00 0.00 0.00 0.00 0.00 0.00 0.00 0.00 0.00 0.00 0.00 0.00 0.00 0.00 0.00 0.00 0.00 0.00 0.00 0.00 0.02 0.06 0.03 0.09 0.09 0.09 0.08 0.09 0.11 0.06 0.02 0.01 0.03 0.03 0.01 0.00 0.00 0.02 0.00 0.03 0.11 0.05 0.01 0.01 0.00 0.00 0.00 0.00
0.00 0.00 0.00 0.00 0.00 0.00 0.00 0.00 0.00 0.00 0.00 0.00 0.00 0.00 0.00 0.00 0.00 0.00 0.00 0.00 0.00 0.03 0.11 0.04 0.10 0.11 0.16 0.12 0.11 0.08 0.08 0.07 0.01 0.03 0.05 0.01 0.00 0.06 0.11 0.06 0.07 0.07 0.02 0.00 0.00 0.00 0.00 0.00 0.00
0.00 0.00 0.00 0.00 0.00 0.00 0.00 0.00 0.00 0.00 0.00 0.00 0.00 0.00 0.00 0.00 0.00 0.00 0.00 0.00 0.02 0.07 0.19 0.20 0.19 0.24 0.21 0.14 0.09 0.09 0.06 0.05 0.01 0.01 0.04 0.01 0.01 0.27 0.38 0.21 0.12 0.02 0.00 0.00 0.00 0.00 0.00 0.00 0.00
0.00 0.00 0.00 0.00 0.00 0.00 0.00 0.00 0.00 0.00 0.00 0.00 0.00 0.00 0.00 0.00 0.00 0.00 0.00 0.01 0.04 0.07 0.10 0.28 0.30 0.31 0.31 0.25 0.17 0.15 0.13 0.09 0.03 0.01 0.01 0.01 0.08 0.35 0.44 0.32 0.14 0.01 0.00 0.00 0.00 0.00 0.00 0.00 0.00
0.00 0.00 0.00 0.00 0.00 0.00 0.00 0.00 0.00 0.00 0.00 0.00 0.00 0.00 0.00 0.00 0.00 0.00 0.00 0.01 0.09 0.15 0.19 0.13 0.07 0.12 0.20 0.25 0.26 0.19 0.16 0.13 0.12 0.08 0.04 0.11 0.16 0.24 0.39 0.33 0.26 0.06 0.00 0.00 0.00 0.00 0.00 0.00 0.00
0.00 0.00 0.00 0.00 0.00 0.00 0.00 0.00 0.00 0.00 0.00 0.00 0.00 0.00 0.00 0.00 0.00 0.00 0.00 0.00 0.01 0.10 0.18 0.21 0.18 0.14 0.11 0.12 0.14 0.19 0.17 0.15 0.14 0.10 0.07 0.06 0.07 0.07 0.23 0.24 0.21 0.13 0.01 0.00 0.00 0.00 0.00 0.00 0.00
0.00 0.00 0.00 0.00 0.00 0.00 0.00 0.00 0.00 0.00 0.00 0.00 0.00 0.00 0.00 0.00 0.00 0.00 0.00 0.00 0.00 0.01 0.06 0.12 0.22 0.26 0.09 0.07 0.10 0.10 0.09 0.10 0.11 0.06 0.04 0.03 0.03 0.02 0.13 0.09 0.06 0.10 0.08 0.02 0.00 0.00 0.00 0.00 0.00
0.00 0.00 0.00 0.00 0.00 0.00 0.00 0.00 0.00 0.00 0.00 0.00 0.00 0.00 0.00 0.00 0.00 0.00 0.00 0.00 0.00 0.00 0.01 0.10 0.19 0.17 0.14 0.06 0.08 0.13 0.07 0.09 0.09 0.05 0.05 0.03 0.02 0.01 0.07 0.04 0.01 0.03 0.03 0.01 0.01 0.00 0.00 0.00 0.00
0.00 0.00 0.00 0.00 0.00 0.00 0.00 0.00 0.00 0.00 0.00 0.00 0.00 0.00 0.00 0.00 0.00 0.00 0.00 0.00 0.00 0.00 0.00 0.00 0.04 0.17 0.13 0.18 0.13 0.02 0.07 0.02 0.00 0.01 0.03 0.02 0.01 0.02 0.05 0.05 0.03 0.02 0.01 0.01 0.01 0.00 0.00 0.00 0.00
0.00 0.00 0.00 0.00 0.00 0.00 0.00 0.00 0.00 0.00 0.00 0.00 0.00 0.00 0.00 0.00 0.00 0.00 0.00 0.00 0.00 0.00 0.00 0.00 0.00 0.01 0.02 0.09 0.12 0.05 0.18 0.15 0.03 0.03 0.03 0.04 0.04 0.06 0.11 0.09 0.01 0.01 0.00 0.00 0.01 0.00 0.00 0.00 0.00
0.00 0.00 0.00 0.00 0.00 0.00 0.00 0.00 0.00 0.00 0.00 0.00 0.00 0.00 0.00 0.00 0.00 0.00 0.00 0.00 0.00 0.00 0.00 0.00 0.00 0.00 0.00 0.00 0.01 0.04 0.07 0.06 0.06 0.05 0.03 0.04 0.03 0.07 0.14 0.11 0.04 0.01 0.00 0.00 0.00 0.00 0.00 0.00 0.00
0.00 0.00 0.00 0.00 0.00 0.00 0.00 0.00 0.00 0.00 0.00 0.00 0.00 0.00 0.00 0.00 0.00 0.00 0.00 0.00 0.00 0.00 0.00 0.00 0.00 0.00 0.00 0.00 0.00 0.01 0.06 0.06 0.09 0.07 0.06 0.13 0.11 0.12 0.10 0.13 0.11 0.07 0.03 0.02 0.00 0.00 0.00 0.00 0.00
0.00 0.00 0.00 0.00 0.00 0.00 0.00 0.00 0.00 0.00 0.00 0.00 0.00 0.00 0.00 0.00 0.00 0.00 0.00 0.00 0.00 0.00 0.00 0.00 0.00 0.00 0.00 0.00 0.00 0.00 0.00 0.04 0.07 0.04 0.05 0.13 0.26 0.33 0.17 0.16 0.10 0.06 0.08 0.05 0.03 0.02 0.01 0.00 0.00
0.00 0.00 0.00 0.00 0.00 0.00 0.00 0.00 0.00 0.00 0.00 0.00 0.00 0.00 0.00 0.00 0.00 0.00 0.00 0.00 0.00 0.00 0.00 0.00 0.00 0.00 0.00 0.00 0.00 0.00 0.00 0.02 0.04 0.04 0.01 0.04 0.14 0.16 0.22 0.18 0.16 0.19 0.31 0.38 0.28 0.18 0.14 0.05 0.03
0.00 0.00 0.00 0.00 0.00 0.00 0.00 0.00 0.00 0.00 0.00 0.00 0.00 0.00 0.00 0.00 0.00 0.00 0.00 0.00 0.00 0.00 0.00 0.00 0.00 0.00 0.00 0.00 0.00 0.00 0.01 0.02 0.02 0.05 0.05 0.05 0.07 0.08 0.11 0.10 0.06 0.21 0.47 0.62 0.48 0.33 0.27 0.16 0.12
0.00 0.00 0.00 0.00 0.00 0.00 0.00 0.00 0.00 0.00 0.00 0.00 0.00 0.00 0.00 0.00 0.00 0.00 0.00 0.00 0.00 0.00 0.00 0.00 0.00 0.00 0.00 0.00 0.00 0.01 0.01 0.02 0.01 0.04 0.05 0.02 0.06 0.10 0.15 0.13 0.10 0.23 0.40 0.46 0.45 0.42 0.39 0.27 0.19
0.00 0.00 0.00 0.00 0.00 0.00 0.00 0.00 0.00 0.00 0.00 0.00 0.00 0.00 0.00 0.00 0.00 0.00 0.00 0.00 0.00 0.00 0.00 0.00 0.00 0.00 0.00 0.00 0.00 0.01 0.02 0.01 0.01 0.04 0.04 0.05 0.11 0.09 0.09 0.11 0.11 0.18 0.27 0.61 0.72 0.36 0.40 0.35 0.45
0.00 0.00 0.00 0.00 0.00 0.00 0.00 0.00 0.00 0.00 0.00 0.00 0.00 0.00 0.00 0.00 0.00 0.00 0.00 0.00 0.00 0.00 0.00 0.00 0.00 0.00 0.00 0.00 0.00 0.00 0.01 0.01 0.01 0.02 0.05 0.05 0.04 0.09 0.11 0.14 0.20 0.22 0.19 0.39 0.68 0.74 0.58 0.36 0.41
0.00 0.00 0.00 0.00 0.00 0.00 0.00 0.00 0.00 0.00 0.00 0.00 0.00 0.00 0.00 0.00 0.00 0.00 0.00 0.00 0.00 0.00 0.00 0.00 0.00 0.00 0.00 0.00 0.00 0.00 0.00 0.01 0.01 0.02 0.03 0.09 0.07 0.08 0.11 0.12 0.16 0.26 0.36 0.45 0.43 0.51 0.53 0.40 0.41
0.00 0.00 0.00 0.00 0.00 0.00 0.00 0.00 0.00 0.00 0.00 0.00 0.00 0.00 0.00 0.00 0.00 0.00 0.00 0.00 0.00 0.00 0.00 0.00 0.00 0.00 0.00 0.00 0.00 0.00 0.01 0.01 0.03 0.03 0.04 0.04 0.07 0.08 0.09 0.15 0.18 0.18 0.22 0.24 0.28 0.35 0.46 0.38 0.40
0.00 0.00 0.00 0.00 0.01 0.00 0.00 0.03 0.00 0.00 0.00 0.00 0.00 0.00 0.00 0.00 0.00 0.00 0.00 0.00 0.00 0.00 0.00 0.00 0.00 0.00 0.00 0.00 0.00 0.01 0.00 0.01 0.01 0.03 0.05 0.07 0.08 0.11 0.13 0.17 0.22 0.25 0.31 0.22 0.21 0.23 0.37 0.39 0.30
0.00 0.00 0.00 0.00 0.01 0.02 0.00 0.05 0.00 0.00 0.00 0.00 0.00 0.00 0.00 0.01 0.00 0.00 0.00 0.00 0.00 0.00 0.00 0.00 0.00 0.00 0.00 0.01 0.00 0.01 0.01 0.00 0.02 0.05 0.06 0.08 0.09 0.11 0.16 0.20 0.23 0.18 0.18 0.30 0.31 0.30 0.32 0.35 0.34
0.00 0.00 0.00 0.00 0.01 0.02 0.00 0.03 0.01 0.01 0.09 0.02 0.02 0.02 0.02 0.01 0.00 0.00 0.00 0.00 0.00 0.00 0.00 0.00 0.00 0.00 0.00 0.01 0.01 0.01 0.01 0.01 0.01 0.02 0.04 0.04 0.04 0.07 0.08 0.18 0.19 0.16 0.15 0.18 0.35 0.40 0.38 0.40 0.38
0.00 0.00 0.00 0.00 0.01 0.00 0.00 0.05 0.02 0.03 0.10 0.10 0.10 0.07 0.03 0.02 0.01 0.00 0.00 0.01 0.01 0.01 0.02 0.04 0.04 0.03 0.07 0.08 0.05 0.06 0.03 0.02 0.01 0.00 0.01 0.03 0.04 0.05 0.17 0.32 0.38 0.24 0.24 0.25 0.28 0.32 0.33 0.33 0.38
0.00 0.01 0.02 0.01 0.00 0.00 0.00 0.02 0.02 0.04 0.10 0.11 0.08 0.05 0.03 0.02 0.04 0.04 0.06 0.13 0.13 0.06 0.03 0.08 0.15 0.20 0.24 0.14 0.11 0.06 0.03 0.03 0.02 0.03 0.03 0.07 0.08 0.14 0.20 0.22 0.55 0.70 0.57 0.41 0.35 0.30 0.22 0.22 0.20
0.01 0.03 0.03 0.06 0.01 0.03 0.01 0.01 0.01 0.00 0.03 0.02 0.05 0.06 0.02 0.19 0.33 0.16 0.28 0.16 0.11 0.08 0.17 0.19 0.20 0.27 0.26 0.28 0.23 0.17 0.16 0.12 0.07 0.09 0.09 0.15 0.25 0.27 0.19 0.14 0.11 0.15 0.21 0.37 0.44 0.44 0.38 0.29 0.22
0.01 0.02 0.07 0.10 0.06 0.04 0.01 0.02 0.05 0.02 0.05 0.08 0.13 0.11 0.20 0.47 0.55 0.46 0.45 0.22 0.18 0.19 0.24 0.21 0.13 0.18 0.17 0.42 0.28 0.17 0.31 0.24 0.26 0.33 0.46 0.35 0.29 0.41 0.49 0.39 0.34 0.24 0.16 0.18 0.24 0.27 0.31 0.33 0.31
0.04 0.05 0.05 0.06 0.05 0.06 0.01 0.01 0.06 0.07 0.11 0.16 0.12 0.10 0.13 0.21 0.30 0.41 0.49 0.51 0.44 0.55 0.50 0.52 0.37 0.57 0.40 0.72 0.49 0.21 0.44 0.48 0.23 0.26 0.41 0.42 0.45 0.45 0.34 0.51 0.67 0.55 0.42 0.39 0.41 0.40 0.41 0.46 0.43
0.00 0.01 0.02 0.05 0.09 0.04 0.02 0.03 0.02 0.02 0.09 0.16 0.09 0.04 0.01 0.01 0.03 0.09 0.22 0.34 0.37 0.40 0.51 0.63 0.95 0.80 0.51 0.73 0.66 0.43 0.51 0.81 0.57 0.41 0.35 0.40 0.48 0.56 0.45 0.32 0.37 0.53 0.58 0.56 0.49 0.59 0.53 0.40 0.44

GFSSGP_prec_precacc24_141.txt.gz
Total_Precipitation_Accumulation
0.00 0.00 0.00 0.00 0.00 0.00 0.00 0.00 0.00 0.00 0.00 0.00 0.00 0.00 0.00 0.00 0.00 0.00 0.00 0.00 0.00 0.03 0.05 0.06 0.10 0.10 0.13 0.16 0.12 0.07 0.03 0.03 0.04 0.09 0.09 0.02 0.00 0.00 0.01 0.00 0.01 0.10 0.10 0.04 0.02 0.02 0.01 0.01 0.00
0.00 0.00 0.00 0.00 0.00 0.00 0.00 0.00 0.00 0.00 0.00 0.00 0.00 0.00 0.00 0.00 0.00 0.00 0.00 0.00 0.00 0.02 0.07 0.03 0.11 0.10 0.11 0.10 0.10 0.12 0.07 0.02 0.01 0.02 0.03 0.01 0.00 0.00 0.00 0.00 0.02 0.13 0.04 0.01 0.00 0.00 0.00 0.00 0.00
0.00 0.00 0.00 0.00 0.00 0.00 0.00 0.00 0.00 0.00 0.00 0.00 0.00 0.00 0.00 0.00 0.00 0.00 0.00 0.00 0.01 0.05 0.15 0.05 0.12 0.14 0.16 0.14 0.15 0.15 0.13 0.09 0.02 0.03 0.05 0.01 0.00 0.03 0.02 0.02 0.06 0.10 0.02 0.00 0.00 0.00 0.00 0.00 0.00
0.00 0.00 0.00 0.00 0.00 0.00 0.00 0.00 0.00 0.00 0.00 0.00 0.00 0.00 0.00 0.00 0.00 0.00 0.00 0.00 0.02 0.09 0.25 0.26 0.21 0.26 0.20 0.14 0.12 0.15 0.12 0.07 0.02 0.01 0.01 0.01 0.01 0.18 0.22 0.14 0.11 0.02 0.00 0.00 0.00 0.00 0.00 0.00 0.00
0.00 0.00 0.00 0.00 0.00 0.00 0.00 0.00 0.00 0.00 0.00 0.00 0.00 0.00 0.00 0.00 0.00 0.00 0.00 0.00 0.02 0.07 0.11 0.31 0.31 0.31 0.30 0.24 0.17 0.17 0.18 0.16 0.06 0.01 0.01 0.01 0.06 0.20 0.33 0.31 0.14 0.01 0.00 0.00 0.00 0.00 0.00 0.00 0.00
0.00 0.00 0.00 0.00 0.00 0.00 0.00 0.00 0.00 0.00 0.00 0.00 0.00 0.00 0.00 0.00 0.00 0.00 0.00 0.00 0.00 0.05 0.11 0.10 0.07 0.10 0.19 0.26 0.27 0.20 0.18 0.19 0.17 0.11 0.07 0.12 0.14 0.16 0.29 0.32 0.26 0.06 0.00 0.00 0.00 0.00 0.00 0.00 0.00
0.00 0.00 0.00 0.00 0.00 0.00 0.00 0.00 0.00 0.00 0.00 0.00 0.00 0.00 0.00 0.00 0.00 0.00 0.00 0.00 0.00 0.01 0.04 0.11 0.14 0.13 0.10 0.11 0.14 0.21 0.20 0.16 0.16 0.13 0.09 0.08 0.07 0.05 0.15 0.23 0.22 0.13 0.02 0.01 0.00 0.00 0.00 0.00 0.00
0.00 0.00 0.00 0.00 0.00 0.00 0.00 0.00 0.00 0.00 0.00 0.00 0.00 0.00 0.00 0.00 0.00 0.00 0.00 0.00 0.00 0.00 0.00 0.03 0.11 0.18 0.09 0.06 0.09 0.10 0.09 0.12 0.13 0.10 0.07 0.04 0.03 0.01 0.08 0.07 0.06 0.11 0.09 0.04 0.02 0.00 0.00 0.00 0.00
0.00 0.00 0.00 0.00 0.00 0.00 0.00 0.00 0.00 0.00 0.00 0.00 0.00 0.00 0.00 0.00 0.00 0.00 0.00 0.00 0.00 0.00 0.00 0.01 0.06 0.06 0.09 0.03 0.05 0.05 0.04 0.09 0.09 0.07 0.07 0.05 0.02 0.01 0.05 0.03 0.01 0.03 0.04 0.02 0.03 0.04 0.01 0.00 0.00
0.00 0.00 0.00 0.00 0.00 0.00 0.00 0.00 0.00 0.00 0.00 0.00 0.00 0.00 0.00 0.00 0.00 0.00 0.00 0.00 0.00 0.00 0.00 0.00 0.00 0.04 0.04 0.09 0.08 0.01 0.03 0.01 0.00 0.01 0.03 0.03 0.01 0.01 0.05 0.05 0.03 0.02 0.01 0.02 0.02 0.02 0.01 0.00 0.00
0.00 0.00 0.00 0.00 0.00 0.00 0.00 0.00 0.00 0.00 0.00 0.00 0.00 0.00 0.00 0.00 0.00 0.00 0.00 0.00 0.00 0.00 0.00 0.00 0.00 0.00 0.00 0.04 0.07 0.03 0.08 0.05 0.02 0.02 0.03 0.04 0.04 0.05 0.09 0.08 0.01 0.01 0.00 0.00 0.01 0.01 0.01 0.00 0.00
0.00 0.00 0.00 0.00 0.00 0.00 0.00 0.00 0.00 0.00 0.00 0.00 0.00 0.00 0.00 0.00 0.00 0.00 0.00 0.00 0.00 0.00 0.00 0.00 0.00 0.00 0.00 0.00 0.01 0.03 0.06 0.02 0.02 0.04 0.03 0.03 0.04 0.05 0.12 0.11 0.05 0.02 0.00 0.00 0.00 0.00 0.00 0.00 0.00
0.00 0.00 0.00 0.00 0.00 0.00 0.00 0.00 0.00 0.00 0.00 0.00 0.00 0.00 0.00 0.00 0.00 0.00 0.00 0.00 0.00 0.00 0.00 0.00 0.00 0.00 0.00 0.00 0.00 0.01 0.06 0.05 0.08 0.06 0.05 0.11 0.08 0.07 0.07 0.13 0.12 0.08 0.03 0.02 0.00 0.00 0.00 0.00 0.02
0.00 0.00 0.00 0.00 0.00 0.00 0.00 0.00 0.00 0.00 0.00 0.00 0.00 0.00 0.00 0.00 0.00 0.00 0.00 0.00 0.00 0.00 0.00 0.00 0.00 0.00 0.00 0.00 0.00 0.00 0.00 0.04 0.07 0.04 0.04 0.10 0.22 0.28 0.14 0.14 0.11 0.06 0.08 0.04 0.03 0.02 0.02 0.01 0.01
0.00 0.00 0.00 0.00 0.00 0.00 0.00 0.00 0.00 0.00 0.00 0.00 0.00 0.00 0.00 0.00 0.00 0.00 0.00 0.00 0.00 0.00 0.00 0.00 0.00 0.00 0.00 0.00 0.00 0.00 0.00 0.02 0.04 0.04 0.01 0.04 0.14 0.16 0.22 0.18 0.16 0.19 0.31 0.37 0.29 0.21 0.16 0.07 0.05
0.00 0.00 0.00 0.00 0.00 0.00 0.00 0.00 0.00 0.00 0.00 0.00 0.00 0.00 0.00 0.00 0.00 0.00 0.00 0.00 0.00 0.00 0.00 0.00 0.00 0.00 0.00 0.00 0.00 0.00 0.01 0.02 0.02 0.05 0.05 0.05 0.07 0.08 0.11 0.10 0.05 0.19 0.45 0.61 0.48 0.35 0.30 0.19 0.16
0.00 0.00 0.00 0.00 0.00 0.00 0.00 0.00 0.00 0.00 0.00 0.00 0.00 0.00 0.00 0.00 0.00 0.00 0.00 0.00 0.00 0.00 0.00 0.00 0.00 0.00 0.00 0.00 0.00 0.01 0.01 0.02 0.01 0.04 0.05 0.02 0.06 0.10 0.14 0.12 0.10 0.23 0.38 0.40 0.42 0.43 0.42 0.32 0.27
0.00 0.00 0.00 0.00 0.00 0.00 0.00 0.00 0.00 0.00 0.00 0.00 0.00 0.00 0.00 0.00 0.00 0.00 0.00 0.00 0.00 0.00 0.00 0.00 0.00 0.00 0.00 0.00 0.00 0.01 0.02 0.01 0.01 0.04 0.04 0.05 0.11 0.09 0.09 0.11 0.10 0.17 0.20 0.24 0.31 0.23 0.38 0.40 0.52
0.00 0.00 0.00 0.00 0.00 0.00 0.00 0.00 0.00 0.00 0.00 0.00 0.00 0.00 0.00 0.00 0.00 0.00 0.00 0.00 0.00 0.00 0.00 0.00 0.00 0.00 0.00 0.00 0.00 0.00 0.01 0.01 0.01 0.02 0.05 0.05 0.04 0.09 0.11 0.13 0.20 0.20 0.14 0.16 0.30 0.43 0.44 0.32 0.43
0.00 0.00 0.00 0.00 0.00 0.00 0.00 0.00 0.00 0.00 0.00 0.00 0.00 0.00 0.00 0.00 0.00 0.00 0.00 0.00 0.00 0.00 0.00 0.00 0.00 0.00 0.00 0.00 0.00 0.00 0.00 0.01 0.01 0.02 0.03 0.09 0.07 0.07 0.11 0.11 0.15 0.24 0.23 0.23 0.25 0.31 0.37 0.34 0.41
0.00 0.00 0.00 0.00 0.00 0.00 0.00 0.00 0.00 0.00 0.00 0.00 0.00 0.00 0.00 0.00 0.00 0.00 0.00 0.00 0.00 0.00 0.00 0.00 0.00 0.00 0.00 0.00 0.00 0.00 0.00 0.01 0.03 0.03 0.04 0.04 0.06 0.07 0.07 0.12 0.15 0.16 0.19 0.19 0.21 0.25 0.34 0.31 0.40
0.00 0.00 0.00 0.00 0.00 0.00 0.00 0.00 0.00 0.00 0.00 0.00 0.00 0.00 0.00 0.00 0.00 0.00 0.00 0.00 0.00 0.00 0.00 0.00 0.00 0.00 0.00 0.00 0.00 0.01 0.00 0.01 0.01 0.03 0.05 0.07 0.07 0.10 0.10 0.14 0.19 0.22 0.30 0.22 0.20 0.21 0.33 0.38 0.30
0.00 0.00 0.00 0.00 0.00 0.01 0.00 0.01 0.00 0.00 0.00 0.00 0.00 0.00 0.00 0.00 0.00 0.00 0.00 0.00 0.00 0.00 0.00 0.00 0.00 0.00 0.00 0.00 0.00 0.01 0.01 0.01 0.02 0.05 0.06 0.08 0.09 0.11 0.15 0.17 0.20 0.17 0.19 0.32 0.34 0.31 0.32 0.34 0.35
0.00 0.00 0.00 0.00 0.01 0.01 0.00 0.01 0.00 0.00 0.03 0.01 0.01 0.01 0.00 0.00 0.00 0.00 0.00 0.00 0.00 0.00 0.00 0.00 0.00 0.00 0.00 0.00 0.01 0.01 0.01 0.02 0.01 0.02 0.04 0.03 0.04 0.05 0.06 0.14 0.14 0.13 0.13 0.18 0.36 0.39 0.35 0.36 0.32
0.00 0.00 0.00 0.00 0.01 0.00 0.00 0.01 0.01 0.00 0.02 0.05 0.07 0.03 0.02 0.02 0.01 0.00 0.00 0.01 0.01 0.01 0.01 0.03 0.02 0.01 0.01 0.00 0.00 0.01 0.02 0.02 0.01 0.00 0.02 0.03 0.03 0.04 0.12 0.10 0.16 0.14 0.16 0.18 0.20 0.27 0.28 0.28 0.31
0.00 0.00 0.01 0.01 0.00 0.00 0.00 0.01 0.01 0.00 0.01 0.05 0.06 0.03 0.02 0.02 0.02 0.02 0.06 0.12 0.11 0.04 0.02 0.07 0.12 0.15 0.15 0.06 0.04 0.04 0.02 0.03 0.02 0.02 0.02 0.05 0.09 0.13 0.17 0.14 0.20 0.26 0.28 0.24 0.30 0.27 0.17 0.19 0.17
0.01 0.02 0.01 0.03 0.01 0.02 0.01 0.01 0.00 0.00 0.00 0.01 0.03 0.02 0.01 0.10 0.14 0.09 0.21 0.14 0.09 0.04 0.06 0.07 0.12 0.15 0.15 0.17 0.18 0.13 0.09 0.05 0.03 0.02 0.03 0.05 0.09 0.13 0.12 0.07 0.06 0.09 0.11 0.25 0.37 0.41 0.36 0.27 0.22
0.01 0.02 0.05 0.07 0.05 0.03 0.00 0.01 0.02 0.00 0.01 0.02 0.03 0.04 0.06 0.16 0.23 0.18 0.26 0.08 0.07 0.07 0.06 0.08 0.06 0.06 0.06 0.07 0.05 0.06 0.10 0.08 0.12 0.17 0.20 0.22 0.16 0.21 0.32 0.29 0.26 0.15 0.07 0.09 0.14 0.20 0.27 0.31 0.31
0.02 0.02 0.02 0.04 0.03 0.03 0.01 0.00 0.01 0.01 0.02 0.02 0.00 0.00 0.01 0.06 0.12 0.16 0.14 0.10 0.06 0.27 0.31 0.28 0.12 0.18 0.21 0.38 0.24 0.10 0.31 0.41 0.20 0.22 0.31 0.31 0.31 0.30 0.21 0.26 0.39 0.38 0.26 0.22 0.27 0.29 0.32 0.37 0.36
0.00 0.01 0.01 0.03 0.05 0.02 0.02 0.01 0.00 0.00 0.02 0.05 0.01 0.00 0.00 0.00 0.01 0.03 0.07 0.11 0.11 0.15 0.24 0.37 0.46 0.45 0.33 0.57 0.53 0.34 0.38 0.71 0.48 0.37 0.29 0.32 0.41 0.47 0.38 0.27 0.30 0.44 0.50 0.47 0.40 0.50 0.49 0.38 0.42

GFSSGP_prec_precacc24_144.txt.gz
Total_Precipitation_Accumulation
0.00 0.00 0.00 0.00 0.00 0.00 0.00 0.00 0.00 0.00 0.00 0.00 0.00 0.00 0.00 0.00 0.00 0.00 0.00 0.00 0.00 0.03 0.05 0.07 0.10 0.13 0.18 0.24 0.19 0.07 0.02 0.02 0.04 0.07 0.07 0.01 0.00 0.00 0.01 0.00 0.01 0.13 0.11 0.04 0.01 0.01 0.01 0.01 0.01
0.00 0.00 0.00 0.00 0.00 0.00 0.00 0.00 0.00 0.00 0.00 0.00 0.00 0.00 0.00 0.00 0.00 0.00 0.00 0.00 0.00 0.02 0.06 0.03 0.11 0.11 0.13 0.15 0.16 0.17 0.07 0.02 0.01 0.02 0.02 0.01 0.00 0.00 0.00 0.00 0.02 0.14 0.05 0.01 0.00 0.00 0.00 0.00 0.00
0.00 0.00 0.00 0.00 0.00 0.00 0.00 0.00 0.00 0.00 0.00 0.00 0.00 0.00 0.00 0.00 0.00 0.00 0.00 0.00 0.01 0.05 0.17 0.08 0.13 0.15 0.16 0.14 0.17 0.18 0.19 0.14 0.04 0.03 0.04 0.01 0.00 0.01 0.00 0.00 0.02 0.10 0.02 0.00 0.00 0.00 0.00 0.00 0.01
0.00 0.00 0.00 0.00 0.00 0.00 0.00 0.00 0.00 0.00 0.00 0.00 0.00 0.00 0.00 0.00 0.00 0.00 0.00 0.00 0.02 0.09 0.30 0.36 0.23 0.26 0.19 0.14 0.13 0.15 0.13 0.11 0.06 0.01 0.01 0.01 0.01 0.08 0.08 0.07 0.06 0.02 0.00 0.00 0.00 0.00 0.00 0.00 0.01
0.00 0.00 0.00 0.00 0.00 0.00 0.00 0.00 0.00 0.00 0.00 0.00 0.00 0.00 0.00 0.00 0.00 0.00 0.00 0.00 0.01 0.06 0.12 0.32 0.31 0.29 0.26 0.18 0.12 0.16 0.20 0.21 0.13 0.04 0.00 0.00 0.05 0.13 0.19 0.20 0.12 0.01 0.00 0.00 0.00 0.00 0.00 0.00 0.00
0.00 0.00 0.00 0.00 0.00 0.00 0.00 0.00 0.00 0.00 0.00 0.00 0.00 0.00 0.00 0.00 0.00 0.00 0.00 0.00 0.00 0.03 0.08 0.09 0.06 0.10 0.18 0.21 0.20 0.15 0.17 0.20 0.22 0.17 0.13 0.14 0.13 0.15 0.20 0.22 0.24 0.06 0.00 0.00 0.00 0.00 0.00 0.00 0.00
0.00 0.00 0.00 0.00 0.00 0.00 0.00 0.00 0.00 0.00 0.00 0.00 0.00 0.00 0.00 0.00 0.00 0.00 0.00 0.00 0.00 0.00 0.02 0.06 0.09 0.11 0.09 0.11 0.13 0.19 0.17 0.13 0.13 0.11 0.09 0.07 0.06 0.04 0.11 0.18 0.21 0.13 0.02 0.02 0.01 0.00 0.00 0.00 0.00
0.00 0.00 0.00 0.00 0.00 0.00 0.00 0.00 0.00 0.00 0.00 0.00 0.00 0.00 0.00 0.00 0.00 0.00 0.00 0.00 0.00 0.00 0.00 0.02 0.05 0.10 0.07 0.06 0.08 0.10 0.09 0.08 0.10 0.08 0.05 0.03 0.02 0.00 0.04 0.04 0.05 0.12 0.11 0.08 0.06 0.04 0.01 0.00 0.00
0.00 0.00 0.00 0.00 0.00 0.00 0.00 0.00 0.00 0.00 0.00 0.00 0.00 0.00 0.00 0.00 0.00 0.00 0.00 0.00 0.00 0.00 0.00 0.00 0.00 0.03 0.04 0.02 0.02 0.02 0.04 0.07 0.07 0.06 0.07 0.05 0.02 0.02 0.03 0.01 0.00 0.03 0.04 0.03 0.06 0.08 0.06 0.02 0.00
0.00 0.00 0.00 0.00 0.00 0.00 0.00 0.00 0.00 0.00 0.00 0.00 0.00 0.00 0.00 0.00 0.00 0.00 0.00 0.00 0.00 0.00 0.00 0.00 0.00 0.00 0.03 0.06 0.03 0.00 0.00 0.00 0.00 0.01 0.03 0.06 0.06 0.05 0.05 0.03 0.02 0.02 0.01 0.02 0.03 0.04 0.03 0.01 0.00
0.00 0.00 0.00 0.00 0.00 0.00 0.00 0.00 0.00 0.00 0.00 0.00 0.00 0.00 0.00 0.00 0.00 0.00 0.00 0.00 0.00 0.00 0.00 0.00 0.00 0.00 0.00 0.01 0.05 0.02 0.02 0.02 0.02 0.02 0.02 0.02 0.02 0.06 0.11 0.09 0.03 0.01 0.00 0.00 0.01 0.02 0.04 0.03 0.04
0.00 0.00 0.00 0.00 0.00 0.00 0.00 0.00 0.00 0.00 0.00 0.00 0.00 0.00 0.00 0.00 0.00 0.00 0.00 0.00 0.00 0.00 0.00 0.00 0.00 0.00 0.00 0.00 0.01 0.03 0.05 0.02 0.01 0.02 0.02 0.03 0.03 0.03 0.09 0.08 0.06 0.05 0.03 0.01 0.01 0.00 0.00 0.00 0.02
0.00 0.00 0.00 0.00 0.00 0.00 0.00 0.00 0.00 0.00 0.00 0.00 0.00 0.00 0.00 0.00 0.00 0.00 0.00 0.00 0.00 0.00 0.00 0.00 0.00 0.00 0.00 0.00 0.00 0.01 0.06 0.05 0.04 0.04 0.04 0.03 0.04 0.05 0.06 0.08 0.08 0.07 0.04 0.02 0.03 0.02 0.00 0.00 0.02
0.00 0.00 0.00 0.00 0.00 0.00 0.00 0.00 0.00 0.00 0.00 0.00 0.00 0.00 0.00 0.00 0.00 0.00 0.00 0.00 0.00 0.00 0.00 0.00 0.00 0.00 0.00 0.00 0.00 0.00 0.00 0.04 0.07 0.04 0.04 0.07 0.17 0.19 0.10 0.10 0.08 0.06 0.08 0.05 0.04 0.04 0.04 0.01 0.01
0.00 0.00 0.00 0.00 0.00 0.00 0.00 0.00 0.00 0.00 0.00 0.00 0.00 0.00 0.00 0.00 0.00 0.00 0.00 0.00 0.00 0.00 0.00 0.00 0.00 0.00 0.00 0.00 0.00 0.00 0.00 0.02 0.04 0.04 0.01 0.04 0.13 0.13 0.19 0.15 0.14 0.18 0.30 0.38 0.29 0.21 0.19 0.09 0.06
0.00 0.00 0.00 0.00 0.00 0.00 0.00 0.00 0.00 0.00 0.00 0.00 0.00 0.00 0.00 0.00 0.00 0.00 0.00 0.00 0.00 0.00 0.00 0.00 0.00 0.00 0.00 0.00 0.00 0.00 0.01 0.02 0.02 0.05 0.05 0.05 0.07 0.08 0.10 0.10 0.05 0.17 0.42 0.59 0.49 0.36 0.31 0.20 0.17
0.00 0.00 0.00 0.00 0.00 0.00 0.00 0.00 0.00 0.00 0.00 0.00 0.00 0.00 0.00 0.00 0.00 0.00 0.00 0.00 0.00 0.00 0.00 0.00 0.00 0.00 0.00 0.00 0.00 0.00 0.00 0.01 0.01 0.04 0.05 0.02 0.06 0.10 0.14 0.12 0.10 0.23 0.37 0.39 0.41 0.43 0.43 0.34 0.29
0.00 0.00 0.00 0.00 0.00 0.00 0.00 0.00 0.00 0.00 0.00 0.00 0.00 0.00 0.00 0.00 0.00 0.00 0.00 0.00 0.00 0.00 0.00 0.00 0.00 0.00 0.00 0.00 0.00 0.00 0.01 0.01 0.01 0.04 0.04 0.05 0.11 0.09 0.09 0.10 0.10 0.16 0.20 0.24 0.31 0.24 0.39 0.42 0.54
0.00 0.00 0.00 0.00 0.00 0.00 0.00 0.00 0.00 0.00 0.00 0.00 0.00 0.00 0.00 0.00 0.00 0.00 0.00 0.00 0.00 0.00 0.00 0.00 0.00 0.00 0.00 0.00 0.00 0.00 0.01 0.01 0.01 0.02 0.05 0.05 0.04 0.09 0.11 0.13 0.19 0.20 0.13 0.15 0.29 0.40 0.44 0.33 0.44
0.00 0.00 0.00 0.00 0.00 0.00 0.00 0.00 0.00 0.00 0.00 0.00 0.00 0.00 0.00 0.00 0.00 0.00 0.00 0.00 0.00 0.00 0.00 0.00 0.00 0.00 0.00 0.00 0.00 0.00 0.00 0.01 0.01 0.02 0.03 0.09 0.07 0.07 0.11 0.11 0.14 0.23 0.22 0.22 0.24 0.29 0.34 0.32 0.43
0.00 0.00 0.00 0.00 0.00 0.00 0.00 0.00 0.00 0.00 0.00 0.00 0.00 0.00 0.00 0.00 0.00 0.00 0.00 0.00 0.00 0.00 0.00 0.00 0.00 0.00 0.00 0.00 0.00 0.00 0.00 0.01 0.03 0.03 0.04 0.04 0.06 0.07 0.07 0.11 0.15 0.15 0.18 0.18 0.20 0.24 0.31 0.26 0.38
0.00 0.00 0.00 0.00 0.00 0.00 0.00 0.00 0.00 0.00 0.00 0.00 0.00 0.00 0.00 0.00 0.00 0.00 0.00 0.00 0.00 0.00 0.00 0.00 0.00 0.00 0.00 0.00 0.00 0.00 0.01 0.01 0.01 0.03 0.05 0.07 0.07 0.10 0.10 0.13 0.18 0.20 0.27 0.19 0.18 0.21 0.34 0.41 0.30
0.00 0.00 0.00 0.00 0.00 0.00 0.00 0.00 0.00 0.00 0.00 0.00 0.00 0.00 0.00 0.00 0.00 0.00 0.00 0.00 0.00 0.00 0.00 0.00 0.00 0.00 0.00 0.00 0.00 0.00 0.01 0.00 0.02 0.04 0.05 0.08 0.09 0.10 0.15 0.17 0.19 0.16 0.17 0.31 0.33 0.31 0.35 0.36 0.36
0.00 0.00 0.00 0.00 0.00 0.00 0.00 0.00 0.00 0.00 0.00 0.00 0.00 0.00 0.00 0.00 0.00 0.00 0.00 0.00 0.00 0.00 0.00 0.00 0.00 0.00 0.00 0.00 0.00 0.01 0.01 0.01 0.01 0.02 0.03 0.03 0.04 0.05 0.06 0.13 0.13 0.12 0.12 0.17 0.35 0.41 0.37 0.38 0.33
0.00 0.00 0.00 0.00 0.00 0.00 0.00 0.00 0.00 0.00 0.00 0.00 0.01 0.01 0.00 0.00 0.00 0.00 0.00 0.01 0.01 0.01 0.01 0.03 0.02 0.01 0.01 0.00 0.00 0.00 0.00 0.00 0.00 0.00 0.01 0.02 0.04 0.04 0.11 0.10 0.15 0.13 0.15 0.16 0.19 0.26 0.28 0.27 0.31
0.00 0.00 0.01 0.00 0.00 0.00 0.00 0.00 0.00 0.00 0.00 0.01 0.01 0.01 0.00 0.00 0.01 0.01 0.03 0.10 0.10 0.03 0.01 0.05 0.10 0.12 0.14 0.06 0.01 0.00 0.00 0.01 0.01 0.01 0.02 0.05 0.08 0.13 0.17 0.14 0.20 0.23 0.20 0.16 0.16 0.16 0.14 0.17 0.15
0.00 0.01 0.01 0.01 0.00 0.01 0.00 0.00 0.00 0.00 0.00 0.00 0.00 0.00 0.00 0.02 0.04 0.03 0.08 0.10 0.08 0.02 0.01 0.03 0.09 0.12 0.10 0.08 0.10 0.07 0.06 0.04 0.03 0.02 0.03 0.04 0.08 0.11 0.09 0.06 0.06 0.08 0.06 0.09 0.16 0.23 0.25 0.22 0.19
0.00 0.01 0.02 0.04 0.02 0.02 0.00 0.00 0.00 0.00 0.00 0.00 0.00 0.00 0.00 0.02 0.03 0.04 0.08 0.06 0.07 0.04 0.03 0.04 0.03 0.04 0.04 0.03 0.04 0.03 0.01 0.01 0.02 0.06 0.05 0.07 0.05 0.07 0.08 0.07 0.18 0.11 0.05 0.05 0.08 0.12 0.15 0.18 0.19
0.01 0.01 0.01 0.02 0.01 0.02 0.01 0.00 0.00 0.00 0.00 0.00 0.00 0.00 0.00 0.00 0.00 0.02 0.04 0.04 0.02 0.05 0.10 0.08 0.03 0.03 0.04 0.05 0.03 0.02 0.03 0.07 0.03 0.03 0.05 0.08 0.13 0.18 0.14 0.14 0.25 0.32 0.21 0.14 0.18 0.19 0.22 0.28 0.25
0.00 0.01 0.01 0.03 0.04 0.01 0.02 0.01 0.00 0.00 0.00 0.01 0.00 0.00 0.00 0.00 0.00 0.00 0.01 0.03 0.03 0.03 0.09 0.15 0.11 0.09 0.05 0.06 0.05 0.07 0.12 0.44 0.38 0.24 0.16 0.21 0.26 0.33 0.28 0.19 0.20 0.29 0.40 0.41 0.32 0.41 0.40 0.34 0.39

GFSSGP_prec_precacc24_147.txt.gz
Total_Precipitation_Accumulation
0.00 0.00 0.00 0.00 0.00 0.00 0.00 0.00 0.00 0.00 0.00 0.00 0.00 0.00 0.00 0.00 0.00 0.01 0.00 0.00 0.00 0.03 0.04 0.08 0.10 0.14 0.21 0.28 0.20 0.07 0.02 0.01 0.03 0.04 0.04 0.01 0.00 0.00 0.01 0.00 0.01 0.16 0.12 0.03 0.01 0.01 0.00 0.01 0.01
0.00 0.00 0.00 0.00 0.00 0.00 0.00 0.00 0.00 0.00 0.00 0.00 0.00 0.00 0.00 0.00 0.00 0.00 0.00 0.00 0.00 0.02 0.05 0.07 0.12 0.11 0.13 0.17 0.19 0.17 0.07 0.02 0.01 0.01 0.02 0.00 0.00 0.00 0.00 0.00 0.03 0.16 0.07 0.01 0.00 0.00 0.00 0.01 0.01
0.00 0.00 0.00 0.00 0.00 0.00 0.00 0.00 0.00 0.00 0.00 0.00 0.00 0.00 0.00 0.00 0.00 0.00 0.00 0.00 0.01 0.05 0.18 0.13 0.14 0.15 0.14 0.13 0.20 0.22 0.27 0.19 0.05 0.02 0.04 0.00 0.00 0.00 0.00 0.00 0.02 0.11 0.02 0.00 0.00 0.00 0.00 0.00 0.01
0.00 0.00 0.00 0.00 0.00 0.00 0.00 0.00 0.00 0.00 0.00 0.00 0.00 0.00 0.00 0.00 0.00 0.00 0.00 0.00 0.02 0.08 0.25 0.33 0.24 0.25 0.17 0.12 0.13 0.16 0.18 0.19 0.14 0.04 0.01 0.00 0.00 0.02 0.02 0.02 0.01 0.03 0.01 0.00 0.00 0.00 0.00 0.00 0.01
0.00 0.00 0.00 0.00 0.00 0.00 0.00 0.00 0.00 0.00 0.00 0.00 0.00 0.00 0.00 0.00 0.00 0.00 0.00 0.00 0.01 0.04 0.12 0.31 0.30 0.26 0.23 0.15 0.10 0.14 0.20 0.22 0.16 0.10 0.05 0.01 0.03 0.08 0.10 0.07 0.04 0.01 0.00 0.00 0.00 0.00 0.00 0.00 0.00
0.00 0.00 0.00 0.00 0.00 0.00 0.00 0.00 0.00 0.00 0.00 0.00 0.00 0.00 0.00 0.00 0.00 0.00 0.00 0.00 0.00 0.01 0.04 0.08 0.06 0.10 0.16 0.17 0.16 0.12 0.15 0.18 0.20 0.16 0.14 0.14 0.13 0.12 0.13 0.12 0.17 0.05 0.00 0.00 0.00 0.00 0.00 0.00 0.00
0.00 0.00 0.00 0.00 0.00 0.00 0.00 0.00 0.00 0.00 0.00 0.00 0.00 0.00 0.00 0.00 0.00 0.00 0.00 0.00 0.00 0.00 0.00 0.02 0.08 0.11 0.08 0.08 0.10 0.15 0.14 0.12 0.11 0.10 0.08 0.05 0.04 0.05 0.07 0.12 0.16 0.12 0.02 0.03 0.02 0.00 0.00 0.00 0.00
0.00 0.00 0.00 0.00 0.00 0.00 0.00 0.00 0.00 0.00 0.00 0.00 0.00 0.00 0.00 0.00 0.00 0.00 0.00 0.00 0.00 0.00 0.00 0.00 0.02 0.07 0.07 0.06 0.07 0.07 0.06 0.05 0.07 0.07 0.04 0.01 0.00 0.00 0.01 0.01 0.03 0.11 0.11 0.09 0.08 0.05 0.02 0.00 0.00
0.00 0.00 0.00 0.00 0.00 0.00 0.00 0.00 0.00 0.00 0.00 0.00 0.00 0.00 0.00 0.00 0.00 0.00 0.00 0.00 0.00 0.00 0.00 0.00 0.00 0.02 0.02 0.01 0.02 0.02 0.04 0.05 0.05 0.06 0.08 0.05 0.02 0.03 0.06 0.05 0.00 0.01 0.04 0.03 0.06 0.08 0.07 0.02 0.00
0.00 0.00 0.00 0.00 0.00 0.00 0.00 0.00 0.00 0.00 0.00 0.00 0.00 0.00 0.00 0.00 0.00 0.00 0.00 0.00 0.00 0.00 0.00 0.00 0.00 0.00 0.02 0.05 0.03 0.00 0.00 0.00 0.00 0.01 0.04 0.08 0.08 0.07 0.04 0.04 0.00 0.00 0.01 0.02 0.03 0.04 0.03 0.01 0.01
0.00 0.00 0.00 0.00 0.00 0.00 0.00 0.00 0.00 0.00 0.00 0.00 0.00 0.00 0.00 0.00 0.00 0.00 0.00 0.00 0.00 0.00 0.00 0.00 0.00 0.00 0.00 0.01 0.04 0.01 0.00 0.00 0.01 0.02 0.02 0.02 0.02 0.04 0.08 0.09 0.05 0.02 0.01 0.00 0.01 0.02 0.04 0.03 0.05
0.00 0.00 0.00 0.00 0.00 0.00 0.00 0.00 0.00 0.00 0.00 0.00 0.00 0.00 0.00 0.00 0.00 0.00 0.00 0.00 0.00 0.00 0.00 0.00 0.00 0.00 0.00 0.00 0.00 0.02 0.03 0.01 0.01 0.02 0.02 0.03 0.03 0.01 0.03 0.04 0.06 0.07 0.06 0.03 0.02 0.01 0.00 0.00 0.02
0.00 0.00 0.00 0.00 0.00 0.00 0.00 0.00 0.00 0.00 0.00 0.00 0.00 0.00 0.00 0.00 0.00 0.00 0.00 0.00 0.00 0.00 0.00 0.00 0.00 0.00 0.00 0.00 0.00 0.01 0.06 0.05 0.04 0.04 0.04 0.02 0.01 0.02 0.03 0.03 0.02 0.03 0.03 0.03 0.05 0.04 0.02 0.02 0.03
0.00 0.00 0.00 0.00 0.00 0.00 0.00 0.00 0.00 0.00 0.00 0.00 0.00 0.00 0.00 0.00 0.00 0.00 0.00 0.00 0.00 0.00 0.00 0.00 0.00 0.00 0.00 0.00 0.00 0.00 0.00 0.04 0.07 0.04 0.04 0.06 0.16 0.13 0.04 0.04 0.04 0.02 0.02 0.03 0.04 0.06 0.07 0.04 0.03
0.00 0.00 0.00 0.00 0.00 0.00 0.00 0.00 0.00 0.00 0.00 0.00 0.00 0.00 0.00 0.00 0.00 0.00 0.00 0.00 0.00 0.00 0.00 0.00 0.00 0.00 0.00 0.00 0.00 0.00 0.00 0.02 0.04 0.04 0.01 0.04 0.12 0.11 0.13 0.09 0.07 0.09 0.20 0.29 0.27 0.21 0.21 0.13 0.10
0.00 0.00 0.00 0.00 0.00 0.00 0.00 0.00 0.00 0.00 0.00 0.00 0.00 0.00 0.00 0.00 0.00 0.00 0.00 0.00 0.00 0.00 0.00 0.00 0.00 0.00 0.00 0.00 0.00 0.00 0.00 0.01 0.02 0.05 0.05 0.05 0.06 0.07 0.09 0.08 0.03 0.14 0.34 0.50 0.45 0.36 0.32 0.22 0.20
0.00 0.00 0.00 0.00 0.00 0.00 0.00 0.00 0.00 0.00 0.00 0.00 0.00 0.00 0.00 0.00 0.00 0.00 0.00 0.00 0.00 0.00 0.00 0.00 0.00 0.00 0.00 0.00 0.00 0.00 0.00 0.00 0.01 0.04 0.05 0.02 0.06 0.10 0.14 0.12 0.10 0.22 0.34 0.37 0.40 0.43 0.43 0.35 0.30
0.00 0.00 0.00 0.00 0.00 0.00 0.00 0.00 0.00 0.00 0.00 0.00 0.00 0.00 0.00 0.00 0.00 0.00 0.00 0.00 0.00 0.00 0.00 0.00 0.00 0.00 0.00 0.00 0.00 0.00 0.00 0.00 0.01 0.03 0.04 0.05 0.11 0.09 0.09 0.10 0.10 0.16 0.19 0.22 0.30 0.23 0.39 0.42 0.55
0.00 0.00 0.00 0.00 0.00 0.00 0.00 0.00 0.00 0.00 0.00 0.00 0.00 0.00 0.00 0.00 0.00 0.00 0.00 0.00 0.00 0.00 0.00 0.00 0.00 0.00 0.00 0.00 0.00 0.00 0.00 0.00 0.00 0.02 0.05 0.05 0.04 0.09 0.11 0.13 0.19 0.20 0.13 0.15 0.28 0.38 0.42 0.32 0.43
0.00 0.00 0.00 0.00 0.00 0.00 0.00 0.00 0.00 0.00 0.00 0.00 0.00 0.00 0.00 0.00 0.00 0.00 0.00 0.00 0.00 0.00 0.00 0.00 0.00 0.00 0.00 0.00 0.00 0.00 0.00 0.00 0.00 0.01 0.03 0.09 0.07 0.07 0.11 0.11 0.14 0.23 0.22 0.21 0.22 0.27 0.32 0.31 0.41
0.00 0.00 0.00 0.00 0.00 0.00 0.00 0.00 0.00 0.00 0.00 0.00 0.00 0.00 0.00 0.00 0.00 0.00 0.00 0.00 0.00 0.00 0.00 0.00 0.00 0.00 0.00 0.00 0.00 0.00 0.00 0.00 0.02 0.02 0.03 0.04 0.06 0.07 0.07 0.11 0.15 0.15 0.17 0.17 0.19 0.23 0.29 0.24 0.36
0.00 0.00 0.00 0.00 0.00 0.00 0.00 0.00 0.00 0.00 0.00 0.00 0.00 0.00 0.00 0.00 0.00 0.00 0.00 0.00 0.00 0.00 0.00 0.00 0.00 0.00 0.00 0.00 0.00 0.00 0.00 0.00 0.00 0.02 0.04 0.07 0.07 0.10 0.10 0.13 0.18 0.20 0.26 0.18 0.17 0.20 0.33 0.39 0.29
0.00 0.00 0.00 0.00 0.00 0.00 0.00 0.00 0.00 0.00 0.00 0.00 0.00 0.00 0.00 0.00 0.00 0.00 0.00 0.00 0.00 0.00 0.00 0.00 0.00 0.00 0.00 0.00 0.00 0.00 0.01 0.00 0.00 0.01 0.03 0.07 0.09 0.10 0.15 0.17 0.19 0.16 0.17 0.30 0.31 0.29 0.33 0.35 0.35
0.00 0.00 0.00 0.00 0.00 0.00 0.00 0.00 0.00 0.00 0.00 0.00 0.00 0.00 0.00 0.00 0.00 0.00 0.00 0.00 0.00 0.00 0.00 0.00 0.00 0.00 0.00 0.00 0.00 0.01 0.01 0.00 0.00 0.00 0.01 0.03 0.04 0.05 0.06 0.13 0.12 0.12 0.11 0.17 0.34 0.38 0.34 0.37 0.33
0.00 0.00 0.00 0.00 0.00 0.00 0.00 0.00 0.00 0.00 0.00 0.00 0.00 0.00 0.00 0.00 0.00 0.00 0.00 0.00 0.01 0.00 0.01 0.03 0.02 0.01 0.01 0.00 0.00 0.00 0.00 0.00 0.00 0.00 0.01 0.02 0.03 0.03 0.10 0.10 0.15 0.12 0.15 0.16 0.19 0.25 0.27 0.26 0.30
0.00 0.00 0.00 0.00 0.00 0.00 0.00 0.00 0.00 0.00 0.00 0.00 0.00 0.00 0.00 0.00 0.00 0.00 0.00 0.01 0.05 0.02 0.01 0.04 0.10 0.08 0.11 0.05 0.01 0.00 0.00 0.00 0.00 0.00 0.02 0.04 0.07 0.12 0.16 0.13 0.19 0.23 0.20 0.16 0.14 0.13 0.11 0.16 0.15
0.00 0.00 0.00 0.00 0.00 0.00 0.00 0.00 0.00 0.00 0.00 0.00 0.00 0.00 0.00 0.00 0.00 0.00 0.01 0.02 0.04 0.01 0.01 0.01 0.05 0.07 0.06 0.04 0.05 0.03 0.02 0.02 0.02 0.01 0.02 0.03 0.07 0.10 0.08 0.06 0.05 0.08 0.05 0.08 0.15 0.17 0.17 0.17 0.17
0.00 0.00 0.00 0.00 0.00 0.01 0.00 0.00 0.00 0.00 0.00 0.00 0.00 0.00 0.00 0.00 0.00 0.00 0.01 0.02 0.04 0.03 0.02 0.01 0.01 0.00 0.00 0.01 0.03 0.03 0.01 0.00 0.01 0.03 0.03 0.04 0.04 0.06 0.08 0.03 0.11 0.06 0.02 0.03 0.07 0.10 0.13 0.15 0.17
0.00 0.00 0.00 0.01 0.00 0.01 0.01 0.00 0.00 0.00 0.00 0.00 0.00 0.00 0.00 0.00 0.00 0.00 0.01 0.02 0.01 0.02 0.07 0.07 0.01 0.01 0.01 0.02 0.02 0.01 0.01 0.01 0.02 0.02 0.03 0.04 0.04 0.05 0.06 0.06 0.07 0.07 0.08 0.07 0.11 0.15 0.19 0.22 0.18
0.00 0.00 0.00 0.01 0.02 0.01 0.02 0.00 0.00 0.00 0.00 0.00 0.00 0.00 0.00 0.00 0.00 0.00 0.00 0.01 0.01 0.00 0.05 0.09 0.06 0.01 0.00 0.00 0.00 0.02 0.03 0.02 0.03 0.04 0.03 0.04 0.05 0.04 0.04 0.05 0.08 0.17 0.25 0.32 0.25 0.30 0.34 0.29 0.33